<?xml version='1.0' encoding='UTF-8'?><gpx version="1.1" creator="JPX - https://github.com/jenetics/jpx" xmlns="http://www.topografix.com/GPX/1/1"><trk><trkseg><trkpt lat="44.05035795003567" lon="10.093542933565235"><ele>148.0</ele><time>2026-03-28T09:39:51Z</time></trkpt><trkpt lat="44.05027416923193" lon="10.093640110738628"><ele>148.0</ele><time>2026-03-28T09:39:52Z</time></trkpt><trkpt lat="44.05015542826369" lon="10.09367215526475"><ele>148.0</ele><time>2026-03-28T09:39:54Z</time></trkpt><trkpt lat="44.050070822684724" lon="10.093799008827977"><ele>148.0</ele><time>2026-03-28T09:39:56Z</time></trkpt><trkpt lat="44.04999913292146" lon="10.093918631293109"><ele>146.20000000000002</ele><time>2026-03-28T09:39:58Z</time></trkpt><trkpt lat="44.04989835212165" lon="10.094020995673244"><ele>144.4</ele><time>2026-03-28T09:40:00Z</time></trkpt><trkpt lat="44.049831595482644" lon="10.094008729032298"><ele>142.60000000000002</ele><time>2026-03-28T09:40:01Z</time></trkpt><trkpt lat="44.04971588667613" lon="10.09406105568999"><ele>140.8</ele><time>2026-03-28T09:40:03Z</time></trkpt><trkpt lat="44.049636353533565" lon="10.094171850622036"><ele>139.0</ele><time>2026-03-28T09:40:05Z</time></trkpt><trkpt lat="44.04959142702981" lon="10.094330808929197"><ele>139.0</ele><time>2026-03-28T09:40:07Z</time></trkpt><trkpt lat="44.04957875070455" lon="10.094491358743673"><ele>139.0</ele><time>2026-03-28T09:40:09Z</time></trkpt><trkpt lat="44.04958072742139" lon="10.094581931320144"><ele>139.0</ele><time>2026-03-28T09:40:10Z</time></trkpt><trkpt lat="44.049559761106174" lon="10.094742585523386"><ele>139.0</ele><time>2026-03-28T09:40:12Z</time></trkpt><trkpt lat="44.049669071038856" lon="10.09485122251741"><ele>139.0</ele><time>2026-03-28T09:40:13Z</time></trkpt><trkpt lat="44.04973403785791" lon="10.094973389868068"><ele>139.4</ele><time>2026-03-28T09:40:15Z</time></trkpt><trkpt lat="44.04979254624658" lon="10.095032667386029"><ele>139.8</ele><time>2026-03-28T09:40:16Z</time></trkpt><trkpt lat="44.04987377277291" lon="10.095087264458755"><ele>140.2</ele><time>2026-03-28T09:40:17Z</time></trkpt><trkpt lat="44.04999157600651" lon="10.095133593606405"><ele>140.6</ele><time>2026-03-28T09:40:18Z</time></trkpt><trkpt lat="44.050074014825775" lon="10.095205039593363"><ele>141.0</ele><time>2026-03-28T09:40:19Z</time></trkpt><trkpt lat="44.05016755417297" lon="10.095295707127333"><ele>142.83333333333334</ele><time>2026-03-28T09:40:20Z</time></trkpt><trkpt lat="44.05026923705049" lon="10.095350252505582"><ele>144.66666666666666</ele><time>2026-03-28T09:40:21Z</time></trkpt><trkpt lat="44.05035579002453" lon="10.095407560050427"><ele>146.5</ele><time>2026-03-28T09:40:22Z</time></trkpt><trkpt lat="44.05042346762596" lon="10.095462336984058"><ele>148.33333333333331</ele><time>2026-03-28T09:40:23Z</time></trkpt><trkpt lat="44.05045322604491" lon="10.095552793371825"><ele>150.16666666666666</ele><time>2026-03-28T09:40:24Z</time></trkpt><trkpt lat="44.050475193651145" lon="10.095665870226961"><ele>152.0</ele><time>2026-03-28T09:40:25Z</time></trkpt><trkpt lat="44.05051436326688" lon="10.095759013881024"><ele>152.0</ele><time>2026-03-28T09:40:26Z</time></trkpt><trkpt lat="44.050558225158014" lon="10.095863315982315"><ele>152.0</ele><time>2026-03-28T09:40:27Z</time></trkpt><trkpt lat="44.050551267896296" lon="10.095983967772673"><ele>152.0</ele><time>2026-03-28T09:40:28Z</time></trkpt><trkpt lat="44.050550238995505" lon="10.096140428685871"><ele>152.0</ele><time>2026-03-28T09:40:29Z</time></trkpt><trkpt lat="44.05053517134785" lon="10.096282637362053"><ele>152.0</ele><time>2026-03-28T09:40:30Z</time></trkpt><trkpt lat="44.050497360610585" lon="10.096353814795796"><ele>152.0</ele><time>2026-03-28T09:40:31Z</time></trkpt><trkpt lat="44.05045305972411" lon="10.096459027212008"><ele>152.0</ele><time>2026-03-28T09:40:32Z</time></trkpt><trkpt lat="44.05040343689875" lon="10.096575661584648"><ele>152.0</ele><time>2026-03-28T09:40:33Z</time></trkpt><trkpt lat="44.05034649299978" lon="10.096705494673657"><ele>152.0</ele><time>2026-03-28T09:40:34Z</time></trkpt><trkpt lat="44.05028675152198" lon="10.096831229541554"><ele>152.0</ele><time>2026-03-28T09:40:35Z</time></trkpt><trkpt lat="44.05023463746426" lon="10.096965364028515"><ele>152.16666666666666</ele><time>2026-03-28T09:40:36Z</time></trkpt><trkpt lat="44.05015929375076" lon="10.09707846947874"><ele>152.33333333333331</ele><time>2026-03-28T09:40:37Z</time></trkpt><trkpt lat="44.050116825497916" lon="10.097194593997633"><ele>152.5</ele><time>2026-03-28T09:40:38Z</time></trkpt><trkpt lat="44.05006768662077" lon="10.097298440588633"><ele>152.66666666666666</ele><time>2026-03-28T09:40:39Z</time></trkpt><trkpt lat="44.05000328624312" lon="10.09736671132258"><ele>152.83333333333334</ele><time>2026-03-28T09:40:40Z</time></trkpt><trkpt lat="44.04995210978164" lon="10.097430402084091"><ele>153.0</ele><time>2026-03-28T09:40:41Z</time></trkpt><trkpt lat="44.04997470029618" lon="10.097554760720039"><ele>153.0</ele><time>2026-03-28T09:40:43Z</time></trkpt><trkpt lat="44.050134890157125" lon="10.097525851839974"><ele>153.0</ele><time>2026-03-28T09:40:46.001Z</time></trkpt><trkpt lat="44.05019416342118" lon="10.097453760568067"><ele>153.0</ele><time>2026-03-28T09:40:47.001Z</time></trkpt><trkpt lat="44.050263979596906" lon="10.097387366082275"><ele>153.0</ele><time>2026-03-28T09:40:48.001Z</time></trkpt><trkpt lat="44.050354349917455" lon="10.097349334829682"><ele>153.0</ele><time>2026-03-28T09:40:49.001Z</time></trkpt><trkpt lat="44.05043358737478" lon="10.097305411579773"><ele>153.0</ele><time>2026-03-28T09:40:50.001Z</time></trkpt><trkpt lat="44.050506151143516" lon="10.097285395197515"><ele>153.0</ele><time>2026-03-28T09:40:51.001Z</time></trkpt><trkpt lat="44.050585872350844" lon="10.097332100879362"><ele>153.0</ele><time>2026-03-28T09:40:52.001Z</time></trkpt><trkpt lat="44.05066339460504" lon="10.097349737106203"><ele>153.0</ele><time>2026-03-28T09:40:53.001Z</time></trkpt><trkpt lat="44.05074545117791" lon="10.097365886905921"><ele>153.0</ele><time>2026-03-28T09:40:54.001Z</time></trkpt><trkpt lat="44.05082420383643" lon="10.097393087067221"><ele>153.0</ele><time>2026-03-28T09:40:55.001Z</time></trkpt><trkpt lat="44.05090777735213" lon="10.097387626357804"><ele>154.60000000000002</ele><time>2026-03-28T09:40:56.001Z</time></trkpt><trkpt lat="44.05097426476053" lon="10.097393272384135"><ele>156.20000000000002</ele><time>2026-03-28T09:40:57.001Z</time></trkpt><trkpt lat="44.051069589281866" lon="10.097438471384207"><ele>157.8</ele><time>2026-03-28T09:40:59.001Z</time></trkpt><trkpt lat="44.05110416373732" lon="10.097530004778667"><ele>159.4</ele><time>2026-03-28T09:41:00.001Z</time></trkpt><trkpt lat="44.051134801626084" lon="10.09761826086512"><ele>161.0</ele><time>2026-03-28T09:41:01.001Z</time></trkpt><trkpt lat="44.05129426960392" lon="10.097665660819374"><ele>162.66666666666666</ele><time>2026-03-28T09:41:03.001Z</time></trkpt><trkpt lat="44.051375197233845" lon="10.097656074571532"><ele>164.33333333333331</ele><time>2026-03-28T09:41:04.001Z</time></trkpt><trkpt lat="44.051459719126754" lon="10.097699309288414"><ele>166.0</ele><time>2026-03-28T09:41:05.001Z</time></trkpt><trkpt lat="44.0515379415913" lon="10.097699216832705"><ele>167.66666666666666</ele><time>2026-03-28T09:41:06.001Z</time></trkpt><trkpt lat="44.0516649217848" lon="10.097711807308754"><ele>169.33333333333334</ele><time>2026-03-28T09:41:08.001Z</time></trkpt><trkpt lat="44.05172967570139" lon="10.097722357462207"><ele>171.0</ele><time>2026-03-28T09:41:09.001Z</time></trkpt><trkpt lat="44.05179512204223" lon="10.097732216025308"><ele>172.5</ele><time>2026-03-28T09:41:10.001Z</time></trkpt><trkpt lat="44.05192084833151" lon="10.097755886214838"><ele>174.0</ele><time>2026-03-28T09:41:12.001Z</time></trkpt><trkpt lat="44.052045190139864" lon="10.097774478358277"><ele>175.5</ele><time>2026-03-28T09:41:14.001Z</time></trkpt><trkpt lat="44.05216162350765" lon="10.097822163626743"><ele>177.0</ele><time>2026-03-28T09:41:16.001Z</time></trkpt><trkpt lat="44.05218469290402" lon="10.098005522386755"><ele>177.0</ele><time>2026-03-28T09:41:18.001Z</time></trkpt><trkpt lat="44.0521260599186" lon="10.098096009647609"><ele>177.0</ele><time>2026-03-28T09:41:19.001Z</time></trkpt><trkpt lat="44.05209342585235" lon="10.0981806896287"><ele>177.0</ele><time>2026-03-28T09:41:20.001Z</time></trkpt><trkpt lat="44.05209255619707" lon="10.098273022935086"><ele>177.0</ele><time>2026-03-28T09:41:21.001Z</time></trkpt><trkpt lat="44.052119936819985" lon="10.098353411695658"><ele>177.0</ele><time>2026-03-28T09:41:22.001Z</time></trkpt><trkpt lat="44.052118378720365" lon="10.098462783140262"><ele>177.0</ele><time>2026-03-28T09:41:23.001Z</time></trkpt><trkpt lat="44.052136391483124" lon="10.098547069686086"><ele>177.0</ele><time>2026-03-28T09:41:24Z</time></trkpt><trkpt lat="44.05213588848788" lon="10.098661020627342"><ele>177.39999999999998</ele><time>2026-03-28T09:41:25Z</time></trkpt><trkpt lat="44.05212824286191" lon="10.098761141012261"><ele>177.79999999999998</ele><time>2026-03-28T09:41:26Z</time></trkpt><trkpt lat="44.05219891833776" lon="10.098894544495188"><ele>178.2</ele><time>2026-03-28T09:41:28Z</time></trkpt><trkpt lat="44.052271911577456" lon="10.098908260798547"><ele>178.6</ele><time>2026-03-28T09:41:29Z</time></trkpt><trkpt lat="44.052351106336474" lon="10.098924375216972"><ele>179.0</ele><time>2026-03-28T09:41:30Z</time></trkpt><trkpt lat="44.05267306802887" lon="10.098933231269157"><ele>179.0</ele><time>2026-03-28T09:41:33Z</time></trkpt><trkpt lat="44.05274343883477" lon="10.098914409620264"><ele>179.0</ele><time>2026-03-28T09:41:34Z</time></trkpt><trkpt lat="44.05281502739618" lon="10.098921717614262"><ele>179.0</ele><time>2026-03-28T09:41:35Z</time></trkpt><trkpt lat="44.05287782557047" lon="10.098949827067775"><ele>179.0</ele><time>2026-03-28T09:41:36Z</time></trkpt><trkpt lat="44.052944286829565" lon="10.099023050633686"><ele>179.0</ele><time>2026-03-28T09:41:38Z</time></trkpt><trkpt lat="44.05282233226476" lon="10.09916476471406"><ele>182.0</ele><time>2026-03-28T09:41:41Z</time></trkpt><trkpt lat="44.05276145912694" lon="10.099285859715215"><ele>185.0</ele><time>2026-03-28T09:41:43Z</time></trkpt><trkpt lat="44.052654789109596" lon="10.099378292643395"><ele>188.0</ele><time>2026-03-28T09:41:45Z</time></trkpt><trkpt lat="44.05256463685555" lon="10.099493942531975"><ele>191.0</ele><time>2026-03-28T09:41:47Z</time></trkpt><trkpt lat="44.05252737612574" lon="10.099569993063195"><ele>194.0</ele><time>2026-03-28T09:41:48Z</time></trkpt><trkpt lat="44.0525260727054" lon="10.099681250755458"><ele>194.00000000000003</ele><time>2026-03-28T09:41:49Z</time></trkpt><trkpt lat="44.0525155245198" lon="10.099848977795364"><ele>194.0</ele><time>2026-03-28T09:41:51Z</time></trkpt><trkpt lat="44.05251876112792" lon="10.09993744556506"><ele>194.0</ele><time>2026-03-28T09:41:52Z</time></trkpt><trkpt lat="44.052504204708214" lon="10.100038131924377"><ele>194.0</ele><time>2026-03-28T09:41:53Z</time></trkpt><trkpt lat="44.05249375299688" lon="10.100135810093107"><ele>194.00000000000003</ele><time>2026-03-28T09:41:54Z</time></trkpt><trkpt lat="44.05250817296138" lon="10.100237131808802"><ele>194.0</ele><time>2026-03-28T09:41:55Z</time></trkpt><trkpt lat="44.052544849317975" lon="10.100331361932593"><ele>197.16666666666669</ele><time>2026-03-28T09:41:56Z</time></trkpt><trkpt lat="44.05258904536756" lon="10.10043135627072"><ele>200.33333333333334</ele><time>2026-03-28T09:41:57Z</time></trkpt><trkpt lat="44.05265721929215" lon="10.100497456307627"><ele>203.5</ele><time>2026-03-28T09:41:58Z</time></trkpt><trkpt lat="44.052735681533996" lon="10.100545355528833"><ele>206.66666666666669</ele><time>2026-03-28T09:41:59Z</time></trkpt><trkpt lat="44.05284870175018" lon="10.100578185143306"><ele>209.83333333333334</ele><time>2026-03-28T09:42:00Z</time></trkpt><trkpt lat="44.05290836936552" lon="10.100643761272014"><ele>213.0</ele><time>2026-03-28T09:42:01Z</time></trkpt><trkpt lat="44.05295834609225" lon="10.100707619456871"><ele>214.16666666666666</ele><time>2026-03-28T09:42:02Z</time></trkpt><trkpt lat="44.0529120840826" lon="10.100873289686989"><ele>215.33333333333331</ele><time>2026-03-28T09:42:04Z</time></trkpt><trkpt lat="44.052841655024615" lon="10.100945360359134"><ele>216.5</ele><time>2026-03-28T09:42:05Z</time></trkpt><trkpt lat="44.05275993900856" lon="10.100975424192406"><ele>217.66666666666666</ele><time>2026-03-28T09:42:06Z</time></trkpt><trkpt lat="44.05269113426995" lon="10.10097582862462"><ele>218.83333333333331</ele><time>2026-03-28T09:42:07Z</time></trkpt><trkpt lat="44.052618835091884" lon="10.10097797756124"><ele>220.0</ele><time>2026-03-28T09:42:08Z</time></trkpt><trkpt lat="44.0525474052669" lon="10.10099436573413"><ele>219.99999999999997</ele><time>2026-03-28T09:42:09Z</time></trkpt><trkpt lat="44.05248757770735" lon="10.101060757326842"><ele>220.0</ele><time>2026-03-28T09:42:10Z</time></trkpt><trkpt lat="44.05247748969673" lon="10.101172004107678"><ele>220.0</ele><time>2026-03-28T09:42:11Z</time></trkpt><trkpt lat="44.05247587504233" lon="10.101289585695017"><ele>220.0</ele><time>2026-03-28T09:42:12Z</time></trkpt><trkpt lat="44.05245910063459" lon="10.101380458185249"><ele>219.99999999999997</ele><time>2026-03-28T09:42:13Z</time></trkpt><trkpt lat="44.05242370129091" lon="10.101502353505206"><ele>220.0</ele><time>2026-03-28T09:42:15Z</time></trkpt><trkpt lat="44.052405409755515" lon="10.101626369643252"><ele>221.49999999999997</ele><time>2026-03-28T09:42:18Z</time></trkpt><trkpt lat="44.05241415846323" lon="10.101730176231433"><ele>223.0</ele><time>2026-03-28T09:42:20Z</time></trkpt><trkpt lat="44.05246561705023" lon="10.101819180127542"><ele>224.5</ele><time>2026-03-28T09:42:22Z</time></trkpt><trkpt lat="44.052534537165094" lon="10.101886016568182"><ele>226.0</ele><time>2026-03-28T09:42:24Z</time></trkpt><trkpt lat="44.05259981729368" lon="10.101914263606417"><ele>227.49999999999997</ele><time>2026-03-28T09:42:25Z</time></trkpt><trkpt lat="44.052704190318316" lon="10.101925436491982"><ele>229.0</ele><time>2026-03-28T09:42:27Z</time></trkpt><trkpt lat="44.052826596822285" lon="10.101915382558472"><ele>228.99999999999997</ele><time>2026-03-28T09:42:29Z</time></trkpt><trkpt lat="44.052922529628844" lon="10.101934975710545"><ele>229.0</ele><time>2026-03-28T09:42:31Z</time></trkpt><trkpt lat="44.05298238376369" lon="10.101962139173562"><ele>229.0</ele><time>2026-03-28T09:42:32Z</time></trkpt><trkpt lat="44.05304409096648" lon="10.102007738285163"><ele>229.0</ele><time>2026-03-28T09:42:33Z</time></trkpt><trkpt lat="44.053100473245735" lon="10.102066037706283"><ele>228.99999999999997</ele><time>2026-03-28T09:42:34Z</time></trkpt><trkpt lat="44.053141896007105" lon="10.102149679011461"><ele>229.0</ele><time>2026-03-28T09:42:35Z</time></trkpt><trkpt lat="44.05314377066508" lon="10.102268290323378"><ele>228.99999999999997</ele><time>2026-03-28T09:42:36Z</time></trkpt><trkpt lat="44.0531640175082" lon="10.102389752144234"><ele>229.0</ele><time>2026-03-28T09:42:37Z</time></trkpt><trkpt lat="44.053203439072206" lon="10.102473409767546"><ele>229.0</ele><time>2026-03-28T09:42:38Z</time></trkpt><trkpt lat="44.053240759321476" lon="10.102577087600944"><ele>229.0</ele><time>2026-03-28T09:42:40Z</time></trkpt><trkpt lat="44.05334202903208" lon="10.102570424122506"><ele>228.99999999999997</ele><time>2026-03-28T09:42:41Z</time></trkpt><trkpt lat="44.053412922174246" lon="10.102613617617076"><ele>229.0</ele><time>2026-03-28T09:42:42Z</time></trkpt><trkpt lat="44.05347245794718" lon="10.102669445279382"><ele>228.33333333333331</ele><time>2026-03-28T09:42:43Z</time></trkpt><trkpt lat="44.05351241762467" lon="10.102795210701707"><ele>227.66666666666666</ele><time>2026-03-28T09:42:44Z</time></trkpt><trkpt lat="44.053544248250574" lon="10.102926405543815"><ele>227.0</ele><time>2026-03-28T09:42:46Z</time></trkpt><trkpt lat="44.05352452792002" lon="10.10303490457108"><ele>226.33333333333331</ele><time>2026-03-28T09:42:48Z</time></trkpt><trkpt lat="44.05355412217256" lon="10.103119838237292"><ele>225.66666666666666</ele><time>2026-03-28T09:42:56Z</time></trkpt><trkpt lat="44.05355583394117" lon="10.10321943780375"><ele>225.0</ele><time>2026-03-28T09:42:57Z</time></trkpt><trkpt lat="44.05357579340769" lon="10.103351882347349"><ele>230.4</ele><time>2026-03-28T09:42:59Z</time></trkpt><trkpt lat="44.053642204083886" lon="10.103422473945745"><ele>235.8</ele><time>2026-03-28T09:43:01Z</time></trkpt><trkpt lat="44.05372735234366" lon="10.103463919166021"><ele>241.2</ele><time>2026-03-28T09:43:03Z</time></trkpt><trkpt lat="44.05382581500272" lon="10.103451969067496"><ele>246.6</ele><time>2026-03-28T09:43:04Z</time></trkpt><trkpt lat="44.053913199870294" lon="10.10342848746748"><ele>252.0</ele><time>2026-03-28T09:43:06Z</time></trkpt><trkpt lat="44.05399145601447" lon="10.103527142572434"><ele>252.0</ele><time>2026-03-28T09:43:08.001Z</time></trkpt><trkpt lat="44.05407314555259" lon="10.10365256585732"><ele>252.0</ele><time>2026-03-28T09:43:10.001Z</time></trkpt><trkpt lat="44.05416976311224" lon="10.103659284877152"><ele>252.0</ele><time>2026-03-28T09:43:12.001Z</time></trkpt><trkpt lat="44.05424835874292" lon="10.103620236180987"><ele>252.0</ele><time>2026-03-28T09:43:14.001Z</time></trkpt><trkpt lat="44.0543087759865" lon="10.103470928009278"><ele>252.0</ele><time>2026-03-28T09:43:16.001Z</time></trkpt><trkpt lat="44.05434648862295" lon="10.103378929244798"><ele>248.2</ele><time>2026-03-28T09:43:17.001Z</time></trkpt><trkpt lat="44.054419835218404" lon="10.103292819199325"><ele>244.39999999999998</ele><time>2026-03-28T09:43:19.001Z</time></trkpt><trkpt lat="44.054550096983974" lon="10.10328566090997"><ele>240.60000000000002</ele><time>2026-03-28T09:43:21.001Z</time></trkpt><trkpt lat="44.0546226937862" lon="10.103328915693856"><ele>236.8</ele><time>2026-03-28T09:43:22.001Z</time></trkpt><trkpt lat="44.054695762227766" lon="10.103358906921857"><ele>233.0</ele><time>2026-03-28T09:43:23.001Z</time></trkpt><trkpt lat="44.0548004224766" lon="10.103341314546888"><ele>233.0</ele><time>2026-03-28T09:43:25.001Z</time></trkpt><trkpt lat="44.05489853799682" lon="10.103372580162896"><ele>233.0</ele><time>2026-03-28T09:43:27.001Z</time></trkpt><trkpt lat="44.05490729744766" lon="10.103263904975712"><ele>233.0</ele><time>2026-03-28T09:43:30Z</time></trkpt><trkpt lat="44.05488849542737" lon="10.103141236328089"><ele>233.0</ele><time>2026-03-28T09:43:32Z</time></trkpt><trkpt lat="44.054876124112404" lon="10.102987328641872"><ele>233.0</ele><time>2026-03-28T09:43:34Z</time></trkpt><trkpt lat="44.05488423107614" lon="10.102874375930929"><ele>229.16666666666669</ele><time>2026-03-28T09:43:35Z</time></trkpt><trkpt lat="44.05489681118881" lon="10.102760569592608"><ele>225.33333333333334</ele><time>2026-03-28T09:43:36Z</time></trkpt><trkpt lat="44.05490658971843" lon="10.102637359719624"><ele>221.5</ele><time>2026-03-28T09:43:37Z</time></trkpt><trkpt lat="44.05488316209404" lon="10.10253032920607"><ele>217.66666666666669</ele><time>2026-03-28T09:43:38Z</time></trkpt><trkpt lat="44.05482940153203" lon="10.102422782163616"><ele>213.83333333333334</ele><time>2026-03-28T09:43:39Z</time></trkpt><trkpt lat="44.05477595993743" lon="10.102323538692294"><ele>210.0</ele><time>2026-03-28T09:43:40Z</time></trkpt><trkpt lat="44.054738650571394" lon="10.102185442187718"><ele>208.66666666666666</ele><time>2026-03-28T09:43:42Z</time></trkpt><trkpt lat="44.05473875737426" lon="10.10209324708932"><ele>207.33333333333331</ele><time>2026-03-28T09:43:43Z</time></trkpt><trkpt lat="44.054768641212284" lon="10.1019737103648"><ele>206.0</ele><time>2026-03-28T09:43:44Z</time></trkpt><trkpt lat="44.054815952425066" lon="10.10189427334015"><ele>204.66666666666666</ele><time>2026-03-28T09:43:45Z</time></trkpt><trkpt lat="44.054929706408636" lon="10.101861542351964"><ele>203.33333333333331</ele><time>2026-03-28T09:43:47Z</time></trkpt><trkpt lat="44.054992230872465" lon="10.101914467058457"><ele>202.0</ele><time>2026-03-28T09:43:48Z</time></trkpt><trkpt lat="44.05507632017922" lon="10.10194428372213"><ele>208.0</ele><time>2026-03-28T09:43:49Z</time></trkpt><trkpt lat="44.05518524522423" lon="10.101931626440932"><ele>214.0</ele><time>2026-03-28T09:43:50Z</time></trkpt><trkpt lat="44.05527678945211" lon="10.101943609205108"><ele>220.0</ele><time>2026-03-28T09:43:51Z</time></trkpt><trkpt lat="44.05536516000112" lon="10.10196235134128"><ele>226.0</ele><time>2026-03-28T09:43:52Z</time></trkpt><trkpt lat="44.05545987678631" lon="10.101978221011647"><ele>232.0</ele><time>2026-03-28T09:43:53Z</time></trkpt><trkpt lat="44.055523779616024" lon="10.101936546044604"><ele>231.99999999999997</ele><time>2026-03-28T09:43:54Z</time></trkpt><trkpt lat="44.0555849980918" lon="10.101889625723155"><ele>232.0</ele><time>2026-03-28T09:43:55Z</time></trkpt><trkpt lat="44.05565294897861" lon="10.101811542413152"><ele>232.0</ele><time>2026-03-28T09:43:56Z</time></trkpt><trkpt lat="44.05573080070392" lon="10.101756413952963"><ele>232.0</ele><time>2026-03-28T09:43:57Z</time></trkpt><trkpt lat="44.055830914435504" lon="10.101713633562436"><ele>231.99999999999997</ele><time>2026-03-28T09:43:58Z</time></trkpt><trkpt lat="44.055893389311485" lon="10.10168003328249"><ele>232.0</ele><time>2026-03-28T09:43:59Z</time></trkpt><trkpt lat="44.05598403240325" lon="10.101737075866916"><ele>234.39999999999998</ele><time>2026-03-28T09:44:01Z</time></trkpt><trkpt lat="44.0560408808793" lon="10.10183810000102"><ele>236.79999999999998</ele><time>2026-03-28T09:44:02Z</time></trkpt><trkpt lat="44.056072211501494" lon="10.101974728755557"><ele>239.2</ele><time>2026-03-28T09:44:03Z</time></trkpt><trkpt lat="44.05608122713237" lon="10.102109567975171"><ele>241.6</ele><time>2026-03-28T09:44:04Z</time></trkpt><trkpt lat="44.05606824997425" lon="10.102262458061048"><ele>244.0</ele><time>2026-03-28T09:44:05Z</time></trkpt><trkpt lat="44.05607843747835" lon="10.102405319173565"><ele>248.99999999999997</ele><time>2026-03-28T09:44:06Z</time></trkpt><trkpt lat="44.05611579203645" lon="10.102534537149449"><ele>254.0</ele><time>2026-03-28T09:44:07Z</time></trkpt><trkpt lat="44.0561281746513" lon="10.102676048175388"><ele>259.0</ele><time>2026-03-28T09:44:08Z</time></trkpt><trkpt lat="44.0561347374889" lon="10.102783152618017"><ele>264.0</ele><time>2026-03-28T09:44:09Z</time></trkpt><trkpt lat="44.056165304326804" lon="10.102890139207101"><ele>269.0</ele><time>2026-03-28T09:44:10Z</time></trkpt><trkpt lat="44.056202424444926" lon="10.102964794494504"><ele>274.0</ele><time>2026-03-28T09:44:11Z</time></trkpt><trkpt lat="44.05626539048357" lon="10.103049949468993"><ele>274.0</ele><time>2026-03-28T09:44:13Z</time></trkpt><trkpt lat="44.05640771299234" lon="10.103030277927921"><ele>274.0</ele><time>2026-03-28T09:44:15Z</time></trkpt><trkpt lat="44.056483925016344" lon="10.103029552764564"><ele>274.0</ele><time>2026-03-28T09:44:16Z</time></trkpt><trkpt lat="44.056559280156314" lon="10.102988271926193"><ele>274.0</ele><time>2026-03-28T09:44:17Z</time></trkpt><trkpt lat="44.05662688807403" lon="10.102964794591912"><ele>274.0</ele><time>2026-03-28T09:44:18Z</time></trkpt><trkpt lat="44.05671056217739" lon="10.102927449328249"><ele>269.4</ele><time>2026-03-28T09:44:19Z</time></trkpt><trkpt lat="44.056780941134996" lon="10.102871157105595"><ele>264.79999999999995</ele><time>2026-03-28T09:44:20Z</time></trkpt><trkpt lat="44.05689623830717" lon="10.1029044288896"><ele>260.20000000000005</ele><time>2026-03-28T09:44:22Z</time></trkpt><trkpt lat="44.05692621033688" lon="10.10298756725548"><ele>255.60000000000002</ele><time>2026-03-28T09:44:23Z</time></trkpt><trkpt lat="44.05691277129034" lon="10.103120748560965"><ele>251.0</ele><time>2026-03-28T09:44:24Z</time></trkpt><trkpt lat="44.056943090037166" lon="10.103237578894932"><ele>255.83333333333334</ele><time>2026-03-28T09:44:25Z</time></trkpt><trkpt lat="44.056978555904465" lon="10.103364431030164"><ele>260.6666666666667</ele><time>2026-03-28T09:44:26Z</time></trkpt><trkpt lat="44.057014313245155" lon="10.103534696260706"><ele>265.5</ele><time>2026-03-28T09:44:28Z</time></trkpt><trkpt lat="44.05702154037987" lon="10.10363574098484"><ele>270.3333333333333</ele><time>2026-03-28T09:44:29Z</time></trkpt><trkpt lat="44.05702820969077" lon="10.103729013403814"><ele>275.16666666666663</ele><time>2026-03-28T09:44:30Z</time></trkpt><trkpt lat="44.05704748019127" lon="10.103823048245296"><ele>280.0</ele><time>2026-03-28T09:44:31Z</time></trkpt><trkpt lat="44.05706332488025" lon="10.10392660515054"><ele>280.0</ele><time>2026-03-28T09:44:32Z</time></trkpt><trkpt lat="44.05708391115678" lon="10.10405987104105"><ele>280.0</ele><time>2026-03-28T09:44:33Z</time></trkpt><trkpt lat="44.057135683181365" lon="10.104188413743545"><ele>280.0</ele><time>2026-03-28T09:44:34Z</time></trkpt><trkpt lat="44.057047320839516" lon="10.104297149770238"><ele>280.0</ele><time>2026-03-28T09:44:35Z</time></trkpt><trkpt lat="44.05704040813603" lon="10.104457997167504"><ele>280.0</ele><time>2026-03-28T09:44:37Z</time></trkpt><trkpt lat="44.0570253190992" lon="10.10457662525191"><ele>287.5</ele><time>2026-03-28T09:44:39Z</time></trkpt><trkpt lat="44.05716725071651" lon="10.104641410298273"><ele>295.0</ele><time>2026-03-28T09:44:40Z</time></trkpt><trkpt lat="44.05724763589495" lon="10.104805187051083"><ele>302.5</ele><time>2026-03-28T09:44:42Z</time></trkpt><trkpt lat="44.057290071129465" lon="10.10490753791208"><ele>310.0</ele><time>2026-03-28T09:44:43Z</time></trkpt><trkpt lat="44.05735916847679" lon="10.104976137422314"><ele>310.0</ele><time>2026-03-28T09:44:45Z</time></trkpt><trkpt lat="44.05745735427566" lon="10.10493464933922"><ele>310.0</ele><time>2026-03-28T09:44:46Z</time></trkpt><trkpt lat="44.05751069665341" lon="10.10485056629866"><ele>310.0</ele><time>2026-03-28T09:44:47Z</time></trkpt><trkpt lat="44.05757459913805" lon="10.10475736585488"><ele>310.0</ele><time>2026-03-28T09:44:48Z</time></trkpt><trkpt lat="44.05763053710832" lon="10.104636738896057"><ele>310.0</ele><time>2026-03-28T09:44:49Z</time></trkpt><trkpt lat="44.05768608258045" lon="10.104579989842152"><ele>310.0</ele><time>2026-03-28T09:44:50Z</time></trkpt><trkpt lat="44.05775638525455" lon="10.104578525653114"><ele>303.2</ele><time>2026-03-28T09:44:51Z</time></trkpt><trkpt lat="44.05784093390936" lon="10.104608166831184"><ele>296.4</ele><time>2026-03-28T09:44:52Z</time></trkpt><trkpt lat="44.057912020175" lon="10.10460117083696"><ele>289.6</ele><time>2026-03-28T09:44:53Z</time></trkpt><trkpt lat="44.05797145019146" lon="10.10451073125083"><ele>282.8</ele><time>2026-03-28T09:44:55Z</time></trkpt><trkpt lat="44.057974994384544" lon="10.10439124089379"><ele>276.0</ele><time>2026-03-28T09:44:56Z</time></trkpt><trkpt lat="44.05802710517171" lon="10.104233909219976"><ele>276.0</ele><time>2026-03-28T09:44:58Z</time></trkpt><trkpt lat="44.05812715435367" lon="10.104238707503377"><ele>276.0</ele><time>2026-03-28T09:44:59Z</time></trkpt><trkpt lat="44.05822500349349" lon="10.104234049297949"><ele>276.0</ele><time>2026-03-28T09:45:00Z</time></trkpt><trkpt lat="44.0582908123021" lon="10.104198130994533"><ele>276.0</ele><time>2026-03-28T09:45:01Z</time></trkpt><trkpt lat="44.058378852147904" lon="10.104176038849191"><ele>276.0</ele><time>2026-03-28T09:45:02Z</time></trkpt><trkpt lat="44.058466238064774" lon="10.104203034118184"><ele>276.0</ele><time>2026-03-28T09:45:03Z</time></trkpt><trkpt lat="44.05856536599099" lon="10.104267998204097"><ele>274.6</ele><time>2026-03-28T09:45:05Z</time></trkpt><trkpt lat="44.05868371550157" lon="10.104276944831046"><ele>273.20000000000005</ele><time>2026-03-28T09:45:07Z</time></trkpt><trkpt lat="44.05876089955369" lon="10.104243539965958"><ele>271.79999999999995</ele><time>2026-03-28T09:45:09Z</time></trkpt><trkpt lat="44.05876792779118" lon="10.104039892768315"><ele>270.4</ele><time>2026-03-28T09:45:11Z</time></trkpt><trkpt lat="44.05875648313268" lon="10.103928413827362"><ele>269.0</ele><time>2026-03-28T09:45:12Z</time></trkpt><trkpt lat="44.05875103108982" lon="10.103839129656238"><ele>269.0</ele><time>2026-03-28T09:45:13Z</time></trkpt><trkpt lat="44.05875289602928" lon="10.103693344711976"><ele>269.0</ele><time>2026-03-28T09:45:15Z</time></trkpt><trkpt lat="44.05884189866727" lon="10.103665074288815"><ele>269.0</ele><time>2026-03-28T09:45:17Z</time></trkpt><trkpt lat="44.05892080197182" lon="10.103726276701023"><ele>269.0</ele><time>2026-03-28T09:45:18Z</time></trkpt><trkpt lat="44.05901967100808" lon="10.103828602466718"><ele>269.0</ele><time>2026-03-28T09:45:19Z</time></trkpt><trkpt lat="44.05906529404629" lon="10.103934896507853"><ele>273.5</ele><time>2026-03-28T09:45:20Z</time></trkpt><trkpt lat="44.059186657987404" lon="10.104044011258065"><ele>278.0</ele><time>2026-03-28T09:45:22Z</time></trkpt><trkpt lat="44.05931397686122" lon="10.104068811506018"><ele>282.5</ele><time>2026-03-28T09:45:23Z</time></trkpt><trkpt lat="44.059391880558785" lon="10.104122625033872"><ele>287.0</ele><time>2026-03-28T09:45:24Z</time></trkpt><trkpt lat="44.05948329909178" lon="10.104222278865585"><ele>292.2</ele><time>2026-03-28T09:45:25Z</time></trkpt><trkpt lat="44.05957876609899" lon="10.104309777275741"><ele>297.4</ele><time>2026-03-28T09:45:26Z</time></trkpt><trkpt lat="44.05965098941742" lon="10.104365207804923"><ele>302.6</ele><time>2026-03-28T09:45:27Z</time></trkpt><trkpt lat="44.05971814090111" lon="10.104454366256043"><ele>307.8</ele><time>2026-03-28T09:45:28Z</time></trkpt><trkpt lat="44.05980664852401" lon="10.104439354146148"><ele>313.0</ele><time>2026-03-28T09:45:30Z</time></trkpt><trkpt lat="44.059852711640715" lon="10.104334941817417"><ele>313.0</ele><time>2026-03-28T09:45:31Z</time></trkpt><trkpt lat="44.05987038997879" lon="10.10423166931183"><ele>313.0</ele><time>2026-03-28T09:45:32Z</time></trkpt><trkpt lat="44.059814308793165" lon="10.104062683463304"><ele>313.0</ele><time>2026-03-28T09:45:34Z</time></trkpt><trkpt lat="44.05981061127323" lon="10.103921050157709"><ele>313.0</ele><time>2026-03-28T09:45:35Z</time></trkpt><trkpt lat="44.059823846070316" lon="10.103817500660488"><ele>313.0</ele><time>2026-03-28T09:45:36Z</time></trkpt><trkpt lat="44.05983739606832" lon="10.103631794007212"><ele>313.0</ele><time>2026-03-28T09:45:38Z</time></trkpt><trkpt lat="44.059852370560016" lon="10.103517094394496"><ele>313.0</ele><time>2026-03-28T09:45:39Z</time></trkpt><trkpt lat="44.05986678010409" lon="10.103400110694716"><ele>313.0</ele><time>2026-03-28T09:45:40Z</time></trkpt><trkpt lat="44.05989016380896" lon="10.103297376801077"><ele>313.0</ele><time>2026-03-28T09:45:41Z</time></trkpt><trkpt lat="44.059921035604376" lon="10.103174253091675"><ele>313.0</ele><time>2026-03-28T09:45:42Z</time></trkpt><trkpt lat="44.059929788494685" lon="10.103063533349331"><ele>313.0</ele><time>2026-03-28T09:45:43Z</time></trkpt><trkpt lat="44.05996047207537" lon="10.10295398657823"><ele>313.0</ele><time>2026-03-28T09:45:44Z</time></trkpt><trkpt lat="44.05996982915813" lon="10.10286352116469"><ele>313.0</ele><time>2026-03-28T09:45:45Z</time></trkpt><trkpt lat="44.060003779306946" lon="10.1027397232244"><ele>313.0</ele><time>2026-03-28T09:45:46Z</time></trkpt><trkpt lat="44.060039264331884" lon="10.102572843115873"><ele>313.0</ele><time>2026-03-28T09:45:48Z</time></trkpt><trkpt lat="44.06006771317485" lon="10.102431102787467"><ele>313.0</ele><time>2026-03-28T09:45:49Z</time></trkpt><trkpt lat="44.06007957908742" lon="10.102306732849307"><ele>311.2</ele><time>2026-03-28T09:45:50Z</time></trkpt><trkpt lat="44.06010107252724" lon="10.102177879188147"><ele>309.4</ele><time>2026-03-28T09:45:51Z</time></trkpt><trkpt lat="44.06009078337065" lon="10.102033657674456"><ele>307.59999999999997</ele><time>2026-03-28T09:45:52Z</time></trkpt><trkpt lat="44.0601248697626" lon="10.101893304188586"><ele>305.8</ele><time>2026-03-28T09:45:53Z</time></trkpt><trkpt lat="44.060153031829074" lon="10.101756847644783"><ele>304.0</ele><time>2026-03-28T09:45:54Z</time></trkpt><trkpt lat="44.06018049850205" lon="10.101664530074597"><ele>300.5</ele><time>2026-03-28T09:45:55Z</time></trkpt><trkpt lat="44.06021146862605" lon="10.101564949794458"><ele>297.0</ele><time>2026-03-28T09:45:56Z</time></trkpt><trkpt lat="44.06024509573577" lon="10.101479694810385"><ele>293.5</ele><time>2026-03-28T09:45:57Z</time></trkpt><trkpt lat="44.060305917472" lon="10.10144726478533"><ele>290.0</ele><time>2026-03-28T09:45:59Z</time></trkpt><trkpt lat="44.06040900026508" lon="10.101426670856066"><ele>286.5</ele><time>2026-03-28T09:47:01Z</time></trkpt><trkpt lat="44.06051407287736" lon="10.101428039150402"><ele>283.0</ele><time>2026-03-28T09:47:03Z</time></trkpt><trkpt lat="44.06057284090699" lon="10.101477541711182"><ele>287.2</ele><time>2026-03-28T09:47:04Z</time></trkpt><trkpt lat="44.060661084312876" lon="10.101591414532312"><ele>291.4</ele><time>2026-03-28T09:47:06Z</time></trkpt><trkpt lat="44.06072744054306" lon="10.10173152369263"><ele>295.59999999999997</ele><time>2026-03-28T09:47:08Z</time></trkpt><trkpt lat="44.060781747497686" lon="10.101787800325134"><ele>299.8</ele><time>2026-03-28T09:47:09Z</time></trkpt><trkpt lat="44.06084529939327" lon="10.101826025037088"><ele>304.0</ele><time>2026-03-28T09:47:10Z</time></trkpt><trkpt lat="44.06091208843001" lon="10.101877403237486"><ele>307.2</ele><time>2026-03-28T09:47:11Z</time></trkpt><trkpt lat="44.06101028111824" lon="10.10194077797513"><ele>310.4</ele><time>2026-03-28T09:47:12Z</time></trkpt><trkpt lat="44.06110103734309" lon="10.101866065615901"><ele>313.6</ele><time>2026-03-28T09:47:13Z</time></trkpt><trkpt lat="44.06117594935668" lon="10.101905485841577"><ele>316.8</ele><time>2026-03-28T09:47:14Z</time></trkpt><trkpt lat="44.06123444379451" lon="10.101985680056771"><ele>320.0</ele><time>2026-03-28T09:47:15Z</time></trkpt><trkpt lat="44.06137041206628" lon="10.101931953741989"><ele>320.0</ele><time>2026-03-28T09:47:17Z</time></trkpt><trkpt lat="44.06143347737273" lon="10.101862784095854"><ele>320.0</ele><time>2026-03-28T09:47:18Z</time></trkpt><trkpt lat="44.06149785295881" lon="10.101768633390142"><ele>320.0</ele><time>2026-03-28T09:47:19Z</time></trkpt><trkpt lat="44.06158834915182" lon="10.101716052537359"><ele>320.0</ele><time>2026-03-28T09:47:20Z</time></trkpt><trkpt lat="44.061653933589106" lon="10.101661445375159"><ele>320.0</ele><time>2026-03-28T09:47:21Z</time></trkpt><trkpt lat="44.061718342945895" lon="10.101623593832764"><ele>320.0</ele><time>2026-03-28T09:47:22Z</time></trkpt><trkpt lat="44.061863767227834" lon="10.101601245017427"><ele>315.0</ele><time>2026-03-28T09:47:24Z</time></trkpt><trkpt lat="44.06193229956523" lon="10.101556263232652"><ele>310.0</ele><time>2026-03-28T09:47:25Z</time></trkpt><trkpt lat="44.062022879876814" lon="10.101451636517746"><ele>305.0</ele><time>2026-03-28T09:47:27Z</time></trkpt><trkpt lat="44.06205147981425" lon="10.101293259822848"><ele>300.0</ele><time>2026-03-28T09:47:28Z</time></trkpt><trkpt lat="44.06207374958084" lon="10.101187302020614"><ele>295.0</ele><time>2026-03-28T09:47:29Z</time></trkpt><trkpt lat="44.0621321960863" lon="10.10110596828003"><ele>295.0</ele><time>2026-03-28T09:47:30Z</time></trkpt><trkpt lat="44.062186126688225" lon="10.101032114676178"><ele>295.0</ele><time>2026-03-28T09:47:31Z</time></trkpt><trkpt lat="44.06224586257356" lon="10.100955389720518"><ele>295.0</ele><time>2026-03-28T09:47:32Z</time></trkpt><trkpt lat="44.062321364962074" lon="10.100865913798556"><ele>295.0</ele><time>2026-03-28T09:47:33Z</time></trkpt><trkpt lat="44.06239894387253" lon="10.100802022442638"><ele>295.0</ele><time>2026-03-28T09:47:34Z</time></trkpt><trkpt lat="44.06247688836162" lon="10.100742397834063"><ele>295.0</ele><time>2026-03-28T09:47:35Z</time></trkpt><trkpt lat="44.06255162115194" lon="10.10069031295734"><ele>295.16666666666663</ele><time>2026-03-28T09:47:36Z</time></trkpt><trkpt lat="44.062647455661526" lon="10.100652671116205"><ele>295.3333333333333</ele><time>2026-03-28T09:47:38Z</time></trkpt><trkpt lat="44.06273628985213" lon="10.100655251496052"><ele>295.5</ele><time>2026-03-28T09:47:41Z</time></trkpt><trkpt lat="44.06267049547502" lon="10.100587880768972"><ele>295.6666666666667</ele><time>2026-03-28T09:49:34Z</time></trkpt><trkpt lat="44.06264733668414" lon="10.100686292363175"><ele>295.83333333333337</ele><time>2026-03-28T09:50:33Z</time></trkpt><trkpt lat="44.06271308852822" lon="10.100737242343975"><ele>296.0</ele><time>2026-03-28T09:52:42Z</time></trkpt><trkpt lat="44.0627877080933" lon="10.100690065475707"><ele>296.0</ele><time>2026-03-28T09:53:22Z</time></trkpt><trkpt lat="44.06288311522546" lon="10.100699297217202"><ele>296.0</ele><time>2026-03-28T09:53:24Z</time></trkpt><trkpt lat="44.06295177184704" lon="10.100764371320297"><ele>296.0</ele><time>2026-03-28T09:53:26Z</time></trkpt><trkpt lat="44.06300082930174" lon="10.100862042224845"><ele>296.0</ele><time>2026-03-28T09:53:28Z</time></trkpt><trkpt lat="44.063017857077945" lon="10.100986424939705"><ele>296.0</ele><time>2026-03-28T09:53:30Z</time></trkpt><trkpt lat="44.06299739421592" lon="10.101149571247388"><ele>300.6</ele><time>2026-03-28T09:53:32Z</time></trkpt><trkpt lat="44.06297568118244" lon="10.101308321674008"><ele>305.20000000000005</ele><time>2026-03-28T09:53:34Z</time></trkpt><trkpt lat="44.06294621015221" lon="10.10140073461164"><ele>309.79999999999995</ele><time>2026-03-28T09:53:35Z</time></trkpt><trkpt lat="44.062889724817225" lon="10.101489451630593"><ele>314.4</ele><time>2026-03-28T09:53:36Z</time></trkpt><trkpt lat="44.06282557578722" lon="10.101582187408024"><ele>319.0</ele><time>2026-03-28T09:53:37Z</time></trkpt><trkpt lat="44.06280474980541" lon="10.10170057462409"><ele>323.79999999999995</ele><time>2026-03-28T09:53:38Z</time></trkpt><trkpt lat="44.062773230377395" lon="10.101826145030437"><ele>328.59999999999997</ele><time>2026-03-28T09:53:39Z</time></trkpt><trkpt lat="44.062779875700166" lon="10.1019529143834"><ele>333.4</ele><time>2026-03-28T09:53:40Z</time></trkpt><trkpt lat="44.062780599243126" lon="10.102080684336823"><ele>338.2</ele><time>2026-03-28T09:53:41Z</time></trkpt><trkpt lat="44.0628037719416" lon="10.102191628881585"><ele>343.0</ele><time>2026-03-28T09:53:42Z</time></trkpt><trkpt lat="44.06285705806029" lon="10.102313736588808"><ele>343.16666666666663</ele><time>2026-03-28T09:53:43Z</time></trkpt><trkpt lat="44.062901700597166" lon="10.102431946678921"><ele>343.3333333333333</ele><time>2026-03-28T09:53:44Z</time></trkpt><trkpt lat="44.06292311375527" lon="10.102533231934512"><ele>343.5</ele><time>2026-03-28T09:53:45Z</time></trkpt><trkpt lat="44.062919544213315" lon="10.102638067906044"><ele>343.6666666666667</ele><time>2026-03-28T09:53:46Z</time></trkpt><trkpt lat="44.06288420680722" lon="10.102719556241263"><ele>343.83333333333337</ele><time>2026-03-28T09:53:47Z</time></trkpt><trkpt lat="44.06284348464558" lon="10.102788051154235"><ele>344.0</ele><time>2026-03-28T09:53:48Z</time></trkpt><trkpt lat="44.0627206284677" lon="10.102875945597507"><ele>344.0</ele><time>2026-03-28T09:53:50Z</time></trkpt><trkpt lat="44.06263725489455" lon="10.102921604525038"><ele>344.0</ele><time>2026-03-28T09:53:51Z</time></trkpt><trkpt lat="44.06256896759948" lon="10.102945498307179"><ele>344.0</ele><time>2026-03-28T09:53:52Z</time></trkpt><trkpt lat="44.06247441499688" lon="10.102959625919347"><ele>344.0</ele><time>2026-03-28T09:53:53Z</time></trkpt><trkpt lat="44.062386817143455" lon="10.102955453876715"><ele>344.0</ele><time>2026-03-28T09:53:54Z</time></trkpt><trkpt lat="44.06229362678864" lon="10.102955591517427"><ele>344.0</ele><time>2026-03-28T09:53:55Z</time></trkpt><trkpt lat="44.06222839974352" lon="10.102966087138405"><ele>346.75</ele><time>2026-03-28T09:53:56Z</time></trkpt><trkpt lat="44.06212086728118" lon="10.103023671477931"><ele>349.5</ele><time>2026-03-28T09:53:58Z</time></trkpt><trkpt lat="44.06209322160227" lon="10.103140917455125"><ele>352.25</ele><time>2026-03-28T09:53:59Z</time></trkpt><trkpt lat="44.06214735430485" lon="10.103275792979248"><ele>355.0</ele><time>2026-03-28T09:54:00Z</time></trkpt><trkpt lat="44.0621909465685" lon="10.10346388228363"><ele>357.5</ele><time>2026-03-28T09:54:02Z</time></trkpt><trkpt lat="44.06221624816295" lon="10.103575568787486"><ele>360.0</ele><time>2026-03-28T09:54:03Z</time></trkpt><trkpt lat="44.062253603776334" lon="10.103679598274024"><ele>362.5</ele><time>2026-03-28T09:54:04Z</time></trkpt><trkpt lat="44.06230883175502" lon="10.10375756140023"><ele>365.0</ele><time>2026-03-28T09:54:05Z</time></trkpt><trkpt lat="44.06234534513268" lon="10.103930109552373"><ele>367.5</ele><time>2026-03-28T09:54:07Z</time></trkpt><trkpt lat="44.06233535118793" lon="10.10403095960149"><ele>370.0</ele><time>2026-03-28T09:54:08Z</time></trkpt><trkpt lat="44.06229409750414" lon="10.104144554524465"><ele>370.66666666666663</ele><time>2026-03-28T09:54:09Z</time></trkpt><trkpt lat="44.06226416487218" lon="10.104276634169969"><ele>371.3333333333333</ele><time>2026-03-28T09:54:10Z</time></trkpt><trkpt lat="44.06224557995225" lon="10.104390684700677"><ele>372.0</ele><time>2026-03-28T09:54:11Z</time></trkpt><trkpt lat="44.06222878598072" lon="10.104499849494209"><ele>372.6666666666667</ele><time>2026-03-28T09:54:12Z</time></trkpt><trkpt lat="44.06221535681942" lon="10.104609410400213"><ele>373.33333333333337</ele><time>2026-03-28T09:54:13Z</time></trkpt><trkpt lat="44.0622170892645" lon="10.104718753981556"><ele>374.0</ele><time>2026-03-28T09:54:14Z</time></trkpt><trkpt lat="44.06219256590282" lon="10.104828175836987"><ele>373.5</ele><time>2026-03-28T09:54:15Z</time></trkpt><trkpt lat="44.06221187915805" lon="10.104946872922138"><ele>373.0</ele><time>2026-03-28T09:54:16Z</time></trkpt><trkpt lat="44.06224360734381" lon="10.105044358040107"><ele>372.5</ele><time>2026-03-28T09:54:17Z</time></trkpt><trkpt lat="44.06228281465667" lon="10.105154975876236"><ele>372.0</ele><time>2026-03-28T09:54:19Z</time></trkpt><trkpt lat="44.0623719511763" lon="10.105149531413534"><ele>371.5</ele><time>2026-03-28T09:54:21Z</time></trkpt><trkpt lat="44.0624379932623" lon="10.10508447593719"><ele>371.0</ele><time>2026-03-28T09:54:22Z</time></trkpt><trkpt lat="44.06247760473501" lon="10.10500878107703"><ele>361.0</ele><time>2026-03-28T09:54:23Z</time></trkpt><trkpt lat="44.06251161539795" lon="10.104907322716139"><ele>351.0</ele><time>2026-03-28T09:54:24Z</time></trkpt><trkpt lat="44.062604857845095" lon="10.104859637193202"><ele>341.0</ele><time>2026-03-28T09:54:25Z</time></trkpt><trkpt lat="44.062690838710196" lon="10.104810647631343"><ele>331.0</ele><time>2026-03-28T09:54:26Z</time></trkpt><trkpt lat="44.06277022321063" lon="10.104717120272518"><ele>321.0</ele><time>2026-03-28T09:54:27Z</time></trkpt><trkpt lat="44.06283454530073" lon="10.104639687756167"><ele>321.0</ele><time>2026-03-28T09:54:28Z</time></trkpt><trkpt lat="44.0629037338802" lon="10.104568923171831"><ele>321.0</ele><time>2026-03-28T09:54:29Z</time></trkpt><trkpt lat="44.06300074891123" lon="10.104505534203268"><ele>321.0</ele><time>2026-03-28T09:54:30Z</time></trkpt><trkpt lat="44.0630979790634" lon="10.104472867869402"><ele>321.0</ele><time>2026-03-28T09:54:31Z</time></trkpt><trkpt lat="44.06317447157492" lon="10.104498565916064"><ele>321.0</ele><time>2026-03-28T09:54:32Z</time></trkpt><trkpt lat="44.06325770853788" lon="10.104512498737467"><ele>322.0</ele><time>2026-03-28T09:54:33Z</time></trkpt><trkpt lat="44.06331051587514" lon="10.104590805540834"><ele>323.0</ele><time>2026-03-28T09:54:34Z</time></trkpt><trkpt lat="44.06336012919911" lon="10.104672398847677"><ele>324.0</ele><time>2026-03-28T09:54:35Z</time></trkpt><trkpt lat="44.06341472911572" lon="10.104787652562187"><ele>325.0</ele><time>2026-03-28T09:54:36Z</time></trkpt><trkpt lat="44.063406091920974" lon="10.104934055277822"><ele>326.0</ele><time>2026-03-28T09:54:37Z</time></trkpt><trkpt lat="44.063444673100406" lon="10.105048942237225"><ele>326.0</ele><time>2026-03-28T09:54:38Z</time></trkpt><trkpt lat="44.06347763084175" lon="10.105135446924367"><ele>326.0</ele><time>2026-03-28T09:54:39Z</time></trkpt><trkpt lat="44.06352306660255" lon="10.105222435492838"><ele>326.0</ele><time>2026-03-28T09:54:40Z</time></trkpt><trkpt lat="44.06355398994025" lon="10.105300567606283"><ele>326.0</ele><time>2026-03-28T09:54:41Z</time></trkpt><trkpt lat="44.063584837825374" lon="10.105397059672761"><ele>326.0</ele><time>2026-03-28T09:54:42Z</time></trkpt><trkpt lat="44.063651880773676" lon="10.105509225398697"><ele>326.0</ele><time>2026-03-28T09:54:43Z</time></trkpt><trkpt lat="44.06371236013016" lon="10.105585387715088"><ele>326.0</ele><time>2026-03-28T09:54:44Z</time></trkpt><trkpt lat="44.06376594746849" lon="10.105689352769472"><ele>326.0</ele><time>2026-03-28T09:54:45Z</time></trkpt><trkpt lat="44.063820875076736" lon="10.105787527022065"><ele>326.0</ele><time>2026-03-28T09:54:46Z</time></trkpt><trkpt lat="44.06384634961745" lon="10.105880790949325"><ele>326.0</ele><time>2026-03-28T09:54:47Z</time></trkpt><trkpt lat="44.063897570440425" lon="10.105936737475366"><ele>326.0</ele><time>2026-03-28T09:54:48Z</time></trkpt><trkpt lat="44.06396459033939" lon="10.105964971472753"><ele>326.0</ele><time>2026-03-28T09:54:50Z</time></trkpt><trkpt lat="44.063998544094495" lon="10.105883252458904"><ele>326.0</ele><time>2026-03-28T09:54:52Z</time></trkpt><trkpt lat="44.06404155300292" lon="10.105807145611069"><ele>326.0</ele><time>2026-03-28T09:54:53Z</time></trkpt><trkpt lat="44.06408749817707" lon="10.105735207130744"><ele>326.0</ele><time>2026-03-28T09:54:54Z</time></trkpt><trkpt lat="44.064155105617004" lon="10.105673290616696"><ele>326.0</ele><time>2026-03-28T09:54:55Z</time></trkpt><trkpt lat="44.06423398351386" lon="10.105599793596449"><ele>326.0</ele><time>2026-03-28T09:54:57Z</time></trkpt><trkpt lat="44.06429321492206" lon="10.10556674017126"><ele>326.0</ele><time>2026-03-28T09:54:58Z</time></trkpt><trkpt lat="44.064396550434445" lon="10.10555316592758"><ele>323.0</ele><time>2026-03-28T09:55:00Z</time></trkpt><trkpt lat="44.064544698857546" lon="10.105581302164648"><ele>320.0</ele><time>2026-03-28T09:55:02Z</time></trkpt><trkpt lat="44.06463693641249" lon="10.10560995085434"><ele>317.0</ele><time>2026-03-28T09:55:04Z</time></trkpt><trkpt lat="44.06470416196124" lon="10.105563223276251"><ele>314.0</ele><time>2026-03-28T09:55:06Z</time></trkpt><trkpt lat="44.06480161816556" lon="10.105467347780719"><ele>311.0</ele><time>2026-03-28T09:55:08Z</time></trkpt><trkpt lat="44.064915093226766" lon="10.10542656099309"><ele>311.0</ele><time>2026-03-28T09:55:10Z</time></trkpt><trkpt lat="44.065012436941565" lon="10.105400440762963"><ele>311.0</ele><time>2026-03-28T09:55:12Z</time></trkpt><trkpt lat="44.06506901569477" lon="10.105441785808221"><ele>311.0</ele><time>2026-03-28T09:55:13Z</time></trkpt><trkpt lat="44.06510554244467" lon="10.105520969998453"><ele>311.0</ele><time>2026-03-28T09:55:14Z</time></trkpt><trkpt lat="44.06513248406786" lon="10.105613059160598"><ele>311.0</ele><time>2026-03-28T09:55:15Z</time></trkpt><trkpt lat="44.06513067574611" lon="10.10571284344492"><ele>311.0</ele><time>2026-03-28T09:55:16Z</time></trkpt><trkpt lat="44.06511066551647" lon="10.105811231040127"><ele>311.0</ele><time>2026-03-28T09:55:17Z</time></trkpt><trkpt lat="44.06507839299739" lon="10.105908271026344"><ele>311.0</ele><time>2026-03-28T09:55:18Z</time></trkpt><trkpt lat="44.06505924651381" lon="10.106008210709664"><ele>311.0</ele><time>2026-03-28T09:55:19Z</time></trkpt><trkpt lat="44.065033168133745" lon="10.106096592074564"><ele>311.0</ele><time>2026-03-28T09:55:20Z</time></trkpt><trkpt lat="44.06500821558567" lon="10.106187155642273"><ele>311.0</ele><time>2026-03-28T09:55:21Z</time></trkpt><trkpt lat="44.06498968820069" lon="10.10627114140021"><ele>311.0</ele><time>2026-03-28T09:55:22Z</time></trkpt><trkpt lat="44.06499544024302" lon="10.106379699777637"><ele>311.0</ele><time>2026-03-28T09:55:23Z</time></trkpt><trkpt lat="44.065026262993605" lon="10.106479477696181"><ele>311.0</ele><time>2026-03-28T09:55:24Z</time></trkpt><trkpt lat="44.0650527292277" lon="10.106575377983956"><ele>311.2</ele><time>2026-03-28T09:55:25Z</time></trkpt><trkpt lat="44.0650801248818" lon="10.106663154526485"><ele>311.40000000000003</ele><time>2026-03-28T09:55:26Z</time></trkpt><trkpt lat="44.065184070908735" lon="10.106753300333173"><ele>311.6</ele><time>2026-03-28T09:55:28Z</time></trkpt><trkpt lat="44.06530835610945" lon="10.106710616549863"><ele>311.8</ele><time>2026-03-28T09:55:30Z</time></trkpt><trkpt lat="44.06539273620888" lon="10.106656561694425"><ele>312.0</ele><time>2026-03-28T09:55:31Z</time></trkpt><trkpt lat="44.065476754889076" lon="10.1066503017938"><ele>312.0</ele><time>2026-03-28T09:55:33Z</time></trkpt><trkpt lat="44.065467505906035" lon="10.106738341733664"><ele>312.0</ele><time>2026-03-28T09:55:36Z</time></trkpt><trkpt lat="44.065444571557684" lon="10.106869891459077"><ele>312.0</ele><time>2026-03-28T09:55:47Z</time></trkpt><trkpt lat="44.06540961374682" lon="10.106991353266906"><ele>312.0</ele><time>2026-03-28T09:55:49Z</time></trkpt><trkpt lat="44.065371179706325" lon="10.107078571478727"><ele>312.0</ele><time>2026-03-28T09:55:50Z</time></trkpt><trkpt lat="44.06526955309407" lon="10.107161670532902"><ele>312.0</ele><time>2026-03-28T09:55:52Z</time></trkpt><trkpt lat="44.06521068870973" lon="10.107211046096015"><ele>312.0</ele><time>2026-03-28T09:55:53Z</time></trkpt><trkpt lat="44.06512113948608" lon="10.107296817585976"><ele>312.0</ele><time>2026-03-28T09:55:55Z</time></trkpt><trkpt lat="44.06510762930488" lon="10.107389137826967"><ele>312.0</ele><time>2026-03-28T09:55:56Z</time></trkpt><trkpt lat="44.06513579273519" lon="10.107481078166389"><ele>312.0</ele><time>2026-03-28T09:55:57Z</time></trkpt><trkpt lat="44.06511624209863" lon="10.10756649432173"><ele>312.0</ele><time>2026-03-28T09:55:58Z</time></trkpt><trkpt lat="44.06509425524539" lon="10.107662552144463"><ele>312.0</ele><time>2026-03-28T09:55:59Z</time></trkpt><trkpt lat="44.0650539462489" lon="10.10777150420149"><ele>313.5</ele><time>2026-03-28T09:56:00Z</time></trkpt><trkpt lat="44.06499072622218" lon="10.107906427827487"><ele>315.0</ele><time>2026-03-28T09:56:01Z</time></trkpt><trkpt lat="44.064896980395396" lon="10.108000693525044"><ele>316.5</ele><time>2026-03-28T09:56:03Z</time></trkpt><trkpt lat="44.06477018483387" lon="10.108065716287141"><ele>318.0</ele><time>2026-03-28T09:56:05Z</time></trkpt><trkpt lat="44.064696497189296" lon="10.108201983634867"><ele>320.25</ele><time>2026-03-28T09:56:07Z</time></trkpt><trkpt lat="44.064624805443515" lon="10.108270851191747"><ele>322.5</ele><time>2026-03-28T09:56:08Z</time></trkpt><trkpt lat="44.064542552734956" lon="10.108381518172214"><ele>324.75</ele><time>2026-03-28T09:56:10Z</time></trkpt><trkpt lat="44.06448995403272" lon="10.108452287833678"><ele>327.0</ele><time>2026-03-28T09:56:11Z</time></trkpt><trkpt lat="44.06430853640611" lon="10.108320263579193"><ele>328.20000000000005</ele><time>2026-03-28T09:56:13Z</time></trkpt><trkpt lat="44.06421921984445" lon="10.108227554718002"><ele>329.4</ele><time>2026-03-28T09:56:14Z</time></trkpt><trkpt lat="44.064156981088686" lon="10.108163989249038"><ele>330.6</ele><time>2026-03-28T09:56:15Z</time></trkpt><trkpt lat="44.06403766480912" lon="10.108178515992325"><ele>331.79999999999995</ele><time>2026-03-28T09:56:17Z</time></trkpt><trkpt lat="44.0639654018544" lon="10.10822131661818"><ele>333.0</ele><time>2026-03-28T09:56:18Z</time></trkpt><trkpt lat="44.0638979639195" lon="10.10823236923866"><ele>337.4</ele><time>2026-03-28T09:56:19Z</time></trkpt><trkpt lat="44.06380524728923" lon="10.108191772216351"><ele>341.79999999999995</ele><time>2026-03-28T09:56:20Z</time></trkpt><trkpt lat="44.063703931054754" lon="10.108083694974196"><ele>346.2</ele><time>2026-03-28T09:56:22Z</time></trkpt><trkpt lat="44.063693501221" lon="10.107975283993119"><ele>350.6</ele><time>2026-03-28T09:56:23Z</time></trkpt><trkpt lat="44.063727953273215" lon="10.107859283352989"><ele>355.0</ele><time>2026-03-28T09:56:24Z</time></trkpt><trkpt lat="44.063750396355466" lon="10.107736436970848"><ele>355.0</ele><time>2026-03-28T09:56:26Z</time></trkpt><trkpt lat="44.063678463794176" lon="10.10767573113533"><ele>355.0</ele><time>2026-03-28T09:56:27Z</time></trkpt><trkpt lat="44.06360489161641" lon="10.107564840766198"><ele>355.0</ele><time>2026-03-28T09:56:28Z</time></trkpt><trkpt lat="44.0635380008725" lon="10.107434664183168"><ele>355.0</ele><time>2026-03-28T09:56:29Z</time></trkpt><trkpt lat="44.06349534465549" lon="10.107343300334087"><ele>355.0</ele><time>2026-03-28T09:56:30Z</time></trkpt><trkpt lat="44.06347196909594" lon="10.107156179091714"><ele>354.4</ele><time>2026-03-28T09:56:32Z</time></trkpt><trkpt lat="44.06345794015657" lon="10.106950903701485"><ele>353.8</ele><time>2026-03-28T09:56:34Z</time></trkpt><trkpt lat="44.0634361999906" lon="10.106841095042972"><ele>353.20000000000005</ele><time>2026-03-28T09:56:35Z</time></trkpt><trkpt lat="44.06338693148579" lon="10.106737462759387"><ele>352.6</ele><time>2026-03-28T09:56:36Z</time></trkpt><trkpt lat="44.063343837847306" lon="10.106644426697573"><ele>352.0</ele><time>2026-03-28T09:56:37Z</time></trkpt><trkpt lat="44.06328536055316" lon="10.106591482447273"><ele>352.8333333333333</ele><time>2026-03-28T09:56:38Z</time></trkpt><trkpt lat="44.06317279050675" lon="10.106592932038966"><ele>353.66666666666663</ele><time>2026-03-28T09:56:40Z</time></trkpt><trkpt lat="44.06309657279356" lon="10.106636370417919"><ele>354.5</ele><time>2026-03-28T09:56:41Z</time></trkpt><trkpt lat="44.063046659984096" lon="10.106736462152833"><ele>355.3333333333333</ele><time>2026-03-28T09:56:42Z</time></trkpt><trkpt lat="44.063005177408144" lon="10.106812883593493"><ele>356.1666666666667</ele><time>2026-03-28T09:56:43Z</time></trkpt><trkpt lat="44.06298028255321" lon="10.106899039916854"><ele>357.0</ele><time>2026-03-28T09:56:44Z</time></trkpt><trkpt lat="44.06296985486382" lon="10.10702273690673"><ele>357.0</ele><time>2026-03-28T09:56:45Z</time></trkpt><trkpt lat="44.0629892494291" lon="10.10714953216924"><ele>357.0</ele><time>2026-03-28T09:56:46Z</time></trkpt><trkpt lat="44.062983835620756" lon="10.107258894223856"><ele>357.0</ele><time>2026-03-28T09:56:47Z</time></trkpt><trkpt lat="44.062959716227134" lon="10.107445326089632"><ele>357.0</ele><time>2026-03-28T09:56:49Z</time></trkpt><trkpt lat="44.06297585718257" lon="10.107602244057375"><ele>357.0</ele><time>2026-03-28T09:56:51Z</time></trkpt><trkpt lat="44.062952808907085" lon="10.107712917257714"><ele>360.0</ele><time>2026-03-28T09:56:52Z</time></trkpt><trkpt lat="44.06282186568057" lon="10.107840500784834"><ele>363.0</ele><time>2026-03-28T09:56:53Z</time></trkpt><trkpt lat="44.06277957833236" lon="10.107917048119221"><ele>366.0</ele><time>2026-03-28T09:56:54Z</time></trkpt><trkpt lat="44.062756635725954" lon="10.108006914293295"><ele>369.0</ele><time>2026-03-28T09:56:55Z</time></trkpt><trkpt lat="44.06268389762011" lon="10.108069205266231"><ele>372.0</ele><time>2026-03-28T09:56:56Z</time></trkpt><trkpt lat="44.06260572712195" lon="10.108060756094293"><ele>372.0</ele><time>2026-03-28T09:56:57Z</time></trkpt><trkpt lat="44.06253296125449" lon="10.108106722124793"><ele>372.0</ele><time>2026-03-28T09:56:58Z</time></trkpt><trkpt lat="44.062473939195996" lon="10.108168377369731"><ele>372.0</ele><time>2026-03-28T09:56:59Z</time></trkpt><trkpt lat="44.062417399990196" lon="10.108237007761378"><ele>372.0</ele><time>2026-03-28T09:57:00Z</time></trkpt><trkpt lat="44.06235618017802" lon="10.108274397228625"><ele>372.0</ele><time>2026-03-28T09:57:01Z</time></trkpt><trkpt lat="44.062272787983176" lon="10.108290980313928"><ele>372.0</ele><time>2026-03-28T09:57:02Z</time></trkpt><trkpt lat="44.06220564601709" lon="10.108254056374758"><ele>373.8333333333333</ele><time>2026-03-28T09:57:03Z</time></trkpt><trkpt lat="44.0621111493643" lon="10.108319246584953"><ele>375.6666666666667</ele><time>2026-03-28T09:57:05Z</time></trkpt><trkpt lat="44.062049531200124" lon="10.108391808544683"><ele>377.5</ele><time>2026-03-28T09:57:06Z</time></trkpt><trkpt lat="44.06197303031566" lon="10.108424648456982"><ele>379.33333333333337</ele><time>2026-03-28T09:57:07Z</time></trkpt><trkpt lat="44.06190124652515" lon="10.108477528380238"><ele>381.1666666666667</ele><time>2026-03-28T09:57:08Z</time></trkpt><trkpt lat="44.06181631555455" lon="10.108530482257839"><ele>383.0</ele><time>2026-03-28T09:57:09Z</time></trkpt><trkpt lat="44.061737792698" lon="10.108552876632285"><ele>383.0</ele><time>2026-03-28T09:57:10Z</time></trkpt><trkpt lat="44.06167375081198" lon="10.108548737025611"><ele>383.0</ele><time>2026-03-28T09:57:11Z</time></trkpt><trkpt lat="44.06160580455258" lon="10.108515529431527"><ele>383.0</ele><time>2026-03-28T09:57:12Z</time></trkpt><trkpt lat="44.06153914918248" lon="10.10847321128231"><ele>383.0</ele><time>2026-03-28T09:57:13Z</time></trkpt><trkpt lat="44.061475707578836" lon="10.108454449711488"><ele>383.0</ele><time>2026-03-28T09:57:14Z</time></trkpt><trkpt lat="44.06142100708034" lon="10.108409425395882"><ele>383.0</ele><time>2026-03-28T09:57:15Z</time></trkpt><trkpt lat="44.061358064239684" lon="10.108254796557395"><ele>387.0</ele><time>2026-03-28T09:57:17Z</time></trkpt><trkpt lat="44.06132836576186" lon="10.108147159967006"><ele>391.0</ele><time>2026-03-28T09:57:19Z</time></trkpt><trkpt lat="44.06122387568913" lon="10.108097289001321"><ele>395.0</ele><time>2026-03-28T09:57:21Z</time></trkpt><trkpt lat="44.061129679608804" lon="10.10808580528745"><ele>399.0</ele><time>2026-03-28T09:57:23Z</time></trkpt><trkpt lat="44.061061216658324" lon="10.108036872229697"><ele>403.0</ele><time>2026-03-28T09:57:24Z</time></trkpt><trkpt lat="44.06102921902512" lon="10.107917531325333"><ele>403.0</ele><time>2026-03-28T09:57:27Z</time></trkpt><trkpt lat="44.06097220706709" lon="10.107815298911895"><ele>403.0</ele><time>2026-03-28T09:57:28Z</time></trkpt><trkpt lat="44.06092710286717" lon="10.10765777540502"><ele>403.0</ele><time>2026-03-28T09:57:30Z</time></trkpt><trkpt lat="44.060908119091856" lon="10.107564252070933"><ele>403.0</ele><time>2026-03-28T09:57:31Z</time></trkpt><trkpt lat="44.06089656417201" lon="10.107437947538456"><ele>403.0</ele><time>2026-03-28T09:57:32Z</time></trkpt><trkpt lat="44.06090481672719" lon="10.107329631473698"><ele>402.00000000000006</ele><time>2026-03-28T09:57:33Z</time></trkpt><trkpt lat="44.060908001050905" lon="10.107223443568001"><ele>401.0</ele><time>2026-03-28T09:57:34Z</time></trkpt><trkpt lat="44.06092203812764" lon="10.107095847290324"><ele>400.0</ele><time>2026-03-28T09:57:35Z</time></trkpt><trkpt lat="44.06094418785502" lon="10.106992558476598"><ele>399.0</ele><time>2026-03-28T09:57:36Z</time></trkpt><trkpt lat="44.060977762489316" lon="10.106827786386912"><ele>398.00000000000006</ele><time>2026-03-28T09:57:38Z</time></trkpt><trkpt lat="44.06093013008245" lon="10.10674400082781"><ele>397.0</ele><time>2026-03-28T09:57:40Z</time></trkpt><trkpt lat="44.0608777328181" lon="10.106685844280326"><ele>397.00000000000006</ele><time>2026-03-28T09:58:03Z</time></trkpt><trkpt lat="44.06081737119615" lon="10.106620363016377"><ele>397.0</ele><time>2026-03-28T09:58:05Z</time></trkpt><trkpt lat="44.06075929336525" lon="10.10656992166114"><ele>397.0</ele><time>2026-03-28T09:58:06Z</time></trkpt><trkpt lat="44.0606628305081" lon="10.106589619108307"><ele>397.0</ele><time>2026-03-28T09:58:08Z</time></trkpt><trkpt lat="44.06059586812921" lon="10.106646831274816"><ele>397.00000000000006</ele><time>2026-03-28T09:58:09Z</time></trkpt><trkpt lat="44.060524420979895" lon="10.1067172801772"><ele>397.0</ele><time>2026-03-28T09:58:10Z</time></trkpt><trkpt lat="44.060448598080676" lon="10.106746368841439"><ele>397.0</ele><time>2026-03-28T09:58:11Z</time></trkpt><trkpt lat="44.06034085463072" lon="10.106722876992828"><ele>397.0</ele><time>2026-03-28T09:58:12Z</time></trkpt><trkpt lat="44.06025940846697" lon="10.106695272352306"><ele>397.0</ele><time>2026-03-28T09:58:13Z</time></trkpt><trkpt lat="44.06013251201989" lon="10.10666307705486"><ele>397.0</ele><time>2026-03-28T09:58:14Z</time></trkpt><trkpt lat="44.06005759014414" lon="10.106660475197126"><ele>397.0</ele><time>2026-03-28T09:58:15Z</time></trkpt><trkpt lat="44.05997406346273" lon="10.106681370023658"><ele>397.00000000000006</ele><time>2026-03-28T09:58:16Z</time></trkpt><trkpt lat="44.05990598738161" lon="10.106738194680993"><ele>397.0</ele><time>2026-03-28T09:58:17Z</time></trkpt><trkpt lat="44.059868515405455" lon="10.106835524051187"><ele>397.0</ele><time>2026-03-28T09:58:18Z</time></trkpt><trkpt lat="44.05982023354414" lon="10.106935577542012"><ele>397.0</ele><time>2026-03-28T09:58:20Z</time></trkpt><trkpt lat="44.05988069740394" lon="10.10687011955134"><ele>397.00000000000006</ele><time>2026-03-28T09:58:41Z</time></trkpt><trkpt lat="44.0599297767815" lon="10.106800882304206"><ele>397.0</ele><time>2026-03-28T09:58:42Z</time></trkpt><trkpt lat="44.06001611081748" lon="10.10673960594528"><ele>397.0</ele><time>2026-03-28T09:58:44Z</time></trkpt><trkpt lat="44.060103937609576" lon="10.10671934969761"><ele>397.0</ele><time>2026-03-28T09:58:46Z</time></trkpt><trkpt lat="44.06016730920659" lon="10.106728831905102"><ele>397.0</ele><time>2026-03-28T09:58:47Z</time></trkpt><trkpt lat="44.060271678097465" lon="10.10676251623388"><ele>397.0</ele><time>2026-03-28T09:58:49Z</time></trkpt><trkpt lat="44.06040597783608" lon="10.106762426640584"><ele>397.0</ele><time>2026-03-28T09:58:51Z</time></trkpt><trkpt lat="44.060491366067744" lon="10.106754289935433"><ele>397.0</ele><time>2026-03-28T09:58:52Z</time></trkpt><trkpt lat="44.06056335225814" lon="10.106704424828592"><ele>397.0</ele><time>2026-03-28T09:58:53Z</time></trkpt><trkpt lat="44.060680766912036" lon="10.106613696701057"><ele>397.0</ele><time>2026-03-28T09:58:55Z</time></trkpt><trkpt lat="44.060782098896695" lon="10.106546513011873"><ele>397.0</ele><time>2026-03-28T09:58:57Z</time></trkpt><trkpt lat="44.060834916979445" lon="10.106634772747677"><ele>397.0</ele><time>2026-03-28T09:58:59Z</time></trkpt><trkpt lat="44.06092122910308" lon="10.106708636284786"><ele>397.0</ele><time>2026-03-28T09:59:01Z</time></trkpt><trkpt lat="44.06095468440264" lon="10.106630779186277"><ele>397.0</ele><time>2026-03-28T09:59:17Z</time></trkpt><trkpt lat="44.060986259429846" lon="10.106547017902413"><ele>397.0</ele><time>2026-03-28T09:59:18Z</time></trkpt><trkpt lat="44.0610084291642" lon="10.106445638679427"><ele>397.0</ele><time>2026-03-28T09:59:19Z</time></trkpt><trkpt lat="44.06104482944807" lon="10.106322516392195"><ele>397.0</ele><time>2026-03-28T09:59:21Z</time></trkpt><trkpt lat="44.061041872345605" lon="10.106230550543666"><ele>397.0</ele><time>2026-03-28T09:59:38Z</time></trkpt><trkpt lat="44.06107273396945" lon="10.10614615593083"><ele>397.0</ele><time>2026-03-28T09:59:47Z</time></trkpt><trkpt lat="44.06107808558827" lon="10.10604328053409"><ele>396.0</ele><time>2026-03-28T09:59:53Z</time></trkpt><trkpt lat="44.061095623151814" lon="10.105952609006641"><ele>395.0</ele><time>2026-03-28T09:59:57Z</time></trkpt><trkpt lat="44.061109847206346" lon="10.105857176669568"><ele>394.0</ele><time>2026-03-28T10:00:02Z</time></trkpt><trkpt lat="44.06108231046694" lon="10.105773143495503"><ele>393.0</ele><time>2026-03-28T10:00:18Z</time></trkpt><trkpt lat="44.061089164093225" lon="10.105865133363052"><ele>392.0</ele><time>2026-03-28T10:02:32Z</time></trkpt><trkpt lat="44.06107512509722" lon="10.105957232238616"><ele>391.0</ele><time>2026-03-28T10:02:38Z</time></trkpt><trkpt lat="44.061062367413065" lon="10.106053198664485"><ele>390.0</ele><time>2026-03-28T10:02:44Z</time></trkpt><trkpt lat="44.061037875033946" lon="10.106150403938257"><ele>390.0</ele><time>2026-03-28T10:02:49Z</time></trkpt><trkpt lat="44.06108468639363" lon="10.106237253656438"><ele>390.0</ele><time>2026-03-28T10:03:33Z</time></trkpt><trkpt lat="44.06101889317344" lon="10.10624428931743"><ele>390.0</ele><time>2026-03-28T10:06:23Z</time></trkpt><trkpt lat="44.06100002663954" lon="10.106368247404971"><ele>390.0</ele><time>2026-03-28T10:07:18Z</time></trkpt><trkpt lat="44.06098429455268" lon="10.10648923763561"><ele>390.0</ele><time>2026-03-28T10:07:20Z</time></trkpt><trkpt lat="44.06096824973922" lon="10.106591936359171"><ele>390.0</ele><time>2026-03-28T10:07:22Z</time></trkpt><trkpt lat="44.060930537049245" lon="10.10667305855181"><ele>390.0</ele><time>2026-03-28T10:07:24Z</time></trkpt><trkpt lat="44.06085981791111" lon="10.10669703021645"><ele>390.0</ele><time>2026-03-28T10:07:28Z</time></trkpt><trkpt lat="44.06078096356644" lon="10.106605723459891"><ele>390.0</ele><time>2026-03-28T10:07:31Z</time></trkpt><trkpt lat="44.060815393464296" lon="10.106497695121472"><ele>390.0</ele><time>2026-03-28T10:07:34Z</time></trkpt><trkpt lat="44.06086180131348" lon="10.106397186185378"><ele>390.0</ele><time>2026-03-28T10:07:37Z</time></trkpt><trkpt lat="44.06088252448125" lon="10.10631027098273"><ele>390.0</ele><time>2026-03-28T10:07:39Z</time></trkpt><trkpt lat="44.06090219240991" lon="10.106217043782078"><ele>390.0</ele><time>2026-03-28T10:07:41Z</time></trkpt><trkpt lat="44.06091025164951" lon="10.10610366891384"><ele>390.0</ele><time>2026-03-28T10:08:05Z</time></trkpt><trkpt lat="44.060925219751695" lon="10.105998735723194"><ele>390.0</ele><time>2026-03-28T10:08:07Z</time></trkpt><trkpt lat="44.06094758591785" lon="10.105894455017106"><ele>390.0</ele><time>2026-03-28T10:08:09Z</time></trkpt><trkpt lat="44.06098766987164" lon="10.105826389925276"><ele>390.0</ele><time>2026-03-28T10:08:13Z</time></trkpt><trkpt lat="44.06101150840911" lon="10.105739771414761"><ele>390.0</ele><time>2026-03-28T10:08:32Z</time></trkpt><trkpt lat="44.061028849561964" lon="10.105827345656634"><ele>390.0</ele><time>2026-03-28T10:08:43Z</time></trkpt><trkpt lat="44.06096726998172" lon="10.105883629938711"><ele>390.0</ele><time>2026-03-28T10:09:02Z</time></trkpt><trkpt lat="44.060969312431084" lon="10.10597631714731"><ele>390.0</ele><time>2026-03-28T10:09:43Z</time></trkpt><trkpt lat="44.06093817023498" lon="10.106141700148587"><ele>390.0</ele><time>2026-03-28T10:09:45Z</time></trkpt><trkpt lat="44.060910095264276" lon="10.106276104437917"><ele>390.0</ele><time>2026-03-28T10:09:47Z</time></trkpt><trkpt lat="44.06088004389856" lon="10.106380394624974"><ele>390.0</ele><time>2026-03-28T10:09:49Z</time></trkpt><trkpt lat="44.06084188455472" lon="10.106480364272832"><ele>390.0</ele><time>2026-03-28T10:09:51Z</time></trkpt><trkpt lat="44.060795309468695" lon="10.106567605027239"><ele>390.0</ele><time>2026-03-28T10:09:53Z</time></trkpt><trkpt lat="44.0608147503103" lon="10.106684586988896"><ele>390.0</ele><time>2026-03-28T10:09:56Z</time></trkpt><trkpt lat="44.06091573567806" lon="10.106704551215161"><ele>390.0</ele><time>2026-03-28T10:09:58Z</time></trkpt><trkpt lat="44.06094991190939" lon="10.10681693498014"><ele>390.0</ele><time>2026-03-28T10:10:01Z</time></trkpt><trkpt lat="44.060955349602565" lon="10.10695367240839"><ele>391.4</ele><time>2026-03-28T10:10:03Z</time></trkpt><trkpt lat="44.06092454858665" lon="10.10706308250292"><ele>392.8</ele><time>2026-03-28T10:10:05Z</time></trkpt><trkpt lat="44.06090863010325" lon="10.107207403012836"><ele>394.20000000000005</ele><time>2026-03-28T10:10:07Z</time></trkpt><trkpt lat="44.06090164447071" lon="10.107360696044228"><ele>395.6</ele><time>2026-03-28T10:10:09Z</time></trkpt><trkpt lat="44.06087577183574" lon="10.107453385471675"><ele>397.0</ele><time>2026-03-28T10:10:10Z</time></trkpt><trkpt lat="44.06088681320309" lon="10.107571047464651"><ele>398.00000000000006</ele><time>2026-03-28T10:10:11Z</time></trkpt><trkpt lat="44.06090821728753" lon="10.107674447008344"><ele>399.0</ele><time>2026-03-28T10:10:12Z</time></trkpt><trkpt lat="44.06090077132159" lon="10.107792531642144"><ele>400.0</ele><time>2026-03-28T10:10:13Z</time></trkpt><trkpt lat="44.0609126757993" lon="10.10788028626372"><ele>401.0</ele><time>2026-03-28T10:10:14Z</time></trkpt><trkpt lat="44.060977786606095" lon="10.108022103919643"><ele>402.00000000000006</ele><time>2026-03-28T10:10:16Z</time></trkpt><trkpt lat="44.061023547569825" lon="10.108083393849505"><ele>403.0</ele><time>2026-03-28T10:10:17Z</time></trkpt><trkpt lat="44.06109416267285" lon="10.108109389782953"><ele>403.00000000000006</ele><time>2026-03-28T10:10:18Z</time></trkpt><trkpt lat="44.06118696811894" lon="10.108079522729353"><ele>403.0</ele><time>2026-03-28T10:10:20Z</time></trkpt><trkpt lat="44.06130195615344" lon="10.108158181879423"><ele>403.0</ele><time>2026-03-28T10:10:22Z</time></trkpt><trkpt lat="44.06135566733127" lon="10.108210232381285"><ele>403.0</ele><time>2026-03-28T10:10:23Z</time></trkpt><trkpt lat="44.061416675943846" lon="10.108285888634365"><ele>403.00000000000006</ele><time>2026-03-28T10:10:24Z</time></trkpt><trkpt lat="44.061472425397554" lon="10.108352215805866"><ele>403.0</ele><time>2026-03-28T10:10:25Z</time></trkpt><trkpt lat="44.06155327382216" lon="10.108467510796928"><ele>399.0</ele><time>2026-03-28T10:10:27Z</time></trkpt><trkpt lat="44.061679214292795" lon="10.108547329235833"><ele>395.0</ele><time>2026-03-28T10:10:29Z</time></trkpt><trkpt lat="44.061744293715826" lon="10.108559426466527"><ele>391.0</ele><time>2026-03-28T10:10:30Z</time></trkpt><trkpt lat="44.06187018100918" lon="10.108551629690371"><ele>387.0</ele><time>2026-03-28T10:10:32Z</time></trkpt><trkpt lat="44.06196192728247" lon="10.108481050238833"><ele>383.0</ele><time>2026-03-28T10:10:34Z</time></trkpt><trkpt lat="44.06206047223189" lon="10.108379808977908"><ele>383.0</ele><time>2026-03-28T10:10:36Z</time></trkpt><trkpt lat="44.06214718661995" lon="10.10831717379787"><ele>383.0</ele><time>2026-03-28T10:10:39Z</time></trkpt><trkpt lat="44.06220460177808" lon="10.108241885431418"><ele>383.0</ele><time>2026-03-28T10:10:42Z</time></trkpt><trkpt lat="44.06230013224579" lon="10.108234664228258"><ele>383.0</ele><time>2026-03-28T10:10:44Z</time></trkpt><trkpt lat="44.062401354918514" lon="10.108259547261092"><ele>383.0</ele><time>2026-03-28T10:10:46Z</time></trkpt><trkpt lat="44.0624835126625" lon="10.10817694614412"><ele>381.1666666666667</ele><time>2026-03-28T10:10:48Z</time></trkpt><trkpt lat="44.0625285996732" lon="10.108100474986639"><ele>379.33333333333337</ele><time>2026-03-28T10:10:49Z</time></trkpt><trkpt lat="44.062619667360714" lon="10.108005782172818"><ele>377.5</ele><time>2026-03-28T10:10:51Z</time></trkpt><trkpt lat="44.06269400283394" lon="10.107985439371207"><ele>375.6666666666667</ele><time>2026-03-28T10:10:53Z</time></trkpt><trkpt lat="44.06274076561823" lon="10.10792164983856"><ele>373.8333333333333</ele><time>2026-03-28T10:10:54Z</time></trkpt><trkpt lat="44.06276554509875" lon="10.10782368995536"><ele>372.0</ele><time>2026-03-28T10:10:55Z</time></trkpt><trkpt lat="44.06277993689469" lon="10.107710516838273"><ele>372.0</ele><time>2026-03-28T10:10:56Z</time></trkpt><trkpt lat="44.062865114138994" lon="10.107579876412215"><ele>372.0</ele><time>2026-03-28T10:10:58Z</time></trkpt><trkpt lat="44.06292990787232" lon="10.107436799442233"><ele>372.0</ele><time>2026-03-28T10:11:00Z</time></trkpt><trkpt lat="44.06294787891745" lon="10.107349270092234"><ele>372.0</ele><time>2026-03-28T10:11:01Z</time></trkpt><trkpt lat="44.06293627947734" lon="10.107261044493814"><ele>372.0</ele><time>2026-03-28T10:11:02Z</time></trkpt><trkpt lat="44.062940046141286" lon="10.107113293522051"><ele>368.25</ele><time>2026-03-28T10:11:04Z</time></trkpt><trkpt lat="44.06296459242871" lon="10.106964618221193"><ele>364.5</ele><time>2026-03-28T10:11:06Z</time></trkpt><trkpt lat="44.06298914920906" lon="10.106793849444584"><ele>360.75</ele><time>2026-03-28T10:11:08Z</time></trkpt><trkpt lat="44.06306203074444" lon="10.106670909411038"><ele>357.0</ele><time>2026-03-28T10:11:10Z</time></trkpt><trkpt lat="44.063166537196715" lon="10.106611025622668"><ele>357.0</ele><time>2026-03-28T10:11:12Z</time></trkpt><trkpt lat="44.06325234585338" lon="10.106598319089152"><ele>357.0</ele><time>2026-03-28T10:11:14Z</time></trkpt><trkpt lat="44.06331146862939" lon="10.106698970577071"><ele>357.0</ele><time>2026-03-28T10:11:16Z</time></trkpt><trkpt lat="44.06339240084059" lon="10.106847068736837"><ele>357.0</ele><time>2026-03-28T10:11:18Z</time></trkpt><trkpt lat="44.063434862844545" lon="10.107016554581502"><ele>357.0</ele><time>2026-03-28T10:11:20Z</time></trkpt><trkpt lat="44.06347015091919" lon="10.107109866097915"><ele>356.6</ele><time>2026-03-28T10:11:21Z</time></trkpt><trkpt lat="44.06347718076056" lon="10.107197595888854"><ele>356.20000000000005</ele><time>2026-03-28T10:11:22Z</time></trkpt><trkpt lat="44.06348474008447" lon="10.107324014018277"><ele>355.8</ele><time>2026-03-28T10:11:24Z</time></trkpt><trkpt lat="44.0635237695133" lon="10.107462169251228"><ele>355.4</ele><time>2026-03-28T10:11:26Z</time></trkpt><trkpt lat="44.06358139501154" lon="10.107533250793946"><ele>355.0</ele><time>2026-03-28T10:11:27Z</time></trkpt><trkpt lat="44.063641740963064" lon="10.107671984615784"><ele>355.0</ele><time>2026-03-28T10:11:29Z</time></trkpt><trkpt lat="44.063693817088804" lon="10.10774102290064"><ele>355.0</ele><time>2026-03-28T10:11:31Z</time></trkpt><trkpt lat="44.06376960566741" lon="10.107864727400425"><ele>355.0</ele><time>2026-03-28T10:11:54Z</time></trkpt><trkpt lat="44.06374279728205" lon="10.107967290954285"><ele>355.0</ele><time>2026-03-28T10:11:56Z</time></trkpt><trkpt lat="44.063758067091335" lon="10.108074190196556"><ele>355.0</ele><time>2026-03-28T10:11:58Z</time></trkpt><trkpt lat="44.06383468728375" lon="10.108109615351003"><ele>355.0</ele><time>2026-03-28T10:11:59Z</time></trkpt><trkpt lat="44.06392304782495" lon="10.108134131233633"><ele>355.0</ele><time>2026-03-28T10:12:01Z</time></trkpt><trkpt lat="44.06397924121384" lon="10.108177723411222"><ele>355.0</ele><time>2026-03-28T10:12:02Z</time></trkpt><trkpt lat="44.06405596069777" lon="10.108208359635096"><ele>355.0</ele><time>2026-03-28T10:12:05Z</time></trkpt><trkpt lat="44.064184091764446" lon="10.108134680304257"><ele>355.0</ele><time>2026-03-28T10:12:07Z</time></trkpt><trkpt lat="44.06428309608443" lon="10.108237569059657"><ele>355.0</ele><time>2026-03-28T10:12:09Z</time></trkpt><trkpt lat="44.0643406357356" lon="10.108303742400928"><ele>350.6</ele><time>2026-03-28T10:12:10Z</time></trkpt><trkpt lat="44.064396110110884" lon="10.108348405043152"><ele>346.2</ele><time>2026-03-28T10:12:11Z</time></trkpt><trkpt lat="44.06447943285381" lon="10.108382266949066"><ele>341.79999999999995</ele><time>2026-03-28T10:12:13Z</time></trkpt><trkpt lat="44.064580855649076" lon="10.108357945732546"><ele>337.4</ele><time>2026-03-28T10:12:15Z</time></trkpt><trkpt lat="44.06465925441262" lon="10.10826277783267"><ele>333.0</ele><time>2026-03-28T10:12:17Z</time></trkpt><trkpt lat="44.06475897380659" lon="10.108162831994896"><ele>333.0</ele><time>2026-03-28T10:12:19Z</time></trkpt><trkpt lat="44.06485657465753" lon="10.108070388395625"><ele>333.0</ele><time>2026-03-28T10:12:21Z</time></trkpt><trkpt lat="44.06495029954721" lon="10.107998984640421"><ele>333.0</ele><time>2026-03-28T10:12:23Z</time></trkpt><trkpt lat="44.06500738724727" lon="10.107930387373273"><ele>333.0</ele><time>2026-03-28T10:12:25Z</time></trkpt><trkpt lat="44.06506642132408" lon="10.10789497524834"><ele>333.0</ele><time>2026-03-28T10:12:42Z</time></trkpt><trkpt lat="44.065045518410855" lon="10.107804131807352"><ele>333.0</ele><time>2026-03-28T10:13:16Z</time></trkpt><trkpt lat="44.065069900157056" lon="10.107713614812747"><ele>330.0</ele><time>2026-03-28T10:13:21Z</time></trkpt><trkpt lat="44.065102886682865" lon="10.107591643058903"><ele>327.0</ele><time>2026-03-28T10:13:31Z</time></trkpt><trkpt lat="44.06511592772856" lon="10.107451546200254"><ele>324.0</ele><time>2026-03-28T10:13:33Z</time></trkpt><trkpt lat="44.06515509413786" lon="10.107330164510714"><ele>321.0</ele><time>2026-03-28T10:13:35Z</time></trkpt><trkpt lat="44.06519862541952" lon="10.107266418576517"><ele>318.0</ele><time>2026-03-28T10:13:37Z</time></trkpt><trkpt lat="44.06528640961282" lon="10.107137880584546"><ele>317.0</ele><time>2026-03-28T10:13:39Z</time></trkpt><trkpt lat="44.06536780750193" lon="10.107048640687475"><ele>316.0</ele><time>2026-03-28T10:13:41Z</time></trkpt><trkpt lat="44.0654406045349" lon="10.106991472055581"><ele>315.0</ele><time>2026-03-28T10:13:44Z</time></trkpt><trkpt lat="44.06548118237591" lon="10.106912007019702"><ele>314.0</ele><time>2026-03-28T10:13:46Z</time></trkpt><trkpt lat="44.06549270461174" lon="10.106824646173873"><ele>313.0</ele><time>2026-03-28T10:13:48Z</time></trkpt><trkpt lat="44.06550112329657" lon="10.106730395638479"><ele>312.0</ele><time>2026-03-28T10:13:51Z</time></trkpt><trkpt lat="44.06553549306972" lon="10.106815021220138"><ele>312.0</ele><time>2026-03-28T10:13:53Z</time></trkpt><trkpt lat="44.065537711244964" lon="10.1069149016948"><ele>312.0</ele><time>2026-03-28T10:13:55Z</time></trkpt><trkpt lat="44.065514786310096" lon="10.107030911099415"><ele>312.0</ele><time>2026-03-28T10:13:57Z</time></trkpt><trkpt lat="44.06549196586521" lon="10.10718566423441"><ele>312.0</ele><time>2026-03-28T10:13:59Z</time></trkpt><trkpt lat="44.06545907518032" lon="10.10731750716159"><ele>312.0</ele><time>2026-03-28T10:14:01Z</time></trkpt><trkpt lat="44.06538793453938" lon="10.107447128867861"><ele>312.8571428571429</ele><time>2026-03-28T10:14:03Z</time></trkpt><trkpt lat="44.06534910579252" lon="10.107535594194152"><ele>313.71428571428567</ele><time>2026-03-28T10:14:04Z</time></trkpt><trkpt lat="44.06531592578567" lon="10.107620186392147"><ele>314.57142857142856</ele><time>2026-03-28T10:14:05Z</time></trkpt><trkpt lat="44.065307798460026" lon="10.107713325741466"><ele>315.42857142857144</ele><time>2026-03-28T10:14:06Z</time></trkpt><trkpt lat="44.065295669539296" lon="10.107812915979235"><ele>316.28571428571433</ele><time>2026-03-28T10:14:07Z</time></trkpt><trkpt lat="44.06529709308968" lon="10.107917720977285"><ele>317.1428571428571</ele><time>2026-03-28T10:14:08Z</time></trkpt><trkpt lat="44.06528627590521" lon="10.108023584714692"><ele>318.0</ele><time>2026-03-28T10:14:09Z</time></trkpt><trkpt lat="44.06525214572917" lon="10.108130805151731"><ele>318.0</ele><time>2026-03-28T10:14:10Z</time></trkpt><trkpt lat="44.06520904382082" lon="10.108233422631558"><ele>318.0</ele><time>2026-03-28T10:14:11Z</time></trkpt><trkpt lat="44.0651653683132" lon="10.108322595885484"><ele>318.0</ele><time>2026-03-28T10:14:12Z</time></trkpt><trkpt lat="44.065100648421414" lon="10.108387211285244"><ele>318.0</ele><time>2026-03-28T10:14:13Z</time></trkpt><trkpt lat="44.06505267882969" lon="10.108468871519914"><ele>318.0</ele><time>2026-03-28T10:14:14Z</time></trkpt><trkpt lat="44.065019477696964" lon="10.108550226422704"><ele>318.0</ele><time>2026-03-28T10:14:15Z</time></trkpt><trkpt lat="44.06496582111542" lon="10.10861814459141"><ele>319.5</ele><time>2026-03-28T10:14:16Z</time></trkpt><trkpt lat="44.064914389366" lon="10.108715684177167"><ele>321.0</ele><time>2026-03-28T10:14:17Z</time></trkpt><trkpt lat="44.06487176334415" lon="10.10882385704681"><ele>322.5</ele><time>2026-03-28T10:14:18Z</time></trkpt><trkpt lat="44.064817972759144" lon="10.108889302015143"><ele>324.0</ele><time>2026-03-28T10:14:19Z</time></trkpt><trkpt lat="44.064763800477394" lon="10.108955516396566"><ele>325.5</ele><time>2026-03-28T10:14:20Z</time></trkpt><trkpt lat="44.06470213235579" lon="10.109014865417596"><ele>327.0</ele><time>2026-03-28T10:14:21Z</time></trkpt><trkpt lat="44.064648673653366" lon="10.109067374402912"><ele>327.0</ele><time>2026-03-28T10:14:22Z</time></trkpt><trkpt lat="44.06459042677779" lon="10.10915959924956"><ele>327.0</ele><time>2026-03-28T10:14:24Z</time></trkpt><trkpt lat="44.06462442191258" lon="10.109238351315618"><ele>327.0</ele><time>2026-03-28T10:14:25Z</time></trkpt><trkpt lat="44.06469075812868" lon="10.109236857079212"><ele>327.0</ele><time>2026-03-28T10:14:26Z</time></trkpt><trkpt lat="44.06476743894273" lon="10.109147757814425"><ele>327.0</ele><time>2026-03-28T10:14:27Z</time></trkpt><trkpt lat="44.06481404800951" lon="10.109072069971683"><ele>327.0</ele><time>2026-03-28T10:14:28Z</time></trkpt><trkpt lat="44.064872406564184" lon="10.109024384000929"><ele>327.0</ele><time>2026-03-28T10:14:29Z</time></trkpt><trkpt lat="44.06492204158136" lon="10.108953648357666"><ele>327.0</ele><time>2026-03-28T10:14:30Z</time></trkpt><trkpt lat="44.06498258397688" lon="10.108871520314494"><ele>327.0</ele><time>2026-03-28T10:14:31Z</time></trkpt><trkpt lat="44.065046841890734" lon="10.108797479427205"><ele>327.0</ele><time>2026-03-28T10:14:32Z</time></trkpt><trkpt lat="44.065112385636255" lon="10.10871477181664"><ele>327.0</ele><time>2026-03-28T10:14:33Z</time></trkpt><trkpt lat="44.065169719645745" lon="10.108642494110997"><ele>327.0</ele><time>2026-03-28T10:14:34Z</time></trkpt><trkpt lat="44.06523438487264" lon="10.108566892125824"><ele>325.20000000000005</ele><time>2026-03-28T10:14:35Z</time></trkpt><trkpt lat="44.06529512855978" lon="10.108496065695904"><ele>323.40000000000003</ele><time>2026-03-28T10:14:36Z</time></trkpt><trkpt lat="44.0653535801334" lon="10.108429760928418"><ele>321.6</ele><time>2026-03-28T10:14:37Z</time></trkpt><trkpt lat="44.06542232372269" lon="10.108313681101057"><ele>319.8</ele><time>2026-03-28T10:14:38Z</time></trkpt><trkpt lat="44.06546479244183" lon="10.108185035894222"><ele>318.0</ele><time>2026-03-28T10:14:39Z</time></trkpt><trkpt lat="44.06552412581229" lon="10.108085753168234"><ele>318.0</ele><time>2026-03-28T10:14:40Z</time></trkpt><trkpt lat="44.06556572464724" lon="10.107960597618472"><ele>318.0</ele><time>2026-03-28T10:14:41Z</time></trkpt><trkpt lat="44.0656005619551" lon="10.107851238758105"><ele>318.0</ele><time>2026-03-28T10:14:42Z</time></trkpt><trkpt lat="44.06563509986079" lon="10.107759731145862"><ele>318.0</ele><time>2026-03-28T10:14:43Z</time></trkpt><trkpt lat="44.06572218661355" lon="10.10768994665934"><ele>318.0</ele><time>2026-03-28T10:14:45Z</time></trkpt><trkpt lat="44.065825320550374" lon="10.107604989018272"><ele>312.2</ele><time>2026-03-28T10:14:47Z</time></trkpt><trkpt lat="44.06587435411384" lon="10.10749513211631"><ele>306.4</ele><time>2026-03-28T10:14:48Z</time></trkpt><trkpt lat="44.065931787245844" lon="10.107381763464513"><ele>300.59999999999997</ele><time>2026-03-28T10:14:49Z</time></trkpt><trkpt lat="44.06595527874306" lon="10.107258557623386"><ele>294.8</ele><time>2026-03-28T10:14:50Z</time></trkpt><trkpt lat="44.065944181034475" lon="10.107135976218148"><ele>289.0</ele><time>2026-03-28T10:14:51Z</time></trkpt><trkpt lat="44.06595091186813" lon="10.107026030325715"><ele>289.0</ele><time>2026-03-28T10:14:52Z</time></trkpt><trkpt lat="44.065964219353155" lon="10.106933452917016"><ele>289.0</ele><time>2026-03-28T10:14:53Z</time></trkpt><trkpt lat="44.066016842205464" lon="10.106831236510791"><ele>289.0</ele><time>2026-03-28T10:14:55Z</time></trkpt><trkpt lat="44.06609228604995" lon="10.106853721582297"><ele>289.0</ele><time>2026-03-28T10:14:56Z</time></trkpt><trkpt lat="44.066122828141594" lon="10.106972109799324"><ele>289.0</ele><time>2026-03-28T10:14:57Z</time></trkpt><trkpt lat="44.066118985534075" lon="10.107083348575543"><ele>289.0</ele><time>2026-03-28T10:14:58Z</time></trkpt><trkpt lat="44.066120158467264" lon="10.107180930742388"><ele>289.0</ele><time>2026-03-28T10:14:59Z</time></trkpt><trkpt lat="44.06615210097513" lon="10.107265503511838"><ele>289.0</ele><time>2026-03-28T10:15:00Z</time></trkpt><trkpt lat="44.066188466445496" lon="10.10734672748148"><ele>289.0</ele><time>2026-03-28T10:15:01Z</time></trkpt><trkpt lat="44.06622940523539" lon="10.107424245483262"><ele>289.0</ele><time>2026-03-28T10:15:02Z</time></trkpt><trkpt lat="44.06625319276612" lon="10.107508001876948"><ele>289.0</ele><time>2026-03-28T10:15:03Z</time></trkpt><trkpt lat="44.06626576751261" lon="10.1076092758553"><ele>289.0</ele><time>2026-03-28T10:15:04Z</time></trkpt><trkpt lat="44.066219630853155" lon="10.10776341795856"><ele>287.4</ele><time>2026-03-28T10:15:06Z</time></trkpt><trkpt lat="44.0661344713215" lon="10.107781250852385"><ele>285.79999999999995</ele><time>2026-03-28T10:15:07Z</time></trkpt><trkpt lat="44.06603756118403" lon="10.107793098855653"><ele>284.20000000000005</ele><time>2026-03-28T10:15:08Z</time></trkpt><trkpt lat="44.065937031072124" lon="10.107788310293827"><ele>282.6</ele><time>2026-03-28T10:15:09Z</time></trkpt><trkpt lat="44.0658550454229" lon="10.107805983580588"><ele>281.0</ele><time>2026-03-28T10:15:10Z</time></trkpt><trkpt lat="44.06577356413448" lon="10.107872866786183"><ele>286.8</ele><time>2026-03-28T10:15:11Z</time></trkpt><trkpt lat="44.065734572119354" lon="10.108004537359298"><ele>292.6</ele><time>2026-03-28T10:15:12Z</time></trkpt><trkpt lat="44.065701723903764" lon="10.108120309241986"><ele>298.4</ele><time>2026-03-28T10:15:13Z</time></trkpt><trkpt lat="44.065689550637465" lon="10.108235682025846"><ele>304.2</ele><time>2026-03-28T10:15:14Z</time></trkpt><trkpt lat="44.065693003785746" lon="10.10837752506153"><ele>310.0</ele><time>2026-03-28T10:15:15Z</time></trkpt><trkpt lat="44.0656825684947" lon="10.10852284570878"><ele>310.0</ele><time>2026-03-28T10:15:16Z</time></trkpt><trkpt lat="44.06566019088101" lon="10.108655816158263"><ele>310.0</ele><time>2026-03-28T10:15:17Z</time></trkpt><trkpt lat="44.06564051735557" lon="10.108775412533324"><ele>310.0</ele><time>2026-03-28T10:15:18Z</time></trkpt><trkpt lat="44.06560614317052" lon="10.108880448153622"><ele>310.0</ele><time>2026-03-28T10:15:19Z</time></trkpt><trkpt lat="44.06557008895358" lon="10.10897790328143"><ele>310.0</ele><time>2026-03-28T10:15:20Z</time></trkpt><trkpt lat="44.06551273570474" lon="10.109050159872323"><ele>310.0</ele><time>2026-03-28T10:15:21Z</time></trkpt><trkpt lat="44.06542034354437" lon="10.1091075086651"><ele>304.6</ele><time>2026-03-28T10:15:22Z</time></trkpt><trkpt lat="44.065355356555855" lon="10.109213248244748"><ele>299.2</ele><time>2026-03-28T10:15:23Z</time></trkpt><trkpt lat="44.065290718760416" lon="10.109312913498805"><ele>293.8</ele><time>2026-03-28T10:15:24Z</time></trkpt><trkpt lat="44.06525643692143" lon="10.109457038294018"><ele>288.4</ele><time>2026-03-28T10:15:25Z</time></trkpt><trkpt lat="44.06525434545607" lon="10.109613030349228"><ele>283.0</ele><time>2026-03-28T10:15:26Z</time></trkpt><trkpt lat="44.0652666142331" lon="10.10975748513923"><ele>283.0</ele><time>2026-03-28T10:15:27Z</time></trkpt><trkpt lat="44.065271443289625" lon="10.109905363178322"><ele>283.0</ele><time>2026-03-28T10:15:28Z</time></trkpt><trkpt lat="44.06526338648421" lon="10.109992521869732"><ele>283.0</ele><time>2026-03-28T10:15:29Z</time></trkpt><trkpt lat="44.06532038921244" lon="10.110110286569471"><ele>283.0</ele><time>2026-03-28T10:15:31Z</time></trkpt><trkpt lat="44.06541963897916" lon="10.11002505189894"><ele>283.0</ele><time>2026-03-28T10:15:33Z</time></trkpt><trkpt lat="44.06542680818782" lon="10.109863624875171"><ele>283.0</ele><time>2026-03-28T10:15:34Z</time></trkpt><trkpt lat="44.06542890425479" lon="10.109734882955765"><ele>283.0</ele><time>2026-03-28T10:15:35Z</time></trkpt><trkpt lat="44.06544102917921" lon="10.109618926800396"><ele>283.0</ele><time>2026-03-28T10:15:36Z</time></trkpt><trkpt lat="44.06546596186983" lon="10.109513460938258"><ele>283.0</ele><time>2026-03-28T10:15:37Z</time></trkpt><trkpt lat="44.06555229228305" lon="10.109504698312808"><ele>283.0</ele><time>2026-03-28T10:15:38Z</time></trkpt><trkpt lat="44.065608272895545" lon="10.10945900691199"><ele>283.0</ele><time>2026-03-28T10:15:39Z</time></trkpt><trkpt lat="44.06569502841181" lon="10.10943303109015"><ele>283.0</ele><time>2026-03-28T10:15:40Z</time></trkpt><trkpt lat="44.065768068378674" lon="10.109374311754067"><ele>283.0</ele><time>2026-03-28T10:15:41Z</time></trkpt><trkpt lat="44.06584407320937" lon="10.109316056808915"><ele>283.0</ele><time>2026-03-28T10:15:42Z</time></trkpt><trkpt lat="44.06589483649819" lon="10.109260443654428"><ele>283.0</ele><time>2026-03-28T10:15:43Z</time></trkpt><trkpt lat="44.06594887423285" lon="10.109180837943372"><ele>283.0</ele><time>2026-03-28T10:15:44Z</time></trkpt><trkpt lat="44.06601675300925" lon="10.109118696666657"><ele>283.0</ele><time>2026-03-28T10:15:45Z</time></trkpt><trkpt lat="44.06608111033281" lon="10.109067537630086"><ele>280.2</ele><time>2026-03-28T10:15:46Z</time></trkpt><trkpt lat="44.06613261235584" lon="10.108998375580626"><ele>277.4</ele><time>2026-03-28T10:15:47Z</time></trkpt><trkpt lat="44.06621360929928" lon="10.108892968123719"><ele>274.59999999999997</ele><time>2026-03-28T10:15:49Z</time></trkpt><trkpt lat="44.06627250466087" lon="10.109015297564348"><ele>271.8</ele><time>2026-03-28T10:15:52Z</time></trkpt><trkpt lat="44.06618298457047" lon="10.109076604088019"><ele>269.0</ele><time>2026-03-28T10:15:54Z</time></trkpt><trkpt lat="44.06606876589835" lon="10.10918674210589"><ele>265.8</ele><time>2026-03-28T10:15:56Z</time></trkpt><trkpt lat="44.066007111079514" lon="10.109234605466568"><ele>262.59999999999997</ele><time>2026-03-28T10:15:57Z</time></trkpt><trkpt lat="44.065952399017874" lon="10.109296804224801"><ele>259.4</ele><time>2026-03-28T10:15:58Z</time></trkpt><trkpt lat="44.065926102903646" lon="10.109381030705542"><ele>256.2</ele><time>2026-03-28T10:15:59Z</time></trkpt><trkpt lat="44.06597463334661" lon="10.109492566296987"><ele>253.0</ele><time>2026-03-28T10:16:01Z</time></trkpt><trkpt lat="44.0661143415803" lon="10.109415985958515"><ele>252.99999999999997</ele><time>2026-03-28T10:16:03Z</time></trkpt><trkpt lat="44.06617277053949" lon="10.109334580926735"><ele>253.0</ele><time>2026-03-28T10:16:04Z</time></trkpt><trkpt lat="44.066225393463576" lon="10.109268403214145"><ele>253.0</ele><time>2026-03-28T10:16:05Z</time></trkpt><trkpt lat="44.066321650617425" lon="10.109151745801395"><ele>253.0</ele><time>2026-03-28T10:16:07Z</time></trkpt><trkpt lat="44.06638989605438" lon="10.109094098582338"><ele>252.99999999999997</ele><time>2026-03-28T10:16:08Z</time></trkpt><trkpt lat="44.06646409222004" lon="10.109068497644751"><ele>253.0</ele><time>2026-03-28T10:16:09Z</time></trkpt><trkpt lat="44.06663294247542" lon="10.10899306197216"><ele>250.75</ele><time>2026-03-28T10:16:11Z</time></trkpt><trkpt lat="44.06676168828948" lon="10.108969993296176"><ele>248.5</ele><time>2026-03-28T10:16:12Z</time></trkpt><trkpt lat="44.06688082568932" lon="10.108960013160853"><ele>246.25</ele><time>2026-03-28T10:16:13Z</time></trkpt><trkpt lat="44.06697688691193" lon="10.108966958194806"><ele>244.0</ele><time>2026-03-28T10:16:14Z</time></trkpt><trkpt lat="44.06708332382951" lon="10.108959543422861"><ele>243.99999999999997</ele><time>2026-03-28T10:16:15Z</time></trkpt><trkpt lat="44.06717284357602" lon="10.108995781017137"><ele>244.0</ele><time>2026-03-28T10:16:16Z</time></trkpt><trkpt lat="44.06725347831309" lon="10.108984488921655"><ele>244.0</ele><time>2026-03-28T10:16:17Z</time></trkpt><trkpt lat="44.06731754543683" lon="10.108974473323128"><ele>244.0</ele><time>2026-03-28T10:16:18Z</time></trkpt><trkpt lat="44.06740617117762" lon="10.108977492658184"><ele>243.99999999999997</ele><time>2026-03-28T10:16:19Z</time></trkpt><trkpt lat="44.067513296101104" lon="10.10905904593549"><ele>244.0</ele><time>2026-03-28T10:16:20Z</time></trkpt><trkpt lat="44.06761620549791" lon="10.109120006029837"><ele>241.2</ele><time>2026-03-28T10:16:21Z</time></trkpt><trkpt lat="44.06769838198953" lon="10.109195116605909"><ele>238.39999999999998</ele><time>2026-03-28T10:16:22Z</time></trkpt><trkpt lat="44.06774250303853" lon="10.10931144005988"><ele>235.6</ele><time>2026-03-28T10:16:23Z</time></trkpt><trkpt lat="44.067785929545906" lon="10.10944734942737"><ele>232.8</ele><time>2026-03-28T10:16:24Z</time></trkpt><trkpt lat="44.06781740420732" lon="10.109551347899513"><ele>230.0</ele><time>2026-03-28T10:16:25Z</time></trkpt><trkpt lat="44.067851326971045" lon="10.109658600621671"><ele>230.00000000000003</ele><time>2026-03-28T10:16:26Z</time></trkpt><trkpt lat="44.067821769224985" lon="10.10976585789545"><ele>230.0</ele><time>2026-03-28T10:16:27Z</time></trkpt><trkpt lat="44.067844148696715" lon="10.109850761949327"><ele>230.0</ele><time>2026-03-28T10:16:29Z</time></trkpt><trkpt lat="44.06771849040623" lon="10.109942988586608"><ele>230.0</ele><time>2026-03-28T10:16:33Z</time></trkpt><trkpt lat="44.067648680881206" lon="10.109994933292391"><ele>230.00000000000003</ele><time>2026-03-28T10:16:34Z</time></trkpt><trkpt lat="44.06757666231046" lon="10.11004404009723"><ele>230.0</ele><time>2026-03-28T10:16:35Z</time></trkpt><trkpt lat="44.06749310136579" lon="10.110102065545876"><ele>232.4</ele><time>2026-03-28T10:16:36Z</time></trkpt><trkpt lat="44.06740860407196" lon="10.110160536311463"><ele>234.8</ele><time>2026-03-28T10:16:37Z</time></trkpt><trkpt lat="44.06732177970153" lon="10.110220617231207"><ele>237.2</ele><time>2026-03-28T10:16:38Z</time></trkpt><trkpt lat="44.06722697863537" lon="10.110286218016745"><ele>239.6</ele><time>2026-03-28T10:16:39Z</time></trkpt><trkpt lat="44.06713024589482" lon="10.110353155438704"><ele>242.0</ele><time>2026-03-28T10:16:40Z</time></trkpt><trkpt lat="44.06702349480015" lon="10.110432640726279"><ele>242.0</ele><time>2026-03-28T10:16:41Z</time></trkpt><trkpt lat="44.0669305847821" lon="10.11050774802409"><ele>242.0</ele><time>2026-03-28T10:16:42Z</time></trkpt><trkpt lat="44.06682267797737" lon="10.110572718329284"><ele>242.0</ele><time>2026-03-28T10:16:43Z</time></trkpt><trkpt lat="44.066705947742946" lon="10.110624743370764"><ele>242.0</ele><time>2026-03-28T10:16:44Z</time></trkpt><trkpt lat="44.06657587923505" lon="10.110687665515513"><ele>243.66666666666669</ele><time>2026-03-28T10:16:45Z</time></trkpt><trkpt lat="44.066424631127575" lon="10.110778646581077"><ele>245.33333333333331</ele><time>2026-03-28T10:16:46Z</time></trkpt><trkpt lat="44.06624102778222" lon="10.110837501528676"><ele>247.0</ele><time>2026-03-28T10:16:47Z</time></trkpt><trkpt lat="44.066088784053065" lon="10.110915757196599"><ele>247.0</ele><time>2026-03-28T10:16:48Z</time></trkpt><trkpt lat="44.065928738519084" lon="10.110975456766015"><ele>247.0</ele><time>2026-03-28T10:16:49Z</time></trkpt><trkpt lat="44.065753319494114" lon="10.111009742931767"><ele>247.0</ele><time>2026-03-28T10:16:50Z</time></trkpt><trkpt lat="44.06559815082526" lon="10.111059552010001"><ele>246.75</ele><time>2026-03-28T10:16:51Z</time></trkpt><trkpt lat="44.065455292917285" lon="10.11112934182137"><ele>246.5</ele><time>2026-03-28T10:16:52Z</time></trkpt><trkpt lat="44.065336183128814" lon="10.111253123630355"><ele>246.25</ele><time>2026-03-28T10:16:53Z</time></trkpt><trkpt lat="44.06524653915313" lon="10.111387923787902"><ele>246.0</ele><time>2026-03-28T10:16:54Z</time></trkpt><trkpt lat="44.065218036894976" lon="10.111573674348286"><ele>239.0</ele><time>2026-03-28T10:16:55Z</time></trkpt><trkpt lat="44.065257327943236" lon="10.11180066221796"><ele>232.0</ele><time>2026-03-28T10:16:56Z</time></trkpt><trkpt lat="44.06531550170105" lon="10.112013574808373"><ele>225.0</ele><time>2026-03-28T10:16:57Z</time></trkpt><trkpt lat="44.065416641195526" lon="10.112162273953023"><ele>225.0</ele><time>2026-03-28T10:16:58Z</time></trkpt><trkpt lat="44.065502724186345" lon="10.11230879912471"><ele>225.0</ele><time>2026-03-28T10:16:59Z</time></trkpt><trkpt lat="44.065472066601615" lon="10.112504724961406"><ele>225.0</ele><time>2026-03-28T10:17:00Z</time></trkpt><trkpt lat="44.065416200116594" lon="10.112703759011497"><ele>225.0</ele><time>2026-03-28T10:17:01Z</time></trkpt><trkpt lat="44.065320423725744" lon="10.112910931490068"><ele>224.66666666666669</ele><time>2026-03-28T10:17:02Z</time></trkpt><trkpt lat="44.06521942778723" lon="10.113140983304119"><ele>224.33333333333334</ele><time>2026-03-28T10:17:03Z</time></trkpt><trkpt lat="44.065112383779976" lon="10.113384994228156"><ele>224.0</ele><time>2026-03-28T10:17:04Z</time></trkpt><trkpt lat="44.06499314533757" lon="10.113661917638021"><ele>216.33333333333334</ele><time>2026-03-28T10:17:05Z</time></trkpt><trkpt lat="44.06487332034458" lon="10.113931467427951"><ele>208.66666666666669</ele><time>2026-03-28T10:17:06Z</time></trkpt><trkpt lat="44.064757156744605" lon="10.114193766220646"><ele>201.0</ele><time>2026-03-28T10:17:07Z</time></trkpt><trkpt lat="44.064638675048435" lon="10.114465320533784"><ele>201.0</ele><time>2026-03-28T10:17:08Z</time></trkpt><trkpt lat="44.064530073993474" lon="10.114713274190535"><ele>201.0</ele><time>2026-03-28T10:17:09Z</time></trkpt><trkpt lat="44.06443251980491" lon="10.114922659585647"><ele>201.0</ele><time>2026-03-28T10:17:10Z</time></trkpt><trkpt lat="44.064323817393124" lon="10.115088248498662"><ele>206.33333333333331</ele><time>2026-03-28T10:17:11Z</time></trkpt><trkpt lat="44.06419381100222" lon="10.115215011241027"><ele>211.66666666666666</ele><time>2026-03-28T10:17:12Z</time></trkpt><trkpt lat="44.06403122783781" lon="10.115274066440872"><ele>217.0</ele><time>2026-03-28T10:17:13Z</time></trkpt><trkpt lat="44.06386055132655" lon="10.115393233509618"><ele>213.33333333333331</ele><time>2026-03-28T10:17:14Z</time></trkpt><trkpt lat="44.063672047349606" lon="10.11551322393159"><ele>209.66666666666669</ele><time>2026-03-28T10:17:15Z</time></trkpt><trkpt lat="44.06349840686236" lon="10.11565695804342"><ele>206.0</ele><time>2026-03-28T10:17:16Z</time></trkpt><trkpt lat="44.06333633593932" lon="10.115861079589545"><ele>191.33333333333334</ele><time>2026-03-28T10:17:17Z</time></trkpt><trkpt lat="44.06319441550295" lon="10.116079375927162"><ele>176.66666666666669</ele><time>2026-03-28T10:17:18Z</time></trkpt><trkpt lat="44.063081060016486" lon="10.116312321682463"><ele>162.0</ele><time>2026-03-28T10:17:19Z</time></trkpt><trkpt lat="44.06307382959411" lon="10.116561972469638"><ele>167.0</ele><time>2026-03-28T10:17:20Z</time></trkpt><trkpt lat="44.06307394391232" lon="10.11678108231371"><ele>172.0</ele><time>2026-03-28T10:17:21Z</time></trkpt><trkpt lat="44.063077823414986" lon="10.116964272690613"><ele>177.0</ele><time>2026-03-28T10:17:22Z</time></trkpt><trkpt lat="44.06304903105476" lon="10.117106555707018"><ele>182.0</ele><time>2026-03-28T10:17:23Z</time></trkpt><trkpt lat="44.06298148173605" lon="10.117194151807707"><ele>182.0</ele><time>2026-03-28T10:17:24Z</time></trkpt><trkpt lat="44.062857483735606" lon="10.117236476534652"><ele>182.0</ele><time>2026-03-28T10:17:25Z</time></trkpt><trkpt lat="44.062673093155794" lon="10.117349359182061"><ele>182.0</ele><time>2026-03-28T10:17:26Z</time></trkpt><trkpt lat="44.06248443524351" lon="10.117467505602628"><ele>179.0</ele><time>2026-03-28T10:17:27Z</time></trkpt><trkpt lat="44.062285200014244" lon="10.117593904495626"><ele>176.0</ele><time>2026-03-28T10:17:28Z</time></trkpt><trkpt lat="44.06210160248716" lon="10.11771038267978"><ele>173.0</ele><time>2026-03-28T10:17:29Z</time></trkpt><trkpt lat="44.06193637506272" lon="10.11781520640046"><ele>173.0</ele><time>2026-03-28T10:17:30Z</time></trkpt><trkpt lat="44.06177756168063" lon="10.117916546257382"><ele>173.0</ele><time>2026-03-28T10:17:31Z</time></trkpt><trkpt lat="44.06163383160535" lon="10.11801634376019"><ele>173.0</ele><time>2026-03-28T10:17:32Z</time></trkpt><trkpt lat="44.061484413338285" lon="10.11812704122459"><ele>173.0</ele><time>2026-03-28T10:17:33Z</time></trkpt><trkpt lat="44.061348318936325" lon="10.118289713343781"><ele>173.0</ele><time>2026-03-28T10:17:34Z</time></trkpt><trkpt lat="44.06120625303554" lon="10.118471395967976"><ele>173.0</ele><time>2026-03-28T10:17:35Z</time></trkpt><trkpt lat="44.061041878444115" lon="10.118627027655496"><ele>173.0</ele><time>2026-03-28T10:17:36Z</time></trkpt><trkpt lat="44.06088058017721" lon="10.118790454835235"><ele>173.0</ele><time>2026-03-28T10:17:37Z</time></trkpt><trkpt lat="44.06071988631967" lon="10.118980430069254"><ele>173.0</ele><time>2026-03-28T10:17:38Z</time></trkpt><trkpt lat="44.06055539677428" lon="10.119142745745824"><ele>172.33333333333331</ele><time>2026-03-28T10:17:39Z</time></trkpt><trkpt lat="44.06038192875449" lon="10.119301579653035"><ele>171.66666666666666</ele><time>2026-03-28T10:17:40Z</time></trkpt><trkpt lat="44.060191659548344" lon="10.119401048239087"><ele>171.0</ele><time>2026-03-28T10:17:41Z</time></trkpt><trkpt lat="44.05999394093015" lon="10.119518934366319"><ele>157.66666666666666</ele><time>2026-03-28T10:17:42Z</time></trkpt><trkpt lat="44.059832017246286" lon="10.119625211837926"><ele>144.33333333333331</ele><time>2026-03-28T10:17:43Z</time></trkpt><trkpt lat="44.05966195262102" lon="10.119738920503305"><ele>131.0</ele><time>2026-03-28T10:17:44Z</time></trkpt><trkpt lat="44.0594890974981" lon="10.119872541314942"><ele>136.33333333333331</ele><time>2026-03-28T10:17:45Z</time></trkpt><trkpt lat="44.0593147963366" lon="10.120010623142793"><ele>141.66666666666666</ele><time>2026-03-28T10:17:46Z</time></trkpt><trkpt lat="44.05913708330185" lon="10.120129588952585"><ele>147.0</ele><time>2026-03-28T10:17:47Z</time></trkpt><trkpt lat="44.05894981744326" lon="10.12022427825389"><ele>147.0</ele><time>2026-03-28T10:17:48Z</time></trkpt><trkpt lat="44.05877531427444" lon="10.120343919668349"><ele>147.0</ele><time>2026-03-28T10:17:49Z</time></trkpt><trkpt lat="44.05860727030859" lon="10.12046411466771"><ele>147.0</ele><time>2026-03-28T10:17:50Z</time></trkpt><trkpt lat="44.058431372516075" lon="10.120597086719023"><ele>144.33333333333334</ele><time>2026-03-28T10:17:51Z</time></trkpt><trkpt lat="44.05827216166175" lon="10.120791538500367"><ele>141.66666666666669</ele><time>2026-03-28T10:17:52Z</time></trkpt><trkpt lat="44.05811801894372" lon="10.120966708380788"><ele>139.0</ele><time>2026-03-28T10:17:53Z</time></trkpt><trkpt lat="44.05798899877723" lon="10.12119785896208"><ele>139.0</ele><time>2026-03-28T10:17:54Z</time></trkpt><trkpt lat="44.05781723976477" lon="10.121355466219088"><ele>139.0</ele><time>2026-03-28T10:17:55Z</time></trkpt><trkpt lat="44.05765810266945" lon="10.12154715516092"><ele>139.0</ele><time>2026-03-28T10:17:56Z</time></trkpt><trkpt lat="44.05749849401956" lon="10.121726050654939"><ele>136.33333333333334</ele><time>2026-03-28T10:17:57Z</time></trkpt><trkpt lat="44.05735670828052" lon="10.121923724328786"><ele>133.66666666666666</ele><time>2026-03-28T10:17:58Z</time></trkpt><trkpt lat="44.05721551612659" lon="10.122114995737864"><ele>131.0</ele><time>2026-03-28T10:17:59Z</time></trkpt><trkpt lat="44.05710312767769" lon="10.122314111411779"><ele>135.75</ele><time>2026-03-28T10:18:00Z</time></trkpt><trkpt lat="44.057003642900625" lon="10.12249651071003"><ele>140.5</ele><time>2026-03-28T10:18:01Z</time></trkpt><trkpt lat="44.05691287600514" lon="10.12266058680396"><ele>145.25</ele><time>2026-03-28T10:18:02Z</time></trkpt><trkpt lat="44.056822655901165" lon="10.122776407524785"><ele>150.0</ele><time>2026-03-28T10:18:03Z</time></trkpt><trkpt lat="44.05670010055395" lon="10.12283931375774"><ele>144.33333333333334</ele><time>2026-03-28T10:18:04Z</time></trkpt><trkpt lat="44.05653925047523" lon="10.1229008733841"><ele>138.66666666666669</ele><time>2026-03-28T10:18:05Z</time></trkpt><trkpt lat="44.05637693090259" lon="10.122979753714446"><ele>133.0</ele><time>2026-03-28T10:18:06Z</time></trkpt><trkpt lat="44.05622592265445" lon="10.123041111165964"><ele>133.0</ele><time>2026-03-28T10:18:07Z</time></trkpt><trkpt lat="44.05607944785403" lon="10.123075251623943"><ele>133.0</ele><time>2026-03-28T10:18:08Z</time></trkpt><trkpt lat="44.05593631716613" lon="10.123132781859345"><ele>133.0</ele><time>2026-03-28T10:18:09Z</time></trkpt><trkpt lat="44.05578775203622" lon="10.123217218207227"><ele>131.33333333333334</ele><time>2026-03-28T10:18:10Z</time></trkpt><trkpt lat="44.0556414583093" lon="10.123324241691853"><ele>129.66666666666666</ele><time>2026-03-28T10:18:11Z</time></trkpt><trkpt lat="44.05549754963555" lon="10.123431387816703"><ele>128.0</ele><time>2026-03-28T10:18:12Z</time></trkpt><trkpt lat="44.055345818247375" lon="10.123538400605582"><ele>128.0</ele><time>2026-03-28T10:18:13Z</time></trkpt><trkpt lat="44.05518828448845" lon="10.12364220767258"><ele>128.0</ele><time>2026-03-28T10:18:14Z</time></trkpt><trkpt lat="44.05502986486363" lon="10.123763485431347"><ele>128.0</ele><time>2026-03-28T10:18:15Z</time></trkpt><trkpt lat="44.05487935593692" lon="10.123903479148995"><ele>125.0</ele><time>2026-03-28T10:18:16Z</time></trkpt><trkpt lat="44.054732139688326" lon="10.12404153246008"><ele>122.0</ele><time>2026-03-28T10:18:17Z</time></trkpt><trkpt lat="44.05460237294342" lon="10.124167412229347"><ele>119.0</ele><time>2026-03-28T10:18:18Z</time></trkpt><trkpt lat="44.05447886859338" lon="10.124324160107678"><ele>119.0</ele><time>2026-03-28T10:18:19Z</time></trkpt><trkpt lat="44.05438027846621" lon="10.124483732069221"><ele>119.0</ele><time>2026-03-28T10:18:20Z</time></trkpt><trkpt lat="44.05429437436826" lon="10.124680305448761"><ele>119.0</ele><time>2026-03-28T10:18:21Z</time></trkpt><trkpt lat="44.05423145836538" lon="10.124860541015433"><ele>122.6</ele><time>2026-03-28T10:18:22Z</time></trkpt><trkpt lat="44.05418159875586" lon="10.12500852508153"><ele>126.2</ele><time>2026-03-28T10:18:23Z</time></trkpt><trkpt lat="44.05413764681416" lon="10.125131587007228"><ele>129.79999999999998</ele><time>2026-03-28T10:18:24Z</time></trkpt><trkpt lat="44.05407664011478" lon="10.125231254189504"><ele>133.4</ele><time>2026-03-28T10:18:25Z</time></trkpt><trkpt lat="44.05399068271352" lon="10.12529208439852"><ele>137.0</ele><time>2026-03-28T10:18:26Z</time></trkpt><trkpt lat="44.05386464031708" lon="10.125260211746324"><ele>137.0</ele><time>2026-03-28T10:18:27Z</time></trkpt><trkpt lat="44.05377059388399" lon="10.12514938384889"><ele>137.0</ele><time>2026-03-28T10:18:28Z</time></trkpt><trkpt lat="44.053687652133114" lon="10.124995759299342"><ele>137.0</ele><time>2026-03-28T10:18:29Z</time></trkpt><trkpt lat="44.05359481558315" lon="10.124861741048052"><ele>137.0</ele><time>2026-03-28T10:18:30Z</time></trkpt><trkpt lat="44.053511491972706" lon="10.124727345088454"><ele>128.5</ele><time>2026-03-28T10:18:31Z</time></trkpt><trkpt lat="44.05343304867927" lon="10.12460995278451"><ele>120.0</ele><time>2026-03-28T10:18:32Z</time></trkpt><trkpt lat="44.05333378079961" lon="10.12456062523363"><ele>111.5</ele><time>2026-03-28T10:18:33Z</time></trkpt><trkpt lat="44.05322404404305" lon="10.124606684931415"><ele>103.0</ele><time>2026-03-28T10:18:34Z</time></trkpt><trkpt lat="44.05311344106653" lon="10.12470251352011"><ele>102.75</ele><time>2026-03-28T10:18:35Z</time></trkpt><trkpt lat="44.052982191341265" lon="10.124816294765454"><ele>102.5</ele><time>2026-03-28T10:18:36Z</time></trkpt><trkpt lat="44.052869761773515" lon="10.124919698204904"><ele>102.25</ele><time>2026-03-28T10:18:37Z</time></trkpt><trkpt lat="44.052749965555776" lon="10.12503537633636"><ele>102.0</ele><time>2026-03-28T10:18:38Z</time></trkpt><trkpt lat="44.052671146489295" lon="10.125204107543885"><ele>102.0</ele><time>2026-03-28T10:18:39Z</time></trkpt><trkpt lat="44.052591033094224" lon="10.125374086888506"><ele>102.0</ele><time>2026-03-28T10:18:40Z</time></trkpt><trkpt lat="44.05248172137858" lon="10.125548858093214"><ele>102.0</ele><time>2026-03-28T10:18:41Z</time></trkpt><trkpt lat="44.05238009151841" lon="10.125720667773333"><ele>97.0</ele><time>2026-03-28T10:18:42Z</time></trkpt><trkpt lat="44.05228833443156" lon="10.12590477353992"><ele>92.0</ele><time>2026-03-28T10:18:43Z</time></trkpt><trkpt lat="44.0522247264918" lon="10.126121978482956"><ele>87.0</ele><time>2026-03-28T10:18:44Z</time></trkpt><trkpt lat="44.05215501148799" lon="10.12632646813391"><ele>87.0</ele><time>2026-03-28T10:18:45Z</time></trkpt><trkpt lat="44.05209138417969" lon="10.126550698657672"><ele>87.0</ele><time>2026-03-28T10:18:46Z</time></trkpt><trkpt lat="44.05202181447648" lon="10.126734771361965"><ele>87.0</ele><time>2026-03-28T10:18:47Z</time></trkpt><trkpt lat="44.05191687318453" lon="10.126882791684576"><ele>88.33333333333333</ele><time>2026-03-28T10:18:48Z</time></trkpt><trkpt lat="44.05179168034162" lon="10.126998647302068"><ele>89.66666666666666</ele><time>2026-03-28T10:18:49Z</time></trkpt><trkpt lat="44.05165123284108" lon="10.127117025761747"><ele>91.0</ele><time>2026-03-28T10:18:50Z</time></trkpt><trkpt lat="44.05152075880758" lon="10.127239032251033"><ele>91.0</ele><time>2026-03-28T10:18:51Z</time></trkpt><trkpt lat="44.05138971348383" lon="10.127333032397317"><ele>91.0</ele><time>2026-03-28T10:18:52Z</time></trkpt><trkpt lat="44.051269693284894" lon="10.127442892065615"><ele>91.0</ele><time>2026-03-28T10:18:53Z</time></trkpt><trkpt lat="44.05115830791153" lon="10.127560472888456"><ele>91.0</ele><time>2026-03-28T10:18:54Z</time></trkpt><trkpt lat="44.05107144618557" lon="10.127709471192034"><ele>93.0</ele><time>2026-03-28T10:18:55Z</time></trkpt><trkpt lat="44.05099752369804" lon="10.127908708493935"><ele>95.0</ele><time>2026-03-28T10:18:56Z</time></trkpt><trkpt lat="44.05093930476412" lon="10.128114647081588"><ele>97.0</ele><time>2026-03-28T10:18:57Z</time></trkpt><trkpt lat="44.05085112595139" lon="10.12828104197836"><ele>93.0</ele><time>2026-03-28T10:18:58Z</time></trkpt><trkpt lat="44.05074794798358" lon="10.128415475809469"><ele>89.0</ele><time>2026-03-28T10:18:59Z</time></trkpt><trkpt lat="44.050620242379495" lon="10.128551317342547"><ele>85.0</ele><time>2026-03-28T10:19:00Z</time></trkpt><trkpt lat="44.05048338366804" lon="10.128700220935057"><ele>85.0</ele><time>2026-03-28T10:19:01Z</time></trkpt><trkpt lat="44.05035328005161" lon="10.128840059684755"><ele>85.0</ele><time>2026-03-28T10:19:02Z</time></trkpt><trkpt lat="44.050218790029945" lon="10.12898004367932"><ele>85.0</ele><time>2026-03-28T10:19:03Z</time></trkpt><trkpt lat="44.05007099669361" lon="10.129111489634077"><ele>81.33333333333333</ele><time>2026-03-28T10:19:04Z</time></trkpt><trkpt lat="44.049931336727326" lon="10.129224272059188"><ele>77.66666666666667</ele><time>2026-03-28T10:19:05Z</time></trkpt><trkpt lat="44.04978591102501" lon="10.129337656447772"><ele>74.0</ele><time>2026-03-28T10:19:06Z</time></trkpt><trkpt lat="44.049638753700606" lon="10.129447249131262"><ele>74.0</ele><time>2026-03-28T10:19:07Z</time></trkpt><trkpt lat="44.04951169309433" lon="10.129562034303081"><ele>74.0</ele><time>2026-03-28T10:19:08Z</time></trkpt><trkpt lat="44.04939761187862" lon="10.129715530572435"><ele>74.0</ele><time>2026-03-28T10:19:09Z</time></trkpt><trkpt lat="44.049271207693096" lon="10.129869780134898"><ele>75.75</ele><time>2026-03-28T10:19:10Z</time></trkpt><trkpt lat="44.04917479155029" lon="10.13001833348705"><ele>77.5</ele><time>2026-03-28T10:19:11Z</time></trkpt><trkpt lat="44.04905215605881" lon="10.130184125769391"><ele>79.25</ele><time>2026-03-28T10:19:12Z</time></trkpt><trkpt lat="44.048944325666305" lon="10.130271876481448"><ele>81.0</ele><time>2026-03-28T10:19:13Z</time></trkpt><trkpt lat="44.048812657002905" lon="10.13038887709753"><ele>78.33333333333333</ele><time>2026-03-28T10:19:14Z</time></trkpt><trkpt lat="44.04866773477012" lon="10.130493405886403"><ele>75.66666666666666</ele><time>2026-03-28T10:19:15Z</time></trkpt><trkpt lat="44.04855074772929" lon="10.13064906939083"><ele>73.0</ele><time>2026-03-28T10:19:16Z</time></trkpt><trkpt lat="44.04844158275389" lon="10.130831406926303"><ele>73.0</ele><time>2026-03-28T10:19:17Z</time></trkpt><trkpt lat="44.04832921715727" lon="10.131029449691852"><ele>73.0</ele><time>2026-03-28T10:19:18Z</time></trkpt><trkpt lat="44.048216427052374" lon="10.131226981247975"><ele>73.0</ele><time>2026-03-28T10:19:19Z</time></trkpt><trkpt lat="44.048125209129864" lon="10.131432694712718"><ele>68.66666666666666</ele><time>2026-03-28T10:19:20Z</time></trkpt><trkpt lat="44.0480500317097" lon="10.131633432923513"><ele>64.33333333333333</ele><time>2026-03-28T10:19:21Z</time></trkpt><trkpt lat="44.047956352143416" lon="10.131808941463989"><ele>60.0</ele><time>2026-03-28T10:19:22Z</time></trkpt><trkpt lat="44.04787672254246" lon="10.131994995817857"><ele>60.0</ele><time>2026-03-28T10:19:23Z</time></trkpt><trkpt lat="44.0477895669637" lon="10.1321669361361"><ele>60.0</ele><time>2026-03-28T10:19:24Z</time></trkpt><trkpt lat="44.047685806526346" lon="10.132315797998382"><ele>60.0</ele><time>2026-03-28T10:19:25Z</time></trkpt><trkpt lat="44.04759056711902" lon="10.132437023080474"><ele>60.0</ele><time>2026-03-28T10:19:26Z</time></trkpt><trkpt lat="44.04746735582173" lon="10.132529688598025"><ele>60.0</ele><time>2026-03-28T10:19:27Z</time></trkpt><trkpt lat="44.04735525767773" lon="10.132627771467615"><ele>60.0</ele><time>2026-03-28T10:19:28Z</time></trkpt><trkpt lat="44.04724392007651" lon="10.132724335971119"><ele>60.0</ele><time>2026-03-28T10:19:29Z</time></trkpt><trkpt lat="44.047122102323726" lon="10.132826444903955"><ele>60.0</ele><time>2026-03-28T10:19:30Z</time></trkpt><trkpt lat="44.04699474474816" lon="10.132937468771775"><ele>60.0</ele><time>2026-03-28T10:19:31Z</time></trkpt><trkpt lat="44.046865328069934" lon="10.133048894326933"><ele>60.0</ele><time>2026-03-28T10:19:32Z</time></trkpt><trkpt lat="44.046722173706165" lon="10.133168148842705"><ele>60.0</ele><time>2026-03-28T10:19:33Z</time></trkpt><trkpt lat="44.046573683902444" lon="10.133295613762098"><ele>60.0</ele><time>2026-03-28T10:19:34Z</time></trkpt><trkpt lat="44.04641488225804" lon="10.133433063738016"><ele>60.0</ele><time>2026-03-28T10:19:35Z</time></trkpt><trkpt lat="44.04625867285066" lon="10.133567992301598"><ele>60.0</ele><time>2026-03-28T10:19:36Z</time></trkpt><trkpt lat="44.046102765308916" lon="10.133704465486714"><ele>60.0</ele><time>2026-03-28T10:19:37Z</time></trkpt><trkpt lat="44.04596563529031" lon="10.133829464435783"><ele>60.0</ele><time>2026-03-28T10:19:38Z</time></trkpt><trkpt lat="44.0458342121675" lon="10.133948388268365"><ele>60.0</ele><time>2026-03-28T10:19:39Z</time></trkpt><trkpt lat="44.04570920253496" lon="10.134059347751268"><ele>60.2</ele><time>2026-03-28T10:19:40Z</time></trkpt><trkpt lat="44.0456004810686" lon="10.13414909825156"><ele>60.4</ele><time>2026-03-28T10:19:41Z</time></trkpt><trkpt lat="44.04550364166688" lon="10.134232084872398"><ele>60.599999999999994</ele><time>2026-03-28T10:19:42Z</time></trkpt><trkpt lat="44.04542532040194" lon="10.134310607077682"><ele>60.8</ele><time>2026-03-28T10:19:43Z</time></trkpt><trkpt lat="44.04534462565962" lon="10.134382546999472"><ele>61.0</ele><time>2026-03-28T10:19:44Z</time></trkpt><trkpt lat="44.04527847889052" lon="10.134446697705885"><ele>60.99999999999999</ele><time>2026-03-28T10:19:45Z</time></trkpt><trkpt lat="44.045210918838855" lon="10.134502584383737"><ele>61.0</ele><time>2026-03-28T10:19:46Z</time></trkpt><trkpt lat="44.04515413720099" lon="10.134550899896292"><ele>60.99999999999999</ele><time>2026-03-28T10:19:47Z</time></trkpt><trkpt lat="44.045092216469556" lon="10.1345895613414"><ele>60.99999999999999</ele><time>2026-03-28T10:19:48Z</time></trkpt><trkpt lat="44.045036945544076" lon="10.13463471188859"><ele>61.0</ele><time>2026-03-28T10:19:49Z</time></trkpt><trkpt lat="44.044976560988616" lon="10.134690743633968"><ele>60.99999999999999</ele><time>2026-03-28T10:19:50Z</time></trkpt><trkpt lat="44.044908186509005" lon="10.134751855762934"><ele>60.99999999999999</ele><time>2026-03-28T10:19:51Z</time></trkpt><trkpt lat="44.04483647153354" lon="10.134817036498141"><ele>61.166666666666664</ele><time>2026-03-28T10:19:52Z</time></trkpt><trkpt lat="44.04475906798751" lon="10.13488076081499"><ele>61.33333333333333</ele><time>2026-03-28T10:19:53Z</time></trkpt><trkpt lat="44.04467700010008" lon="10.13497432905093"><ele>61.5</ele><time>2026-03-28T10:19:54Z</time></trkpt><trkpt lat="44.04460188006393" lon="10.135038915671363"><ele>61.66666666666667</ele><time>2026-03-28T10:19:55Z</time></trkpt><trkpt lat="44.044532771366484" lon="10.135092211242524"><ele>61.833333333333336</ele><time>2026-03-28T10:19:56Z</time></trkpt><trkpt lat="44.044479200498714" lon="10.135139186869946"><ele>62.0</ele><time>2026-03-28T10:19:57Z</time></trkpt><trkpt lat="44.044402451473005" lon="10.135182731081605"><ele>62.0</ele><time>2026-03-28T10:19:59Z</time></trkpt><trkpt lat="44.044344919768825" lon="10.13524735990471"><ele>62.0</ele><time>2026-03-28T10:20:01Z</time></trkpt><trkpt lat="44.044272941450984" lon="10.135315955583238"><ele>62.0</ele><time>2026-03-28T10:20:04Z</time></trkpt><trkpt lat="44.04429339205087" lon="10.135463614272629"><ele>62.0</ele><time>2026-03-28T10:20:07Z</time></trkpt><trkpt lat="44.044372689995505" lon="10.13550375903847"><ele>62.0</ele><time>2026-03-28T10:20:08Z</time></trkpt><trkpt lat="44.04445879579161" lon="10.135574361072965"><ele>62.0</ele><time>2026-03-28T10:20:09Z</time></trkpt><trkpt lat="44.044540409176754" lon="10.135669201883472"><ele>62.0</ele><time>2026-03-28T10:20:10Z</time></trkpt><trkpt lat="44.044616284681965" lon="10.13574797916806"><ele>62.0</ele><time>2026-03-28T10:20:11Z</time></trkpt><trkpt lat="44.0446868126692" lon="10.13581869593059"><ele>62.0</ele><time>2026-03-28T10:20:12Z</time></trkpt><trkpt lat="44.04474687134133" lon="10.135880592607306"><ele>62.0</ele><time>2026-03-28T10:20:13Z</time></trkpt><trkpt lat="44.04482917012598" lon="10.135959433619263"><ele>62.333333333333336</ele><time>2026-03-28T10:20:15Z</time></trkpt><trkpt lat="44.04487731553642" lon="10.136017840078342"><ele>62.66666666666667</ele><time>2026-03-28T10:20:17Z</time></trkpt><trkpt lat="44.04493208016633" lon="10.136061454978178"><ele>63.0</ele><time>2026-03-28T10:20:22Z</time></trkpt><trkpt lat="44.04501743734831" lon="10.136138050707679"><ele>63.33333333333333</ele><time>2026-03-28T10:20:28Z</time></trkpt><trkpt lat="44.04509187230301" lon="10.136216409491302"><ele>63.666666666666664</ele><time>2026-03-28T10:20:29Z</time></trkpt><trkpt lat="44.045146626201266" lon="10.136267205655837"><ele>64.0</ele><time>2026-03-28T10:20:30Z</time></trkpt><trkpt lat="44.04520140190579" lon="10.13631409680886"><ele>64.83333333333333</ele><time>2026-03-28T10:20:31Z</time></trkpt><trkpt lat="44.04525987911192" lon="10.136395916135523"><ele>65.66666666666666</ele><time>2026-03-28T10:20:32Z</time></trkpt><trkpt lat="44.045331127312714" lon="10.136476629235915"><ele>66.5</ele><time>2026-03-28T10:20:33Z</time></trkpt><trkpt lat="44.045404596987304" lon="10.136547981113003"><ele>67.33333333333333</ele><time>2026-03-28T10:20:34Z</time></trkpt><trkpt lat="44.04548423457198" lon="10.136615230136663"><ele>68.16666666666667</ele><time>2026-03-28T10:20:35Z</time></trkpt><trkpt lat="44.0455511690134" lon="10.136672730510394"><ele>69.0</ele><time>2026-03-28T10:20:36Z</time></trkpt><trkpt lat="44.045605204704366" lon="10.13675124451846"><ele>69.5</ele><time>2026-03-28T10:20:37Z</time></trkpt><trkpt lat="44.04564448544856" lon="10.1368455874277"><ele>70.0</ele><time>2026-03-28T10:20:38Z</time></trkpt><trkpt lat="44.04566965934035" lon="10.136950785948398"><ele>70.5</ele><time>2026-03-28T10:20:39Z</time></trkpt><trkpt lat="44.04566751066356" lon="10.137076533080696"><ele>71.0</ele><time>2026-03-28T10:20:40Z</time></trkpt><trkpt lat="44.045673923645396" lon="10.137191059319871"><ele>71.5</ele><time>2026-03-28T10:20:41Z</time></trkpt><trkpt lat="44.0456920083623" lon="10.137302867625044"><ele>72.0</ele><time>2026-03-28T10:20:42Z</time></trkpt><trkpt lat="44.04571832709778" lon="10.137393325390564"><ele>72.2</ele><time>2026-03-28T10:20:43Z</time></trkpt><trkpt lat="44.04578997723596" lon="10.13751653464934"><ele>72.4</ele><time>2026-03-28T10:20:45Z</time></trkpt><trkpt lat="44.04585702200591" lon="10.137612881961498"><ele>72.6</ele><time>2026-03-28T10:20:47Z</time></trkpt><trkpt lat="44.04590818511602" lon="10.137668366031603"><ele>72.8</ele><time>2026-03-28T10:20:48Z</time></trkpt><trkpt lat="44.045997014406815" lon="10.13780585132824"><ele>73.0</ele><time>2026-03-28T10:20:50Z</time></trkpt><trkpt lat="44.0460459963213" lon="10.137889888059245"><ele>73.5</ele><time>2026-03-28T10:20:51Z</time></trkpt><trkpt lat="44.046096867058985" lon="10.137965949716415"><ele>74.0</ele><time>2026-03-28T10:20:52Z</time></trkpt><trkpt lat="44.04615015188638" lon="10.138045827103928"><ele>74.5</ele><time>2026-03-28T10:20:53Z</time></trkpt><trkpt lat="44.046205179850695" lon="10.138123461047023"><ele>75.0</ele><time>2026-03-28T10:20:54Z</time></trkpt><trkpt lat="44.04625202767684" lon="10.138199034818065"><ele>75.5</ele><time>2026-03-28T10:20:55Z</time></trkpt><trkpt lat="44.046297129645865" lon="10.138277461937433"><ele>76.0</ele><time>2026-03-28T10:20:56Z</time></trkpt><trkpt lat="44.04635050873988" lon="10.138350485054646"><ele>76.0</ele><time>2026-03-28T10:20:57Z</time></trkpt><trkpt lat="44.04641862906107" lon="10.138430050084578"><ele>76.0</ele><time>2026-03-28T10:20:58Z</time></trkpt><trkpt lat="44.04647020904097" lon="10.138481034659097"><ele>76.0</ele><time>2026-03-28T10:20:59Z</time></trkpt><trkpt lat="44.046545302725185" lon="10.138522422282804"><ele>76.0</ele><time>2026-03-28T10:21:00Z</time></trkpt><trkpt lat="44.046624322268485" lon="10.138537269251236"><ele>76.0</ele><time>2026-03-28T10:21:01Z</time></trkpt><trkpt lat="44.04670578061673" lon="10.138525262492568"><ele>76.0</ele><time>2026-03-28T10:21:02Z</time></trkpt><trkpt lat="44.046778822438576" lon="10.138522646322185"><ele>77.5</ele><time>2026-03-28T10:21:03Z</time></trkpt><trkpt lat="44.04685153164761" lon="10.13851999420898"><ele>79.0</ele><time>2026-03-28T10:21:04Z</time></trkpt><trkpt lat="44.04692664384448" lon="10.138521496277122"><ele>80.5</ele><time>2026-03-28T10:21:05Z</time></trkpt><trkpt lat="44.04699436107903" lon="10.138522460885422"><ele>82.0</ele><time>2026-03-28T10:21:06Z</time></trkpt><trkpt lat="44.04708996984207" lon="10.138519294788551"><ele>83.5</ele><time>2026-03-28T10:21:08Z</time></trkpt><trkpt lat="44.04715566430234" lon="10.138542392955538"><ele>85.0</ele><time>2026-03-28T10:21:10Z</time></trkpt><trkpt lat="44.04722219474069" lon="10.138646917752284"><ele>85.0</ele><time>2026-03-28T10:21:12Z</time></trkpt><trkpt lat="44.04722609866022" lon="10.138787311133378"><ele>85.0</ele><time>2026-03-28T10:21:14Z</time></trkpt><trkpt lat="44.0471423416467" lon="10.138897400268778"><ele>85.0</ele><time>2026-03-28T10:21:15Z</time></trkpt><trkpt lat="44.047017376761175" lon="10.138977261583737"><ele>85.0</ele><time>2026-03-28T10:21:17Z</time></trkpt><trkpt lat="44.04692161938427" lon="10.138956316078252"><ele>85.0</ele><time>2026-03-28T10:21:18Z</time></trkpt><trkpt lat="44.0468252401205" lon="10.138965536393012"><ele>85.0</ele><time>2026-03-28T10:21:19Z</time></trkpt><trkpt lat="44.04672337322322" lon="10.138972504699481"><ele>85.0</ele><time>2026-03-28T10:21:20Z</time></trkpt><trkpt lat="44.04662279812291" lon="10.138979384638274"><ele>85.0</ele><time>2026-03-28T10:21:21Z</time></trkpt><trkpt lat="44.04653029371442" lon="10.13898641072992"><ele>85.0</ele><time>2026-03-28T10:21:22Z</time></trkpt><trkpt lat="44.04644982702212" lon="10.13900757802402"><ele>84.42857142857143</ele><time>2026-03-28T10:21:23Z</time></trkpt><trkpt lat="44.046374542142225" lon="10.139020922549372"><ele>83.85714285714285</ele><time>2026-03-28T10:21:24Z</time></trkpt><trkpt lat="44.04630806312091" lon="10.13903066665645"><ele>83.28571428571428</ele><time>2026-03-28T10:21:25Z</time></trkpt><trkpt lat="44.04624400350425" lon="10.13908397632322"><ele>82.71428571428572</ele><time>2026-03-28T10:21:26Z</time></trkpt><trkpt lat="44.04619526322991" lon="10.139156896946805"><ele>82.14285714285714</ele><time>2026-03-28T10:21:27Z</time></trkpt><trkpt lat="44.046147117046715" lon="10.139229973268385"><ele>81.57142857142857</ele><time>2026-03-28T10:21:28Z</time></trkpt><trkpt lat="44.04611743546769" lon="10.13930731642628"><ele>81.0</ele><time>2026-03-28T10:21:29Z</time></trkpt><trkpt lat="44.04609942828204" lon="10.139397878271428"><ele>81.0</ele><time>2026-03-28T10:21:30Z</time></trkpt><trkpt lat="44.0461154301447" lon="10.139498702428085"><ele>81.0</ele><time>2026-03-28T10:21:31Z</time></trkpt><trkpt lat="44.04613088970778" lon="10.139595448551754"><ele>81.0</ele><time>2026-03-28T10:21:32Z</time></trkpt><trkpt lat="44.04616605871786" lon="10.139678771917456"><ele>81.0</ele><time>2026-03-28T10:21:33Z</time></trkpt><trkpt lat="44.04622851339037" lon="10.139722131594665"><ele>81.0</ele><time>2026-03-28T10:21:34Z</time></trkpt><trkpt lat="44.04629761905945" lon="10.139692206041632"><ele>81.0</ele><time>2026-03-28T10:21:35Z</time></trkpt><trkpt lat="44.046355444632034" lon="10.139645925328495"><ele>81.0</ele><time>2026-03-28T10:21:36Z</time></trkpt><trkpt lat="44.04642124449314" lon="10.139633412447814"><ele>81.0</ele><time>2026-03-28T10:21:37Z</time></trkpt><trkpt lat="44.04647131661211" lon="10.13943098455329"><ele>81.0</ele><time>2026-03-28T10:21:39Z</time></trkpt><trkpt lat="44.04649774834599" lon="10.13934957903086"><ele>81.0</ele><time>2026-03-28T10:21:40Z</time></trkpt><trkpt lat="44.04654227604543" lon="10.139206979420633"><ele>81.0</ele><time>2026-03-28T10:21:42Z</time></trkpt><trkpt lat="44.04663582717601" lon="10.139150992363446"><ele>81.0</ele><time>2026-03-28T10:21:44Z</time></trkpt><trkpt lat="44.04668957252723" lon="10.139210150430095"><ele>82.5</ele><time>2026-03-28T10:21:45Z</time></trkpt><trkpt lat="44.04673701699809" lon="10.139285247642155"><ele>84.0</ele><time>2026-03-28T10:21:46Z</time></trkpt><trkpt lat="44.046763649135734" lon="10.139448335697026"><ele>85.5</ele><time>2026-03-28T10:21:48Z</time></trkpt><trkpt lat="44.04675862916662" lon="10.139538393875725"><ele>87.0</ele><time>2026-03-28T10:21:49Z</time></trkpt><trkpt lat="44.04676648125136" lon="10.13969041332791"><ele>88.5</ele><time>2026-03-28T10:21:51Z</time></trkpt><trkpt lat="44.04677320176649" lon="10.13979320426195"><ele>90.0</ele><time>2026-03-28T10:21:52Z</time></trkpt><trkpt lat="44.046794706219124" lon="10.139946805243165"><ele>91.8</ele><time>2026-03-28T10:21:54Z</time></trkpt><trkpt lat="44.046814425829126" lon="10.140095427203201"><ele>93.6</ele><time>2026-03-28T10:21:56Z</time></trkpt><trkpt lat="44.046854071768486" lon="10.140222806412162"><ele>95.4</ele><time>2026-03-28T10:21:58Z</time></trkpt><trkpt lat="44.04691824072336" lon="10.140356899556407"><ele>97.2</ele><time>2026-03-28T10:22:00Z</time></trkpt><trkpt lat="44.04698174364638" lon="10.140443071082645"><ele>99.0</ele><time>2026-03-28T10:22:01Z</time></trkpt><trkpt lat="44.04706684310121" lon="10.140493017776814"><ele>99.0</ele><time>2026-03-28T10:22:02Z</time></trkpt><trkpt lat="44.047153466978955" lon="10.140539417048624"><ele>99.0</ele><time>2026-03-28T10:22:03Z</time></trkpt><trkpt lat="44.04725181157614" lon="10.14051132144611"><ele>99.0</ele><time>2026-03-28T10:22:04Z</time></trkpt><trkpt lat="44.0473358201195" lon="10.140467900801761"><ele>99.0</ele><time>2026-03-28T10:22:05Z</time></trkpt><trkpt lat="44.047432506085734" lon="10.140411034594191"><ele>99.0</ele><time>2026-03-28T10:22:06Z</time></trkpt><trkpt lat="44.04749668946468" lon="10.140319600336445"><ele>99.0</ele><time>2026-03-28T10:22:07Z</time></trkpt><trkpt lat="44.047576035211016" lon="10.140213360847074"><ele>99.0</ele><time>2026-03-28T10:22:08Z</time></trkpt><trkpt lat="44.04763896224535" lon="10.140091530094885"><ele>99.0</ele><time>2026-03-28T10:22:09Z</time></trkpt><trkpt lat="44.04771098527746" lon="10.139976476036672"><ele>99.0</ele><time>2026-03-28T10:22:10Z</time></trkpt><trkpt lat="44.04776215126128" lon="10.139847554251746"><ele>99.0</ele><time>2026-03-28T10:22:11Z</time></trkpt><trkpt lat="44.0477941224456" lon="10.139730397735395"><ele>99.0</ele><time>2026-03-28T10:22:12Z</time></trkpt><trkpt lat="44.047826804943156" lon="10.139637181067426"><ele>99.0</ele><time>2026-03-28T10:22:13Z</time></trkpt><trkpt lat="44.047886604742025" lon="10.13958768152862"><ele>99.0</ele><time>2026-03-28T10:22:14Z</time></trkpt><trkpt lat="44.04799328308997" lon="10.139725202023111"><ele>99.0</ele><time>2026-03-28T10:22:16Z</time></trkpt><trkpt lat="44.04802286810367" lon="10.13980532877701"><ele>99.0</ele><time>2026-03-28T10:22:17Z</time></trkpt><trkpt lat="44.04803355446306" lon="10.13992038335132"><ele>99.0</ele><time>2026-03-28T10:22:18Z</time></trkpt><trkpt lat="44.047974824015114" lon="10.140099120606024"><ele>101.0</ele><time>2026-03-28T10:22:19Z</time></trkpt><trkpt lat="44.047951613786545" lon="10.140286705076896"><ele>103.0</ele><time>2026-03-28T10:22:20Z</time></trkpt><trkpt lat="44.04791274820242" lon="10.140470553862109"><ele>105.0</ele><time>2026-03-28T10:22:21Z</time></trkpt><trkpt lat="44.04787704242558" lon="10.14062218986921"><ele>107.0</ele><time>2026-03-28T10:22:22Z</time></trkpt><trkpt lat="44.04783036801923" lon="10.14080454724792"><ele>109.0</ele><time>2026-03-28T10:22:23Z</time></trkpt><trkpt lat="44.04777905469545" lon="10.140991927516227"><ele>111.0</ele><time>2026-03-28T10:22:24Z</time></trkpt><trkpt lat="44.04771824472692" lon="10.141154767811674"><ele>113.0</ele><time>2026-03-28T10:22:25Z</time></trkpt><trkpt lat="44.04766391271582" lon="10.141297798644537"><ele>115.0</ele><time>2026-03-28T10:22:26Z</time></trkpt><trkpt lat="44.04755801661088" lon="10.14139871740164"><ele>112.0</ele><time>2026-03-28T10:22:27Z</time></trkpt><trkpt lat="44.047438165313444" lon="10.141537583387029"><ele>109.0</ele><time>2026-03-28T10:22:28Z</time></trkpt><trkpt lat="44.04730009872717" lon="10.141655499732627"><ele>106.0</ele><time>2026-03-28T10:22:29Z</time></trkpt><trkpt lat="44.047186913685884" lon="10.141763774232489"><ele>106.0</ele><time>2026-03-28T10:22:30Z</time></trkpt><trkpt lat="44.0471048522698" lon="10.141848103235125"><ele>106.0</ele><time>2026-03-28T10:22:31Z</time></trkpt><trkpt lat="44.04704086212705" lon="10.141909496688966"><ele>106.0</ele><time>2026-03-28T10:22:32Z</time></trkpt><trkpt lat="44.04699200654438" lon="10.14199583756988"><ele>106.0</ele><time>2026-03-28T10:22:33Z</time></trkpt><trkpt lat="44.04702417073056" lon="10.142124695519305"><ele>106.0</ele><time>2026-03-28T10:22:34Z</time></trkpt><trkpt lat="44.04711619995725" lon="10.14218463852938"><ele>106.0</ele><time>2026-03-28T10:22:35Z</time></trkpt><trkpt lat="44.04720762634656" lon="10.14221056333961"><ele>106.0</ele><time>2026-03-28T10:22:36Z</time></trkpt><trkpt lat="44.04726396451807" lon="10.142108439599928"><ele>106.0</ele><time>2026-03-28T10:22:37Z</time></trkpt><trkpt lat="44.04731799925251" lon="10.141963575362519"><ele>106.0</ele><time>2026-03-28T10:22:38Z</time></trkpt><trkpt lat="44.04745343740496" lon="10.141826798236009"><ele>114.33333333333334</ele><time>2026-03-28T10:22:39Z</time></trkpt><trkpt lat="44.04760532920892" lon="10.141680125416954"><ele>122.66666666666666</ele><time>2026-03-28T10:22:40Z</time></trkpt><trkpt lat="44.04776932584018" lon="10.14165494038092"><ele>131.0</ele><time>2026-03-28T10:22:41Z</time></trkpt><trkpt lat="44.04796006904328" lon="10.141618700485989"><ele>131.0</ele><time>2026-03-28T10:22:42Z</time></trkpt><trkpt lat="44.04811322315898" lon="10.141563732409876"><ele>131.0</ele><time>2026-03-28T10:22:43Z</time></trkpt><trkpt lat="44.04828635784503" lon="10.14148343510107"><ele>131.0</ele><time>2026-03-28T10:22:44Z</time></trkpt><trkpt lat="44.04846060359075" lon="10.141340275741149"><ele>130.33333333333331</ele><time>2026-03-28T10:22:45Z</time></trkpt><trkpt lat="44.04864430830882" lon="10.141208242651436"><ele>129.66666666666666</ele><time>2026-03-28T10:22:46Z</time></trkpt><trkpt lat="44.048833784338285" lon="10.141093375811586"><ele>129.0</ele><time>2026-03-28T10:22:47Z</time></trkpt><trkpt lat="44.04899424969323" lon="10.140992310437687"><ele>129.0</ele><time>2026-03-28T10:22:48Z</time></trkpt><trkpt lat="44.04913773919437" lon="10.140891780127824"><ele>129.0</ele><time>2026-03-28T10:22:49Z</time></trkpt><trkpt lat="44.04924998315066" lon="10.140780670650809"><ele>129.0</ele><time>2026-03-28T10:22:50Z</time></trkpt><trkpt lat="44.0493370794739" lon="10.140660397487935"><ele>129.0</ele><time>2026-03-28T10:22:51Z</time></trkpt><trkpt lat="44.04938396120649" lon="10.140535723128844"><ele>129.0</ele><time>2026-03-28T10:22:52Z</time></trkpt><trkpt lat="44.049472777010486" lon="10.14051335111335"><ele>129.0</ele><time>2026-03-28T10:22:53Z</time></trkpt><trkpt lat="44.04954463214851" lon="10.14059211262647"><ele>129.0</ele><time>2026-03-28T10:22:54Z</time></trkpt><trkpt lat="44.049562171566706" lon="10.14073316003784"><ele>129.0</ele><time>2026-03-28T10:22:55Z</time></trkpt><trkpt lat="44.04951952704435" lon="10.140826217154194"><ele>129.0</ele><time>2026-03-28T10:22:56Z</time></trkpt><trkpt lat="44.049424298422224" lon="10.1409231272532"><ele>129.0</ele><time>2026-03-28T10:22:57Z</time></trkpt><trkpt lat="44.04929148995231" lon="10.140987597416188"><ele>129.0</ele><time>2026-03-28T10:22:58Z</time></trkpt><trkpt lat="44.04918970848826" lon="10.14109667105009"><ele>129.0</ele><time>2026-03-28T10:22:59Z</time></trkpt><trkpt lat="44.049107606784176" lon="10.141213932029402"><ele>129.0</ele><time>2026-03-28T10:23:00Z</time></trkpt><trkpt lat="44.04905390444989" lon="10.141348403282896"><ele>129.0</ele><time>2026-03-28T10:23:01Z</time></trkpt><trkpt lat="44.048989814748836" lon="10.141472601501459"><ele>129.0</ele><time>2026-03-28T10:23:02Z</time></trkpt><trkpt lat="44.048926455730395" lon="10.141602281667543"><ele>129.0</ele><time>2026-03-28T10:23:03Z</time></trkpt><trkpt lat="44.04885149377053" lon="10.141712989756186"><ele>129.0</ele><time>2026-03-28T10:23:04Z</time></trkpt><trkpt lat="44.0487520241349" lon="10.141856150892453"><ele>133.5</ele><time>2026-03-28T10:23:05Z</time></trkpt><trkpt lat="44.04866035778477" lon="10.141983634961997"><ele>138.0</ele><time>2026-03-28T10:23:06Z</time></trkpt><trkpt lat="44.04855434273558" lon="10.142070196001967"><ele>142.5</ele><time>2026-03-28T10:23:07Z</time></trkpt><trkpt lat="44.04844071609186" lon="10.14214366672214"><ele>147.0</ele><time>2026-03-28T10:23:08Z</time></trkpt><trkpt lat="44.04831793340121" lon="10.142217149011477"><ele>149.5</ele><time>2026-03-28T10:23:09Z</time></trkpt><trkpt lat="44.048200972011834" lon="10.142292319994574"><ele>152.0</ele><time>2026-03-28T10:23:10Z</time></trkpt><trkpt lat="44.048092124965905" lon="10.142386711983354"><ele>154.5</ele><time>2026-03-28T10:23:11Z</time></trkpt><trkpt lat="44.04800148886668" lon="10.142451896775286"><ele>157.0</ele><time>2026-03-28T10:23:12Z</time></trkpt><trkpt lat="44.04790371957311" lon="10.142542887044689"><ele>157.0</ele><time>2026-03-28T10:23:13Z</time></trkpt><trkpt lat="44.04780690486124" lon="10.142596677553648"><ele>157.0</ele><time>2026-03-28T10:23:14Z</time></trkpt><trkpt lat="44.04769941471486" lon="10.142637938097767"><ele>157.0</ele><time>2026-03-28T10:23:15Z</time></trkpt><trkpt lat="44.047603952684085" lon="10.142682200689194"><ele>157.0</ele><time>2026-03-28T10:23:16Z</time></trkpt><trkpt lat="44.04750705157258" lon="10.142735414566836"><ele>157.0</ele><time>2026-03-28T10:23:17Z</time></trkpt><trkpt lat="44.04742469601722" lon="10.142838303257847"><ele>152.25</ele><time>2026-03-28T10:23:18Z</time></trkpt><trkpt lat="44.04733386901743" lon="10.142946256778544"><ele>147.5</ele><time>2026-03-28T10:23:19Z</time></trkpt><trkpt lat="44.04726587708644" lon="10.143077908730943"><ele>142.75</ele><time>2026-03-28T10:23:20Z</time></trkpt><trkpt lat="44.04718346804744" lon="10.143198249851222"><ele>138.0</ele><time>2026-03-28T10:23:21Z</time></trkpt><trkpt lat="44.047105330133775" lon="10.143338013186511"><ele>138.0</ele><time>2026-03-28T10:23:22Z</time></trkpt><trkpt lat="44.047088741080636" lon="10.143514973077085"><ele>138.0</ele><time>2026-03-28T10:23:23Z</time></trkpt><trkpt lat="44.04711332401349" lon="10.143674174678043"><ele>138.0</ele><time>2026-03-28T10:23:24Z</time></trkpt><trkpt lat="44.04718029390413" lon="10.143813939474274"><ele>138.0</ele><time>2026-03-28T10:23:25Z</time></trkpt><trkpt lat="44.04728120405322" lon="10.143874620187214"><ele>138.0</ele><time>2026-03-28T10:23:26Z</time></trkpt><trkpt lat="44.04739267942219" lon="10.14389698423153"><ele>138.0</ele><time>2026-03-28T10:23:27Z</time></trkpt><trkpt lat="44.04751162523414" lon="10.143827376086904"><ele>138.0</ele><time>2026-03-28T10:23:28Z</time></trkpt><trkpt lat="44.04763886382866" lon="10.143669712578529"><ele>138.0</ele><time>2026-03-28T10:23:29Z</time></trkpt><trkpt lat="44.04776558527426" lon="10.143527886236674"><ele>144.33333333333334</ele><time>2026-03-28T10:23:30Z</time></trkpt><trkpt lat="44.04789541558815" lon="10.14341993086137"><ele>150.66666666666669</ele><time>2026-03-28T10:23:31Z</time></trkpt><trkpt lat="44.048034869229824" lon="10.143310672030571"><ele>157.0</ele><time>2026-03-28T10:23:32Z</time></trkpt><trkpt lat="44.04816413526832" lon="10.143192801830743"><ele>157.0</ele><time>2026-03-28T10:23:33Z</time></trkpt><trkpt lat="44.04828291258661" lon="10.143067562321704"><ele>157.0</ele><time>2026-03-28T10:23:34Z</time></trkpt><trkpt lat="44.04839068657504" lon="10.142960118699557"><ele>157.0</ele><time>2026-03-28T10:23:35Z</time></trkpt><trkpt lat="44.04849112819219" lon="10.142859728725616"><ele>157.0</ele><time>2026-03-28T10:23:36Z</time></trkpt><trkpt lat="44.04859716268959" lon="10.142779311774456"><ele>161.25</ele><time>2026-03-28T10:23:37Z</time></trkpt><trkpt lat="44.048711898293604" lon="10.142762050727715"><ele>165.5</ele><time>2026-03-28T10:23:38Z</time></trkpt><trkpt lat="44.048833254158325" lon="10.142717822710473"><ele>169.75</ele><time>2026-03-28T10:23:39Z</time></trkpt><trkpt lat="44.04895269255108" lon="10.142687387387836"><ele>174.0</ele><time>2026-03-28T10:23:40Z</time></trkpt><trkpt lat="44.04905680758888" lon="10.142656471663756"><ele>173.0</ele><time>2026-03-28T10:23:41Z</time></trkpt><trkpt lat="44.04915819941092" lon="10.142587579334098"><ele>172.0</ele><time>2026-03-28T10:23:42Z</time></trkpt><trkpt lat="44.04923333309302" lon="10.142431483798324"><ele>171.0</ele><time>2026-03-28T10:23:43Z</time></trkpt><trkpt lat="44.04932054223047" lon="10.142306024126766"><ele>170.0</ele><time>2026-03-28T10:23:44Z</time></trkpt><trkpt lat="44.0494190505486" lon="10.142170643832374"><ele>170.0</ele><time>2026-03-28T10:23:45Z</time></trkpt><trkpt lat="44.049521213120585" lon="10.142056016946931"><ele>170.0</ele><time>2026-03-28T10:23:46Z</time></trkpt><trkpt lat="44.04962250141751" lon="10.141958462770713"><ele>170.0</ele><time>2026-03-28T10:23:47Z</time></trkpt><trkpt lat="44.04973681173566" lon="10.14187612336075"><ele>170.0</ele><time>2026-03-28T10:23:48Z</time></trkpt><trkpt lat="44.04987358976509" lon="10.141806644433425"><ele>179.66666666666666</ele><time>2026-03-28T10:23:49Z</time></trkpt><trkpt lat="44.05002972041436" lon="10.141731878573898"><ele>189.33333333333331</ele><time>2026-03-28T10:23:50Z</time></trkpt><trkpt lat="44.05017810397552" lon="10.141673422181029"><ele>199.0</ele><time>2026-03-28T10:23:51Z</time></trkpt><trkpt lat="44.05030710212243" lon="10.141621225856674"><ele>199.0</ele><time>2026-03-28T10:23:52Z</time></trkpt><trkpt lat="44.05043869398417" lon="10.141660862077945"><ele>199.0</ele><time>2026-03-28T10:23:53Z</time></trkpt><trkpt lat="44.05058322528065" lon="10.141687247561915"><ele>199.0</ele><time>2026-03-28T10:23:54Z</time></trkpt><trkpt lat="44.05076896225938" lon="10.141860389039064"><ele>197.0</ele><time>2026-03-28T10:23:55Z</time></trkpt><trkpt lat="44.05090805390335" lon="10.141961141091878"><ele>195.0</ele><time>2026-03-28T10:23:56Z</time></trkpt><trkpt lat="44.05105365986674" lon="10.142112459051734"><ele>193.0</ele><time>2026-03-28T10:23:57Z</time></trkpt><trkpt lat="44.05118864056024" lon="10.142190988943211"><ele>193.0</ele><time>2026-03-28T10:23:58Z</time></trkpt><trkpt lat="44.05127110534019" lon="10.142250448946086"><ele>193.0</ele><time>2026-03-28T10:23:59Z</time></trkpt><trkpt lat="44.0513945067156" lon="10.142240836100274"><ele>193.0</ele><time>2026-03-28T10:24:00Z</time></trkpt><trkpt lat="44.05149811178069" lon="10.142247110008988"><ele>193.0</ele><time>2026-03-28T10:24:01Z</time></trkpt><trkpt lat="44.05159848661132" lon="10.142310014341977"><ele>193.0</ele><time>2026-03-28T10:24:02Z</time></trkpt><trkpt lat="44.051625287022375" lon="10.142449631822133"><ele>205.5</ele><time>2026-03-28T10:24:04Z</time></trkpt><trkpt lat="44.05155898073049" lon="10.142535661602448"><ele>218.0</ele><time>2026-03-28T10:24:05Z</time></trkpt><trkpt lat="44.05145699338643" lon="10.142531770509537"><ele>230.5</ele><time>2026-03-28T10:24:06Z</time></trkpt><trkpt lat="44.05135808267355" lon="10.142518885749952"><ele>243.0</ele><time>2026-03-28T10:24:07Z</time></trkpt><trkpt lat="44.05120272783484" lon="10.142440761945238"><ele>226.33333333333331</ele><time>2026-03-28T10:24:08Z</time></trkpt><trkpt lat="44.05108235537249" lon="10.14229752761741"><ele>209.66666666666666</ele><time>2026-03-28T10:24:09Z</time></trkpt><trkpt lat="44.05094986886716" lon="10.142189862194403"><ele>193.0</ele><time>2026-03-28T10:24:10Z</time></trkpt><trkpt lat="44.050822121545934" lon="10.142072015728285"><ele>194.5</ele><time>2026-03-28T10:24:11Z</time></trkpt><trkpt lat="44.050731865825625" lon="10.141988363790349"><ele>196.0</ele><time>2026-03-28T10:24:12Z</time></trkpt><trkpt lat="44.05059520610449" lon="10.141947309724609"><ele>197.5</ele><time>2026-03-28T10:24:13Z</time></trkpt><trkpt lat="44.05040375522902" lon="10.141927444261485"><ele>199.0</ele><time>2026-03-28T10:24:14Z</time></trkpt><trkpt lat="44.050220660778585" lon="10.141940982306517"><ele>199.0</ele><time>2026-03-28T10:24:15Z</time></trkpt><trkpt lat="44.050064600689566" lon="10.14201776536288"><ele>199.0</ele><time>2026-03-28T10:24:16Z</time></trkpt><trkpt lat="44.049909725242344" lon="10.142123713308282"><ele>199.0</ele><time>2026-03-28T10:24:17Z</time></trkpt><trkpt lat="44.049743183308756" lon="10.142169446769579"><ele>199.66666666666666</ele><time>2026-03-28T10:24:18Z</time></trkpt><trkpt lat="44.04967086813278" lon="10.142460062583044"><ele>200.33333333333331</ele><time>2026-03-28T10:24:19Z</time></trkpt><trkpt lat="44.049583486605314" lon="10.142666354532691"><ele>201.0</ele><time>2026-03-28T10:24:20Z</time></trkpt><trkpt lat="44.049488249860715" lon="10.142857468110483"><ele>201.0</ele><time>2026-03-28T10:24:21Z</time></trkpt><trkpt lat="44.04939058083265" lon="10.143087456434897"><ele>201.0</ele><time>2026-03-28T10:24:22Z</time></trkpt><trkpt lat="44.04927481997747" lon="10.143243763434615"><ele>201.0</ele><time>2026-03-28T10:24:23Z</time></trkpt><trkpt lat="44.04916591467952" lon="10.143353953313929"><ele>201.25</ele><time>2026-03-28T10:24:24Z</time></trkpt><trkpt lat="44.049038517799424" lon="10.143380296876185"><ele>201.5</ele><time>2026-03-28T10:24:25Z</time></trkpt><trkpt lat="44.04891401922436" lon="10.143467310511552"><ele>201.75</ele><time>2026-03-28T10:24:26Z</time></trkpt><trkpt lat="44.048790253692864" lon="10.14357747914941"><ele>202.0</ele><time>2026-03-28T10:24:27Z</time></trkpt><trkpt lat="44.04866579823771" lon="10.143744321119097"><ele>202.0</ele><time>2026-03-28T10:24:28Z</time></trkpt><trkpt lat="44.048594756098325" lon="10.143871804914733"><ele>202.0</ele><time>2026-03-28T10:24:29Z</time></trkpt><trkpt lat="44.04859782861188" lon="10.144026126721315"><ele>202.0</ele><time>2026-03-28T10:24:30Z</time></trkpt><trkpt lat="44.04866019542915" lon="10.144172902840753"><ele>202.0</ele><time>2026-03-28T10:24:31Z</time></trkpt><trkpt lat="44.04871076224895" lon="10.144368362681776"><ele>206.75</ele><time>2026-03-28T10:24:32Z</time></trkpt><trkpt lat="44.04876957931284" lon="10.144537087174852"><ele>211.5</ele><time>2026-03-28T10:24:33Z</time></trkpt><trkpt lat="44.04878112352044" lon="10.14474289047991"><ele>216.25</ele><time>2026-03-28T10:24:34Z</time></trkpt><trkpt lat="44.04875380468072" lon="10.144914231737417"><ele>221.0</ele><time>2026-03-28T10:24:35Z</time></trkpt><trkpt lat="44.04874167954056" lon="10.14509278360121"><ele>222.5</ele><time>2026-03-28T10:24:36Z</time></trkpt><trkpt lat="44.04867438356503" lon="10.14528142991504"><ele>224.0</ele><time>2026-03-28T10:24:37Z</time></trkpt><trkpt lat="44.0485979661856" lon="10.14543605365424"><ele>225.5</ele><time>2026-03-28T10:24:38Z</time></trkpt><trkpt lat="44.04851032016845" lon="10.145590991099434"><ele>227.0</ele><time>2026-03-28T10:24:39Z</time></trkpt><trkpt lat="44.04848831736378" lon="10.145768397298536"><ele>230.66666666666669</ele><time>2026-03-28T10:24:40Z</time></trkpt><trkpt lat="44.04851537272304" lon="10.145960569093397"><ele>234.33333333333331</ele><time>2026-03-28T10:24:41Z</time></trkpt><trkpt lat="44.04855682575198" lon="10.14615894521896"><ele>238.0</ele><time>2026-03-28T10:24:42Z</time></trkpt><trkpt lat="44.04869339432483" lon="10.146320800910178"><ele>238.0</ele><time>2026-03-28T10:24:43Z</time></trkpt><trkpt lat="44.048737643297585" lon="10.146460642700525"><ele>238.0</ele><time>2026-03-28T10:24:44Z</time></trkpt><trkpt lat="44.04875864418097" lon="10.146621439487626"><ele>238.0</ele><time>2026-03-28T10:24:45Z</time></trkpt><trkpt lat="44.04871772158007" lon="10.146767887023833"><ele>238.0</ele><time>2026-03-28T10:24:46Z</time></trkpt><trkpt lat="44.048705586176396" lon="10.146935321102246"><ele>238.0</ele><time>2026-03-28T10:24:47Z</time></trkpt><trkpt lat="44.04873495094584" lon="10.147104765072807"><ele>238.0</ele><time>2026-03-28T10:24:48Z</time></trkpt><trkpt lat="44.048778389988094" lon="10.147259523802221"><ele>238.0</ele><time>2026-03-28T10:24:49Z</time></trkpt><trkpt lat="44.04883752620175" lon="10.147426438216458"><ele>238.0</ele><time>2026-03-28T10:24:50Z</time></trkpt><trkpt lat="44.04883914475041" lon="10.147609980333401"><ele>238.0</ele><time>2026-03-28T10:24:51Z</time></trkpt><trkpt lat="44.04885466383204" lon="10.14774863015454"><ele>238.0</ele><time>2026-03-28T10:24:52Z</time></trkpt><trkpt lat="44.04898169608641" lon="10.147795952198624"><ele>238.0</ele><time>2026-03-28T10:24:54Z</time></trkpt><trkpt lat="44.04906393129117" lon="10.147649793094844"><ele>238.0</ele><time>2026-03-28T10:24:55Z</time></trkpt><trkpt lat="44.0489744605596" lon="10.1473247223087"><ele>238.0</ele><time>2026-03-28T10:24:57Z</time></trkpt><trkpt lat="44.04891843904142" lon="10.147165423229282"><ele>238.0</ele><time>2026-03-28T10:24:58Z</time></trkpt><trkpt lat="44.04887219943681" lon="10.147002577968449"><ele>238.0</ele><time>2026-03-28T10:24:59Z</time></trkpt><trkpt lat="44.04889711539654" lon="10.146841089603404"><ele>238.0</ele><time>2026-03-28T10:25:00Z</time></trkpt><trkpt lat="44.04891961876069" lon="10.14666618609588"><ele>238.0</ele><time>2026-03-28T10:25:01Z</time></trkpt><trkpt lat="44.048937540421974" lon="10.146506014946628"><ele>238.0</ele><time>2026-03-28T10:25:02Z</time></trkpt><trkpt lat="44.048946509774936" lon="10.146352909114638"><ele>238.0</ele><time>2026-03-28T10:25:03Z</time></trkpt><trkpt lat="44.048923692274585" lon="10.146185671990002"><ele>238.0</ele><time>2026-03-28T10:25:04Z</time></trkpt><trkpt lat="44.04883957304429" lon="10.146043127368937"><ele>238.0</ele><time>2026-03-28T10:25:05Z</time></trkpt><trkpt lat="44.04878751403829" lon="10.145896487384986"><ele>238.0</ele><time>2026-03-28T10:25:06Z</time></trkpt><trkpt lat="44.04881431705355" lon="10.145755935034348"><ele>238.0</ele><time>2026-03-28T10:25:07Z</time></trkpt><trkpt lat="44.0488495864188" lon="10.145657466690912"><ele>238.0</ele><time>2026-03-28T10:25:08Z</time></trkpt><trkpt lat="44.0489385121273" lon="10.145573349004145"><ele>238.0</ele><time>2026-03-28T10:25:09Z</time></trkpt><trkpt lat="44.049028653197915" lon="10.14545279504809"><ele>251.66666666666666</ele><time>2026-03-28T10:25:10Z</time></trkpt><trkpt lat="44.049145122199455" lon="10.145299257665615"><ele>265.3333333333333</ele><time>2026-03-28T10:25:11Z</time></trkpt><trkpt lat="44.04923200062778" lon="10.145154616753796"><ele>279.0</ele><time>2026-03-28T10:25:12Z</time></trkpt><trkpt lat="44.04925321352821" lon="10.144928763577333"><ele>275.25</ele><time>2026-03-28T10:25:13Z</time></trkpt><trkpt lat="44.04926359045729" lon="10.144735502462076"><ele>271.5</ele><time>2026-03-28T10:25:14Z</time></trkpt><trkpt lat="44.04929450690533" lon="10.144572533974035"><ele>267.75</ele><time>2026-03-28T10:25:15Z</time></trkpt><trkpt lat="44.049365831067966" lon="10.144407991102586"><ele>264.0</ele><time>2026-03-28T10:25:16Z</time></trkpt><trkpt lat="44.049465073616346" lon="10.144252885137407"><ele>264.0</ele><time>2026-03-28T10:25:17Z</time></trkpt><trkpt lat="44.04962364915789" lon="10.144175314586358"><ele>264.0</ele><time>2026-03-28T10:25:18Z</time></trkpt><trkpt lat="44.04975636536794" lon="10.144073792105992"><ele>264.0</ele><time>2026-03-28T10:25:19Z</time></trkpt><trkpt lat="44.0498986683887" lon="10.143949469503937"><ele>266.75</ele><time>2026-03-28T10:25:20Z</time></trkpt><trkpt lat="44.05002368063245" lon="10.143804845372216"><ele>269.5</ele><time>2026-03-28T10:25:21Z</time></trkpt><trkpt lat="44.05010559437551" lon="10.143675045432245"><ele>272.25</ele><time>2026-03-28T10:25:22Z</time></trkpt><trkpt lat="44.05022422681015" lon="10.143563686700341"><ele>275.0</ele><time>2026-03-28T10:25:23Z</time></trkpt><trkpt lat="44.05031485160835" lon="10.143471749109732"><ele>275.0</ele><time>2026-03-28T10:25:24Z</time></trkpt><trkpt lat="44.05041580326796" lon="10.143407768034693"><ele>275.0</ele><time>2026-03-28T10:25:25Z</time></trkpt><trkpt lat="44.050517818859205" lon="10.143434429489007"><ele>275.0</ele><time>2026-03-28T10:25:26Z</time></trkpt><trkpt lat="44.0505835499888" lon="10.143514763891634"><ele>275.0</ele><time>2026-03-28T10:25:27Z</time></trkpt><trkpt lat="44.05061990089348" lon="10.143626094752214"><ele>275.0</ele><time>2026-03-28T10:25:28Z</time></trkpt><trkpt lat="44.05060882270841" lon="10.143768415063038"><ele>275.0</ele><time>2026-03-28T10:25:29Z</time></trkpt><trkpt lat="44.05064244509866" lon="10.143984899720815"><ele>275.0</ele><time>2026-03-28T10:25:30Z</time></trkpt><trkpt lat="44.05070903412604" lon="10.144176093105823"><ele>275.0</ele><time>2026-03-28T10:25:31Z</time></trkpt><trkpt lat="44.05079069586601" lon="10.144363602803336"><ele>281.25</ele><time>2026-03-28T10:25:32Z</time></trkpt><trkpt lat="44.05088855299622" lon="10.144479331528949"><ele>287.5</ele><time>2026-03-28T10:25:33Z</time></trkpt><trkpt lat="44.05102326783267" lon="10.144572361423803"><ele>293.75</ele><time>2026-03-28T10:25:34Z</time></trkpt><trkpt lat="44.0511528982474" lon="10.144632258615378"><ele>300.0</ele><time>2026-03-28T10:25:35Z</time></trkpt><trkpt lat="44.05129635455385" lon="10.144660977785827"><ele>300.0</ele><time>2026-03-28T10:25:36Z</time></trkpt><trkpt lat="44.05143284389687" lon="10.14469832226837"><ele>300.0</ele><time>2026-03-28T10:25:37Z</time></trkpt><trkpt lat="44.05155691839761" lon="10.144732240969146"><ele>300.0</ele><time>2026-03-28T10:25:38Z</time></trkpt><trkpt lat="44.05168574038041" lon="10.144760307483953"><ele>300.0</ele><time>2026-03-28T10:25:39Z</time></trkpt><trkpt lat="44.051809925076284" lon="10.144819532925359"><ele>303.5</ele><time>2026-03-28T10:25:40Z</time></trkpt><trkpt lat="44.05189469045594" lon="10.144929304918817"><ele>307.0</ele><time>2026-03-28T10:25:41Z</time></trkpt><trkpt lat="44.05197614914236" lon="10.145077597334737"><ele>310.5</ele><time>2026-03-28T10:25:42Z</time></trkpt><trkpt lat="44.05207695714606" lon="10.145249632345319"><ele>314.0</ele><time>2026-03-28T10:25:43Z</time></trkpt><trkpt lat="44.05218182707512" lon="10.145419031493661"><ele>314.0</ele><time>2026-03-28T10:25:44Z</time></trkpt><trkpt lat="44.05227381372429" lon="10.145565689017491"><ele>314.0</ele><time>2026-03-28T10:25:45Z</time></trkpt><trkpt lat="44.05237424103307" lon="10.145690359977749"><ele>314.0</ele><time>2026-03-28T10:25:46Z</time></trkpt><trkpt lat="44.052461444783646" lon="10.145821314027327"><ele>314.0</ele><time>2026-03-28T10:25:47Z</time></trkpt><trkpt lat="44.05255205962995" lon="10.145924097248882"><ele>318.75</ele><time>2026-03-28T10:25:48Z</time></trkpt><trkpt lat="44.052687162105684" lon="10.145942015846723"><ele>323.5</ele><time>2026-03-28T10:25:49Z</time></trkpt><trkpt lat="44.0528237412648" lon="10.145946738492142"><ele>328.25</ele><time>2026-03-28T10:25:50Z</time></trkpt><trkpt lat="44.052971239821616" lon="10.145969187923066"><ele>333.0</ele><time>2026-03-28T10:25:51Z</time></trkpt><trkpt lat="44.053098424171985" lon="10.14599198627205"><ele>333.0</ele><time>2026-03-28T10:25:52Z</time></trkpt><trkpt lat="44.05321030616441" lon="10.146015420238548"><ele>333.0</ele><time>2026-03-28T10:25:53Z</time></trkpt><trkpt lat="44.05332789362793" lon="10.14607533574271"><ele>333.0</ele><time>2026-03-28T10:25:54Z</time></trkpt><trkpt lat="44.05344098869866" lon="10.146275596617413"><ele>333.0</ele><time>2026-03-28T10:25:55Z</time></trkpt><trkpt lat="44.05353132717435" lon="10.146353510917958"><ele>330.25</ele><time>2026-03-28T10:25:56Z</time></trkpt><trkpt lat="44.05360657131767" lon="10.146404125121075"><ele>327.5</ele><time>2026-03-28T10:25:57Z</time></trkpt><trkpt lat="44.05373210325997" lon="10.14640927840514"><ele>324.75</ele><time>2026-03-28T10:25:58Z</time></trkpt><trkpt lat="44.05385277201222" lon="10.146396334287754"><ele>322.0</ele><time>2026-03-28T10:25:59Z</time></trkpt><trkpt lat="44.05398377482839" lon="10.146345487916262"><ele>322.0</ele><time>2026-03-28T10:26:00Z</time></trkpt><trkpt lat="44.05407880940449" lon="10.146245492085745"><ele>322.0</ele><time>2026-03-28T10:26:01Z</time></trkpt><trkpt lat="44.05411235978074" lon="10.146074754248238"><ele>322.0</ele><time>2026-03-28T10:26:02Z</time></trkpt><trkpt lat="44.05408566319047" lon="10.145829232728424"><ele>322.0</ele><time>2026-03-28T10:26:03Z</time></trkpt><trkpt lat="44.054067681787174" lon="10.145577936142695"><ele>317.66666666666663</ele><time>2026-03-28T10:26:04Z</time></trkpt><trkpt lat="44.05404451181218" lon="10.145345428527186"><ele>313.3333333333333</ele><time>2026-03-28T10:26:05Z</time></trkpt><trkpt lat="44.05403890080392" lon="10.145093762804676"><ele>309.0</ele><time>2026-03-28T10:26:06Z</time></trkpt><trkpt lat="44.05402570578463" lon="10.14486485418815"><ele>308.0</ele><time>2026-03-28T10:26:07Z</time></trkpt><trkpt lat="44.054009226037344" lon="10.14466338323697"><ele>307.0</ele><time>2026-03-28T10:26:08Z</time></trkpt><trkpt lat="44.05399764219372" lon="10.144464070117438"><ele>306.0</ele><time>2026-03-28T10:26:09Z</time></trkpt><trkpt lat="44.054015978865685" lon="10.144253737421012"><ele>305.0</ele><time>2026-03-28T10:26:10Z</time></trkpt><trkpt lat="44.05402620339682" lon="10.144090741631723"><ele>304.0</ele><time>2026-03-28T10:26:11Z</time></trkpt><trkpt lat="44.054063830586664" lon="10.143904407563369"><ele>303.0</ele><time>2026-03-28T10:26:12Z</time></trkpt><trkpt lat="44.05410067357181" lon="10.143733995572532"><ele>302.0</ele><time>2026-03-28T10:26:13Z</time></trkpt><trkpt lat="44.05406132232036" lon="10.143509901457884"><ele>301.0</ele><time>2026-03-28T10:26:14Z</time></trkpt><trkpt lat="44.05405347296642" lon="10.143302832051058"><ele>300.0</ele><time>2026-03-28T10:26:15Z</time></trkpt><trkpt lat="44.05408164830351" lon="10.143127379966439"><ele>299.0</ele><time>2026-03-28T10:26:16Z</time></trkpt><trkpt lat="44.05412940753842" lon="10.142947451909995"><ele>298.0</ele><time>2026-03-28T10:26:17Z</time></trkpt><trkpt lat="44.054166635198065" lon="10.142794219750128"><ele>297.0</ele><time>2026-03-28T10:26:18Z</time></trkpt><trkpt lat="44.05419782805572" lon="10.14265229413146"><ele>302.6</ele><time>2026-03-28T10:26:19Z</time></trkpt><trkpt lat="44.054268366129016" lon="10.142543605979784"><ele>308.2</ele><time>2026-03-28T10:26:20Z</time></trkpt><trkpt lat="44.05434135902291" lon="10.142482735583664"><ele>313.8</ele><time>2026-03-28T10:26:21Z</time></trkpt><trkpt lat="44.05444111037375" lon="10.142399528071904"><ele>319.4</ele><time>2026-03-28T10:26:22Z</time></trkpt><trkpt lat="44.054524756876916" lon="10.142360752002256"><ele>325.0</ele><time>2026-03-28T10:26:23Z</time></trkpt><trkpt lat="44.05462847793466" lon="10.14234977506846"><ele>325.0</ele><time>2026-03-28T10:26:24Z</time></trkpt><trkpt lat="44.054740065557695" lon="10.142332493546036"><ele>325.0</ele><time>2026-03-28T10:26:25Z</time></trkpt><trkpt lat="44.05484929954875" lon="10.142347956803322"><ele>325.0</ele><time>2026-03-28T10:26:26Z</time></trkpt><trkpt lat="44.05495422842215" lon="10.142325648306464"><ele>325.0</ele><time>2026-03-28T10:26:27Z</time></trkpt><trkpt lat="44.05503748087121" lon="10.14231787154959"><ele>325.0</ele><time>2026-03-28T10:26:28Z</time></trkpt><trkpt lat="44.05511427844081" lon="10.142276355181709"><ele>328.16666666666663</ele><time>2026-03-28T10:26:29Z</time></trkpt><trkpt lat="44.05518437324257" lon="10.142222767691349"><ele>331.3333333333333</ele><time>2026-03-28T10:26:30Z</time></trkpt><trkpt lat="44.0552313920626" lon="10.14213643949957"><ele>334.5</ele><time>2026-03-28T10:26:31Z</time></trkpt><trkpt lat="44.05529911071369" lon="10.142049087516384"><ele>337.6666666666667</ele><time>2026-03-28T10:26:32Z</time></trkpt><trkpt lat="44.05535389699667" lon="10.141957859211232"><ele>340.83333333333337</ele><time>2026-03-28T10:26:33Z</time></trkpt><trkpt lat="44.05541409344556" lon="10.141902581969058"><ele>344.0</ele><time>2026-03-28T10:26:34Z</time></trkpt><trkpt lat="44.05546111689411" lon="10.141839846732356"><ele>344.0</ele><time>2026-03-28T10:26:36Z</time></trkpt><trkpt lat="44.055499365447616" lon="10.141769910432608"><ele>344.0</ele><time>2026-03-28T10:26:55Z</time></trkpt><trkpt lat="44.05553422850057" lon="10.141676448565953"><ele>344.0</ele><time>2026-03-28T10:26:56Z</time></trkpt><trkpt lat="44.05554578235976" lon="10.141559586249295"><ele>344.0</ele><time>2026-03-28T10:26:57Z</time></trkpt><trkpt lat="44.055558713671786" lon="10.141432445119706"><ele>344.0</ele><time>2026-03-28T10:26:58Z</time></trkpt><trkpt lat="44.05558339233754" lon="10.141320662207145"><ele>344.0</ele><time>2026-03-28T10:26:59Z</time></trkpt><trkpt lat="44.05561438099835" lon="10.141206154060143"><ele>345.0</ele><time>2026-03-28T10:27:00Z</time></trkpt><trkpt lat="44.05564491903545" lon="10.141034968816973"><ele>346.0</ele><time>2026-03-28T10:27:01Z</time></trkpt><trkpt lat="44.05569579851836" lon="10.140864990558455"><ele>347.0</ele><time>2026-03-28T10:27:02Z</time></trkpt><trkpt lat="44.05574708995249" lon="10.140715867821518"><ele>348.0</ele><time>2026-03-28T10:27:03Z</time></trkpt><trkpt lat="44.055815072434605" lon="10.140556236918645"><ele>348.0</ele><time>2026-03-28T10:27:04Z</time></trkpt><trkpt lat="44.055912209343845" lon="10.140559306229044"><ele>348.0</ele><time>2026-03-28T10:27:05Z</time></trkpt><trkpt lat="44.05604641367475" lon="10.140565787908677"><ele>348.0</ele><time>2026-03-28T10:27:06Z</time></trkpt><trkpt lat="44.05613561277687" lon="10.14052796388781"><ele>348.0</ele><time>2026-03-28T10:27:07Z</time></trkpt><trkpt lat="44.05623994711879" lon="10.140530517600531"><ele>348.0</ele><time>2026-03-28T10:27:08Z</time></trkpt><trkpt lat="44.05633607302651" lon="10.14051048953231"><ele>348.0</ele><time>2026-03-28T10:27:09Z</time></trkpt><trkpt lat="44.05645640571918" lon="10.14040875125851"><ele>348.0</ele><time>2026-03-28T10:27:10Z</time></trkpt><trkpt lat="44.056550758880604" lon="10.140300328561185"><ele>348.0</ele><time>2026-03-28T10:27:11Z</time></trkpt><trkpt lat="44.05661810417711" lon="10.140205038375099"><ele>348.0</ele><time>2026-03-28T10:27:12Z</time></trkpt><trkpt lat="44.056647676279155" lon="10.140035490574524"><ele>352.59999999999997</ele><time>2026-03-28T10:27:13Z</time></trkpt><trkpt lat="44.05672212401742" lon="10.139966605111638"><ele>357.2</ele><time>2026-03-28T10:27:14Z</time></trkpt><trkpt lat="44.05677025334834" lon="10.139890940852291"><ele>361.8</ele><time>2026-03-28T10:27:15Z</time></trkpt><trkpt lat="44.05680396177283" lon="10.139988728227356"><ele>366.4</ele><time>2026-03-28T10:27:16Z</time></trkpt><trkpt lat="44.056779116616916" lon="10.14008405532788"><ele>371.0</ele><time>2026-03-28T10:27:18Z</time></trkpt><trkpt lat="44.056639759708716" lon="10.14010793595979"><ele>366.4</ele><time>2026-03-28T10:27:19Z</time></trkpt><trkpt lat="44.056573737183754" lon="10.140219443145131"><ele>361.8</ele><time>2026-03-28T10:27:20Z</time></trkpt><trkpt lat="44.056542076311636" lon="10.140380443975719"><ele>357.2</ele><time>2026-03-28T10:27:21Z</time></trkpt><trkpt lat="44.056504269251434" lon="10.140525643275133"><ele>352.59999999999997</ele><time>2026-03-28T10:27:22Z</time></trkpt><trkpt lat="44.056450660323236" lon="10.140637667121078"><ele>348.0</ele><time>2026-03-28T10:27:23Z</time></trkpt><trkpt lat="44.05637471437892" lon="10.14071574396176"><ele>351.4</ele><time>2026-03-28T10:27:24Z</time></trkpt><trkpt lat="44.05627390774004" lon="10.14080479378156"><ele>354.79999999999995</ele><time>2026-03-28T10:27:25Z</time></trkpt><trkpt lat="44.05617962446799" lon="10.140850098446231"><ele>358.2</ele><time>2026-03-28T10:27:26Z</time></trkpt><trkpt lat="44.056062628260015" lon="10.14087459825992"><ele>361.6</ele><time>2026-03-28T10:27:27Z</time></trkpt><trkpt lat="44.05600436847246" lon="10.140974046052612"><ele>365.0</ele><time>2026-03-28T10:27:29Z</time></trkpt><trkpt lat="44.05608063203912" lon="10.141075458920241"><ele>365.0</ele><time>2026-03-28T10:27:30Z</time></trkpt><trkpt lat="44.0561567808399" lon="10.141037454404769"><ele>365.0</ele><time>2026-03-28T10:27:31Z</time></trkpt><trkpt lat="44.05627962406078" lon="10.140980066048916"><ele>365.0</ele><time>2026-03-28T10:27:32Z</time></trkpt><trkpt lat="44.056380767921006" lon="10.14094855079106"><ele>365.0</ele><time>2026-03-28T10:27:33Z</time></trkpt><trkpt lat="44.056485444246434" lon="10.140882697564791"><ele>365.0</ele><time>2026-03-28T10:27:34Z</time></trkpt><trkpt lat="44.056573295154095" lon="10.140788928812306"><ele>366.5</ele><time>2026-03-28T10:27:35Z</time></trkpt><trkpt lat="44.0566421868957" lon="10.140685455297149"><ele>368.0</ele><time>2026-03-28T10:27:36Z</time></trkpt><trkpt lat="44.056682611721676" lon="10.140538390517264"><ele>369.5</ele><time>2026-03-28T10:27:37Z</time></trkpt><trkpt lat="44.05676913358167" lon="10.140420038193616"><ele>371.0</ele><time>2026-03-28T10:27:38Z</time></trkpt><trkpt lat="44.056848663474256" lon="10.140305713135346"><ele>371.0</ele><time>2026-03-28T10:27:39Z</time></trkpt><trkpt lat="44.05694031961426" lon="10.140221537770204"><ele>371.0</ele><time>2026-03-28T10:27:40Z</time></trkpt><trkpt lat="44.057057003637034" lon="10.140180179077591"><ele>371.0</ele><time>2026-03-28T10:27:41Z</time></trkpt><trkpt lat="44.05717040691139" lon="10.14014388041469"><ele>371.0</ele><time>2026-03-28T10:27:42Z</time></trkpt><trkpt lat="44.05727095967424" lon="10.140068682661758"><ele>371.0</ele><time>2026-03-28T10:27:43Z</time></trkpt><trkpt lat="44.05733076429402" lon="10.140009130179655"><ele>371.0</ele><time>2026-03-28T10:27:44Z</time></trkpt><trkpt lat="44.05738725974979" lon="10.139934745854564"><ele>371.0</ele><time>2026-03-28T10:27:45Z</time></trkpt><trkpt lat="44.05744805193985" lon="10.139879992697498"><ele>371.0</ele><time>2026-03-28T10:27:46Z</time></trkpt><trkpt lat="44.05751851597677" lon="10.13991790258131"><ele>371.0</ele><time>2026-03-28T10:27:47Z</time></trkpt><trkpt lat="44.05756577817976" lon="10.140013620713487"><ele>371.0</ele><time>2026-03-28T10:27:48Z</time></trkpt><trkpt lat="44.057604322795896" lon="10.140088436699784"><ele>371.0</ele><time>2026-03-28T10:27:49Z</time></trkpt><trkpt lat="44.05764503368989" lon="10.140174236014973"><ele>371.0</ele><time>2026-03-28T10:27:50Z</time></trkpt><trkpt lat="44.057562674866034" lon="10.140271311625316"><ele>371.0</ele><time>2026-03-28T10:27:52Z</time></trkpt><trkpt lat="44.05747109829139" lon="10.140254868235441"><ele>371.0</ele><time>2026-03-28T10:27:53Z</time></trkpt><trkpt lat="44.05739766547312" lon="10.140277904572015"><ele>371.0</ele><time>2026-03-28T10:27:54Z</time></trkpt><trkpt lat="44.05732541725268" lon="10.140373229572397"><ele>371.0</ele><time>2026-03-28T10:27:55Z</time></trkpt><trkpt lat="44.057263957152855" lon="10.140463524929958"><ele>371.0</ele><time>2026-03-28T10:27:56Z</time></trkpt><trkpt lat="44.05719211460456" lon="10.140578939364953"><ele>371.0</ele><time>2026-03-28T10:27:57Z</time></trkpt><trkpt lat="44.057105142166286" lon="10.140704306699131"><ele>371.0</ele><time>2026-03-28T10:27:58Z</time></trkpt><trkpt lat="44.0570224072948" lon="10.140796871502955"><ele>371.0</ele><time>2026-03-28T10:27:59Z</time></trkpt><trkpt lat="44.0569522769861" lon="10.140889105910377"><ele>371.0</ele><time>2026-03-28T10:28:00Z</time></trkpt><trkpt lat="44.05687502539651" lon="10.140985149781887"><ele>369.8</ele><time>2026-03-28T10:28:01Z</time></trkpt><trkpt lat="44.05679664005726" lon="10.141080361270877"><ele>368.6</ele><time>2026-03-28T10:28:02Z</time></trkpt><trkpt lat="44.05672493408327" lon="10.141157356070492"><ele>367.4</ele><time>2026-03-28T10:28:03Z</time></trkpt><trkpt lat="44.056645184274004" lon="10.141247931561283"><ele>366.2</ele><time>2026-03-28T10:28:04Z</time></trkpt><trkpt lat="44.05658190225601" lon="10.141398158985655"><ele>365.0</ele><time>2026-03-28T10:28:05Z</time></trkpt><trkpt lat="44.05652829804412" lon="10.141523060235325"><ele>369.2</ele><time>2026-03-28T10:28:06Z</time></trkpt><trkpt lat="44.05645798174859" lon="10.141635377474845"><ele>373.4</ele><time>2026-03-28T10:28:07Z</time></trkpt><trkpt lat="44.0563852038964" lon="10.141744626448892"><ele>377.6</ele><time>2026-03-28T10:28:08Z</time></trkpt><trkpt lat="44.056324591457035" lon="10.14188563301948"><ele>381.8</ele><time>2026-03-28T10:28:09Z</time></trkpt><trkpt lat="44.05629276193232" lon="10.142011255274513"><ele>386.0</ele><time>2026-03-28T10:28:10Z</time></trkpt><trkpt lat="44.05625309812388" lon="10.142152349826466"><ele>385.99999999999994</ele><time>2026-03-28T10:28:11Z</time></trkpt><trkpt lat="44.05621760730791" lon="10.14226171840479"><ele>386.0</ele><time>2026-03-28T10:28:12Z</time></trkpt><trkpt lat="44.05618301655895" lon="10.142349934811657"><ele>386.0</ele><time>2026-03-28T10:28:13Z</time></trkpt><trkpt lat="44.05614765007417" lon="10.142450086867413"><ele>386.0</ele><time>2026-03-28T10:28:14Z</time></trkpt><trkpt lat="44.05611465482446" lon="10.142585693348863"><ele>385.99999999999994</ele><time>2026-03-28T10:28:15Z</time></trkpt><trkpt lat="44.05607629884712" lon="10.142705619771924"><ele>386.0</ele><time>2026-03-28T10:28:16Z</time></trkpt><trkpt lat="44.05603255295103" lon="10.14283281956476"><ele>387.0</ele><time>2026-03-28T10:28:17Z</time></trkpt><trkpt lat="44.0559863937893" lon="10.142954148768204"><ele>388.0</ele><time>2026-03-28T10:28:18Z</time></trkpt><trkpt lat="44.05592280433689" lon="10.143095318128426"><ele>389.0</ele><time>2026-03-28T10:28:19Z</time></trkpt><trkpt lat="44.055870980926024" lon="10.143227372227448"><ele>390.0</ele><time>2026-03-28T10:28:20Z</time></trkpt><trkpt lat="44.05581894413855" lon="10.143364852028263"><ele>391.0</ele><time>2026-03-28T10:28:21Z</time></trkpt><trkpt lat="44.05577591450494" lon="10.14352161052974"><ele>391.0</ele><time>2026-03-28T10:28:22Z</time></trkpt><trkpt lat="44.05572600516379" lon="10.14366441961152"><ele>391.0</ele><time>2026-03-28T10:28:23Z</time></trkpt><trkpt lat="44.055669481171115" lon="10.143799822406464"><ele>391.0</ele><time>2026-03-28T10:28:24Z</time></trkpt><trkpt lat="44.055621133796684" lon="10.143945082953621"><ele>391.0</ele><time>2026-03-28T10:28:25Z</time></trkpt><trkpt lat="44.05556818050728" lon="10.144086109837971"><ele>393.20000000000005</ele><time>2026-03-28T10:28:26Z</time></trkpt><trkpt lat="44.05558780517004" lon="10.144201999519515"><ele>395.40000000000003</ele><time>2026-03-28T10:28:27Z</time></trkpt><trkpt lat="44.05557249941178" lon="10.144337573499374"><ele>397.6</ele><time>2026-03-28T10:28:28Z</time></trkpt><trkpt lat="44.055528412722566" lon="10.144456443381104"><ele>399.8</ele><time>2026-03-28T10:28:29Z</time></trkpt><trkpt lat="44.05545675797709" lon="10.144562171876569"><ele>402.0</ele><time>2026-03-28T10:28:30Z</time></trkpt><trkpt lat="44.055384344612385" lon="10.144690366905872"><ele>402.0</ele><time>2026-03-28T10:28:31Z</time></trkpt><trkpt lat="44.05533477030594" lon="10.144785262608869"><ele>402.0</ele><time>2026-03-28T10:28:32Z</time></trkpt><trkpt lat="44.05528478892296" lon="10.144908970050741"><ele>402.0</ele><time>2026-03-28T10:28:33Z</time></trkpt><trkpt lat="44.0552544418117" lon="10.145049349508067"><ele>402.0</ele><time>2026-03-28T10:28:34Z</time></trkpt><trkpt lat="44.05521929177034" lon="10.145162452605103"><ele>402.0</ele><time>2026-03-28T10:28:35Z</time></trkpt><trkpt lat="44.055206026960484" lon="10.145254223560965"><ele>402.0</ele><time>2026-03-28T10:28:36Z</time></trkpt><trkpt lat="44.05520040046932" lon="10.14535115677034"><ele>402.8333333333333</ele><time>2026-03-28T10:28:37Z</time></trkpt><trkpt lat="44.05521463395595" lon="10.145494140506058"><ele>403.66666666666663</ele><time>2026-03-28T10:28:39Z</time></trkpt><trkpt lat="44.05523404898471" lon="10.145592092900314"><ele>404.5</ele><time>2026-03-28T10:28:42Z</time></trkpt><trkpt lat="44.05530744835338" lon="10.145586758608157"><ele>405.3333333333333</ele><time>2026-03-28T10:29:31Z</time></trkpt><trkpt lat="44.055316134254184" lon="10.14568436253243"><ele>406.16666666666663</ele><time>2026-03-28T10:29:51Z</time></trkpt><trkpt lat="44.05541353870974" lon="10.145786393124043"><ele>407.0</ele><time>2026-03-28T10:29:53Z</time></trkpt><trkpt lat="44.05546247534704" lon="10.145851407233407"><ele>407.0</ele><time>2026-03-28T10:29:54Z</time></trkpt><trkpt lat="44.055489057892196" lon="10.145932600542222"><ele>407.0</ele><time>2026-03-28T10:29:55Z</time></trkpt><trkpt lat="44.055564599125674" lon="10.146081439533"><ele>407.0</ele><time>2026-03-28T10:29:57Z</time></trkpt><trkpt lat="44.055629904662595" lon="10.14617675801237"><ele>407.0</ele><time>2026-03-28T10:29:58Z</time></trkpt><trkpt lat="44.05569034314503" lon="10.146272629587205"><ele>407.0</ele><time>2026-03-28T10:29:59Z</time></trkpt><trkpt lat="44.05573997339331" lon="10.146373093539076"><ele>406.99999999999994</ele><time>2026-03-28T10:30:00Z</time></trkpt><trkpt lat="44.0557811993206" lon="10.146444424013676"><ele>407.0</ele><time>2026-03-28T10:30:01Z</time></trkpt><trkpt lat="44.055839573308134" lon="10.146511654159932"><ele>407.0</ele><time>2026-03-28T10:30:02Z</time></trkpt><trkpt lat="44.05596831898528" lon="10.146578613322001"><ele>407.0</ele><time>2026-03-28T10:30:04Z</time></trkpt><trkpt lat="44.05604121621441" lon="10.1465899748687"><ele>406.99999999999994</ele><time>2026-03-28T10:30:05Z</time></trkpt><trkpt lat="44.05608759370362" lon="10.146666771802215"><ele>407.0</ele><time>2026-03-28T10:30:06Z</time></trkpt><trkpt lat="44.056163924057884" lon="10.146735140907387"><ele>412.16666666666663</ele><time>2026-03-28T10:30:07Z</time></trkpt><trkpt lat="44.05621820178774" lon="10.146818820370152"><ele>417.3333333333333</ele><time>2026-03-28T10:30:08Z</time></trkpt><trkpt lat="44.0562572296203" lon="10.14689481187589"><ele>422.5</ele><time>2026-03-28T10:30:09Z</time></trkpt><trkpt lat="44.056290289897014" lon="10.147028711091043"><ele>427.66666666666663</ele><time>2026-03-28T10:30:11Z</time></trkpt><trkpt lat="44.05626787441175" lon="10.14712260107914"><ele>432.8333333333333</ele><time>2026-03-28T10:30:12Z</time></trkpt><trkpt lat="44.056197518005575" lon="10.147221189569738"><ele>438.0</ele><time>2026-03-28T10:30:13Z</time></trkpt><trkpt lat="44.05610672278417" lon="10.147270474289773"><ele>438.0</ele><time>2026-03-28T10:30:14Z</time></trkpt><trkpt lat="44.05606054601829" lon="10.14734726260253"><ele>438.0</ele><time>2026-03-28T10:30:15Z</time></trkpt><trkpt lat="44.056013974109845" lon="10.147433681341491"><ele>438.0</ele><time>2026-03-28T10:30:16Z</time></trkpt><trkpt lat="44.05597192527035" lon="10.147559589030145"><ele>438.0</ele><time>2026-03-28T10:30:17Z</time></trkpt><trkpt lat="44.055952477760854" lon="10.147698029419132"><ele>438.0</ele><time>2026-03-28T10:30:18Z</time></trkpt><trkpt lat="44.05593594166354" lon="10.147819656852018"><ele>438.0</ele><time>2026-03-28T10:30:19Z</time></trkpt><trkpt lat="44.0559028194952" lon="10.147955607230779"><ele>437.79999999999995</ele><time>2026-03-28T10:30:20Z</time></trkpt><trkpt lat="44.055869222060814" lon="10.148084310634964"><ele>437.59999999999997</ele><time>2026-03-28T10:30:21Z</time></trkpt><trkpt lat="44.055850994177995" lon="10.148225095628318"><ele>437.40000000000003</ele><time>2026-03-28T10:30:22Z</time></trkpt><trkpt lat="44.0558364757467" lon="10.148356568096153"><ele>437.20000000000005</ele><time>2026-03-28T10:30:23Z</time></trkpt><trkpt lat="44.0558241621031" lon="10.148539067556998"><ele>437.0</ele><time>2026-03-28T10:30:24Z</time></trkpt><trkpt lat="44.05581658468648" lon="10.14865457441097"><ele>438.20000000000005</ele><time>2026-03-28T10:30:25Z</time></trkpt><trkpt lat="44.055837323596215" lon="10.148803735324016"><ele>439.40000000000003</ele><time>2026-03-28T10:30:26Z</time></trkpt><trkpt lat="44.05585206342649" lon="10.148926496598436"><ele>440.59999999999997</ele><time>2026-03-28T10:30:27Z</time></trkpt><trkpt lat="44.055866845488055" lon="10.149079586866648"><ele>441.79999999999995</ele><time>2026-03-28T10:30:28Z</time></trkpt><trkpt lat="44.055878486135065" lon="10.149215719448645"><ele>443.0</ele><time>2026-03-28T10:30:29Z</time></trkpt><trkpt lat="44.05588496983153" lon="10.149339268407655"><ele>445.0</ele><time>2026-03-28T10:30:30Z</time></trkpt><trkpt lat="44.055872986347026" lon="10.14948739427005"><ele>446.99999999999994</ele><time>2026-03-28T10:30:31Z</time></trkpt><trkpt lat="44.055855587389615" lon="10.149612009456884"><ele>448.99999999999994</ele><time>2026-03-28T10:30:32Z</time></trkpt><trkpt lat="44.05583381966989" lon="10.149699135738283"><ele>451.0</ele><time>2026-03-28T10:30:33Z</time></trkpt><trkpt lat="44.05581123952139" lon="10.149801019974955"><ele>453.0</ele><time>2026-03-28T10:30:34Z</time></trkpt><trkpt lat="44.055762267539855" lon="10.149943579444084"><ele>454.2</ele><time>2026-03-28T10:30:35Z</time></trkpt><trkpt lat="44.05569587981317" lon="10.150094089105172"><ele>455.4</ele><time>2026-03-28T10:30:36Z</time></trkpt><trkpt lat="44.05562757449944" lon="10.150171314763544"><ele>456.59999999999997</ele><time>2026-03-28T10:30:37Z</time></trkpt><trkpt lat="44.05554217718262" lon="10.150273205106322"><ele>457.79999999999995</ele><time>2026-03-28T10:30:38Z</time></trkpt><trkpt lat="44.055442644191054" lon="10.150315043495013"><ele>459.0</ele><time>2026-03-28T10:30:39Z</time></trkpt><trkpt lat="44.05537199490223" lon="10.150362434047421"><ele>459.0</ele><time>2026-03-28T10:30:40Z</time></trkpt><trkpt lat="44.055280944941046" lon="10.150364487702054"><ele>459.0</ele><time>2026-03-28T10:30:41Z</time></trkpt><trkpt lat="44.055192830841946" lon="10.150382735098855"><ele>459.0</ele><time>2026-03-28T10:30:42Z</time></trkpt><trkpt lat="44.05509986931288" lon="10.150370160550038"><ele>459.0</ele><time>2026-03-28T10:30:43Z</time></trkpt><trkpt lat="44.05498007747013" lon="10.150372069412288"><ele>459.0</ele><time>2026-03-28T10:30:44Z</time></trkpt><trkpt lat="44.05488526817237" lon="10.150401839431545"><ele>459.3333333333333</ele><time>2026-03-28T10:30:45Z</time></trkpt><trkpt lat="44.05479110570503" lon="10.150357812055008"><ele>459.66666666666663</ele><time>2026-03-28T10:30:46Z</time></trkpt><trkpt lat="44.05473083024497" lon="10.150417939943713"><ele>460.0</ele><time>2026-03-28T10:30:47Z</time></trkpt><trkpt lat="44.05468680922205" lon="10.150519009047732"><ele>460.3333333333333</ele><time>2026-03-28T10:30:48Z</time></trkpt><trkpt lat="44.05464010626502" lon="10.15063048557158"><ele>460.66666666666663</ele><time>2026-03-28T10:30:49Z</time></trkpt><trkpt lat="44.054576684205266" lon="10.150711270026232"><ele>461.0</ele><time>2026-03-28T10:30:50Z</time></trkpt><trkpt lat="44.05449221163978" lon="10.150773789917668"><ele>464.4</ele><time>2026-03-28T10:30:51Z</time></trkpt><trkpt lat="44.054436659481134" lon="10.150839637087884"><ele>467.8</ele><time>2026-03-28T10:30:52Z</time></trkpt><trkpt lat="44.05433233619564" lon="10.150853467537768"><ele>471.19999999999993</ele><time>2026-03-28T10:30:53Z</time></trkpt><trkpt lat="44.054223251600874" lon="10.150891788375006"><ele>474.59999999999997</ele><time>2026-03-28T10:30:54Z</time></trkpt><trkpt lat="44.05411258009762" lon="10.150912412291738"><ele>478.0</ele><time>2026-03-28T10:30:55Z</time></trkpt><trkpt lat="44.0539882367163" lon="10.15093309284427"><ele>478.2</ele><time>2026-03-28T10:30:56Z</time></trkpt><trkpt lat="44.053866478291305" lon="10.15094934029382"><ele>478.4</ele><time>2026-03-28T10:30:57Z</time></trkpt><trkpt lat="44.05373804963668" lon="10.150960322029558"><ele>478.59999999999997</ele><time>2026-03-28T10:30:58Z</time></trkpt><trkpt lat="44.05365327531125" lon="10.150937439278277"><ele>478.79999999999995</ele><time>2026-03-28T10:30:59Z</time></trkpt><trkpt lat="44.05358170822974" lon="10.150879976174126"><ele>479.0</ele><time>2026-03-28T10:31:00Z</time></trkpt><trkpt lat="44.05346247537344" lon="10.150773739771722"><ele>479.0</ele><time>2026-03-28T10:31:01Z</time></trkpt><trkpt lat="44.05338036763961" lon="10.150722658535356"><ele>479.0</ele><time>2026-03-28T10:31:02Z</time></trkpt><trkpt lat="44.05328956761165" lon="10.150726341370056"><ele>479.0</ele><time>2026-03-28T10:31:04Z</time></trkpt><trkpt lat="44.053265992765" lon="10.150846693511898"><ele>479.0</ele><time>2026-03-28T10:31:06Z</time></trkpt><trkpt lat="44.053306342941084" lon="10.150970722389149"><ele>479.0</ele><time>2026-03-28T10:31:09Z</time></trkpt><trkpt lat="44.0533258973612" lon="10.151139785110459"><ele>479.0</ele><time>2026-03-28T10:31:12Z</time></trkpt><trkpt lat="44.053362480060066" lon="10.151234206611548"><ele>479.0</ele><time>2026-03-28T10:31:14Z</time></trkpt><trkpt lat="44.053423512479625" lon="10.15135807037914"><ele>479.0</ele><time>2026-03-28T10:31:17Z</time></trkpt><trkpt lat="44.05357766898356" lon="10.151542678076027"><ele>479.0</ele><time>2026-03-28T10:31:18Z</time></trkpt><trkpt lat="44.05371900620624" lon="10.15158979254447"><ele>478.75</ele><time>2026-03-28T10:31:19Z</time></trkpt><trkpt lat="44.05386903625678" lon="10.151600884993925"><ele>478.5</ele><time>2026-03-28T10:31:20Z</time></trkpt><trkpt lat="44.054090932780596" lon="10.151560927038625"><ele>478.25</ele><time>2026-03-28T10:31:21Z</time></trkpt><trkpt lat="44.05416283744637" lon="10.151550112457063"><ele>478.0</ele><time>2026-03-28T10:31:22Z</time></trkpt><trkpt lat="44.05432188440963" lon="10.151565242118355"><ele>482.75</ele><time>2026-03-28T10:31:24Z</time></trkpt><trkpt lat="44.05444188980871" lon="10.15159025236545"><ele>487.5</ele><time>2026-03-28T10:31:25Z</time></trkpt><trkpt lat="44.05456211892869" lon="10.151611716744995"><ele>492.25</ele><time>2026-03-28T10:31:26Z</time></trkpt><trkpt lat="44.05468645883315" lon="10.151624409746782"><ele>497.0</ele><time>2026-03-28T10:31:27Z</time></trkpt><trkpt lat="44.054770784507504" lon="10.151627684969181"><ele>497.0</ele><time>2026-03-28T10:31:28Z</time></trkpt><trkpt lat="44.054873574708715" lon="10.151625734737012"><ele>497.0</ele><time>2026-03-28T10:31:29Z</time></trkpt><trkpt lat="44.05499813717734" lon="10.151438620077245"><ele>497.0</ele><time>2026-03-28T10:31:30Z</time></trkpt><trkpt lat="44.05508231793986" lon="10.151451360106362"><ele>497.0</ele><time>2026-03-28T10:31:31Z</time></trkpt><trkpt lat="44.05517506390281" lon="10.151441945978577"><ele>494.49999999999994</ele><time>2026-03-28T10:31:32Z</time></trkpt><trkpt lat="44.05524976625087" lon="10.151428825559682"><ele>492.0</ele><time>2026-03-28T10:31:33Z</time></trkpt><trkpt lat="44.055338187181434" lon="10.151397885413994"><ele>489.5</ele><time>2026-03-28T10:31:34Z</time></trkpt><trkpt lat="44.05541858739558" lon="10.151409350028102"><ele>487.0</ele><time>2026-03-28T10:31:35Z</time></trkpt><trkpt lat="44.055517131605356" lon="10.151379532831156"><ele>484.49999999999994</ele><time>2026-03-28T10:31:36Z</time></trkpt><trkpt lat="44.055594745764246" lon="10.151449820250445"><ele>482.0</ele><time>2026-03-28T10:31:37Z</time></trkpt><trkpt lat="44.055723270565764" lon="10.151536918456783"><ele>486.49999999999994</ele><time>2026-03-28T10:31:38Z</time></trkpt><trkpt lat="44.05580615972545" lon="10.151638988242443"><ele>491.0</ele><time>2026-03-28T10:31:39Z</time></trkpt><trkpt lat="44.05588457087528" lon="10.151670909123247"><ele>495.5</ele><time>2026-03-28T10:31:40Z</time></trkpt><trkpt lat="44.055961245064324" lon="10.15168810756959"><ele>500.0</ele><time>2026-03-28T10:31:41Z</time></trkpt><trkpt lat="44.0560568076983" lon="10.15169686714885"><ele>504.49999999999994</ele><time>2026-03-28T10:31:42Z</time></trkpt><trkpt lat="44.05613087097811" lon="10.151715569831312"><ele>509.0</ele><time>2026-03-28T10:31:43Z</time></trkpt><trkpt lat="44.056214681322096" lon="10.151702816930717"><ele>509.0</ele><time>2026-03-28T10:31:44Z</time></trkpt><trkpt lat="44.056317755793586" lon="10.151714760415484"><ele>509.0</ele><time>2026-03-28T10:31:45Z</time></trkpt><trkpt lat="44.05642286008317" lon="10.15168615015227"><ele>509.0</ele><time>2026-03-28T10:31:46Z</time></trkpt><trkpt lat="44.056528936480476" lon="10.151667176785748"><ele>509.0</ele><time>2026-03-28T10:31:47Z</time></trkpt><trkpt lat="44.056627657037346" lon="10.151646279710874"><ele>509.0</ele><time>2026-03-28T10:31:48Z</time></trkpt><trkpt lat="44.056723686594985" lon="10.151624512132052"><ele>510.6</ele><time>2026-03-28T10:31:49Z</time></trkpt><trkpt lat="44.05681480152323" lon="10.151560026680162"><ele>512.2</ele><time>2026-03-28T10:31:50Z</time></trkpt><trkpt lat="44.056917967273506" lon="10.151501185402081"><ele>513.8000000000001</ele><time>2026-03-28T10:31:51Z</time></trkpt><trkpt lat="44.05699786721174" lon="10.151368607421201"><ele>515.4</ele><time>2026-03-28T10:31:52Z</time></trkpt><trkpt lat="44.05705373553385" lon="10.151300291911562"><ele>517.0</ele><time>2026-03-28T10:31:53Z</time></trkpt><trkpt lat="44.057130987473606" lon="10.15123091308471"><ele>517.0</ele><time>2026-03-28T10:31:55Z</time></trkpt><trkpt lat="44.05720972901566" lon="10.151275619462286"><ele>517.0</ele><time>2026-03-28T10:31:57Z</time></trkpt><trkpt lat="44.057193229310776" lon="10.151392753171784"><ele>517.0</ele><time>2026-03-28T10:31:59Z</time></trkpt><trkpt lat="44.057110963491105" lon="10.151460186619675"><ele>517.0</ele><time>2026-03-28T10:32:00Z</time></trkpt><trkpt lat="44.057044033694716" lon="10.151519752064633"><ele>517.0</ele><time>2026-03-28T10:32:01Z</time></trkpt><trkpt lat="44.05695689513351" lon="10.151599862833354"><ele>509.0</ele><time>2026-03-28T10:32:05Z</time></trkpt><trkpt lat="44.05646980106622" lon="10.152047981839793"><ele>509.0</ele><time>2026-03-28T10:32:08Z</time></trkpt><trkpt lat="44.056344015238516" lon="10.152095525742675"><ele>509.0</ele><time>2026-03-28T10:32:09Z</time></trkpt><trkpt lat="44.05624895097897" lon="10.15208270661179"><ele>509.0</ele><time>2026-03-28T10:32:10Z</time></trkpt><trkpt lat="44.056168159050316" lon="10.152118165666009"><ele>509.0</ele><time>2026-03-28T10:32:11Z</time></trkpt><trkpt lat="44.05609308556971" lon="10.152151258109855"><ele>509.0</ele><time>2026-03-28T10:32:12Z</time></trkpt><trkpt lat="44.05599245340151" lon="10.152184246358328"><ele>509.0</ele><time>2026-03-28T10:32:13Z</time></trkpt><trkpt lat="44.05590776625141" lon="10.152235586366603"><ele>509.0</ele><time>2026-03-28T10:32:14Z</time></trkpt><trkpt lat="44.055834927321264" lon="10.152331701721383"><ele>509.0</ele><time>2026-03-28T10:32:15Z</time></trkpt><trkpt lat="44.05570050108831" lon="10.15236435208334"><ele>509.0</ele><time>2026-03-28T10:32:17Z</time></trkpt><trkpt lat="44.055635379234005" lon="10.152409945788436"><ele>509.0</ele><time>2026-03-28T10:32:18Z</time></trkpt><trkpt lat="44.0555715698896" lon="10.152454349857363"><ele>514.2</ele><time>2026-03-28T10:32:19Z</time></trkpt><trkpt lat="44.05550182339035" lon="10.152502884495266"><ele>519.4</ele><time>2026-03-28T10:32:20Z</time></trkpt><trkpt lat="44.055380982547646" lon="10.152571494955748"><ele>524.6</ele><time>2026-03-28T10:32:21Z</time></trkpt><trkpt lat="44.05528723017766" lon="10.152621323481936"><ele>529.8</ele><time>2026-03-28T10:32:22Z</time></trkpt><trkpt lat="44.055183306688086" lon="10.152642603797936"><ele>535.0</ele><time>2026-03-28T10:32:23Z</time></trkpt><trkpt lat="44.05509862567756" lon="10.15266173096754"><ele>535.0</ele><time>2026-03-28T10:32:24Z</time></trkpt><trkpt lat="44.05498875835369" lon="10.15266845834721"><ele>535.0</ele><time>2026-03-28T10:32:25Z</time></trkpt><trkpt lat="44.054890759783845" lon="10.152640025996257"><ele>535.0</ele><time>2026-03-28T10:32:26Z</time></trkpt><trkpt lat="44.05478862167987" lon="10.152620365543045"><ele>535.0</ele><time>2026-03-28T10:32:27Z</time></trkpt><trkpt lat="44.05469842106655" lon="10.15256087693928"><ele>535.0</ele><time>2026-03-28T10:32:28Z</time></trkpt><trkpt lat="44.05464155794911" lon="10.152504300249449"><ele>532.8</ele><time>2026-03-28T10:32:29Z</time></trkpt><trkpt lat="44.05454171335035" lon="10.152548230420285"><ele>530.6</ele><time>2026-03-28T10:32:30Z</time></trkpt><trkpt lat="44.05444386052768" lon="10.15264004143693"><ele>528.4</ele><time>2026-03-28T10:32:32Z</time></trkpt><trkpt lat="44.054395323753646" lon="10.152711747829924"><ele>526.2</ele><time>2026-03-28T10:32:33Z</time></trkpt><trkpt lat="44.05430241082378" lon="10.152825458540715"><ele>524.0</ele><time>2026-03-28T10:32:34Z</time></trkpt><trkpt lat="44.054248597334286" lon="10.152899089694259"><ele>524.0</ele><time>2026-03-28T10:32:35Z</time></trkpt><trkpt lat="44.0541777548034" lon="10.15300753205616"><ele>524.0</ele><time>2026-03-28T10:32:36Z</time></trkpt><trkpt lat="44.05412229437285" lon="10.153107149868891"><ele>524.0</ele><time>2026-03-28T10:32:37Z</time></trkpt><trkpt lat="44.054056853079686" lon="10.153251580891839"><ele>524.0</ele><time>2026-03-28T10:32:39Z</time></trkpt><trkpt lat="44.05412392893717" lon="10.15335515041907"><ele>524.0</ele><time>2026-03-28T10:32:42Z</time></trkpt><trkpt lat="44.05427568997451" lon="10.153173792462125"><ele>524.0</ele><time>2026-03-28T10:32:44Z</time></trkpt><trkpt lat="44.05434550368688" lon="10.153086518290857"><ele>524.0</ele><time>2026-03-28T10:32:45Z</time></trkpt><trkpt lat="44.05446691666164" lon="10.15299281651213"><ele>524.0</ele><time>2026-03-28T10:32:47Z</time></trkpt><trkpt lat="44.05454064020793" lon="10.152955741638452"><ele>524.0</ele><time>2026-03-28T10:32:48Z</time></trkpt><trkpt lat="44.05466571077442" lon="10.152983283874375"><ele>524.0</ele><time>2026-03-28T10:32:50Z</time></trkpt><trkpt lat="44.054740498709144" lon="10.153022367247951"><ele>524.0</ele><time>2026-03-28T10:32:51Z</time></trkpt><trkpt lat="44.05480200702292" lon="10.153092525401819"><ele>524.0</ele><time>2026-03-28T10:32:52Z</time></trkpt><trkpt lat="44.05488985300345" lon="10.153155830934896"><ele>524.0</ele><time>2026-03-28T10:32:54Z</time></trkpt><trkpt lat="44.05496077802869" lon="10.15316186788989"><ele>524.0</ele><time>2026-03-28T10:32:55Z</time></trkpt><trkpt lat="44.05513413001432" lon="10.153216045813735"><ele>524.0</ele><time>2026-03-28T10:32:56Z</time></trkpt><trkpt lat="44.05525421604898" lon="10.153242079547871"><ele>526.2</ele><time>2026-03-28T10:32:57Z</time></trkpt><trkpt lat="44.05536987989121" lon="10.153225084751975"><ele>528.4</ele><time>2026-03-28T10:32:58Z</time></trkpt><trkpt lat="44.05545133751537" lon="10.153224166362872"><ele>530.6</ele><time>2026-03-28T10:32:59Z</time></trkpt><trkpt lat="44.055536751158535" lon="10.153220531738354"><ele>532.8</ele><time>2026-03-28T10:33:00Z</time></trkpt><trkpt lat="44.05562323984598" lon="10.153216851374655"><ele>535.0</ele><time>2026-03-28T10:33:01Z</time></trkpt><trkpt lat="44.05573463069811" lon="10.15319158474402"><ele>535.6</ele><time>2026-03-28T10:33:02Z</time></trkpt><trkpt lat="44.05581894902126" lon="10.15320349603938"><ele>536.2</ele><time>2026-03-28T10:33:03Z</time></trkpt><trkpt lat="44.05589859203111" lon="10.153201273840725"><ele>536.8</ele><time>2026-03-28T10:33:04Z</time></trkpt><trkpt lat="44.05604960325202" lon="10.153100872109418"><ele>537.4</ele><time>2026-03-28T10:33:05Z</time></trkpt><trkpt lat="44.05613780180167" lon="10.153050324798695"><ele>538.0</ele><time>2026-03-28T10:33:06Z</time></trkpt><trkpt lat="44.05621282502095" lon="10.153057744349567"><ele>538.0</ele><time>2026-03-28T10:33:07Z</time></trkpt><trkpt lat="44.05626411823885" lon="10.153130015843654"><ele>538.0</ele><time>2026-03-28T10:33:08Z</time></trkpt><trkpt lat="44.05632098182593" lon="10.153205750315122"><ele>538.0</ele><time>2026-03-28T10:33:09Z</time></trkpt><trkpt lat="44.056448356010584" lon="10.153284460802114"><ele>538.0</ele><time>2026-03-28T10:33:11Z</time></trkpt><trkpt lat="44.05653049194682" lon="10.153347257779576"><ele>538.0</ele><time>2026-03-28T10:33:12Z</time></trkpt><trkpt lat="44.056660732997415" lon="10.153394830028969"><ele>544.4</ele><time>2026-03-28T10:33:13Z</time></trkpt><trkpt lat="44.05674864560716" lon="10.153409983494276"><ele>550.8</ele><time>2026-03-28T10:33:14Z</time></trkpt><trkpt lat="44.056839793750584" lon="10.15342166373064"><ele>557.2</ele><time>2026-03-28T10:33:15Z</time></trkpt><trkpt lat="44.05693321770892" lon="10.153452889989246"><ele>563.6</ele><time>2026-03-28T10:33:16Z</time></trkpt><trkpt lat="44.05707601164165" lon="10.153444602439572"><ele>570.0</ele><time>2026-03-28T10:33:17Z</time></trkpt><trkpt lat="44.057163945237434" lon="10.153414340797"><ele>570.0</ele><time>2026-03-28T10:33:18Z</time></trkpt><trkpt lat="44.05727380852136" lon="10.15337101489533"><ele>570.0</ele><time>2026-03-28T10:33:19Z</time></trkpt><trkpt lat="44.057391605775926" lon="10.153314964548485"><ele>570.0</ele><time>2026-03-28T10:33:20Z</time></trkpt><trkpt lat="44.05750738761455" lon="10.153259500423804"><ele>570.0</ele><time>2026-03-28T10:33:21Z</time></trkpt><trkpt lat="44.05761973307639" lon="10.153213315204816"><ele>567.4</ele><time>2026-03-28T10:33:22Z</time></trkpt><trkpt lat="44.05770339591902" lon="10.153152180123673"><ele>564.8</ele><time>2026-03-28T10:33:23Z</time></trkpt><trkpt lat="44.05778222179713" lon="10.153114656907015"><ele>562.2</ele><time>2026-03-28T10:33:24Z</time></trkpt><trkpt lat="44.0578730800326" lon="10.15305450549791"><ele>559.6</ele><time>2026-03-28T10:33:25Z</time></trkpt><trkpt lat="44.057957113841" lon="10.152983771133222"><ele>557.0</ele><time>2026-03-28T10:33:26Z</time></trkpt><trkpt lat="44.058050581289784" lon="10.152864958239794"><ele>557.0</ele><time>2026-03-28T10:33:27Z</time></trkpt><trkpt lat="44.05810986495743" lon="10.152769092133408"><ele>557.0</ele><time>2026-03-28T10:33:28Z</time></trkpt><trkpt lat="44.0581765245765" lon="10.152657279047107"><ele>557.0</ele><time>2026-03-28T10:33:29Z</time></trkpt><trkpt lat="44.05826621584661" lon="10.152616222574379"><ele>557.0</ele><time>2026-03-28T10:33:30Z</time></trkpt><trkpt lat="44.05835065021897" lon="10.152580829332768"><ele>557.0</ele><time>2026-03-28T10:33:31Z</time></trkpt><trkpt lat="44.05850078723436" lon="10.15252394980772"><ele>556.75</ele><time>2026-03-28T10:33:33Z</time></trkpt><trkpt lat="44.058597728218906" lon="10.152480159691963"><ele>556.5</ele><time>2026-03-28T10:33:34Z</time></trkpt><trkpt lat="44.058702863782706" lon="10.15244540833609"><ele>556.25</ele><time>2026-03-28T10:33:35Z</time></trkpt><trkpt lat="44.05880624829452" lon="10.152381121874015"><ele>556.0</ele><time>2026-03-28T10:33:36Z</time></trkpt><trkpt lat="44.05894050305734" lon="10.152357414557144"><ele>556.0</ele><time>2026-03-28T10:33:37Z</time></trkpt><trkpt lat="44.05904485149913" lon="10.1523446072134"><ele>556.0</ele><time>2026-03-28T10:33:38Z</time></trkpt><trkpt lat="44.05916392001873" lon="10.152318233416286"><ele>556.0</ele><time>2026-03-28T10:33:39Z</time></trkpt><trkpt lat="44.05925562316153" lon="10.15226358034401"><ele>556.0</ele><time>2026-03-28T10:33:40Z</time></trkpt><trkpt lat="44.05933169585524" lon="10.15223989911444"><ele>556.0</ele><time>2026-03-28T10:33:41Z</time></trkpt><trkpt lat="44.05942242381248" lon="10.152176698914795"><ele>562.5</ele><time>2026-03-28T10:33:42Z</time></trkpt><trkpt lat="44.059514820780144" lon="10.152092885161869"><ele>569.0</ele><time>2026-03-28T10:33:43Z</time></trkpt><trkpt lat="44.059578300934014" lon="10.151982365734446"><ele>575.5</ele><time>2026-03-28T10:33:44Z</time></trkpt><trkpt lat="44.059664066167784" lon="10.151817251439086"><ele>582.0</ele><time>2026-03-28T10:33:46Z</time></trkpt><trkpt lat="44.05974808127383" lon="10.15170972276561"><ele>579.0</ele><time>2026-03-28T10:33:47Z</time></trkpt><trkpt lat="44.059838403253416" lon="10.15152804646933"><ele>576.0</ele><time>2026-03-28T10:33:48Z</time></trkpt><trkpt lat="44.05988048785237" lon="10.151414396946757"><ele>573.0</ele><time>2026-03-28T10:33:49Z</time></trkpt><trkpt lat="44.0599126327952" lon="10.151259643884446"><ele>570.0</ele><time>2026-03-28T10:33:50Z</time></trkpt><trkpt lat="44.05996302543268" lon="10.151143314491136"><ele>574.8</ele><time>2026-03-28T10:33:52Z</time></trkpt><trkpt lat="44.06006356344222" lon="10.151072779166388"><ele>579.6</ele><time>2026-03-28T10:33:54Z</time></trkpt><trkpt lat="44.06018120978975" lon="10.151079738619496"><ele>584.4</ele><time>2026-03-28T10:33:55Z</time></trkpt><trkpt lat="44.060250711426974" lon="10.151038127949613"><ele>589.2</ele><time>2026-03-28T10:33:56Z</time></trkpt><trkpt lat="44.060333843081004" lon="10.15097485126968"><ele>594.0</ele><time>2026-03-28T10:33:58Z</time></trkpt><trkpt lat="44.06043014105611" lon="10.150853807830348"><ele>594.0</ele><time>2026-03-28T10:34:00Z</time></trkpt><trkpt lat="44.06053435429382" lon="10.150754301186327"><ele>594.0</ele><time>2026-03-28T10:34:02Z</time></trkpt><trkpt lat="44.060606624921554" lon="10.150742599107565"><ele>594.0</ele><time>2026-03-28T10:34:03Z</time></trkpt><trkpt lat="44.06063771761106" lon="10.150656512547384"><ele>594.0</ele><time>2026-03-28T10:34:05Z</time></trkpt><trkpt lat="44.06067525652907" lon="10.15057533876959"><ele>594.0</ele><time>2026-03-28T10:34:09Z</time></trkpt><trkpt lat="44.06077334243105" lon="10.15055600682503"><ele>594.0</ele><time>2026-03-28T10:34:12Z</time></trkpt><trkpt lat="44.06077584780566" lon="10.150457256196267"><ele>593.8333333333334</ele><time>2026-03-28T10:34:13Z</time></trkpt><trkpt lat="44.06077095808641" lon="10.150367747783077"><ele>593.6666666666666</ele><time>2026-03-28T10:34:14Z</time></trkpt><trkpt lat="44.06075379341114" lon="10.150279442226903"><ele>593.5</ele><time>2026-03-28T10:34:15Z</time></trkpt><trkpt lat="44.060722772213325" lon="10.150194818714999"><ele>593.3333333333333</ele><time>2026-03-28T10:34:16Z</time></trkpt><trkpt lat="44.06067508684685" lon="10.150124526805275"><ele>593.1666666666666</ele><time>2026-03-28T10:34:17Z</time></trkpt><trkpt lat="44.06058532107962" lon="10.149985153926078"><ele>593.0</ele><time>2026-03-28T10:34:18Z</time></trkpt><trkpt lat="44.06049978441809" lon="10.149836005020653"><ele>594.1999999999999</ele><time>2026-03-28T10:34:19Z</time></trkpt><trkpt lat="44.06042488218711" lon="10.149700133272148"><ele>595.4</ele><time>2026-03-28T10:34:20Z</time></trkpt><trkpt lat="44.06036425337237" lon="10.149591600923884"><ele>596.5999999999999</ele><time>2026-03-28T10:34:21Z</time></trkpt><trkpt lat="44.060334300350135" lon="10.149485621221123"><ele>597.8</ele><time>2026-03-28T10:34:22Z</time></trkpt><trkpt lat="44.06029268219711" lon="10.14939950242373"><ele>599.0</ele><time>2026-03-28T10:34:23Z</time></trkpt><trkpt lat="44.06035588068119" lon="10.149164695167377"><ele>599.0</ele><time>2026-03-28T10:34:25Z</time></trkpt><trkpt lat="44.06039355948891" lon="10.149068329439624"><ele>599.0</ele><time>2026-03-28T10:34:26Z</time></trkpt><trkpt lat="44.06046222367863" lon="10.149014643536036"><ele>599.0</ele><time>2026-03-28T10:34:27Z</time></trkpt><trkpt lat="44.06052817150804" lon="10.148966455527704"><ele>599.0</ele><time>2026-03-28T10:34:28Z</time></trkpt><trkpt lat="44.06062109278012" lon="10.148989269940127"><ele>599.0</ele><time>2026-03-28T10:34:29Z</time></trkpt><trkpt lat="44.06065583864631" lon="10.14891403016597"><ele>599.0</ele><time>2026-03-28T10:34:30Z</time></trkpt><trkpt lat="44.06069449928687" lon="10.148824954346347"><ele>597.6</ele><time>2026-03-28T10:34:31Z</time></trkpt><trkpt lat="44.06070943678108" lon="10.148712109049013"><ele>596.2</ele><time>2026-03-28T10:34:32Z</time></trkpt><trkpt lat="44.06071330936772" lon="10.148565149998939"><ele>594.8000000000001</ele><time>2026-03-28T10:34:33Z</time></trkpt><trkpt lat="44.06078257974923" lon="10.148374264545517"><ele>593.4</ele><time>2026-03-28T10:34:34Z</time></trkpt><trkpt lat="44.060830806366766" lon="10.148283050506912"><ele>592.0</ele><time>2026-03-28T10:34:35Z</time></trkpt><trkpt lat="44.060888433665504" lon="10.148189735661248"><ele>596.1666666666667</ele><time>2026-03-28T10:34:36Z</time></trkpt><trkpt lat="44.06096179917323" lon="10.148130180824786"><ele>600.3333333333334</ele><time>2026-03-28T10:34:37Z</time></trkpt><trkpt lat="44.06103958404955" lon="10.14809603025472"><ele>604.5</ele><time>2026-03-28T10:34:38Z</time></trkpt><trkpt lat="44.061112856838164" lon="10.148085317739607"><ele>608.6666666666666</ele><time>2026-03-28T10:34:39Z</time></trkpt><trkpt lat="44.06118424887749" lon="10.148079502705867"><ele>612.8333333333333</ele><time>2026-03-28T10:34:40Z</time></trkpt><trkpt lat="44.06124635223802" lon="10.148107538963963"><ele>617.0</ele><time>2026-03-28T10:34:41Z</time></trkpt><trkpt lat="44.06136447755448" lon="10.1481590904896"><ele>617.0</ele><time>2026-03-28T10:34:42Z</time></trkpt><trkpt lat="44.06151621221537" lon="10.148068959715252"><ele>617.0</ele><time>2026-03-28T10:34:44Z</time></trkpt><trkpt lat="44.06160481977819" lon="10.147979614656508"><ele>617.0</ele><time>2026-03-28T10:34:45Z</time></trkpt><trkpt lat="44.06169186285635" lon="10.147925696099643"><ele>617.0</ele><time>2026-03-28T10:34:46Z</time></trkpt><trkpt lat="44.06177304730777" lon="10.147883963581693"><ele>621.25</ele><time>2026-03-28T10:34:47Z</time></trkpt><trkpt lat="44.06184671243228" lon="10.147786595220195"><ele>625.5</ele><time>2026-03-28T10:34:48Z</time></trkpt><trkpt lat="44.061966270143245" lon="10.147761180902302"><ele>629.75</ele><time>2026-03-28T10:34:49Z</time></trkpt><trkpt lat="44.06206328350877" lon="10.147559314329564"><ele>634.0</ele><time>2026-03-28T10:34:50Z</time></trkpt><trkpt lat="44.06214611617677" lon="10.147449069484134"><ele>634.0</ele><time>2026-03-28T10:34:51Z</time></trkpt><trkpt lat="44.06220195706344" lon="10.14739580066262"><ele>634.0</ele><time>2026-03-28T10:34:52Z</time></trkpt><trkpt lat="44.062306019859" lon="10.147359940155024"><ele>634.0</ele><time>2026-03-28T10:34:53Z</time></trkpt><trkpt lat="44.062371417398104" lon="10.147299100834035"><ele>634.0</ele><time>2026-03-28T10:34:54Z</time></trkpt><trkpt lat="44.062387398995206" lon="10.147197752229703"><ele>634.0</ele><time>2026-03-28T10:34:55Z</time></trkpt><trkpt lat="44.06237239668494" lon="10.147109529841732"><ele>634.0</ele><time>2026-03-28T10:34:56Z</time></trkpt><trkpt lat="44.062293800842696" lon="10.147004520361067"><ele>633.8333333333334</ele><time>2026-03-28T10:34:58Z</time></trkpt><trkpt lat="44.062212157563295" lon="10.147061115914802"><ele>633.6666666666667</ele><time>2026-03-28T10:34:59Z</time></trkpt><trkpt lat="44.06210059828679" lon="10.147062732740372"><ele>633.5</ele><time>2026-03-28T10:35:00Z</time></trkpt><trkpt lat="44.06202340473433" lon="10.147075934314548"><ele>633.3333333333334</ele><time>2026-03-28T10:35:01Z</time></trkpt><trkpt lat="44.061937189327885" lon="10.147121769582744"><ele>633.1666666666666</ele><time>2026-03-28T10:35:02Z</time></trkpt><trkpt lat="44.06188347560486" lon="10.147053251842951"><ele>633.0</ele><time>2026-03-28T10:35:04Z</time></trkpt><trkpt lat="44.061916405076126" lon="10.14696241662691"><ele>633.0</ele><time>2026-03-28T10:35:05Z</time></trkpt><trkpt lat="44.06196195697966" lon="10.146857510814545"><ele>633.0</ele><time>2026-03-28T10:35:06Z</time></trkpt><trkpt lat="44.06201574780247" lon="10.146790526108866"><ele>633.0</ele><time>2026-03-28T10:35:07Z</time></trkpt><trkpt lat="44.0620893423949" lon="10.146696050298715"><ele>633.0</ele><time>2026-03-28T10:35:08Z</time></trkpt><trkpt lat="44.06215933713789" lon="10.146645348149681"><ele>633.0</ele><time>2026-03-28T10:35:09Z</time></trkpt><trkpt lat="44.0622499453898" lon="10.146631233242555"><ele>633.0</ele><time>2026-03-28T10:35:10Z</time></trkpt><trkpt lat="44.06238357813702" lon="10.146727370856608"><ele>633.0</ele><time>2026-03-28T10:35:12Z</time></trkpt><trkpt lat="44.06243430597378" lon="10.146863755984485"><ele>633.0</ele><time>2026-03-28T10:35:13Z</time></trkpt><trkpt lat="44.06250323271845" lon="10.146889912936242"><ele>633.0</ele><time>2026-03-28T10:35:14Z</time></trkpt><trkpt lat="44.06256124866208" lon="10.146983682507301"><ele>633.0</ele><time>2026-03-28T10:35:16Z</time></trkpt><trkpt lat="44.06264141628059" lon="10.146943920839284"><ele>633.0</ele><time>2026-03-28T10:35:17Z</time></trkpt><trkpt lat="44.06275569788244" lon="10.146907570492438"><ele>635.8</ele><time>2026-03-28T10:35:19Z</time></trkpt><trkpt lat="44.062817011820215" lon="10.146872855454813"><ele>638.5999999999999</ele><time>2026-03-28T10:35:20Z</time></trkpt><trkpt lat="44.06290920377213" lon="10.146768898564524"><ele>641.4000000000001</ele><time>2026-03-28T10:35:22Z</time></trkpt><trkpt lat="44.06297692669773" lon="10.146731076905198"><ele>644.2</ele><time>2026-03-28T10:35:23Z</time></trkpt><trkpt lat="44.06305190040609" lon="10.146706785642817"><ele>647.0</ele><time>2026-03-28T10:35:24Z</time></trkpt><trkpt lat="44.06322105011643" lon="10.146662409764563"><ele>647.0</ele><time>2026-03-28T10:35:26Z</time></trkpt><trkpt lat="44.06327630593372" lon="10.146614741987547"><ele>647.0</ele><time>2026-03-28T10:35:27Z</time></trkpt><trkpt lat="44.06333489180727" lon="10.146550716715064"><ele>647.0</ele><time>2026-03-28T10:35:28Z</time></trkpt><trkpt lat="44.063414038846844" lon="10.146448436388951"><ele>647.0</ele><time>2026-03-28T10:35:30Z</time></trkpt><trkpt lat="44.063411819649296" lon="10.146256111675498"><ele>647.0</ele><time>2026-03-28T10:35:32Z</time></trkpt><trkpt lat="44.063381802450564" lon="10.146163915692757"><ele>645.6666666666666</ele><time>2026-03-28T10:35:33Z</time></trkpt><trkpt lat="44.06333275171448" lon="10.146095297311174"><ele>644.3333333333333</ele><time>2026-03-28T10:35:34Z</time></trkpt><trkpt lat="44.06326469699707" lon="10.14597900760851"><ele>643.0</ele><time>2026-03-28T10:35:35Z</time></trkpt><trkpt lat="44.06321522631691" lon="10.145896753635261"><ele>641.6666666666666</ele><time>2026-03-28T10:35:36Z</time></trkpt><trkpt lat="44.063168032234564" lon="10.145750728595031"><ele>640.3333333333334</ele><time>2026-03-28T10:35:38Z</time></trkpt><trkpt lat="44.063163555533535" lon="10.145655803597874"><ele>639.0</ele><time>2026-03-28T10:35:39Z</time></trkpt><trkpt lat="44.06320068554271" lon="10.145566485549505"><ele>639.0</ele><time>2026-03-28T10:35:40Z</time></trkpt><trkpt lat="44.06322269989126" lon="10.145480015090445"><ele>639.0</ele><time>2026-03-28T10:35:41Z</time></trkpt><trkpt lat="44.06326209834494" lon="10.145342739495549"><ele>639.0</ele><time>2026-03-28T10:35:42Z</time></trkpt><trkpt lat="44.06332104262245" lon="10.145264866825672"><ele>639.0</ele><time>2026-03-28T10:35:44Z</time></trkpt><trkpt lat="44.06336944337129" lon="10.145322522118622"><ele>639.0</ele><time>2026-03-28T10:35:45Z</time></trkpt><trkpt lat="44.06341334298279" lon="10.145394915904602"><ele>639.0</ele><time>2026-03-28T10:35:47Z</time></trkpt><trkpt lat="44.06337656149495" lon="10.145551711010702"><ele>644.0</ele><time>2026-03-28T10:35:48Z</time></trkpt><trkpt lat="44.06334249515338" lon="10.145683213644407"><ele>649.0</ele><time>2026-03-28T10:35:49Z</time></trkpt><trkpt lat="44.06333060782129" lon="10.14581284160777"><ele>654.0</ele><time>2026-03-28T10:35:50Z</time></trkpt><trkpt lat="44.06337061480692" lon="10.145933976381967"><ele>659.0</ele><time>2026-03-28T10:35:52Z</time></trkpt><trkpt lat="44.063496701208635" lon="10.145907661763614"><ele>664.0</ele><time>2026-03-28T10:35:54Z</time></trkpt><trkpt lat="44.063495994749594" lon="10.145819604070146"><ele>666.1666666666667</ele><time>2026-03-28T10:35:55Z</time></trkpt><trkpt lat="44.06346007265505" lon="10.145676246483113"><ele>668.3333333333334</ele><time>2026-03-28T10:35:57Z</time></trkpt><trkpt lat="44.06347461485633" lon="10.14557975899403"><ele>670.5</ele><time>2026-03-28T10:35:58Z</time></trkpt><trkpt lat="44.06351553682296" lon="10.145504806421348"><ele>672.6666666666666</ele><time>2026-03-28T10:35:59Z</time></trkpt><trkpt lat="44.06355716916317" lon="10.145435342638926"><ele>674.8333333333333</ele><time>2026-03-28T10:36:00Z</time></trkpt><trkpt lat="44.063648005252745" lon="10.1455028068755"><ele>677.0</ele><time>2026-03-28T10:36:02Z</time></trkpt><trkpt lat="44.063697867168706" lon="10.145613997773536"><ele>673.75</ele><time>2026-03-28T10:36:03Z</time></trkpt><trkpt lat="44.0635788918889" lon="10.14584309680758"><ele>670.5</ele><time>2026-03-28T10:36:04Z</time></trkpt><trkpt lat="44.063562746252614" lon="10.145991698305789"><ele>667.25</ele><time>2026-03-28T10:36:05Z</time></trkpt><trkpt lat="44.063614645791944" lon="10.146113575130583"><ele>664.0</ele><time>2026-03-28T10:36:07Z</time></trkpt><trkpt lat="44.063678531123486" lon="10.146105831966613"><ele>664.0</ele><time>2026-03-28T10:36:08Z</time></trkpt><trkpt lat="44.06374280258556" lon="10.145961714595314"><ele>664.0</ele><time>2026-03-28T10:36:10Z</time></trkpt><trkpt lat="44.06374492903155" lon="10.14583918996793"><ele>664.0</ele><time>2026-03-28T10:36:11Z</time></trkpt><trkpt lat="44.06371689380907" lon="10.145699861681607"><ele>664.0</ele><time>2026-03-28T10:36:12Z</time></trkpt><trkpt lat="44.06373497887265" lon="10.145562723032775"><ele>664.0</ele><time>2026-03-28T10:36:14Z</time></trkpt><trkpt lat="44.06379761288577" lon="10.14557390320472"><ele>664.0</ele><time>2026-03-28T10:36:16Z</time></trkpt><trkpt lat="44.06388235641303" lon="10.145609493035348"><ele>664.0</ele><time>2026-03-28T10:36:18Z</time></trkpt><trkpt lat="44.06396794127436" lon="10.14575620977216"><ele>664.0</ele><time>2026-03-28T10:36:19Z</time></trkpt><trkpt lat="44.064011251641546" lon="10.145878423855223"><ele>664.0</ele><time>2026-03-28T10:36:20Z</time></trkpt><trkpt lat="44.06402513107019" lon="10.146015876189331"><ele>664.0</ele><time>2026-03-28T10:36:21Z</time></trkpt><trkpt lat="44.06403038777341" lon="10.14614508183163"><ele>664.0</ele><time>2026-03-28T10:36:22Z</time></trkpt><trkpt lat="44.064027519374896" lon="10.146269475901233"><ele>664.0</ele><time>2026-03-28T10:36:23Z</time></trkpt><trkpt lat="44.064010685772445" lon="10.146391133777282"><ele>664.0</ele><time>2026-03-28T10:36:24Z</time></trkpt><trkpt lat="44.063833176050636" lon="10.146570677134347"><ele>664.0</ele><time>2026-03-28T10:36:25Z</time></trkpt><trkpt lat="44.06375834700144" lon="10.146632129840398"><ele>665.6</ele><time>2026-03-28T10:36:26Z</time></trkpt><trkpt lat="44.063713338055855" lon="10.146723637926542"><ele>667.2</ele><time>2026-03-28T10:36:27Z</time></trkpt><trkpt lat="44.063675949372126" lon="10.14683617214549"><ele>668.8000000000001</ele><time>2026-03-28T10:36:28Z</time></trkpt><trkpt lat="44.06364225717353" lon="10.146934285606177"><ele>670.4000000000001</ele><time>2026-03-28T10:36:29Z</time></trkpt><trkpt lat="44.06359507572841" lon="10.147066769449209"><ele>672.0</ele><time>2026-03-28T10:36:30Z</time></trkpt><trkpt lat="44.063485853110194" lon="10.147185394075757"><ele>672.0</ele><time>2026-03-28T10:36:31Z</time></trkpt><trkpt lat="44.06341950338854" lon="10.147310403201907"><ele>672.0</ele><time>2026-03-28T10:36:32Z</time></trkpt><trkpt lat="44.063361103611925" lon="10.147416523469568"><ele>672.0</ele><time>2026-03-28T10:36:33Z</time></trkpt><trkpt lat="44.06336726976103" lon="10.147523518430235"><ele>672.0</ele><time>2026-03-28T10:36:34Z</time></trkpt><trkpt lat="44.06337751056552" lon="10.147672865277647"><ele>672.0</ele><time>2026-03-28T10:36:35Z</time></trkpt><trkpt lat="44.06337992226982" lon="10.14778203220962"><ele>669.2</ele><time>2026-03-28T10:36:36Z</time></trkpt><trkpt lat="44.063393093647534" lon="10.147885050924152"><ele>666.4000000000001</ele><time>2026-03-28T10:36:37Z</time></trkpt><trkpt lat="44.063397481164756" lon="10.14801220459176"><ele>663.5999999999999</ele><time>2026-03-28T10:36:38Z</time></trkpt><trkpt lat="44.063390407142144" lon="10.14811854205462"><ele>660.8</ele><time>2026-03-28T10:36:39Z</time></trkpt><trkpt lat="44.06330135646232" lon="10.148222739506613"><ele>658.0</ele><time>2026-03-28T10:36:41Z</time></trkpt><trkpt lat="44.0631563559777" lon="10.148152360068035"><ele>658.0</ele><time>2026-03-28T10:36:43Z</time></trkpt><trkpt lat="44.06306406811625" lon="10.148137629873734"><ele>658.0</ele><time>2026-03-28T10:36:44Z</time></trkpt><trkpt lat="44.06298833904736" lon="10.148166093233613"><ele>658.0</ele><time>2026-03-28T10:36:45Z</time></trkpt><trkpt lat="44.06293212910152" lon="10.148243910959184"><ele>658.0</ele><time>2026-03-28T10:36:46Z</time></trkpt><trkpt lat="44.06289640624984" lon="10.148321736243568"><ele>658.0</ele><time>2026-03-28T10:36:47Z</time></trkpt><trkpt lat="44.06292828533122" lon="10.148479381922828"><ele>658.0</ele><time>2026-03-28T10:36:48Z</time></trkpt><trkpt lat="44.06294056453425" lon="10.148640840109637"><ele>661.8</ele><time>2026-03-28T10:36:49Z</time></trkpt><trkpt lat="44.062951438081164" lon="10.148777554419992"><ele>665.5999999999999</ele><time>2026-03-28T10:36:50Z</time></trkpt><trkpt lat="44.062968956347646" lon="10.14891377545442"><ele>669.4000000000001</ele><time>2026-03-28T10:36:51Z</time></trkpt><trkpt lat="44.062981178856155" lon="10.14905740061563"><ele>673.2</ele><time>2026-03-28T10:36:52Z</time></trkpt><trkpt lat="44.06300231463642" lon="10.14921764748187"><ele>677.0</ele><time>2026-03-28T10:36:53Z</time></trkpt><trkpt lat="44.06300158231059" lon="10.149344178083872"><ele>678.0</ele><time>2026-03-28T10:36:54Z</time></trkpt><trkpt lat="44.063037950875966" lon="10.149477943048044"><ele>679.0</ele><time>2026-03-28T10:36:55Z</time></trkpt><trkpt lat="44.06307707173432" lon="10.149627009343346"><ele>680.0</ele><time>2026-03-28T10:36:56Z</time></trkpt><trkpt lat="44.06309091928026" lon="10.149767373358955"><ele>681.0</ele><time>2026-03-28T10:36:57Z</time></trkpt><trkpt lat="44.06308059365973" lon="10.1498825084038"><ele>682.0</ele><time>2026-03-28T10:36:58Z</time></trkpt><trkpt lat="44.06306008844707" lon="10.150016353509468"><ele>682.0</ele><time>2026-03-28T10:36:59Z</time></trkpt><trkpt lat="44.063069642260096" lon="10.150109074793532"><ele>682.0</ele><time>2026-03-28T10:37:00Z</time></trkpt><trkpt lat="44.063169407743125" lon="10.15026213002887"><ele>682.0</ele><time>2026-03-28T10:37:02Z</time></trkpt><trkpt lat="44.06324648998323" lon="10.150301641818285"><ele>682.0</ele><time>2026-03-28T10:37:03Z</time></trkpt><trkpt lat="44.06334213576963" lon="10.150466258436394"><ele>688.8</ele><time>2026-03-28T10:37:05Z</time></trkpt><trkpt lat="44.063411835054005" lon="10.15058427000629"><ele>695.6</ele><time>2026-03-28T10:37:06Z</time></trkpt><trkpt lat="44.06339339139062" lon="10.150685665850077"><ele>702.4</ele><time>2026-03-28T10:37:07Z</time></trkpt><trkpt lat="44.06337134614914" lon="10.150842050858042"><ele>709.1999999999999</ele><time>2026-03-28T10:37:08Z</time></trkpt><trkpt lat="44.06332095955868" lon="10.150978498970789"><ele>716.0</ele><time>2026-03-28T10:37:09Z</time></trkpt><trkpt lat="44.06332470407376" lon="10.1510739812138"><ele>716.0</ele><time>2026-03-28T10:37:10Z</time></trkpt><trkpt lat="44.063362556954324" lon="10.151196912089093"><ele>716.0</ele><time>2026-03-28T10:37:11Z</time></trkpt><trkpt lat="44.063402289520454" lon="10.151345640750062"><ele>716.0</ele><time>2026-03-28T10:37:12Z</time></trkpt><trkpt lat="44.0634195946163" lon="10.151466049310672"><ele>716.0</ele><time>2026-03-28T10:37:13Z</time></trkpt><trkpt lat="44.06340012966544" lon="10.15162662075268"><ele>716.0</ele><time>2026-03-28T10:37:14Z</time></trkpt><trkpt lat="44.06340220333516" lon="10.151775349170679"><ele>717.0</ele><time>2026-03-28T10:37:15Z</time></trkpt><trkpt lat="44.06338892793212" lon="10.15192893390358"><ele>718.0</ele><time>2026-03-28T10:37:16Z</time></trkpt><trkpt lat="44.06337857396903" lon="10.152063047808834"><ele>719.0</ele><time>2026-03-28T10:37:17Z</time></trkpt><trkpt lat="44.063356822487066" lon="10.15221769293587"><ele>720.0</ele><time>2026-03-28T10:37:18Z</time></trkpt><trkpt lat="44.06333656183955" lon="10.152354527588562"><ele>721.0</ele><time>2026-03-28T10:37:19Z</time></trkpt><trkpt lat="44.063306041659374" lon="10.15251344068928"><ele>723.1999999999999</ele><time>2026-03-28T10:37:20Z</time></trkpt><trkpt lat="44.06328753623658" lon="10.15264284289314"><ele>725.4</ele><time>2026-03-28T10:37:21Z</time></trkpt><trkpt lat="44.06323487884348" lon="10.152765200255248"><ele>727.6</ele><time>2026-03-28T10:37:22Z</time></trkpt><trkpt lat="44.06317829647924" lon="10.152875601095975"><ele>729.8</ele><time>2026-03-28T10:37:23Z</time></trkpt><trkpt lat="44.06312719362738" lon="10.152965836913845"><ele>732.0</ele><time>2026-03-28T10:37:24Z</time></trkpt><trkpt lat="44.06307684779242" lon="10.15308865207176"><ele>732.0</ele><time>2026-03-28T10:37:26Z</time></trkpt><trkpt lat="44.063133104364695" lon="10.153152891485597"><ele>732.0</ele><time>2026-03-28T10:37:28Z</time></trkpt><trkpt lat="44.06318737099269" lon="10.153083980754433"><ele>732.0</ele><time>2026-03-28T10:37:30Z</time></trkpt><trkpt lat="44.06324577448593" lon="10.152945635060073"><ele>732.0</ele><time>2026-03-28T10:37:32Z</time></trkpt><trkpt lat="44.06330326765211" lon="10.15275447524729"><ele>732.0</ele><time>2026-03-28T10:37:34Z</time></trkpt><trkpt lat="44.063390291505144" lon="10.152696079666235"><ele>732.0</ele><time>2026-03-28T10:37:36Z</time></trkpt><trkpt lat="44.06342864566713" lon="10.152493557325705"><ele>732.0</ele><time>2026-03-28T10:37:37Z</time></trkpt><trkpt lat="44.06347161952766" lon="10.152336049837217"><ele>732.0</ele><time>2026-03-28T10:37:38Z</time></trkpt><trkpt lat="44.063512224751804" lon="10.152190886846919"><ele>732.0</ele><time>2026-03-28T10:37:39Z</time></trkpt><trkpt lat="44.063555614319355" lon="10.152037142344792"><ele>729.8</ele><time>2026-03-28T10:37:40Z</time></trkpt><trkpt lat="44.06359202479136" lon="10.151899547837383"><ele>727.6</ele><time>2026-03-28T10:37:41Z</time></trkpt><trkpt lat="44.063622291443686" lon="10.151757171140622"><ele>725.4</ele><time>2026-03-28T10:37:42Z</time></trkpt><trkpt lat="44.06366792552001" lon="10.151656681273428"><ele>723.1999999999999</ele><time>2026-03-28T10:37:43Z</time></trkpt><trkpt lat="44.063725152805716" lon="10.151551264017133"><ele>721.0</ele><time>2026-03-28T10:37:44Z</time></trkpt><trkpt lat="44.063764651366384" lon="10.151420514766729"><ele>720.1999999999999</ele><time>2026-03-28T10:37:45Z</time></trkpt><trkpt lat="44.06378538330084" lon="10.15127114949369"><ele>719.4</ele><time>2026-03-28T10:37:46Z</time></trkpt><trkpt lat="44.06381389312388" lon="10.151170674871567"><ele>718.6</ele><time>2026-03-28T10:37:47Z</time></trkpt><trkpt lat="44.06385782816674" lon="10.150996242330793"><ele>717.8</ele><time>2026-03-28T10:37:48Z</time></trkpt><trkpt lat="44.06389156837539" lon="10.150846135301414"><ele>717.0</ele><time>2026-03-28T10:37:49Z</time></trkpt><trkpt lat="44.06390370810387" lon="10.15070769794871"><ele>717.0</ele><time>2026-03-28T10:37:50Z</time></trkpt><trkpt lat="44.06389157531347" lon="10.15058897616718"><ele>717.0</ele><time>2026-03-28T10:37:51Z</time></trkpt><trkpt lat="44.06388241575699" lon="10.150459654752426"><ele>717.0</ele><time>2026-03-28T10:37:52Z</time></trkpt><trkpt lat="44.06387043885782" lon="10.150318028407478"><ele>717.0</ele><time>2026-03-28T10:37:53Z</time></trkpt><trkpt lat="44.06387186605769" lon="10.150177112349729"><ele>717.0</ele><time>2026-03-28T10:37:54Z</time></trkpt><trkpt lat="44.06388979246951" lon="10.15006221930387"><ele>717.0</ele><time>2026-03-28T10:37:55Z</time></trkpt><trkpt lat="44.06394039586413" lon="10.149965357134214"><ele>717.0</ele><time>2026-03-28T10:37:56Z</time></trkpt><trkpt lat="44.06400174395064" lon="10.149886594681158"><ele>717.0</ele><time>2026-03-28T10:37:57Z</time></trkpt><trkpt lat="44.064091422134325" lon="10.149823655261251"><ele>717.0</ele><time>2026-03-28T10:37:58Z</time></trkpt><trkpt lat="44.06418512939276" lon="10.14979163648475"><ele>717.0</ele><time>2026-03-28T10:37:59Z</time></trkpt><trkpt lat="44.06426310194062" lon="10.149767984540366"><ele>717.0</ele><time>2026-03-28T10:38:00Z</time></trkpt><trkpt lat="44.064318836470065" lon="10.149716801436961"><ele>719.1666666666666</ele><time>2026-03-28T10:38:01Z</time></trkpt><trkpt lat="44.064352088621895" lon="10.149565764554767"><ele>721.3333333333334</ele><time>2026-03-28T10:38:03Z</time></trkpt><trkpt lat="44.06434055689042" lon="10.149453792522324"><ele>723.5</ele><time>2026-03-28T10:38:04Z</time></trkpt><trkpt lat="44.06433269399719" lon="10.149349420208788"><ele>725.6666666666667</ele><time>2026-03-28T10:38:05Z</time></trkpt><trkpt lat="44.064339742013345" lon="10.149236706690537"><ele>727.8333333333334</ele><time>2026-03-28T10:38:06Z</time></trkpt><trkpt lat="44.064357443529744" lon="10.149116740155804"><ele>730.0</ele><time>2026-03-28T10:38:07Z</time></trkpt><trkpt lat="44.06439099688792" lon="10.149020493955689"><ele>730.0</ele><time>2026-03-28T10:38:08Z</time></trkpt><trkpt lat="44.064456423844724" lon="10.14891197029969"><ele>730.0</ele><time>2026-03-28T10:38:09Z</time></trkpt><trkpt lat="44.06448799285125" lon="10.148804254855655"><ele>730.0</ele><time>2026-03-28T10:38:10Z</time></trkpt><trkpt lat="44.06453436546686" lon="10.148679473574466"><ele>730.0</ele><time>2026-03-28T10:38:11Z</time></trkpt><trkpt lat="44.064593696534494" lon="10.148572108009603"><ele>730.0</ele><time>2026-03-28T10:38:12Z</time></trkpt><trkpt lat="44.06467689094784" lon="10.148408769400692"><ele>730.0</ele><time>2026-03-28T10:38:13Z</time></trkpt><trkpt lat="44.06477180641895" lon="10.148252877970194"><ele>730.0</ele><time>2026-03-28T10:38:14Z</time></trkpt><trkpt lat="44.064866337838716" lon="10.148101468671141"><ele>730.0</ele><time>2026-03-28T10:38:15Z</time></trkpt><trkpt lat="44.06493497518229" lon="10.148025498337871"><ele>730.0</ele><time>2026-03-28T10:38:16Z</time></trkpt><trkpt lat="44.06499956264599" lon="10.147904815117593"><ele>731.8</ele><time>2026-03-28T10:38:17Z</time></trkpt><trkpt lat="44.06505839806732" lon="10.147782506920208"><ele>733.6</ele><time>2026-03-28T10:38:18Z</time></trkpt><trkpt lat="44.065094219723726" lon="10.147652125015194"><ele>735.4000000000001</ele><time>2026-03-28T10:38:19Z</time></trkpt><trkpt lat="44.06512904080214" lon="10.147523425010352"><ele>737.2</ele><time>2026-03-28T10:38:20Z</time></trkpt><trkpt lat="44.065178051379675" lon="10.147430806797297"><ele>739.0</ele><time>2026-03-28T10:38:21Z</time></trkpt><trkpt lat="44.06524237130556" lon="10.14735071221957"><ele>739.0</ele><time>2026-03-28T10:38:22Z</time></trkpt><trkpt lat="44.06530474990958" lon="10.1473071514748"><ele>739.0</ele><time>2026-03-28T10:38:23Z</time></trkpt><trkpt lat="44.06527919317016" lon="10.147107393681924"><ele>739.0</ele><time>2026-03-28T10:38:25Z</time></trkpt><trkpt lat="44.06521923303149" lon="10.146995081317273"><ele>739.0</ele><time>2026-03-28T10:38:26Z</time></trkpt><trkpt lat="44.06524254509736" lon="10.146884051798981"><ele>739.0</ele><time>2026-03-28T10:38:27Z</time></trkpt><trkpt lat="44.065226595625184" lon="10.146774367118185"><ele>739.0</ele><time>2026-03-28T10:38:28Z</time></trkpt><trkpt lat="44.06526325066276" lon="10.14666542710185"><ele>739.0</ele><time>2026-03-28T10:38:29Z</time></trkpt><trkpt lat="44.06530495473909" lon="10.146575010165588"><ele>739.0</ele><time>2026-03-28T10:38:30Z</time></trkpt><trkpt lat="44.06534765086022" lon="10.14649966586388"><ele>739.0</ele><time>2026-03-28T10:38:31Z</time></trkpt><trkpt lat="44.06539891737016" lon="10.146382264889658"><ele>739.0</ele><time>2026-03-28T10:38:33Z</time></trkpt><trkpt lat="44.0653591926192" lon="10.146285164684588"><ele>739.0</ele><time>2026-03-28T10:38:34Z</time></trkpt><trkpt lat="44.065319659370374" lon="10.14617448795066"><ele>740.1666666666667</ele><time>2026-03-28T10:38:35Z</time></trkpt><trkpt lat="44.06528729318986" lon="10.146079209677731"><ele>741.3333333333334</ele><time>2026-03-28T10:38:36Z</time></trkpt><trkpt lat="44.06527167460155" lon="10.145964523449019"><ele>742.5</ele><time>2026-03-28T10:38:37Z</time></trkpt><trkpt lat="44.065280386561376" lon="10.145836087944884"><ele>743.6666666666666</ele><time>2026-03-28T10:38:38Z</time></trkpt><trkpt lat="44.0653447836639" lon="10.14574414168816"><ele>744.8333333333333</ele><time>2026-03-28T10:38:39Z</time></trkpt><trkpt lat="44.06532879959592" lon="10.145631597991228"><ele>746.0</ele><time>2026-03-28T10:38:41Z</time></trkpt><trkpt lat="44.06527217900529" lon="10.145584657991185"><ele>752.0</ele><time>2026-03-28T10:38:42Z</time></trkpt><trkpt lat="44.06522575208386" lon="10.145521138056777"><ele>758.0</ele><time>2026-03-28T10:38:43Z</time></trkpt><trkpt lat="44.06514373828437" lon="10.145387285424379"><ele>764.0</ele><time>2026-03-28T10:38:45Z</time></trkpt><trkpt lat="44.06511461908587" lon="10.145307762261394"><ele>770.0</ele><time>2026-03-28T10:38:46Z</time></trkpt><trkpt lat="44.065073613683055" lon="10.145167966861779"><ele>776.0</ele><time>2026-03-28T10:38:48Z</time></trkpt><trkpt lat="44.06501668710933" lon="10.14506010985356"><ele>776.0000000000001</ele><time>2026-03-28T10:38:49Z</time></trkpt><trkpt lat="44.0649665477509" lon="10.144984871563837"><ele>776.0</ele><time>2026-03-28T10:38:50Z</time></trkpt><trkpt lat="44.06489504459134" lon="10.14489986102074"><ele>776.0</ele><time>2026-03-28T10:38:51Z</time></trkpt><trkpt lat="44.06482779697238" lon="10.144836494363918"><ele>776.0</ele><time>2026-03-28T10:38:52Z</time></trkpt><trkpt lat="44.06474972820493" lon="10.144750212368224"><ele>776.0000000000001</ele><time>2026-03-28T10:38:53Z</time></trkpt><trkpt lat="44.06467889339292" lon="10.144670683361856"><ele>776.0</ele><time>2026-03-28T10:38:54Z</time></trkpt><trkpt lat="44.0646114043889" lon="10.144587345862298"><ele>773.3333333333334</ele><time>2026-03-28T10:38:55Z</time></trkpt><trkpt lat="44.064545583378084" lon="10.144492173321213"><ele>770.6666666666667</ele><time>2026-03-28T10:38:56Z</time></trkpt><trkpt lat="44.06448559426962" lon="10.144415328043278"><ele>768.0</ele><time>2026-03-28T10:38:57Z</time></trkpt><trkpt lat="44.06444133341655" lon="10.14433533756166"><ele>765.3333333333334</ele><time>2026-03-28T10:38:58Z</time></trkpt><trkpt lat="44.064376689614754" lon="10.144268919055866"><ele>762.6666666666667</ele><time>2026-03-28T10:38:59Z</time></trkpt><trkpt lat="44.06431367714425" lon="10.14419827509791"><ele>760.0</ele><time>2026-03-28T10:39:01Z</time></trkpt><trkpt lat="44.06424417579902" lon="10.144124469108872"><ele>761.0</ele><time>2026-03-28T10:39:02Z</time></trkpt><trkpt lat="44.064343002079156" lon="10.1439429202555"><ele>762.0</ele><time>2026-03-28T10:39:03Z</time></trkpt><trkpt lat="44.06438475894736" lon="10.143759944571645"><ele>763.0</ele><time>2026-03-28T10:39:05Z</time></trkpt><trkpt lat="44.064389348160695" lon="10.143671941086588"><ele>764.0</ele><time>2026-03-28T10:39:06Z</time></trkpt><trkpt lat="44.064431819778854" lon="10.143524478906382"><ele>764.0</ele><time>2026-03-28T10:39:07Z</time></trkpt><trkpt lat="44.06445162641376" lon="10.143388087307743"><ele>764.0</ele><time>2026-03-28T10:39:08Z</time></trkpt><trkpt lat="44.06450292909717" lon="10.143269698445875"><ele>764.0</ele><time>2026-03-28T10:39:09Z</time></trkpt><trkpt lat="44.06457694922921" lon="10.14313149036994"><ele>764.0</ele><time>2026-03-28T10:39:10Z</time></trkpt><trkpt lat="44.06465322611513" lon="10.142992573093643"><ele>764.0</ele><time>2026-03-28T10:39:11Z</time></trkpt><trkpt lat="44.06459978268889" lon="10.142924436956129"><ele>763.1666666666666</ele><time>2026-03-28T10:39:12Z</time></trkpt><trkpt lat="44.06467065328814" lon="10.142855725734552"><ele>762.3333333333333</ele><time>2026-03-28T10:39:13Z</time></trkpt><trkpt lat="44.0647407030035" lon="10.14276010135125"><ele>761.5</ele><time>2026-03-28T10:39:14Z</time></trkpt><trkpt lat="44.064806798796766" lon="10.14266748894053"><ele>760.6666666666666</ele><time>2026-03-28T10:39:15Z</time></trkpt><trkpt lat="44.06486838265895" lon="10.142619725383334"><ele>759.8333333333334</ele><time>2026-03-28T10:39:16Z</time></trkpt><trkpt lat="44.06493580668774" lon="10.142554890119797"><ele>759.0</ele><time>2026-03-28T10:39:17Z</time></trkpt><trkpt lat="44.06495636329142" lon="10.142426925052195"><ele>763.0</ele><time>2026-03-28T10:39:18Z</time></trkpt><trkpt lat="44.0650069666283" lon="10.142317769755174"><ele>767.0</ele><time>2026-03-28T10:39:19Z</time></trkpt><trkpt lat="44.0650513029746" lon="10.142206709306887"><ele>771.0</ele><time>2026-03-28T10:39:20Z</time></trkpt><trkpt lat="44.06508946097276" lon="10.142100225544997"><ele>775.0</ele><time>2026-03-28T10:39:21Z</time></trkpt><trkpt lat="44.0651282307958" lon="10.14201013477854"><ele>779.0</ele><time>2026-03-28T10:39:22Z</time></trkpt><trkpt lat="44.06518471266696" lon="10.141933865629655"><ele>783.0</ele><time>2026-03-28T10:39:23Z</time></trkpt><trkpt lat="44.06521971142065" lon="10.141843336823197"><ele>783.0</ele><time>2026-03-28T10:39:24Z</time></trkpt><trkpt lat="44.06523006563348" lon="10.141745110320908"><ele>783.0</ele><time>2026-03-28T10:39:25Z</time></trkpt><trkpt lat="44.065217284291386" lon="10.14163168692625"><ele>783.0</ele><time>2026-03-28T10:39:26Z</time></trkpt><trkpt lat="44.06519762694547" lon="10.141546205952663"><ele>783.0</ele><time>2026-03-28T10:39:27Z</time></trkpt><trkpt lat="44.06520944123692" lon="10.141442045922169"><ele>783.0</ele><time>2026-03-28T10:39:29Z</time></trkpt><trkpt lat="44.0652692053046" lon="10.141470974937432"><ele>783.0</ele><time>2026-03-28T10:39:31Z</time></trkpt><trkpt lat="44.06519556824095" lon="10.141493896994161"><ele>783.0</ele><time>2026-03-28T10:40:32Z</time></trkpt><trkpt lat="44.065283883711714" lon="10.141440274381308"><ele>792.0</ele><time>2026-03-28T10:40:47Z</time></trkpt><trkpt lat="44.065284879386525" lon="10.141553064198169"><ele>783.0</ele><time>2026-03-28T10:41:39Z</time></trkpt></trkseg><trkseg><trkpt lat="44.05819175769022" lon="10.155178857976715"><ele>623.0</ele><time>2026-03-28T13:43:48.999Z</time></trkpt><trkpt lat="44.058109210326634" lon="10.155115039967878"><ele>623.0</ele><time>2026-03-28T13:44:33Z</time></trkpt><trkpt lat="44.058040108930996" lon="10.155072112400914"><ele>623.0</ele><time>2026-03-28T13:47:27.001Z</time></trkpt><trkpt lat="44.05798655570091" lon="10.155007432556042"><ele>623.0</ele><time>2026-03-28T13:47:33.001Z</time></trkpt><trkpt lat="44.05802083481059" lon="10.154919978932995"><ele>623.0</ele><time>2026-03-28T13:48:05Z</time></trkpt><trkpt lat="44.058072910835925" lon="10.154856311164956"><ele>623.0</ele><time>2026-03-28T13:48:08Z</time></trkpt><trkpt lat="44.0581135028717" lon="10.154774160610728"><ele>624.8333333333333</ele><time>2026-03-28T13:48:11Z</time></trkpt><trkpt lat="44.05814936492433" lon="10.154683973417466"><ele>626.6666666666666</ele><time>2026-03-28T13:48:13Z</time></trkpt><trkpt lat="44.05824076576993" lon="10.154590202300204"><ele>628.5</ele><time>2026-03-28T13:48:16Z</time></trkpt><trkpt lat="44.05829761928848" lon="10.154523983839987"><ele>630.3333333333334</ele><time>2026-03-28T13:48:18Z</time></trkpt><trkpt lat="44.058377888031245" lon="10.154481820355219"><ele>632.1666666666667</ele><time>2026-03-28T13:48:19Z</time></trkpt><trkpt lat="44.05844314123041" lon="10.154427041034722"><ele>634.0</ele><time>2026-03-28T13:48:20Z</time></trkpt><trkpt lat="44.058524507645096" lon="10.154360015868868"><ele>634.0</ele><time>2026-03-28T13:48:21Z</time></trkpt><trkpt lat="44.058566243509915" lon="10.154281639646422"><ele>634.0</ele><time>2026-03-28T13:48:22Z</time></trkpt><trkpt lat="44.058640312868704" lon="10.154233250522275"><ele>634.0</ele><time>2026-03-28T13:48:23Z</time></trkpt><trkpt lat="44.05870874179256" lon="10.15420809094284"><ele>634.0</ele><time>2026-03-28T13:48:24Z</time></trkpt><trkpt lat="44.05879762238706" lon="10.154176761881429"><ele>634.0</ele><time>2026-03-28T13:48:26Z</time></trkpt><trkpt lat="44.058886808621374" lon="10.154040950728524"><ele>634.0</ele><time>2026-03-28T13:48:28Z</time></trkpt><trkpt lat="44.05892556243743" lon="10.153962054927934"><ele>633.8333333333334</ele><time>2026-03-28T13:48:29Z</time></trkpt><trkpt lat="44.058982732694815" lon="10.153873839183085"><ele>633.6666666666667</ele><time>2026-03-28T13:48:30Z</time></trkpt><trkpt lat="44.059035069870795" lon="10.153781180475605"><ele>633.5</ele><time>2026-03-28T13:48:31Z</time></trkpt><trkpt lat="44.05910886548449" lon="10.153719464359506"><ele>633.3333333333334</ele><time>2026-03-28T13:48:32Z</time></trkpt><trkpt lat="44.05918607651306" lon="10.15367937490877"><ele>633.1666666666666</ele><time>2026-03-28T13:48:33Z</time></trkpt><trkpt lat="44.0592561007525" lon="10.153641728268642"><ele>633.0</ele><time>2026-03-28T13:48:34Z</time></trkpt><trkpt lat="44.05933353578365" lon="10.153586743686185"><ele>633.0</ele><time>2026-03-28T13:48:35Z</time></trkpt><trkpt lat="44.059411234854934" lon="10.153508972742376"><ele>633.0</ele><time>2026-03-28T13:48:36Z</time></trkpt><trkpt lat="44.059463765815195" lon="10.15345268114194"><ele>633.0</ele><time>2026-03-28T13:48:37Z</time></trkpt><trkpt lat="44.059520422264725" lon="10.153371318094317"><ele>633.0</ele><time>2026-03-28T13:48:39Z</time></trkpt><trkpt lat="44.059602332807614" lon="10.15330024309984"><ele>633.0</ele><time>2026-03-28T13:48:40Z</time></trkpt><trkpt lat="44.059684002308295" lon="10.153269866984171"><ele>633.0</ele><time>2026-03-28T13:48:41Z</time></trkpt><trkpt lat="44.05973482840896" lon="10.153175980888362"><ele>631.6666666666666</ele><time>2026-03-28T13:48:42Z</time></trkpt><trkpt lat="44.05981119999813" lon="10.153130967387025"><ele>630.3333333333334</ele><time>2026-03-28T13:48:43Z</time></trkpt><trkpt lat="44.05986636653412" lon="10.153085730468092"><ele>629.0</ele><time>2026-03-28T13:48:44Z</time></trkpt><trkpt lat="44.05991666306232" lon="10.153019588501111"><ele>627.6666666666667</ele><time>2026-03-28T13:48:45Z</time></trkpt><trkpt lat="44.05997087472126" lon="10.152952014459553"><ele>626.3333333333334</ele><time>2026-03-28T13:48:46Z</time></trkpt><trkpt lat="44.06000623457581" lon="10.152792863223732"><ele>625.0</ele><time>2026-03-28T13:48:48Z</time></trkpt><trkpt lat="44.060032465955544" lon="10.152690242566681"><ele>625.0</ele><time>2026-03-28T13:48:50Z</time></trkpt><trkpt lat="44.06011848773575" lon="10.152626013948007"><ele>625.0</ele><time>2026-03-28T13:48:52Z</time></trkpt><trkpt lat="44.06019803812401" lon="10.152573332165973"><ele>625.0</ele><time>2026-03-28T13:48:54.001Z</time></trkpt><trkpt lat="44.0602544880748" lon="10.152489989390245"><ele>625.0</ele><time>2026-03-28T13:48:58.001Z</time></trkpt><trkpt lat="44.06029891956931" lon="10.15240001977798"><ele>625.0</ele><time>2026-03-28T13:49:01.001Z</time></trkpt><trkpt lat="44.06034289611544" lon="10.152315953134563"><ele>625.0</ele><time>2026-03-28T13:49:04.001Z</time></trkpt><trkpt lat="44.060411203690144" lon="10.152234722196255"><ele>621.6666666666667</ele><time>2026-03-28T13:49:07.001Z</time></trkpt><trkpt lat="44.060445162137036" lon="10.152139067011037"><ele>618.3333333333334</ele><time>2026-03-28T13:49:10.001Z</time></trkpt><trkpt lat="44.06046196528673" lon="10.152040334687635"><ele>615.0</ele><time>2026-03-28T13:49:14.001Z</time></trkpt><trkpt lat="44.06048571397856" lon="10.151886151566439"><ele>611.6666666666666</ele><time>2026-03-28T13:49:17.001Z</time></trkpt><trkpt lat="44.06049403937369" lon="10.151774969297865"><ele>608.3333333333333</ele><time>2026-03-28T13:49:19.001Z</time></trkpt><trkpt lat="44.06049549495459" lon="10.151662849207261"><ele>605.0</ele><time>2026-03-28T13:49:21.001Z</time></trkpt><trkpt lat="44.060511564959896" lon="10.151504255130794"><ele>603.1666666666666</ele><time>2026-03-28T13:49:23.001Z</time></trkpt><trkpt lat="44.06052460243288" lon="10.151410162893328"><ele>601.3333333333333</ele><time>2026-03-28T13:49:25.001Z</time></trkpt><trkpt lat="44.060469864271916" lon="10.151286638665777"><ele>599.5</ele><time>2026-03-28T13:49:27.001Z</time></trkpt><trkpt lat="44.06046622970055" lon="10.15118306077656"><ele>597.6666666666666</ele><time>2026-03-28T13:49:29.001Z</time></trkpt><trkpt lat="44.060480188857156" lon="10.151065914657117"><ele>595.8333333333334</ele><time>2026-03-28T13:49:34.001Z</time></trkpt><trkpt lat="44.06051877307915" lon="10.15097912661257"><ele>594.0</ele><time>2026-03-28T13:49:39.001Z</time></trkpt><trkpt lat="44.0605708351515" lon="10.150918447948621"><ele>594.0</ele><time>2026-03-28T13:49:45.001Z</time></trkpt><trkpt lat="44.06064770463999" lon="10.150806134109024"><ele>594.0</ele><time>2026-03-28T13:49:48.001Z</time></trkpt><trkpt lat="44.06069675220641" lon="10.150748937902945"><ele>594.0</ele><time>2026-03-28T13:49:49.001Z</time></trkpt><trkpt lat="44.06077153181939" lon="10.150701555311294"><ele>594.0</ele><time>2026-03-28T13:49:51.001Z</time></trkpt><trkpt lat="44.06083648840223" lon="10.15063845759908"><ele>594.0</ele><time>2026-03-28T13:49:54.001Z</time></trkpt><trkpt lat="44.06078534661549" lon="10.150579795682559"><ele>594.0</ele><time>2026-03-28T13:49:56.001Z</time></trkpt><trkpt lat="44.060699441100994" lon="10.150583942714112"><ele>594.0</ele><time>2026-03-28T13:49:58.001Z</time></trkpt><trkpt lat="44.06069364549534" lon="10.150705362682377"><ele>594.0</ele><time>2026-03-28T13:50:13.001Z</time></trkpt><trkpt lat="44.06060199695256" lon="10.150762253776604"><ele>594.0</ele><time>2026-03-28T13:50:15.001Z</time></trkpt><trkpt lat="44.060547959913286" lon="10.150817656551693"><ele>594.0</ele><time>2026-03-28T13:50:16.001Z</time></trkpt><trkpt lat="44.06048954527973" lon="10.150879705200232"><ele>594.0</ele><time>2026-03-28T13:50:17Z</time></trkpt><trkpt lat="44.0604358946422" lon="10.150949239472169"><ele>594.0</ele><time>2026-03-28T13:50:18Z</time></trkpt><trkpt lat="44.060342058390695" lon="10.151047000375073"><ele>594.0</ele><time>2026-03-28T13:50:20Z</time></trkpt><trkpt lat="44.060281984219216" lon="10.151110210298977"><ele>594.0</ele><time>2026-03-28T13:50:21Z</time></trkpt><trkpt lat="44.060205079116" lon="10.151109809046591"><ele>594.0</ele><time>2026-03-28T13:50:22Z</time></trkpt><trkpt lat="44.060138522278756" lon="10.151135465938696"><ele>594.0</ele><time>2026-03-28T13:50:23Z</time></trkpt><trkpt lat="44.06007884178393" lon="10.151169692153855"><ele>594.0</ele><time>2026-03-28T13:50:24Z</time></trkpt><trkpt lat="44.06001399670141" lon="10.1512009592259"><ele>594.0</ele><time>2026-03-28T13:50:25Z</time></trkpt><trkpt lat="44.05996165847517" lon="10.151277410107088"><ele>594.0</ele><time>2026-03-28T13:50:26.001Z</time></trkpt><trkpt lat="44.05989978405894" lon="10.151326378124457"><ele>592.0</ele><time>2026-03-28T13:50:27.001Z</time></trkpt><trkpt lat="44.05985573983964" lon="10.151498161691768"><ele>590.0</ele><time>2026-03-28T13:50:29.001Z</time></trkpt><trkpt lat="44.05982006097051" lon="10.151581847873247"><ele>588.0</ele><time>2026-03-28T13:50:30.001Z</time></trkpt><trkpt lat="44.059779652419735" lon="10.151670000063715"><ele>586.0</ele><time>2026-03-28T13:50:31.001Z</time></trkpt><trkpt lat="44.059732698266224" lon="10.151747916337833"><ele>584.0</ele><time>2026-03-28T13:50:32.001Z</time></trkpt><trkpt lat="44.059670259416556" lon="10.151807905096778"><ele>582.0</ele><time>2026-03-28T13:50:33.001Z</time></trkpt><trkpt lat="44.05962844132775" lon="10.151887271923528"><ele>582.0</ele><time>2026-03-28T13:50:34.001Z</time></trkpt><trkpt lat="44.059570897184784" lon="10.152051350420365"><ele>582.0</ele><time>2026-03-28T13:50:36.001Z</time></trkpt><trkpt lat="44.05947409530083" lon="10.15215267388703"><ele>582.0</ele><time>2026-03-28T13:50:38.001Z</time></trkpt><trkpt lat="44.05937342177723" lon="10.15225197697757"><ele>582.0</ele><time>2026-03-28T13:50:40.001Z</time></trkpt><trkpt lat="44.05929421231891" lon="10.152324895110057"><ele>582.0</ele><time>2026-03-28T13:50:41.001Z</time></trkpt><trkpt lat="44.05922043879279" lon="10.152357045699729"><ele>582.0</ele><time>2026-03-28T13:50:42.001Z</time></trkpt><trkpt lat="44.059132793280504" lon="10.15240159358982"><ele>582.0</ele><time>2026-03-28T13:50:43.001Z</time></trkpt><trkpt lat="44.059049145284746" lon="10.152431779110026"><ele>582.0</ele><time>2026-03-28T13:50:44.001Z</time></trkpt><trkpt lat="44.05898032885804" lon="10.152445472848457"><ele>582.0</ele><time>2026-03-28T13:50:45.001Z</time></trkpt><trkpt lat="44.05891648014934" lon="10.152459233264754"><ele>582.0</ele><time>2026-03-28T13:50:46.001Z</time></trkpt><trkpt lat="44.05885483256482" lon="10.152479058819793"><ele>581.8333333333334</ele><time>2026-03-28T13:50:47.001Z</time></trkpt><trkpt lat="44.05875759570852" lon="10.152504475942445"><ele>581.6666666666666</ele><time>2026-03-28T13:50:49.001Z</time></trkpt><trkpt lat="44.05869503729098" lon="10.152537111769973"><ele>581.5</ele><time>2026-03-28T13:50:50.001Z</time></trkpt><trkpt lat="44.05863465901633" lon="10.152567988908295"><ele>581.3333333333333</ele><time>2026-03-28T13:50:51.001Z</time></trkpt><trkpt lat="44.05853031671576" lon="10.152591023996822"><ele>581.1666666666666</ele><time>2026-03-28T13:50:53.001Z</time></trkpt><trkpt lat="44.05842926411299" lon="10.152600927140092"><ele>581.0</ele><time>2026-03-28T13:50:55.001Z</time></trkpt><trkpt lat="44.05832300018146" lon="10.152637471324482"><ele>576.2</ele><time>2026-03-28T13:50:57.001Z</time></trkpt><trkpt lat="44.05826259121085" lon="10.152677333169402"><ele>571.4000000000001</ele><time>2026-03-28T13:50:58.001Z</time></trkpt><trkpt lat="44.058160750864616" lon="10.152715002233991"><ele>566.6</ele><time>2026-03-28T13:51:00.001Z</time></trkpt><trkpt lat="44.0580789924456" lon="10.152736629353315"><ele>561.8000000000001</ele><time>2026-03-28T13:51:01.001Z</time></trkpt><trkpt lat="44.058009321441" lon="10.152843187899988"><ele>557.0</ele><time>2026-03-28T13:51:03.001Z</time></trkpt><trkpt lat="44.05792185645008" lon="10.152945356465413"><ele>557.0</ele><time>2026-03-28T13:51:05.001Z</time></trkpt><trkpt lat="44.05783982830525" lon="10.153027839948766"><ele>557.0</ele><time>2026-03-28T13:51:07.001Z</time></trkpt><trkpt lat="44.05773785554472" lon="10.153141100198434"><ele>557.0</ele><time>2026-03-28T13:51:09.001Z</time></trkpt><trkpt lat="44.05768019614131" lon="10.153200931698912"><ele>557.0</ele><time>2026-03-28T13:51:10.001Z</time></trkpt><trkpt lat="44.05756543154911" lon="10.153197081278723"><ele>557.0</ele><time>2026-03-28T13:51:11.001Z</time></trkpt><trkpt lat="44.05748803117068" lon="10.153226132906086"><ele>559.6</ele><time>2026-03-28T13:51:12.001Z</time></trkpt><trkpt lat="44.05736147291297" lon="10.153263566022416"><ele>562.2</ele><time>2026-03-28T13:51:14.001Z</time></trkpt><trkpt lat="44.057266548862664" lon="10.153282673773354"><ele>564.8</ele><time>2026-03-28T13:51:15.001Z</time></trkpt><trkpt lat="44.057164642235364" lon="10.153318843990546"><ele>567.4</ele><time>2026-03-28T13:51:16.001Z</time></trkpt><trkpt lat="44.05706358889519" lon="10.15333902280124"><ele>570.0</ele><time>2026-03-28T13:51:17.001Z</time></trkpt><trkpt lat="44.056969899749326" lon="10.153339514197784"><ele>570.0</ele><time>2026-03-28T13:51:18.001Z</time></trkpt><trkpt lat="44.05689197580029" lon="10.153369702139557"><ele>570.0</ele><time>2026-03-28T13:51:19.001Z</time></trkpt><trkpt lat="44.056804916708444" lon="10.153363395127247"><ele>570.0</ele><time>2026-03-28T13:51:20.001Z</time></trkpt><trkpt lat="44.05671925468005" lon="10.153383638218623"><ele>570.0</ele><time>2026-03-28T13:51:21.001Z</time></trkpt><trkpt lat="44.05663245108103" lon="10.153368440864744"><ele>570.0</ele><time>2026-03-28T13:51:22.001Z</time></trkpt><trkpt lat="44.056546138034186" lon="10.153354893087851"><ele>570.0</ele><time>2026-03-28T13:51:23.001Z</time></trkpt><trkpt lat="44.056456682117314" lon="10.153344854507836"><ele>569.6</ele><time>2026-03-28T13:51:24.001Z</time></trkpt><trkpt lat="44.05636539590199" lon="10.153271924888255"><ele>569.2</ele><time>2026-03-28T13:51:25.001Z</time></trkpt><trkpt lat="44.05630687585293" lon="10.153224173382396"><ele>568.8</ele><time>2026-03-28T13:51:26.001Z</time></trkpt><trkpt lat="44.05620990171631" lon="10.153154144030998"><ele>568.4</ele><time>2026-03-28T13:51:28.001Z</time></trkpt><trkpt lat="44.05613378707876" lon="10.15308304848174"><ele>568.0</ele><time>2026-03-28T13:51:30.001Z</time></trkpt><trkpt lat="44.0560507400882" lon="10.153042903912214"><ele>562.0</ele><time>2026-03-28T13:51:32.001Z</time></trkpt><trkpt lat="44.05594534425685" lon="10.15306440567079"><ele>556.0</ele><time>2026-03-28T13:51:34.001Z</time></trkpt><trkpt lat="44.05588258905529" lon="10.153105383984757"><ele>550.0</ele><time>2026-03-28T13:51:35.001Z</time></trkpt><trkpt lat="44.05579719493429" lon="10.153110367108757"><ele>544.0</ele><time>2026-03-28T13:51:36.001Z</time></trkpt><trkpt lat="44.05571496104392" lon="10.153131272348107"><ele>538.0</ele><time>2026-03-28T13:51:37.001Z</time></trkpt><trkpt lat="44.055572334541694" lon="10.153146075252923"><ele>537.5</ele><time>2026-03-28T13:51:39.001Z</time></trkpt><trkpt lat="44.05549088464838" lon="10.15315319280783"><ele>537.0</ele><time>2026-03-28T13:51:40.001Z</time></trkpt><trkpt lat="44.05540116320149" lon="10.153155826657608"><ele>536.5</ele><time>2026-03-28T13:51:41.001Z</time></trkpt><trkpt lat="44.055330298928794" lon="10.153147001098967"><ele>536.0</ele><time>2026-03-28T13:51:42.001Z</time></trkpt><trkpt lat="44.05523982903245" lon="10.153157120351107"><ele>535.5</ele><time>2026-03-28T13:51:43.001Z</time></trkpt><trkpt lat="44.05516462751212" lon="10.153146147154024"><ele>535.0</ele><time>2026-03-28T13:51:44.001Z</time></trkpt><trkpt lat="44.055095480141816" lon="10.15311166912939"><ele>535.0</ele><time>2026-03-28T13:51:45.001Z</time></trkpt><trkpt lat="44.05499636570385" lon="10.15305667167221"><ele>535.0</ele><time>2026-03-28T13:51:47.001Z</time></trkpt><trkpt lat="44.05489611722705" lon="10.153066523630596"><ele>535.0</ele><time>2026-03-28T13:51:49.001Z</time></trkpt><trkpt lat="44.05482497271118" lon="10.15301178069881"><ele>535.0</ele><time>2026-03-28T13:51:54.001Z</time></trkpt><trkpt lat="44.05474328672542" lon="10.152957705389941"><ele>535.0</ele><time>2026-03-28T13:51:57.001Z</time></trkpt><trkpt lat="44.05466872061556" lon="10.152901350298269"><ele>532.8</ele><time>2026-03-28T13:51:59.001Z</time></trkpt><trkpt lat="44.05460140725949" lon="10.152853179432975"><ele>530.6</ele><time>2026-03-28T13:52:01.001Z</time></trkpt><trkpt lat="44.0545266443647" lon="10.152858642882128"><ele>528.4</ele><time>2026-03-28T13:52:03.001Z</time></trkpt><trkpt lat="44.05443931236471" lon="10.152928224095547"><ele>526.2</ele><time>2026-03-28T13:52:06.001Z</time></trkpt><trkpt lat="44.05432003461638" lon="10.153052144698819"><ele>524.0</ele><time>2026-03-28T13:52:08.001Z</time></trkpt><trkpt lat="44.054215820090995" lon="10.153154013765649"><ele>524.0</ele><time>2026-03-28T13:52:10.001Z</time></trkpt><trkpt lat="44.05414147215413" lon="10.153196967924224"><ele>524.0</ele><time>2026-03-28T13:52:12.001Z</time></trkpt><trkpt lat="44.05413335075327" lon="10.1530895228892"><ele>524.0</ele><time>2026-03-28T13:52:17.001Z</time></trkpt><trkpt lat="44.054177919902024" lon="10.153027296800326"><ele>524.0</ele><time>2026-03-28T13:52:18.001Z</time></trkpt><trkpt lat="44.0542472372403" lon="10.152915712498853"><ele>524.0</ele><time>2026-03-28T13:52:20Z</time></trkpt><trkpt lat="44.05429111603903" lon="10.15282411838312"><ele>524.0</ele><time>2026-03-28T13:52:21Z</time></trkpt><trkpt lat="44.054338115712156" lon="10.152747566963496"><ele>524.0</ele><time>2026-03-28T13:52:22Z</time></trkpt><trkpt lat="44.05438156013798" lon="10.152661316245046"><ele>524.0</ele><time>2026-03-28T13:52:23Z</time></trkpt><trkpt lat="44.054536888787425" lon="10.152673179886143"><ele>524.0</ele><time>2026-03-28T13:52:25Z</time></trkpt><trkpt lat="44.05464026281858" lon="10.152622728810016"><ele>524.0</ele><time>2026-03-28T13:52:27Z</time></trkpt><trkpt lat="44.05475547626631" lon="10.152628098931128"><ele>524.0</ele><time>2026-03-28T13:52:29Z</time></trkpt><trkpt lat="44.05485346115238" lon="10.152684057514442"><ele>524.0</ele><time>2026-03-28T13:52:30Z</time></trkpt><trkpt lat="44.05492529110036" lon="10.152720006116528"><ele>524.0</ele><time>2026-03-28T13:52:31Z</time></trkpt><trkpt lat="44.05500816854371" lon="10.152745502963288"><ele>524.0</ele><time>2026-03-28T13:52:32Z</time></trkpt><trkpt lat="44.05509742855732" lon="10.152745753972782"><ele>524.0</ele><time>2026-03-28T13:52:33Z</time></trkpt><trkpt lat="44.055181234487144" lon="10.152715017330706"><ele>524.0</ele><time>2026-03-28T13:52:34Z</time></trkpt><trkpt lat="44.05525206374365" lon="10.152686945203504"><ele>526.2</ele><time>2026-03-28T13:52:35Z</time></trkpt><trkpt lat="44.055343560680456" lon="10.15264154741918"><ele>528.4</ele><time>2026-03-28T13:52:36Z</time></trkpt><trkpt lat="44.055416858171526" lon="10.152601192929355"><ele>530.6</ele><time>2026-03-28T13:52:37Z</time></trkpt><trkpt lat="44.055521178449354" lon="10.152513581026122"><ele>532.8</ele><time>2026-03-28T13:52:39Z</time></trkpt><trkpt lat="44.055657062789926" lon="10.152458362083802"><ele>535.0</ele><time>2026-03-28T13:52:41Z</time></trkpt><trkpt lat="44.05571433078676" lon="10.152400223483497"><ele>529.8</ele><time>2026-03-28T13:52:42Z</time></trkpt><trkpt lat="44.05579277994943" lon="10.15233104634042"><ele>524.6</ele><time>2026-03-28T13:52:43Z</time></trkpt><trkpt lat="44.055865759331034" lon="10.152294477193216"><ele>519.4</ele><time>2026-03-28T13:52:44Z</time></trkpt><trkpt lat="44.05593052948912" lon="10.152244952794645"><ele>514.2</ele><time>2026-03-28T13:52:45Z</time></trkpt><trkpt lat="44.05606189519538" lon="10.15215681514043"><ele>509.0</ele><time>2026-03-28T13:52:47Z</time></trkpt><trkpt lat="44.056133553060356" lon="10.152141913963998"><ele>509.0</ele><time>2026-03-28T13:52:48Z</time></trkpt><trkpt lat="44.05625078754129" lon="10.152101106233781"><ele>509.0</ele><time>2026-03-28T13:52:50Z</time></trkpt><trkpt lat="44.056321232437924" lon="10.152097959302774"><ele>509.0</ele><time>2026-03-28T13:52:51Z</time></trkpt><trkpt lat="44.05646251340666" lon="10.152056847317516"><ele>509.0</ele><time>2026-03-28T13:52:53Z</time></trkpt><trkpt lat="44.056562676955856" lon="10.152010960379966"><ele>509.0</ele><time>2026-03-28T13:52:54Z</time></trkpt><trkpt lat="44.05669167059413" lon="10.151960699597558"><ele>510.3333333333333</ele><time>2026-03-28T13:52:56Z</time></trkpt><trkpt lat="44.05675853122434" lon="10.151921632438485"><ele>511.66666666666663</ele><time>2026-03-28T13:52:57Z</time></trkpt><trkpt lat="44.05682624679143" lon="10.151872011091715"><ele>513.0</ele><time>2026-03-28T13:52:58Z</time></trkpt><trkpt lat="44.056882154264386" lon="10.151825367284912"><ele>514.3333333333334</ele><time>2026-03-28T13:52:59Z</time></trkpt><trkpt lat="44.05694364047198" lon="10.151772279330984"><ele>515.6666666666667</ele><time>2026-03-28T13:53:00Z</time></trkpt><trkpt lat="44.05703464077991" lon="10.15165349912466"><ele>517.0</ele><time>2026-03-28T13:53:02Z</time></trkpt><trkpt lat="44.057078149909806" lon="10.151586733900057"><ele>513.8000000000001</ele><time>2026-03-28T13:53:03Z</time></trkpt><trkpt lat="44.057135194234135" lon="10.15148654752889"><ele>510.6</ele><time>2026-03-28T13:53:05Z</time></trkpt><trkpt lat="44.057190733007396" lon="10.151363213186274"><ele>507.40000000000003</ele><time>2026-03-28T13:53:07Z</time></trkpt><trkpt lat="44.0571218041489" lon="10.151231943103845"><ele>504.20000000000005</ele><time>2026-03-28T13:53:10.001Z</time></trkpt><trkpt lat="44.05706139927052" lon="10.151299178080333"><ele>501.0</ele><time>2026-03-28T13:53:12.001Z</time></trkpt><trkpt lat="44.05699184046683" lon="10.15133928497242"><ele>501.0</ele><time>2026-03-28T13:53:14.001Z</time></trkpt><trkpt lat="44.0569274524377" lon="10.151405963302775"><ele>501.0</ele><time>2026-03-28T13:53:16.001Z</time></trkpt><trkpt lat="44.05683266029272" lon="10.151502253240606"><ele>501.0</ele><time>2026-03-28T13:53:18.001Z</time></trkpt><trkpt lat="44.056736552792664" lon="10.151583411204074"><ele>501.0</ele><time>2026-03-28T13:53:20.001Z</time></trkpt><trkpt lat="44.05667901259695" lon="10.151624495485189"><ele>501.0</ele><time>2026-03-28T13:53:21.001Z</time></trkpt><trkpt lat="44.05661416506193" lon="10.151652059510749"><ele>501.0</ele><time>2026-03-28T13:53:22.001Z</time></trkpt><trkpt lat="44.056512038829894" lon="10.15166508296292"><ele>502.3333333333333</ele><time>2026-03-28T13:53:23.001Z</time></trkpt><trkpt lat="44.05642632688177" lon="10.151682910478238"><ele>503.66666666666663</ele><time>2026-03-28T13:53:24.001Z</time></trkpt><trkpt lat="44.05632683635166" lon="10.151674780452353"><ele>505.0</ele><time>2026-03-28T13:53:25.001Z</time></trkpt><trkpt lat="44.05625258639201" lon="10.151688845825431"><ele>506.3333333333333</ele><time>2026-03-28T13:53:26.001Z</time></trkpt><trkpt lat="44.05616088528319" lon="10.151689313372152"><ele>507.66666666666663</ele><time>2026-03-28T13:53:27.001Z</time></trkpt><trkpt lat="44.056064533715556" lon="10.151685388793945"><ele>509.0</ele><time>2026-03-28T13:53:28.001Z</time></trkpt><trkpt lat="44.05598550389768" lon="10.151664997156557"><ele>508.99999999999994</ele><time>2026-03-28T13:53:29.001Z</time></trkpt><trkpt lat="44.055908842746916" lon="10.151636071704246"><ele>509.0</ele><time>2026-03-28T13:53:30.001Z</time></trkpt><trkpt lat="44.055819076030446" lon="10.15162819974381"><ele>509.0</ele><time>2026-03-28T13:53:31.001Z</time></trkpt><trkpt lat="44.05572955622233" lon="10.151626375978825"><ele>509.0</ele><time>2026-03-28T13:53:32.001Z</time></trkpt><trkpt lat="44.0556503970388" lon="10.151611207620704"><ele>508.99999999999994</ele><time>2026-03-28T13:53:33.001Z</time></trkpt><trkpt lat="44.05557937966628" lon="10.15154034108288"><ele>509.0</ele><time>2026-03-28T13:53:34.001Z</time></trkpt><trkpt lat="44.055518471125474" lon="10.151490839878754"><ele>503.6</ele><time>2026-03-28T13:53:35.001Z</time></trkpt><trkpt lat="44.05537949663737" lon="10.151439184450966"><ele>498.2</ele><time>2026-03-28T13:53:37.001Z</time></trkpt><trkpt lat="44.055310735008874" lon="10.151436721842375"><ele>492.80000000000007</ele><time>2026-03-28T13:53:38.001Z</time></trkpt><trkpt lat="44.055221042476404" lon="10.151451461449252"><ele>487.40000000000003</ele><time>2026-03-28T13:53:39.001Z</time></trkpt><trkpt lat="44.05513220900566" lon="10.151476749942834"><ele>482.0</ele><time>2026-03-28T13:53:40.001Z</time></trkpt><trkpt lat="44.05501218766942" lon="10.151495779217804"><ele>481.3333333333333</ele><time>2026-03-28T13:53:42.001Z</time></trkpt><trkpt lat="44.05493207350133" lon="10.151485637637833"><ele>480.66666666666663</ele><time>2026-03-28T13:53:43.001Z</time></trkpt><trkpt lat="44.05485364310585" lon="10.15149582983851"><ele>480.0</ele><time>2026-03-28T13:53:44.001Z</time></trkpt><trkpt lat="44.054748465745476" lon="10.151499474146192"><ele>479.33333333333337</ele><time>2026-03-28T13:53:45.001Z</time></trkpt><trkpt lat="44.05467140673049" lon="10.151532877002735"><ele>478.6666666666667</ele><time>2026-03-28T13:53:46.001Z</time></trkpt><trkpt lat="44.05459096715694" lon="10.151543461950034"><ele>478.0</ele><time>2026-03-28T13:53:47.001Z</time></trkpt><trkpt lat="44.05449708148914" lon="10.15150925785113"><ele>478.00000000000006</ele><time>2026-03-28T13:53:48.001Z</time></trkpt><trkpt lat="44.054425609016874" lon="10.151488020460945"><ele>478.0</ele><time>2026-03-28T13:53:49.001Z</time></trkpt><trkpt lat="44.05434865421216" lon="10.151472240063585"><ele>478.0</ele><time>2026-03-28T13:53:50.001Z</time></trkpt><trkpt lat="44.05427024840656" lon="10.151458464388245"><ele>478.0</ele><time>2026-03-28T13:53:51.001Z</time></trkpt><trkpt lat="44.054197726285565" lon="10.151446151407882"><ele>478.00000000000006</ele><time>2026-03-28T13:53:52.001Z</time></trkpt><trkpt lat="44.05410702708207" lon="10.151481575346404"><ele>478.0</ele><time>2026-03-28T13:53:53.001Z</time></trkpt><trkpt lat="44.05403394284311" lon="10.151481069631346"><ele>478.00000000000006</ele><time>2026-03-28T13:53:54.001Z</time></trkpt><trkpt lat="44.05394562631768" lon="10.151492494554208"><ele>478.0</ele><time>2026-03-28T13:53:55.001Z</time></trkpt><trkpt lat="44.05385723963356" lon="10.151513467264909"><ele>478.0</ele><time>2026-03-28T13:53:56.001Z</time></trkpt><trkpt lat="44.05378544677747" lon="10.151544584820918"><ele>478.0</ele><time>2026-03-28T13:53:57.001Z</time></trkpt><trkpt lat="44.05372125771363" lon="10.151555543582568"><ele>478.00000000000006</ele><time>2026-03-28T13:53:58.001Z</time></trkpt><trkpt lat="44.05365059358845" lon="10.151544559666977"><ele>478.0</ele><time>2026-03-28T13:53:59.001Z</time></trkpt><trkpt lat="44.05356412985648" lon="10.151489944336138"><ele>478.1666666666667</ele><time>2026-03-28T13:54:00.001Z</time></trkpt><trkpt lat="44.05349463669993" lon="10.151422898217934"><ele>478.33333333333337</ele><time>2026-03-28T13:54:02.001Z</time></trkpt><trkpt lat="44.05342538088332" lon="10.15132091126091"><ele>478.5</ele><time>2026-03-28T13:54:04.001Z</time></trkpt><trkpt lat="44.05335003306069" lon="10.151284793987342"><ele>478.66666666666663</ele><time>2026-03-28T13:54:06.001Z</time></trkpt><trkpt lat="44.053281894903385" lon="10.151228771922225"><ele>478.8333333333333</ele><time>2026-03-28T13:54:07.001Z</time></trkpt><trkpt lat="44.0532439327676" lon="10.151131193494225"><ele>479.0</ele><time>2026-03-28T13:54:08.001Z</time></trkpt><trkpt lat="44.05322114036833" lon="10.151045395691952"><ele>478.99999999999994</ele><time>2026-03-28T13:54:09.001Z</time></trkpt><trkpt lat="44.053183843499305" lon="10.150907066059727"><ele>479.0</ele><time>2026-03-28T13:54:11.001Z</time></trkpt><trkpt lat="44.05316541272721" lon="10.150821417617253"><ele>479.0</ele><time>2026-03-28T13:54:13.001Z</time></trkpt><trkpt lat="44.05314674921832" lon="10.150725257986197"><ele>479.0</ele><time>2026-03-28T13:54:32Z</time></trkpt><trkpt lat="44.05321980207963" lon="10.15068829012286"><ele>478.99999999999994</ele><time>2026-03-28T13:54:37Z</time></trkpt><trkpt lat="44.053293197820345" lon="10.150751909659926"><ele>479.0</ele><time>2026-03-28T13:54:40Z</time></trkpt><trkpt lat="44.05328002355176" lon="10.150885619925925"><ele>478.99999999999994</ele><time>2026-03-28T13:54:43Z</time></trkpt><trkpt lat="44.05325395565862" lon="10.151011682911385"><ele>479.0</ele><time>2026-03-28T13:54:45Z</time></trkpt><trkpt lat="44.053313306288835" lon="10.151171188390459"><ele>479.0</ele><time>2026-03-28T13:54:47Z</time></trkpt><trkpt lat="44.05338132827333" lon="10.151243002915177"><ele>479.0</ele><time>2026-03-28T13:54:48Z</time></trkpt><trkpt lat="44.05342004573868" lon="10.151314710081033"><ele>478.99999999999994</ele><time>2026-03-28T13:54:50Z</time></trkpt><trkpt lat="44.05334478649327" lon="10.151317534133394"><ele>479.0</ele><time>2026-03-28T13:54:53Z</time></trkpt><trkpt lat="44.05331861441831" lon="10.151184449088456"><ele>472.49999999999994</ele><time>2026-03-28T13:54:55Z</time></trkpt><trkpt lat="44.053272474826336" lon="10.15107327230086"><ele>466.0</ele><time>2026-03-28T13:54:56Z</time></trkpt><trkpt lat="44.05324378583075" lon="10.150986577800458"><ele>459.5</ele><time>2026-03-28T13:54:57Z</time></trkpt><trkpt lat="44.05321285559414" lon="10.15086188563401"><ele>453.0</ele><time>2026-03-28T13:54:59Z</time></trkpt><trkpt lat="44.053153560850355" lon="10.150809527420897"><ele>446.49999999999994</ele><time>2026-03-28T13:55:23Z</time></trkpt><trkpt lat="44.05317573781409" lon="10.15090959605494"><ele>440.0</ele><time>2026-03-28T13:56:00.001Z</time></trkpt><trkpt lat="44.05321747927298" lon="10.151022515203445"><ele>439.99999999999994</ele><time>2026-03-28T13:56:03.001Z</time></trkpt><trkpt lat="44.053254517659454" lon="10.151148803956886"><ele>440.0</ele><time>2026-03-28T13:56:05.001Z</time></trkpt><trkpt lat="44.05327821714463" lon="10.151233652270703"><ele>440.0</ele><time>2026-03-28T13:56:06.001Z</time></trkpt><trkpt lat="44.05335297667203" lon="10.15132186570736"><ele>440.0</ele><time>2026-03-28T13:56:08.001Z</time></trkpt><trkpt lat="44.053444816791455" lon="10.151358659243533"><ele>439.99999999999994</ele><time>2026-03-28T13:56:11.001Z</time></trkpt><trkpt lat="44.05351186814744" lon="10.151396904510293"><ele>440.0</ele><time>2026-03-28T13:56:12.001Z</time></trkpt><trkpt lat="44.05357360569729" lon="10.151468013399914"><ele>447.6</ele><time>2026-03-28T13:56:13.001Z</time></trkpt><trkpt lat="44.05361887420647" lon="10.151542624184657"><ele>455.2</ele><time>2026-03-28T13:56:14.001Z</time></trkpt><trkpt lat="44.05368471459245" lon="10.151569833009006"><ele>462.79999999999995</ele><time>2026-03-28T13:56:15.001Z</time></trkpt><trkpt lat="44.05378672842004" lon="10.151589091456053"><ele>470.4</ele><time>2026-03-28T13:56:16.001Z</time></trkpt><trkpt lat="44.05390558467224" lon="10.15153649668059"><ele>478.0</ele><time>2026-03-28T13:56:17.001Z</time></trkpt><trkpt lat="44.05400245079864" lon="10.151506756668352"><ele>478.0</ele><time>2026-03-28T13:56:18.001Z</time></trkpt><trkpt lat="44.0540989519396" lon="10.151471420392157"><ele>477.99999999999994</ele><time>2026-03-28T13:56:19.001Z</time></trkpt><trkpt lat="44.05417057597755" lon="10.151456466779232"><ele>477.99999999999994</ele><time>2026-03-28T13:56:20.001Z</time></trkpt><trkpt lat="44.05424899972196" lon="10.151448266720005"><ele>478.0</ele><time>2026-03-28T13:56:21.001Z</time></trkpt><trkpt lat="44.05434872351306" lon="10.151464683024555"><ele>478.0</ele><time>2026-03-28T13:56:22Z</time></trkpt><trkpt lat="44.05445712202784" lon="10.151503304954206"><ele>481.79999999999995</ele><time>2026-03-28T13:56:23Z</time></trkpt><trkpt lat="44.05455113278979" lon="10.151551399209565"><ele>485.59999999999997</ele><time>2026-03-28T13:56:24Z</time></trkpt><trkpt lat="44.05462174321093" lon="10.15162633271106"><ele>489.40000000000003</ele><time>2026-03-28T13:56:25Z</time></trkpt><trkpt lat="44.05471186214711" lon="10.151652747347182"><ele>493.20000000000005</ele><time>2026-03-28T13:56:26Z</time></trkpt><trkpt lat="44.0548206073859" lon="10.151644067838209"><ele>497.0</ele><time>2026-03-28T13:56:27Z</time></trkpt><trkpt lat="44.05490894785554" lon="10.151646271868826"><ele>498.8</ele><time>2026-03-28T13:56:28Z</time></trkpt><trkpt lat="44.05503466207114" lon="10.151573997657332"><ele>500.6</ele><time>2026-03-28T13:56:29Z</time></trkpt><trkpt lat="44.05513184264697" lon="10.151538142891294"><ele>502.40000000000003</ele><time>2026-03-28T13:56:30Z</time></trkpt><trkpt lat="44.055220113755965" lon="10.151476037014676"><ele>504.20000000000005</ele><time>2026-03-28T13:56:31Z</time></trkpt><trkpt lat="44.05529381339075" lon="10.151447919656015"><ele>506.0</ele><time>2026-03-28T13:56:32Z</time></trkpt><trkpt lat="44.05540757155392" lon="10.151396222977183"><ele>506.0</ele><time>2026-03-28T13:56:33Z</time></trkpt><trkpt lat="44.05553145057504" lon="10.151424495335688"><ele>506.0</ele><time>2026-03-28T13:56:35Z</time></trkpt><trkpt lat="44.05562394193205" lon="10.151573047373107"><ele>506.0</ele><time>2026-03-28T13:56:36Z</time></trkpt><trkpt lat="44.05570789961464" lon="10.151638766210858"><ele>506.0</ele><time>2026-03-28T13:56:37Z</time></trkpt><trkpt lat="44.05581399206084" lon="10.151671778304781"><ele>506.6</ele><time>2026-03-28T13:56:38Z</time></trkpt><trkpt lat="44.05590971899653" lon="10.151671673009274"><ele>507.20000000000005</ele><time>2026-03-28T13:56:39Z</time></trkpt><trkpt lat="44.05602864065441" lon="10.151650152320004"><ele>507.79999999999995</ele><time>2026-03-28T13:56:40Z</time></trkpt><trkpt lat="44.056122083257556" lon="10.151619234898172"><ele>508.4</ele><time>2026-03-28T13:56:41Z</time></trkpt><trkpt lat="44.05624773930461" lon="10.151624954337228"><ele>509.0</ele><time>2026-03-28T13:56:42Z</time></trkpt><trkpt lat="44.05636024131589" lon="10.151631766456243"><ele>509.0</ele><time>2026-03-28T13:56:43Z</time></trkpt><trkpt lat="44.05646442325854" lon="10.151626040802492"><ele>509.0</ele><time>2026-03-28T13:56:44Z</time></trkpt><trkpt lat="44.05655432640842" lon="10.15160778627192"><ele>509.0</ele><time>2026-03-28T13:56:45Z</time></trkpt><trkpt lat="44.05664222305184" lon="10.151594297406659"><ele>509.0</ele><time>2026-03-28T13:56:46Z</time></trkpt><trkpt lat="44.05671321216173" lon="10.151558730705213"><ele>509.0</ele><time>2026-03-28T13:56:47Z</time></trkpt><trkpt lat="44.05680235456047" lon="10.151505613871059"><ele>507.4</ele><time>2026-03-28T13:56:48Z</time></trkpt><trkpt lat="44.05690577567964" lon="10.151418436453874"><ele>505.79999999999995</ele><time>2026-03-28T13:56:49Z</time></trkpt><trkpt lat="44.05697114581175" lon="10.151336952158113"><ele>504.20000000000005</ele><time>2026-03-28T13:56:50Z</time></trkpt><trkpt lat="44.0570566661005" lon="10.151244968534007"><ele>502.6</ele><time>2026-03-28T13:56:53Z</time></trkpt><trkpt lat="44.05713979946115" lon="10.151232451777146"><ele>501.0</ele><time>2026-03-28T13:56:55Z</time></trkpt><trkpt lat="44.057192526021616" lon="10.151314816558585"><ele>501.0</ele><time>2026-03-28T13:56:57Z</time></trkpt><trkpt lat="44.057132271393016" lon="10.151362261749274"><ele>501.0</ele><time>2026-03-28T13:56:59Z</time></trkpt><trkpt lat="44.057049869070134" lon="10.151261268246266"><ele>501.0</ele><time>2026-03-28T13:57:02Z</time></trkpt><trkpt lat="44.056965748067725" lon="10.15135239095245"><ele>501.0</ele><time>2026-03-28T13:57:04Z</time></trkpt><trkpt lat="44.05691296406626" lon="10.15140451883443"><ele>501.0</ele><time>2026-03-28T13:57:05Z</time></trkpt><trkpt lat="44.05684108967809" lon="10.151483753621559"><ele>501.0</ele><time>2026-03-28T13:57:06Z</time></trkpt><trkpt lat="44.05677252340861" lon="10.15154339006416"><ele>502.3333333333333</ele><time>2026-03-28T13:57:07Z</time></trkpt><trkpt lat="44.05668571001738" lon="10.151589547173431"><ele>503.66666666666663</ele><time>2026-03-28T13:57:08Z</time></trkpt><trkpt lat="44.05660888680669" lon="10.15161710210092"><ele>505.0</ele><time>2026-03-28T13:57:09Z</time></trkpt><trkpt lat="44.056513919585825" lon="10.15163836515124"><ele>506.3333333333333</ele><time>2026-03-28T13:57:10Z</time></trkpt><trkpt lat="44.05642450317267" lon="10.151655993620855"><ele>507.66666666666663</ele><time>2026-03-28T13:57:11Z</time></trkpt><trkpt lat="44.05633882423866" lon="10.15164758931572"><ele>509.0</ele><time>2026-03-28T13:57:12Z</time></trkpt><trkpt lat="44.05624897920373" lon="10.151611625460083"><ele>508.99999999999994</ele><time>2026-03-28T13:57:13Z</time></trkpt><trkpt lat="44.05615215807582" lon="10.151621189576577"><ele>509.0</ele><time>2026-03-28T13:57:14Z</time></trkpt><trkpt lat="44.05605761886483" lon="10.151619863275993"><ele>509.0</ele><time>2026-03-28T13:57:15Z</time></trkpt><trkpt lat="44.055980702902986" lon="10.1516144064512"><ele>509.0</ele><time>2026-03-28T13:57:16Z</time></trkpt><trkpt lat="44.05591053632545" lon="10.151620151956916"><ele>508.99999999999994</ele><time>2026-03-28T13:57:17Z</time></trkpt><trkpt lat="44.055834882103" lon="10.151624612358004"><ele>509.0</ele><time>2026-03-28T13:57:18Z</time></trkpt><trkpt lat="44.055756050490444" lon="10.151634100153577"><ele>508.49999999999994</ele><time>2026-03-28T13:57:19Z</time></trkpt><trkpt lat="44.055675449548865" lon="10.15162101763969"><ele>508.0</ele><time>2026-03-28T13:57:20Z</time></trkpt><trkpt lat="44.055613244341345" lon="10.15157234003909"><ele>507.5</ele><time>2026-03-28T13:57:21Z</time></trkpt><trkpt lat="44.05554071096954" lon="10.151497343771336"><ele>507.0</ele><time>2026-03-28T13:57:22Z</time></trkpt><trkpt lat="44.055473279408076" lon="10.151440103229781"><ele>506.49999999999994</ele><time>2026-03-28T13:57:23Z</time></trkpt><trkpt lat="44.05538648610213" lon="10.151435469920742"><ele>506.0</ele><time>2026-03-28T13:57:24Z</time></trkpt><trkpt lat="44.05530233757229" lon="10.151454251795759"><ele>506.0</ele><time>2026-03-28T13:57:25Z</time></trkpt><trkpt lat="44.05519644308615" lon="10.15148687037525"><ele>506.0</ele><time>2026-03-28T13:57:26Z</time></trkpt><trkpt lat="44.05510298372812" lon="10.151508709553573"><ele>506.0</ele><time>2026-03-28T13:57:27Z</time></trkpt><trkpt lat="44.05503276180745" lon="10.151562713141029"><ele>506.0</ele><time>2026-03-28T13:57:28Z</time></trkpt><trkpt lat="44.05493924846175" lon="10.151573470619828"><ele>506.0</ele><time>2026-03-28T13:57:29Z</time></trkpt><trkpt lat="44.05485648983642" lon="10.151574886832453"><ele>504.20000000000005</ele><time>2026-03-28T13:57:30Z</time></trkpt><trkpt lat="44.05474195578394" lon="10.151566347828437"><ele>502.40000000000003</ele><time>2026-03-28T13:57:31Z</time></trkpt><trkpt lat="44.05464901953158" lon="10.151568167523426"><ele>500.6</ele><time>2026-03-28T13:57:32Z</time></trkpt><trkpt lat="44.0545594172343" lon="10.151544352619503"><ele>498.8</ele><time>2026-03-28T13:57:33Z</time></trkpt><trkpt lat="44.05446992369622" lon="10.151545239271432"><ele>497.0</ele><time>2026-03-28T13:57:34Z</time></trkpt><trkpt lat="44.05439004952693" lon="10.151545027970075"><ele>497.0</ele><time>2026-03-28T13:57:35Z</time></trkpt><trkpt lat="44.0543156719454" lon="10.151565794982378"><ele>497.00000000000006</ele><time>2026-03-28T13:57:36Z</time></trkpt><trkpt lat="44.05422682756975" lon="10.151503714945404"><ele>497.00000000000006</ele><time>2026-03-28T13:57:37Z</time></trkpt><trkpt lat="44.05413994068484" lon="10.151506725126383"><ele>497.0</ele><time>2026-03-28T13:57:38Z</time></trkpt><trkpt lat="44.054047282969734" lon="10.151523526710935"><ele>497.0</ele><time>2026-03-28T13:57:39Z</time></trkpt><trkpt lat="44.05395209997294" lon="10.151549091574806"><ele>493.40000000000003</ele><time>2026-03-28T13:57:40Z</time></trkpt><trkpt lat="44.0538751903209" lon="10.151567099077132"><ele>489.80000000000007</ele><time>2026-03-28T13:57:41Z</time></trkpt><trkpt lat="44.05380393427824" lon="10.151557259190065"><ele>486.2</ele><time>2026-03-28T13:57:42Z</time></trkpt><trkpt lat="44.05368575657242" lon="10.151537290346441"><ele>482.6</ele><time>2026-03-28T13:57:44Z</time></trkpt><trkpt lat="44.05358312112788" lon="10.151510721142312"><ele>479.0</ele><time>2026-03-28T13:57:46Z</time></trkpt><trkpt lat="44.05350095224137" lon="10.151440096079016"><ele>478.99999999999994</ele><time>2026-03-28T13:57:48Z</time></trkpt><trkpt lat="44.05343203668438" lon="10.151326201394909"><ele>479.0</ele><time>2026-03-28T13:57:52Z</time></trkpt><trkpt lat="44.05339289709442" lon="10.15121536365738"><ele>479.0</ele><time>2026-03-28T13:57:55Z</time></trkpt><trkpt lat="44.053354961796494" lon="10.15111710190498"><ele>479.0</ele><time>2026-03-28T13:57:57Z</time></trkpt><trkpt lat="44.05332858333323" lon="10.151010459938934"><ele>478.99999999999994</ele><time>2026-03-28T13:57:59Z</time></trkpt><trkpt lat="44.053324370943365" lon="10.150913338397375"><ele>479.0</ele><time>2026-03-28T13:58:00Z</time></trkpt><trkpt lat="44.05332158465641" lon="10.150816098132616"><ele>479.0</ele><time>2026-03-28T13:58:01Z</time></trkpt><trkpt lat="44.05330459068492" lon="10.150911607605265"><ele>479.0</ele><time>2026-03-28T13:58:05Z</time></trkpt><trkpt lat="44.05320503900248" lon="10.150752388143388"><ele>479.0</ele><time>2026-03-28T13:58:06Z</time></trkpt><trkpt lat="44.05329330356714" lon="10.150773236766627"><ele>479.0</ele><time>2026-03-28T13:58:09Z</time></trkpt><trkpt lat="44.053356780722496" lon="10.150792748558887"><ele>479.0</ele><time>2026-03-28T13:58:15Z</time></trkpt><trkpt lat="44.053259540667554" lon="10.150911000021546"><ele>478.99999999999994</ele><time>2026-03-28T13:58:18Z</time></trkpt><trkpt lat="44.053271344201214" lon="10.15104982221783"><ele>479.0</ele><time>2026-03-28T13:58:20Z</time></trkpt><trkpt lat="44.05332232875099" lon="10.151139862759186"><ele>479.0</ele><time>2026-03-28T13:58:22Z</time></trkpt><trkpt lat="44.0533768609368" lon="10.151206055327572"><ele>479.0</ele><time>2026-03-28T13:58:25.001Z</time></trkpt><trkpt lat="44.053434677212685" lon="10.151244953154182"><ele>478.99999999999994</ele><time>2026-03-28T13:58:30Z</time></trkpt><trkpt lat="44.05339363616176" lon="10.151311726537863"><ele>479.0</ele><time>2026-03-28T13:58:34Z</time></trkpt><trkpt lat="44.05333281020247" lon="10.151181143847344"><ele>479.0</ele><time>2026-03-28T13:58:36Z</time></trkpt><trkpt lat="44.0532624709599" lon="10.151057315791196"><ele>479.0</ele><time>2026-03-28T13:58:37Z</time></trkpt><trkpt lat="44.05322020324223" lon="10.150942485293145"><ele>479.0</ele><time>2026-03-28T13:58:38Z</time></trkpt><trkpt lat="44.053314263103914" lon="10.150868549671431"><ele>479.0</ele><time>2026-03-28T13:58:39Z</time></trkpt><trkpt lat="44.05317520336088" lon="10.150878625555128"><ele>475.71428571428567</ele><time>2026-03-28T13:59:00Z</time></trkpt><trkpt lat="44.05315015066729" lon="10.150795074944572"><ele>472.42857142857144</ele><time>2026-03-28T13:59:38Z</time></trkpt><trkpt lat="44.05313603195513" lon="10.150706828973327"><ele>469.1428571428571</ele><time>2026-03-28T13:59:44Z</time></trkpt><trkpt lat="44.053202440468915" lon="10.15074900895523"><ele>465.85714285714283</ele><time>2026-03-28T14:00:19Z</time></trkpt><trkpt lat="44.05320511868994" lon="10.150840575247916"><ele>462.57142857142856</ele><time>2026-03-28T14:00:24Z</time></trkpt><trkpt lat="44.05321682992181" lon="10.150935467069763"><ele>459.2857142857143</ele><time>2026-03-28T14:01:14Z</time></trkpt><trkpt lat="44.053181440379305" lon="10.150851845680622"><ele>456.0</ele><time>2026-03-28T14:02:36Z</time></trkpt><trkpt lat="44.0532745599153" lon="10.150751608775657"><ele>453.3333333333333</ele><time>2026-03-28T14:03:43Z</time></trkpt><trkpt lat="44.05334841091289" lon="10.150735812640624"><ele>450.66666666666663</ele><time>2026-03-28T14:03:45Z</time></trkpt><trkpt lat="44.053281970078224" lon="10.150727061789635"><ele>448.0</ele><time>2026-03-28T14:03:56Z</time></trkpt><trkpt lat="44.05323664022239" lon="10.150832056885196"><ele>445.3333333333333</ele><time>2026-03-28T14:04:21Z</time></trkpt><trkpt lat="44.053319086345624" lon="10.150765553785906"><ele>442.66666666666663</ele><time>2026-03-28T14:05:03Z</time></trkpt><trkpt lat="44.05338489505999" lon="10.150753333075832"><ele>440.0</ele><time>2026-03-28T14:05:16Z</time></trkpt><trkpt lat="44.05348876571408" lon="10.150813834487169"><ele>447.8</ele><time>2026-03-28T14:05:24Z</time></trkpt><trkpt lat="44.05359135564483" lon="10.150899649570242"><ele>455.6</ele><time>2026-03-28T14:05:26Z</time></trkpt><trkpt lat="44.053664606811374" lon="10.15097743768886"><ele>463.4</ele><time>2026-03-28T14:05:27Z</time></trkpt><trkpt lat="44.05373781125287" lon="10.15096210253159"><ele>471.2</ele><time>2026-03-28T14:05:28Z</time></trkpt><trkpt lat="44.053812333709736" lon="10.151000720756409"><ele>479.0</ele><time>2026-03-28T14:05:29Z</time></trkpt><trkpt lat="44.05391396856978" lon="10.150990454772385"><ele>479.0</ele><time>2026-03-28T14:05:30Z</time></trkpt><trkpt lat="44.054036967624526" lon="10.150970764525509"><ele>479.0</ele><time>2026-03-28T14:05:31Z</time></trkpt><trkpt lat="44.05411459381996" lon="10.150956592139332"><ele>479.0</ele><time>2026-03-28T14:05:32Z</time></trkpt><trkpt lat="44.054206886565595" lon="10.150936193515056"><ele>479.0</ele><time>2026-03-28T14:05:33Z</time></trkpt><trkpt lat="44.05427227515676" lon="10.150909163023856"><ele>479.0</ele><time>2026-03-28T14:05:34Z</time></trkpt><trkpt lat="44.054355085591574" lon="10.150876672365888"><ele>478.8333333333333</ele><time>2026-03-28T14:05:35Z</time></trkpt><trkpt lat="44.05444756921974" lon="10.150839979942935"><ele>478.66666666666663</ele><time>2026-03-28T14:05:36Z</time></trkpt><trkpt lat="44.05453424369661" lon="10.150819123829562"><ele>478.5</ele><time>2026-03-28T14:05:37Z</time></trkpt><trkpt lat="44.05459781741879" lon="10.150758014313205"><ele>478.33333333333337</ele><time>2026-03-28T14:05:38Z</time></trkpt><trkpt lat="44.05467044447359" lon="10.150684999517194"><ele>478.1666666666667</ele><time>2026-03-28T14:05:39Z</time></trkpt><trkpt lat="44.05471652985376" lon="10.150605403094842"><ele>478.0</ele><time>2026-03-28T14:05:40Z</time></trkpt><trkpt lat="44.054761958737075" lon="10.150521801939451"><ele>474.59999999999997</ele><time>2026-03-28T14:05:41Z</time></trkpt><trkpt lat="44.0548150853334" lon="10.150462613165342"><ele>471.19999999999993</ele><time>2026-03-28T14:05:42Z</time></trkpt><trkpt lat="44.05493049038786" lon="10.150402122632388"><ele>467.8</ele><time>2026-03-28T14:05:44Z</time></trkpt><trkpt lat="44.05499511807145" lon="10.150417141976957"><ele>464.4</ele><time>2026-03-28T14:05:45Z</time></trkpt><trkpt lat="44.05506069366136" lon="10.150414215574402"><ele>461.0</ele><time>2026-03-28T14:05:46Z</time></trkpt><trkpt lat="44.05519173839652" lon="10.15042153986346"><ele>460.6</ele><time>2026-03-28T14:05:47Z</time></trkpt><trkpt lat="44.05527377864566" lon="10.150409155956629"><ele>460.20000000000005</ele><time>2026-03-28T14:05:48Z</time></trkpt><trkpt lat="44.055369691765" lon="10.150390724448672"><ele>459.79999999999995</ele><time>2026-03-28T14:05:49Z</time></trkpt><trkpt lat="44.05548395912003" lon="10.150347746087306"><ele>459.4</ele><time>2026-03-28T14:05:50Z</time></trkpt><trkpt lat="44.055570911138815" lon="10.150283425481284"><ele>459.0</ele><time>2026-03-28T14:05:51Z</time></trkpt><trkpt lat="44.05563807899992" lon="10.15024987247677"><ele>459.0</ele><time>2026-03-28T14:05:52Z</time></trkpt><trkpt lat="44.05569935990066" lon="10.150184041480285"><ele>459.0</ele><time>2026-03-28T14:05:53Z</time></trkpt><trkpt lat="44.05577418000657" lon="10.15006433585267"><ele>459.0</ele><time>2026-03-28T14:05:54Z</time></trkpt><trkpt lat="44.05583637045298" lon="10.149893915569715"><ele>459.0</ele><time>2026-03-28T14:05:55Z</time></trkpt><trkpt lat="44.055868519147786" lon="10.149798424006066"><ele>459.0</ele><time>2026-03-28T14:05:56Z</time></trkpt><trkpt lat="44.055919303014505" lon="10.149606890251977"><ele>457.79999999999995</ele><time>2026-03-28T14:05:58Z</time></trkpt><trkpt lat="44.0559355584513" lon="10.14946327772347"><ele>456.59999999999997</ele><time>2026-03-28T14:05:59Z</time></trkpt><trkpt lat="44.055936331815616" lon="10.149321703787393"><ele>455.4</ele><time>2026-03-28T14:06:00Z</time></trkpt><trkpt lat="44.05592491802704" lon="10.149170537587455"><ele>454.2</ele><time>2026-03-28T14:06:01Z</time></trkpt><trkpt lat="44.05590515887796" lon="10.149022057300204"><ele>453.0</ele><time>2026-03-28T14:06:02Z</time></trkpt><trkpt lat="44.05588932794807" lon="10.148920661752985"><ele>451.3333333333333</ele><time>2026-03-28T14:06:03Z</time></trkpt><trkpt lat="44.05587354199401" lon="10.14881841560115"><ele>449.66666666666663</ele><time>2026-03-28T14:06:04Z</time></trkpt><trkpt lat="44.055875211799595" lon="10.148701858249849"><ele>448.0</ele><time>2026-03-28T14:06:05Z</time></trkpt><trkpt lat="44.05586315986297" lon="10.148585290316467"><ele>446.3333333333333</ele><time>2026-03-28T14:06:06Z</time></trkpt><trkpt lat="44.05586245773273" lon="10.148486646311028"><ele>444.66666666666663</ele><time>2026-03-28T14:06:07Z</time></trkpt><trkpt lat="44.05587765398579" lon="10.148382209281628"><ele>443.0</ele><time>2026-03-28T14:06:08Z</time></trkpt><trkpt lat="44.05589952940764" lon="10.148254597910004"><ele>441.79999999999995</ele><time>2026-03-28T14:06:09Z</time></trkpt><trkpt lat="44.0559247902525" lon="10.148108620889495"><ele>440.59999999999997</ele><time>2026-03-28T14:06:10Z</time></trkpt><trkpt lat="44.05595227749271" lon="10.147969232708014"><ele>439.40000000000003</ele><time>2026-03-28T14:06:11Z</time></trkpt><trkpt lat="44.05597099569025" lon="10.147853981769693"><ele>438.20000000000005</ele><time>2026-03-28T14:06:12Z</time></trkpt><trkpt lat="44.055985539684656" lon="10.14773864987934"><ele>437.0</ele><time>2026-03-28T14:06:13Z</time></trkpt><trkpt lat="44.05601812785591" lon="10.14762390630668"><ele>436.99999999999994</ele><time>2026-03-28T14:06:14Z</time></trkpt><trkpt lat="44.05604905520155" lon="10.147514258261339"><ele>437.0</ele><time>2026-03-28T14:06:15Z</time></trkpt><trkpt lat="44.056076982239155" lon="10.147430133446793"><ele>437.0</ele><time>2026-03-28T14:06:16Z</time></trkpt><trkpt lat="44.05610918340896" lon="10.147347037588215"><ele>437.0</ele><time>2026-03-28T14:06:17Z</time></trkpt><trkpt lat="44.05615749499023" lon="10.147243463971936"><ele>436.99999999999994</ele><time>2026-03-28T14:06:18Z</time></trkpt><trkpt lat="44.056233908740104" lon="10.147218832041844"><ele>437.0</ele><time>2026-03-28T14:06:19Z</time></trkpt><trkpt lat="44.05633227379682" lon="10.147081123137243"><ele>437.25</ele><time>2026-03-28T14:06:21Z</time></trkpt><trkpt lat="44.056323100447884" lon="10.146919077135497"><ele>437.5</ele><time>2026-03-28T14:06:23Z</time></trkpt><trkpt lat="44.05628347641483" lon="10.146821352568319"><ele>437.75</ele><time>2026-03-28T14:06:24Z</time></trkpt><trkpt lat="44.056191776751746" lon="10.146670794520427"><ele>438.0</ele><time>2026-03-28T14:06:26Z</time></trkpt><trkpt lat="44.05609655379175" lon="10.146580458248456"><ele>441.0</ele><time>2026-03-28T14:06:27Z</time></trkpt><trkpt lat="44.05601239501292" lon="10.146539337098051"><ele>443.99999999999994</ele><time>2026-03-28T14:06:28Z</time></trkpt><trkpt lat="44.05591534337608" lon="10.146468684980416"><ele>446.99999999999994</ele><time>2026-03-28T14:06:30Z</time></trkpt><trkpt lat="44.055841223881195" lon="10.146468280107335"><ele>450.0</ele><time>2026-03-28T14:06:31Z</time></trkpt><trkpt lat="44.05577065659808" lon="10.146339029043821"><ele>453.0</ele><time>2026-03-28T14:06:33Z</time></trkpt><trkpt lat="44.05569475659032" lon="10.146206020580207"><ele>445.8333333333333</ele><time>2026-03-28T14:06:35Z</time></trkpt><trkpt lat="44.05565338119024" lon="10.14613413227795"><ele>438.66666666666663</ele><time>2026-03-28T14:06:36Z</time></trkpt><trkpt lat="44.05558048900688" lon="10.146013021573411"><ele>431.5</ele><time>2026-03-28T14:06:38Z</time></trkpt><trkpt lat="44.05549216613103" lon="10.145892667123338"><ele>424.3333333333333</ele><time>2026-03-28T14:06:40Z</time></trkpt><trkpt lat="44.05545489562268" lon="10.145811048559093"><ele>417.16666666666663</ele><time>2026-03-28T14:06:41Z</time></trkpt><trkpt lat="44.05541550276325" lon="10.14574011519029"><ele>410.0</ele><time>2026-03-28T14:06:42Z</time></trkpt><trkpt lat="44.05533085562796" lon="10.145610030367276"><ele>409.99999999999994</ele><time>2026-03-28T14:06:44Z</time></trkpt><trkpt lat="44.05526657921161" lon="10.145489604800428"><ele>410.0</ele><time>2026-03-28T14:06:46Z</time></trkpt><trkpt lat="44.05523547212777" lon="10.145365729533228"><ele>410.0</ele><time>2026-03-28T14:06:48Z</time></trkpt><trkpt lat="44.055221122921715" lon="10.145268639912372"><ele>410.0</ele><time>2026-03-28T14:06:49Z</time></trkpt><trkpt lat="44.05524732626381" lon="10.145129146436625"><ele>409.99999999999994</ele><time>2026-03-28T14:06:51Z</time></trkpt><trkpt lat="44.055278117972996" lon="10.145051478142005"><ele>410.0</ele><time>2026-03-28T14:06:51.995Z</time></trkpt><trkpt lat="44.05534440405038" lon="10.144933897841742"><ele>408.66666666666663</ele><time>2026-03-28T14:06:53.996Z</time></trkpt><trkpt lat="44.05535902229252" lon="10.144835039796526"><ele>407.3333333333333</ele><time>2026-03-28T14:06:54.996Z</time></trkpt><trkpt lat="44.055399545580585" lon="10.144739807548719"><ele>406.0</ele><time>2026-03-28T14:06:55.996Z</time></trkpt><trkpt lat="44.05544998837137" lon="10.14464414912474"><ele>404.66666666666663</ele><time>2026-03-28T14:06:56.996Z</time></trkpt><trkpt lat="44.05549865829707" lon="10.144578115219705"><ele>403.3333333333333</ele><time>2026-03-28T14:06:57.996Z</time></trkpt><trkpt lat="44.055540814927234" lon="10.144491284969117"><ele>402.0</ele><time>2026-03-28T14:06:58.996Z</time></trkpt><trkpt lat="44.05559233132419" lon="10.144382972688607"><ele>402.0</ele><time>2026-03-28T14:06:59.996Z</time></trkpt><trkpt lat="44.055609795419585" lon="10.144281637021514"><ele>402.0</ele><time>2026-03-28T14:07:00.996Z</time></trkpt><trkpt lat="44.05562791792879" lon="10.144175422121219"><ele>402.0</ele><time>2026-03-28T14:07:01.996Z</time></trkpt><trkpt lat="44.055626265250545" lon="10.144045488244785"><ele>402.0</ele><time>2026-03-28T14:07:02.996Z</time></trkpt><trkpt lat="44.05565127494601" lon="10.143928232213508"><ele>402.0</ele><time>2026-03-28T14:07:03.997Z</time></trkpt><trkpt lat="44.055700463394686" lon="10.1438168614789"><ele>402.0</ele><time>2026-03-28T14:07:04.997Z</time></trkpt><trkpt lat="44.05575703803437" lon="10.143672353160266"><ele>402.5</ele><time>2026-03-28T14:07:05.997Z</time></trkpt><trkpt lat="44.055825381323864" lon="10.14349262443375"><ele>403.0</ele><time>2026-03-28T14:07:06.997Z</time></trkpt><trkpt lat="44.05587417232394" lon="10.143326450985484"><ele>403.5</ele><time>2026-03-28T14:07:07.997Z</time></trkpt><trkpt lat="44.055924391488" lon="10.143179544870264"><ele>404.0</ele><time>2026-03-28T14:07:08.997Z</time></trkpt><trkpt lat="44.05598760382002" lon="10.143037941508371"><ele>404.0</ele><time>2026-03-28T14:07:09.997Z</time></trkpt><trkpt lat="44.056021273193075" lon="10.14290332029654"><ele>404.0</ele><time>2026-03-28T14:07:10.997Z</time></trkpt><trkpt lat="44.05607067182411" lon="10.142754155834888"><ele>404.0</ele><time>2026-03-28T14:07:11.997Z</time></trkpt><trkpt lat="44.05610739774546" lon="10.142600066594065"><ele>404.0</ele><time>2026-03-28T14:07:12.997Z</time></trkpt><trkpt lat="44.05616064942122" lon="10.142439275205248"><ele>399.5</ele><time>2026-03-28T14:07:13.998Z</time></trkpt><trkpt lat="44.056220686917285" lon="10.142270163716976"><ele>395.0</ele><time>2026-03-28T14:07:14.998Z</time></trkpt><trkpt lat="44.05627860403438" lon="10.142097135197472"><ele>390.5</ele><time>2026-03-28T14:07:15.998Z</time></trkpt><trkpt lat="44.05633096036775" lon="10.141926123305856"><ele>386.0</ele><time>2026-03-28T14:07:16.998Z</time></trkpt><trkpt lat="44.056377532293666" lon="10.141764260436647"><ele>386.0</ele><time>2026-03-28T14:07:17.998Z</time></trkpt><trkpt lat="44.05643443298527" lon="10.141616435525178"><ele>386.0</ele><time>2026-03-28T14:07:18.998Z</time></trkpt><trkpt lat="44.05652107327397" lon="10.141480844247937"><ele>386.0</ele><time>2026-03-28T14:07:19.998Z</time></trkpt><trkpt lat="44.056609252563824" lon="10.141330665768148"><ele>386.0</ele><time>2026-03-28T14:07:20.998Z</time></trkpt><trkpt lat="44.056705580148524" lon="10.141183811516846"><ele>389.25</ele><time>2026-03-28T14:07:21.998Z</time></trkpt><trkpt lat="44.05681086068931" lon="10.141077140750362"><ele>392.5</ele><time>2026-03-28T14:07:22.998Z</time></trkpt><trkpt lat="44.05691558343764" lon="10.140944264286393"><ele>395.75</ele><time>2026-03-28T14:07:23.998Z</time></trkpt><trkpt lat="44.05701730695621" lon="10.140815212212168"><ele>399.0</ele><time>2026-03-28T14:07:24.998Z</time></trkpt><trkpt lat="44.05712290413263" lon="10.140684403790358"><ele>398.75</ele><time>2026-03-28T14:07:25.998Z</time></trkpt><trkpt lat="44.05724133575831" lon="10.140558954855752"><ele>398.5</ele><time>2026-03-28T14:07:26.998Z</time></trkpt><trkpt lat="44.057358358727335" lon="10.140438818630884"><ele>398.25</ele><time>2026-03-28T14:07:27.998Z</time></trkpt><trkpt lat="44.05742091168379" lon="10.140313064669835"><ele>398.0</ele><time>2026-03-28T14:07:28.998Z</time></trkpt><trkpt lat="44.057500017006" lon="10.140267313609753"><ele>398.0</ele><time>2026-03-28T14:07:29.998Z</time></trkpt><trkpt lat="44.05758123420135" lon="10.140287217714171"><ele>398.0</ele><time>2026-03-28T14:07:30.998Z</time></trkpt><trkpt lat="44.057665767618666" lon="10.140220218157632"><ele>398.0</ele><time>2026-03-28T14:07:32.999Z</time></trkpt><trkpt lat="44.05768151098762" lon="10.140121294265985"><ele>398.0</ele><time>2026-03-28T14:07:33.999Z</time></trkpt><trkpt lat="44.05757212549465" lon="10.139971580618507"><ele>398.0</ele><time>2026-03-28T14:07:34.999Z</time></trkpt><trkpt lat="44.05750850790292" lon="10.139885372998487"><ele>391.25</ele><time>2026-03-28T14:07:35.999Z</time></trkpt><trkpt lat="44.05739230665638" lon="10.139810592200593"><ele>384.5</ele><time>2026-03-28T14:07:37.999Z</time></trkpt><trkpt lat="44.05730313667115" lon="10.139880835009844"><ele>377.75</ele><time>2026-03-28T14:07:38.999Z</time></trkpt><trkpt lat="44.057221447340396" lon="10.140008177436899"><ele>371.0</ele><time>2026-03-28T14:07:39.999Z</time></trkpt><trkpt lat="44.05713128632975" lon="10.140071464501501"><ele>371.0</ele><time>2026-03-28T14:07:40.999Z</time></trkpt><trkpt lat="44.05702538570766" lon="10.14013025315817"><ele>371.0</ele><time>2026-03-28T14:07:41.999Z</time></trkpt><trkpt lat="44.05689871685763" lon="10.140190460124611"><ele>371.0</ele><time>2026-03-28T14:07:42.999Z</time></trkpt><trkpt lat="44.056787743338134" lon="10.140279801432373"><ele>371.0</ele><time>2026-03-28T14:07:43.999Z</time></trkpt><trkpt lat="44.05669264363567" lon="10.140388157677743"><ele>369.5</ele><time>2026-03-28T14:07:44.999Z</time></trkpt><trkpt lat="44.056619055536395" lon="10.14053970365598"><ele>368.0</ele><time>2026-03-28T14:07:45.999Z</time></trkpt><trkpt lat="44.0565653349119" lon="10.140696342415513"><ele>366.5</ele><time>2026-03-28T14:07:46.999Z</time></trkpt><trkpt lat="44.0564804232002" lon="10.140807024300097"><ele>365.0</ele><time>2026-03-28T14:07:47.999Z</time></trkpt><trkpt lat="44.05638362511585" lon="10.140880741188417"><ele>365.0</ele><time>2026-03-28T14:07:48.999Z</time></trkpt><trkpt lat="44.056264368716974" lon="10.140954463058987"><ele>365.0</ele><time>2026-03-28T14:07:49.999Z</time></trkpt><trkpt lat="44.05618450694018" lon="10.1409985157158"><ele>365.0</ele><time>2026-03-28T14:07:50.999Z</time></trkpt><trkpt lat="44.05606151670159" lon="10.140996027779865"><ele>365.0</ele><time>2026-03-28T14:07:52.999Z</time></trkpt><trkpt lat="44.05609342655584" lon="10.14086716681442"><ele>365.0</ele><time>2026-03-28T14:07:54.999Z</time></trkpt><trkpt lat="44.056222002205466" lon="10.140811372844594"><ele>365.0</ele><time>2026-03-28T14:07:56.999Z</time></trkpt><trkpt lat="44.05630261303117" lon="10.14073923504492"><ele>365.0</ele><time>2026-03-28T14:07:57.999Z</time></trkpt><trkpt lat="44.05638080953207" lon="10.140664653168251"><ele>365.0</ele><time>2026-03-28T14:07:58.999Z</time></trkpt><trkpt lat="44.05645859267024" lon="10.140586893209242"><ele>365.0</ele><time>2026-03-28T14:07:59.999Z</time></trkpt><trkpt lat="44.056485739230325" lon="10.140425181992496"><ele>365.0</ele><time>2026-03-28T14:08:00.999Z</time></trkpt><trkpt lat="44.0565189254883" lon="10.140264808052029"><ele>366.0</ele><time>2026-03-28T14:08:01.999Z</time></trkpt><trkpt lat="44.0565557705346" lon="10.140154966796265"><ele>367.0</ele><time>2026-03-28T14:08:02.999Z</time></trkpt><trkpt lat="44.056620882365756" lon="10.140062477295"><ele>368.0</ele><time>2026-03-28T14:08:03.999Z</time></trkpt><trkpt lat="44.05669898550173" lon="10.140017755732366"><ele>369.0</ele><time>2026-03-28T14:08:04.999Z</time></trkpt><trkpt lat="44.056756368145756" lon="10.13995106838887"><ele>370.0</ele><time>2026-03-28T14:08:05.999Z</time></trkpt><trkpt lat="44.0567928725365" lon="10.139877729637357"><ele>371.0</ele><time>2026-03-28T14:08:07.999Z</time></trkpt><trkpt lat="44.05674290559984" lon="10.139984437567362"><ele>371.0</ele><time>2026-03-28T14:08:08.999Z</time></trkpt><trkpt lat="44.05667577390986" lon="10.140048156285964"><ele>371.0</ele><time>2026-03-28T14:08:09.999Z</time></trkpt><trkpt lat="44.05658814511322" lon="10.140138229000677"><ele>371.0</ele><time>2026-03-28T14:08:10.999Z</time></trkpt><trkpt lat="44.05655523252781" lon="10.140237144973305"><ele>371.0</ele><time>2026-03-28T14:08:11.999Z</time></trkpt><trkpt lat="44.05652288542238" lon="10.140337982339856"><ele>371.0</ele><time>2026-03-28T14:08:12.999Z</time></trkpt><trkpt lat="44.05648429858314" lon="10.140475221779472"><ele>369.5</ele><time>2026-03-28T14:08:13.999Z</time></trkpt><trkpt lat="44.05641000568616" lon="10.140643511715256"><ele>368.0</ele><time>2026-03-28T14:08:14.999Z</time></trkpt><trkpt lat="44.05626935815466" lon="10.140775710476053"><ele>366.5</ele><time>2026-03-28T14:08:15.999Z</time></trkpt><trkpt lat="44.05613885159915" lon="10.140807345085982"><ele>365.0</ele><time>2026-03-28T14:08:16.999Z</time></trkpt><trkpt lat="44.05603971498425" lon="10.140855129442732"><ele>365.0</ele><time>2026-03-28T14:08:17.999Z</time></trkpt><trkpt lat="44.05594112644149" lon="10.14096390526259"><ele>365.0</ele><time>2026-03-28T14:08:20Z</time></trkpt><trkpt lat="44.05592238033889" lon="10.141071411238267"><ele>365.0</ele><time>2026-03-28T14:08:21Z</time></trkpt><trkpt lat="44.055684914978855" lon="10.140973033977403"><ele>359.75</ele><time>2026-03-28T14:08:22Z</time></trkpt><trkpt lat="44.05563559804206" lon="10.141115224997002"><ele>354.5</ele><time>2026-03-28T14:08:23Z</time></trkpt><trkpt lat="44.05559038797433" lon="10.141273582272094"><ele>349.25</ele><time>2026-03-28T14:08:24Z</time></trkpt><trkpt lat="44.055554357904164" lon="10.141433426449522"><ele>344.0</ele><time>2026-03-28T14:08:25Z</time></trkpt><trkpt lat="44.05551429624753" lon="10.141569572988773"><ele>344.0</ele><time>2026-03-28T14:08:26Z</time></trkpt><trkpt lat="44.0554918391466" lon="10.14169745187384"><ele>344.0</ele><time>2026-03-28T14:08:27Z</time></trkpt><trkpt lat="44.05544884542618" lon="10.141812192043119"><ele>344.0</ele><time>2026-03-28T14:08:28Z</time></trkpt><trkpt lat="44.05537369096302" lon="10.141894456585977"><ele>344.0</ele><time>2026-03-28T14:08:29Z</time></trkpt><trkpt lat="44.055292610295055" lon="10.141992164220763"><ele>344.0</ele><time>2026-03-28T14:08:30Z</time></trkpt><trkpt lat="44.05520095973534" lon="10.142099768395944"><ele>344.0</ele><time>2026-03-28T14:08:31Z</time></trkpt><trkpt lat="44.05513017070151" lon="10.142174190583447"><ele>344.0</ele><time>2026-03-28T14:08:32Z</time></trkpt><trkpt lat="44.05507439908414" lon="10.14222031136414"><ele>344.0</ele><time>2026-03-28T14:08:33Z</time></trkpt><trkpt lat="44.05499242838879" lon="10.142273617673357"><ele>344.0</ele><time>2026-03-28T14:08:35Z</time></trkpt><trkpt lat="44.05490801002097" lon="10.142278227841652"><ele>344.0</ele><time>2026-03-28T14:08:36Z</time></trkpt><trkpt lat="44.05481541660544" lon="10.142269216083388"><ele>344.0</ele><time>2026-03-28T14:08:37Z</time></trkpt><trkpt lat="44.05472079655193" lon="10.142265489452878"><ele>343.1666666666667</ele><time>2026-03-28T14:08:38Z</time></trkpt><trkpt lat="44.054626241551695" lon="10.142275343930566"><ele>342.33333333333337</ele><time>2026-03-28T14:08:39Z</time></trkpt><trkpt lat="44.05454412238403" lon="10.142293696110737"><ele>341.5</ele><time>2026-03-28T14:08:40Z</time></trkpt><trkpt lat="44.05446098658176" lon="10.142319901179984"><ele>340.6666666666667</ele><time>2026-03-28T14:08:41Z</time></trkpt><trkpt lat="44.05438233000486" lon="10.142364310663362"><ele>339.8333333333333</ele><time>2026-03-28T14:08:42Z</time></trkpt><trkpt lat="44.05430025263726" lon="10.142445027187804"><ele>339.0</ele><time>2026-03-28T14:08:43Z</time></trkpt><trkpt lat="44.0542288782345" lon="10.142539117111175"><ele>339.0</ele><time>2026-03-28T14:08:44Z</time></trkpt><trkpt lat="44.05416505211197" lon="10.14265481166821"><ele>339.0</ele><time>2026-03-28T14:08:45Z</time></trkpt><trkpt lat="44.05413969182223" lon="10.142817461849337"><ele>339.0</ele><time>2026-03-28T14:08:46Z</time></trkpt><trkpt lat="44.05411060256078" lon="10.142940918247815"><ele>339.0</ele><time>2026-03-28T14:08:47Z</time></trkpt><trkpt lat="44.05406535560895" lon="10.14311172812142"><ele>339.0</ele><time>2026-03-28T14:08:48Z</time></trkpt><trkpt lat="44.05402984832595" lon="10.143251916304203"><ele>329.5</ele><time>2026-03-28T14:08:49Z</time></trkpt><trkpt lat="44.05401472468532" lon="10.143393089396527"><ele>320.0</ele><time>2026-03-28T14:08:50Z</time></trkpt><trkpt lat="44.05404258921554" lon="10.14356251212219"><ele>310.5</ele><time>2026-03-28T14:08:51Z</time></trkpt><trkpt lat="44.05404985122967" lon="10.14371899910974"><ele>301.0</ele><time>2026-03-28T14:08:52Z</time></trkpt><trkpt lat="44.05404057555419" lon="10.143882912946852"><ele>301.0</ele><time>2026-03-28T14:08:53Z</time></trkpt><trkpt lat="44.05401771542354" lon="10.144041203159711"><ele>301.0</ele><time>2026-03-28T14:08:54Z</time></trkpt><trkpt lat="44.053985875884294" lon="10.144211353244781"><ele>301.0</ele><time>2026-03-28T14:08:55Z</time></trkpt><trkpt lat="44.05397894886192" lon="10.144372175503257"><ele>301.0</ele><time>2026-03-28T14:08:56Z</time></trkpt><trkpt lat="44.05399067945805" lon="10.144543718044943"><ele>302.0</ele><time>2026-03-28T14:08:57Z</time></trkpt><trkpt lat="44.053995532580544" lon="10.144728243661277"><ele>303.0</ele><time>2026-03-28T14:08:57.999Z</time></trkpt><trkpt lat="44.05400649084971" lon="10.144924707640683"><ele>304.0</ele><time>2026-03-28T14:08:58.999Z</time></trkpt><trkpt lat="44.054017940376745" lon="10.145111447852022"><ele>305.0</ele><time>2026-03-28T14:08:59.999Z</time></trkpt><trkpt lat="44.05402252970169" lon="10.145299216187622"><ele>306.0</ele><time>2026-03-28T14:09:00.999Z</time></trkpt><trkpt lat="44.05403234264308" lon="10.145493836002807"><ele>307.0</ele><time>2026-03-28T14:09:01.999Z</time></trkpt><trkpt lat="44.05404285857853" lon="10.145690266890206"><ele>308.0</ele><time>2026-03-28T14:09:02.999Z</time></trkpt><trkpt lat="44.05406765281729" lon="10.145870695101566"><ele>309.0</ele><time>2026-03-28T14:09:03.999Z</time></trkpt><trkpt lat="44.054070142827165" lon="10.146054481844342"><ele>311.6</ele><time>2026-03-28T14:09:04.999Z</time></trkpt><trkpt lat="44.05402683462745" lon="10.146214080635003"><ele>314.2</ele><time>2026-03-28T14:09:05.999Z</time></trkpt><trkpt lat="44.05394441568896" lon="10.146313602481426"><ele>316.8</ele><time>2026-03-28T14:09:06.999Z</time></trkpt><trkpt lat="44.05385001510074" lon="10.146359202187462"><ele>319.40000000000003</ele><time>2026-03-28T14:09:07.999Z</time></trkpt><trkpt lat="44.05375015832284" lon="10.14634998041016"><ele>322.0</ele><time>2026-03-28T14:09:08.999Z</time></trkpt><trkpt lat="44.05362126754307" lon="10.146337023813055"><ele>322.0</ele><time>2026-03-28T14:09:09.999Z</time></trkpt><trkpt lat="44.053477778085835" lon="10.14640370857928"><ele>322.0</ele><time>2026-03-28T14:09:10.999Z</time></trkpt><trkpt lat="44.05339161283405" lon="10.14620010095303"><ele>322.0</ele><time>2026-03-28T14:09:11.999Z</time></trkpt><trkpt lat="44.053314211058385" lon="10.146048966520974"><ele>324.75</ele><time>2026-03-28T14:09:12.999Z</time></trkpt><trkpt lat="44.05321636938562" lon="10.145972786510736"><ele>327.5</ele><time>2026-03-28T14:09:14Z</time></trkpt><trkpt lat="44.05308842072697" lon="10.145925003306552"><ele>330.25</ele><time>2026-03-28T14:09:15Z</time></trkpt><trkpt lat="44.05294723552669" lon="10.14588818877909"><ele>333.0</ele><time>2026-03-28T14:09:16Z</time></trkpt><trkpt lat="44.05277682501577" lon="10.145893354434534"><ele>333.0</ele><time>2026-03-28T14:09:17Z</time></trkpt><trkpt lat="44.052628169420295" lon="10.145868622342169"><ele>333.0</ele><time>2026-03-28T14:09:18Z</time></trkpt><trkpt lat="44.05249927136041" lon="10.145839052235155"><ele>333.0</ele><time>2026-03-28T14:09:19Z</time></trkpt><trkpt lat="44.052387334867966" lon="10.145686889598728"><ele>333.0</ele><time>2026-03-28T14:09:20Z</time></trkpt><trkpt lat="44.052280259037936" lon="10.145505609304564"><ele>326.6666666666667</ele><time>2026-03-28T14:09:21Z</time></trkpt><trkpt lat="44.05216223808278" lon="10.145300395434354"><ele>320.33333333333337</ele><time>2026-03-28T14:09:22Z</time></trkpt><trkpt lat="44.05208584761636" lon="10.145157039893856"><ele>314.0</ele><time>2026-03-28T14:09:23Z</time></trkpt><trkpt lat="44.05199849619018" lon="10.145004901892133"><ele>314.0</ele><time>2026-03-28T14:09:24Z</time></trkpt><trkpt lat="44.05192750030323" lon="10.144891559833981"><ele>314.0</ele><time>2026-03-28T14:09:25Z</time></trkpt><trkpt lat="44.05185130047273" lon="10.14478920083911"><ele>314.0</ele><time>2026-03-28T14:09:26Z</time></trkpt><trkpt lat="44.051763187648895" lon="10.14471025977976"><ele>314.0</ele><time>2026-03-28T14:09:27Z</time></trkpt><trkpt lat="44.05166082551923" lon="10.144696749943746"><ele>314.0</ele><time>2026-03-28T14:09:28Z</time></trkpt><trkpt lat="44.05153354233315" lon="10.144658547889026"><ele>309.33333333333337</ele><time>2026-03-28T14:09:29Z</time></trkpt><trkpt lat="44.051398729501244" lon="10.144621311139952"><ele>304.6666666666667</ele><time>2026-03-28T14:09:30Z</time></trkpt><trkpt lat="44.05125137122925" lon="10.144566738356518"><ele>300.0</ele><time>2026-03-28T14:09:31Z</time></trkpt><trkpt lat="44.051093991265" lon="10.144527604934815"><ele>300.0</ele><time>2026-03-28T14:09:32Z</time></trkpt><trkpt lat="44.050948242175686" lon="10.144450701921949"><ele>300.0</ele><time>2026-03-28T14:09:33Z</time></trkpt><trkpt lat="44.05083553848461" lon="10.144325566667062"><ele>300.0</ele><time>2026-03-28T14:09:34Z</time></trkpt><trkpt lat="44.0507476206306" lon="10.14417383066825"><ele>300.0</ele><time>2026-03-28T14:09:35Z</time></trkpt><trkpt lat="44.05068455118654" lon="10.144012000147777"><ele>293.75</ele><time>2026-03-28T14:09:36Z</time></trkpt><trkpt lat="44.050655757627176" lon="10.143838834147749"><ele>287.5</ele><time>2026-03-28T14:09:37Z</time></trkpt><trkpt lat="44.05064105246964" lon="10.143654951204262"><ele>281.25</ele><time>2026-03-28T14:09:38Z</time></trkpt><trkpt lat="44.05061895807156" lon="10.14350419761258"><ele>275.0</ele><time>2026-03-28T14:09:39Z</time></trkpt><trkpt lat="44.050579153003085" lon="10.143400695118562"><ele>275.0</ele><time>2026-03-28T14:09:40Z</time></trkpt><trkpt lat="44.0504976554844" lon="10.143368156399912"><ele>275.0</ele><time>2026-03-28T14:09:41Z</time></trkpt><trkpt lat="44.050394541795086" lon="10.143366647736135"><ele>275.0</ele><time>2026-03-28T14:09:42Z</time></trkpt><trkpt lat="44.05027222409479" lon="10.14342788901522"><ele>275.0</ele><time>2026-03-28T14:09:43Z</time></trkpt><trkpt lat="44.050191267365776" lon="10.143549263276881"><ele>275.0</ele><time>2026-03-28T14:09:44Z</time></trkpt><trkpt lat="44.05008310827828" lon="10.143685800164226"><ele>275.0</ele><time>2026-03-28T14:09:45Z</time></trkpt><trkpt lat="44.04997472315499" lon="10.143817692875231"><ele>275.0</ele><time>2026-03-28T14:09:46Z</time></trkpt><trkpt lat="44.049872215807106" lon="10.143936036974933"><ele>275.0</ele><time>2026-03-28T14:09:47Z</time></trkpt><trkpt lat="44.04974557116914" lon="10.144029240078291"><ele>275.0</ele><time>2026-03-28T14:09:48Z</time></trkpt><trkpt lat="44.04964157421143" lon="10.144139040399295"><ele>272.25</ele><time>2026-03-28T14:09:49Z</time></trkpt><trkpt lat="44.04952410774524" lon="10.144258473240937"><ele>269.5</ele><time>2026-03-28T14:09:50Z</time></trkpt><trkpt lat="44.04941709555566" lon="10.144370803145344"><ele>266.75</ele><time>2026-03-28T14:09:51Z</time></trkpt><trkpt lat="44.0493384330841" lon="10.144486119378954"><ele>264.0</ele><time>2026-03-28T14:09:52Z</time></trkpt><trkpt lat="44.04928310485349" lon="10.144632891951376"><ele>264.0</ele><time>2026-03-28T14:09:53.001Z</time></trkpt><trkpt lat="44.04923150679584" lon="10.144791064374566"><ele>264.0</ele><time>2026-03-28T14:09:54.001Z</time></trkpt><trkpt lat="44.049225288638716" lon="10.144956648634684"><ele>264.0</ele><time>2026-03-28T14:09:55.001Z</time></trkpt><trkpt lat="44.04920287181365" lon="10.145103291466887"><ele>264.0</ele><time>2026-03-28T14:09:56.001Z</time></trkpt><trkpt lat="44.049143874585184" lon="10.1452650261449"><ele>257.5</ele><time>2026-03-28T14:09:57.001Z</time></trkpt><trkpt lat="44.04903838317215" lon="10.145377056388506"><ele>251.0</ele><time>2026-03-28T14:09:58.001Z</time></trkpt><trkpt lat="44.04893404516915" lon="10.145516378549118"><ele>244.5</ele><time>2026-03-28T14:09:59.001Z</time></trkpt><trkpt lat="44.04885237401399" lon="10.145630320537359"><ele>238.0</ele><time>2026-03-28T14:10:00.001Z</time></trkpt><trkpt lat="44.048784192826155" lon="10.145735749677561"><ele>238.0</ele><time>2026-03-28T14:10:01.001Z</time></trkpt><trkpt lat="44.048751439523095" lon="10.145875915860806"><ele>238.0</ele><time>2026-03-28T14:10:02.001Z</time></trkpt><trkpt lat="44.04876881810042" lon="10.146017218201033"><ele>238.0</ele><time>2026-03-28T14:10:03.001Z</time></trkpt><trkpt lat="44.0488267796797" lon="10.146150921077913"><ele>238.0</ele><time>2026-03-28T14:10:04.001Z</time></trkpt><trkpt lat="44.048886683638" lon="10.14627965891162"><ele>238.0</ele><time>2026-03-28T14:10:05.001Z</time></trkpt><trkpt lat="44.04890695625191" lon="10.14641048852063"><ele>238.0</ele><time>2026-03-28T14:10:06.001Z</time></trkpt><trkpt lat="44.048883937968085" lon="10.14656731538087"><ele>238.0</ele><time>2026-03-28T14:10:07.001Z</time></trkpt><trkpt lat="44.04886701662287" lon="10.14670771689468"><ele>238.0</ele><time>2026-03-28T14:10:08.001Z</time></trkpt><trkpt lat="44.04885213512889" lon="10.146863199588585"><ele>238.0</ele><time>2026-03-28T14:10:09.001Z</time></trkpt><trkpt lat="44.04883441767147" lon="10.14702360778468"><ele>238.0</ele><time>2026-03-28T14:10:10.001Z</time></trkpt><trkpt lat="44.048820062293586" lon="10.147170067469109"><ele>238.0</ele><time>2026-03-28T14:10:11.001Z</time></trkpt><trkpt lat="44.048863344847504" lon="10.14733475900015"><ele>238.0</ele><time>2026-03-28T14:10:12.001Z</time></trkpt><trkpt lat="44.0489207128041" lon="10.147475930735242"><ele>238.0</ele><time>2026-03-28T14:10:13.001Z</time></trkpt><trkpt lat="44.04898189315394" lon="10.14757815845675"><ele>238.0</ele><time>2026-03-28T14:10:14.001Z</time></trkpt><trkpt lat="44.04902595319911" lon="10.147677896663135"><ele>238.0</ele><time>2026-03-28T14:10:15.001Z</time></trkpt><trkpt lat="44.0489858828008" lon="10.14776454344247"><ele>238.0</ele><time>2026-03-28T14:10:16.001Z</time></trkpt><trkpt lat="44.048906052506126" lon="10.14779148351681"><ele>238.0</ele><time>2026-03-28T14:10:17.001Z</time></trkpt><trkpt lat="44.048828420719694" lon="10.14766729438525"><ele>238.0</ele><time>2026-03-28T14:10:18.001Z</time></trkpt><trkpt lat="44.048834519369805" lon="10.147531580056695"><ele>238.0</ele><time>2026-03-28T14:10:19.001Z</time></trkpt><trkpt lat="44.048818370182126" lon="10.147358611482042"><ele>238.0</ele><time>2026-03-28T14:10:20.001Z</time></trkpt><trkpt lat="44.04878509692064" lon="10.147173525814534"><ele>238.0</ele><time>2026-03-28T14:10:21.001Z</time></trkpt><trkpt lat="44.0487423658396" lon="10.147019712044559"><ele>238.0</ele><time>2026-03-28T14:10:22.001Z</time></trkpt><trkpt lat="44.04872743661084" lon="10.146858732299332"><ele>238.0</ele><time>2026-03-28T14:10:23.001Z</time></trkpt><trkpt lat="44.0487150758774" lon="10.14667865131911"><ele>238.0</ele><time>2026-03-28T14:10:24.001Z</time></trkpt><trkpt lat="44.0487140286984" lon="10.146497764895711"><ele>238.0</ele><time>2026-03-28T14:10:25.001Z</time></trkpt><trkpt lat="44.04872846043691" lon="10.146332202666466"><ele>238.0</ele><time>2026-03-28T14:10:26.001Z</time></trkpt><trkpt lat="44.04872596279907" lon="10.146176537016183"><ele>238.0</ele><time>2026-03-28T14:10:27.001Z</time></trkpt><trkpt lat="44.04865516487112" lon="10.146036039197963"><ele>238.0</ele><time>2026-03-28T14:10:28.001Z</time></trkpt><trkpt lat="44.04860681399016" lon="10.14589492648361"><ele>238.0</ele><time>2026-03-28T14:10:29.001Z</time></trkpt><trkpt lat="44.04854375627834" lon="10.145747516881672"><ele>238.0</ele><time>2026-03-28T14:10:30.001Z</time></trkpt><trkpt lat="44.04851989328679" lon="10.145599094406176"><ele>238.0</ele><time>2026-03-28T14:10:31.001Z</time></trkpt><trkpt lat="44.04853195044795" lon="10.145429881249665"><ele>238.0</ele><time>2026-03-28T14:10:32.001Z</time></trkpt><trkpt lat="44.04859476807893" lon="10.14525143569338"><ele>235.25</ele><time>2026-03-28T14:10:33.001Z</time></trkpt><trkpt lat="44.04870209040057" lon="10.145138445244713"><ele>232.5</ele><time>2026-03-28T14:10:34.001Z</time></trkpt><trkpt lat="44.048770995279725" lon="10.144977701432648"><ele>229.75</ele><time>2026-03-28T14:10:35.001Z</time></trkpt><trkpt lat="44.04880017563215" lon="10.144803305497494"><ele>227.0</ele><time>2026-03-28T14:10:36.001Z</time></trkpt><trkpt lat="44.048830123711234" lon="10.144635580046943"><ele>225.5</ele><time>2026-03-28T14:10:37.001Z</time></trkpt><trkpt lat="44.048846182970806" lon="10.144469079778084"><ele>224.0</ele><time>2026-03-28T14:10:38.001Z</time></trkpt><trkpt lat="44.04880851051539" lon="10.144283466228002"><ele>222.5</ele><time>2026-03-28T14:10:39.001Z</time></trkpt><trkpt lat="44.048752599914195" lon="10.144133835185599"><ele>221.0</ele><time>2026-03-28T14:10:40.001Z</time></trkpt><trkpt lat="44.04873671231849" lon="10.14397733580737"><ele>216.25</ele><time>2026-03-28T14:10:41.001Z</time></trkpt><trkpt lat="44.04871009264372" lon="10.143823797454623"><ele>211.5</ele><time>2026-03-28T14:10:42.001Z</time></trkpt><trkpt lat="44.04867015846334" lon="10.14373664875974"><ele>206.75</ele><time>2026-03-28T14:10:43.001Z</time></trkpt><trkpt lat="44.04884777342438" lon="10.14355478012109"><ele>202.0</ele><time>2026-03-28T14:10:45.001Z</time></trkpt><trkpt lat="44.04894363876706" lon="10.143494153895658"><ele>202.0</ele><time>2026-03-28T14:10:46.001Z</time></trkpt><trkpt lat="44.04902253182633" lon="10.143436108992464"><ele>202.0</ele><time>2026-03-28T14:10:47.001Z</time></trkpt><trkpt lat="44.04904623369884" lon="10.143213948427732"><ele>202.0</ele><time>2026-03-28T14:10:48.002Z</time></trkpt><trkpt lat="44.04921149426942" lon="10.143192783786981"><ele>202.0</ele><time>2026-03-28T14:10:49.002Z</time></trkpt><trkpt lat="44.049323506897046" lon="10.143115710425237"><ele>201.66666666666666</ele><time>2026-03-28T14:10:50.002Z</time></trkpt><trkpt lat="44.04942867870218" lon="10.14295332440328"><ele>201.33333333333331</ele><time>2026-03-28T14:10:51.002Z</time></trkpt><trkpt lat="44.04950198543971" lon="10.142779428450774"><ele>201.0</ele><time>2026-03-28T14:10:52.002Z</time></trkpt><trkpt lat="44.04961794912301" lon="10.142614479158688"><ele>201.0</ele><time>2026-03-28T14:10:53.002Z</time></trkpt><trkpt lat="44.04972117706824" lon="10.14244709047451"><ele>201.0</ele><time>2026-03-28T14:10:54.002Z</time></trkpt><trkpt lat="44.04979855507653" lon="10.142290241276326"><ele>201.0</ele><time>2026-03-28T14:10:55.002Z</time></trkpt><trkpt lat="44.04988487436909" lon="10.142161769087927"><ele>201.0</ele><time>2026-03-28T14:10:56.002Z</time></trkpt><trkpt lat="44.04998817037813" lon="10.142079756835987"><ele>200.5</ele><time>2026-03-28T14:10:57.002Z</time></trkpt><trkpt lat="44.05011555197066" lon="10.14204521319947"><ele>200.0</ele><time>2026-03-28T14:10:58.002Z</time></trkpt><trkpt lat="44.05020700215103" lon="10.141934978536066"><ele>199.5</ele><time>2026-03-28T14:10:59.002Z</time></trkpt><trkpt lat="44.050315781335385" lon="10.14189759099439"><ele>199.0</ele><time>2026-03-28T14:11:00.002Z</time></trkpt><trkpt lat="44.050500516399225" lon="10.14192757141951"><ele>199.0</ele><time>2026-03-28T14:11:01.002Z</time></trkpt><trkpt lat="44.05065375358062" lon="10.141962265844851"><ele>199.0</ele><time>2026-03-28T14:11:02.002Z</time></trkpt><trkpt lat="44.05079313323457" lon="10.142039515005923"><ele>199.0</ele><time>2026-03-28T14:11:03.002Z</time></trkpt><trkpt lat="44.050926373385614" lon="10.142092712736288"><ele>199.0</ele><time>2026-03-28T14:11:04.001Z</time></trkpt><trkpt lat="44.05104239563085" lon="10.142216165904133"><ele>197.5</ele><time>2026-03-28T14:11:05.001Z</time></trkpt><trkpt lat="44.051166276922736" lon="10.142293809892974"><ele>196.0</ele><time>2026-03-28T14:11:06.001Z</time></trkpt><trkpt lat="44.05125341658993" lon="10.142415135755304"><ele>194.5</ele><time>2026-03-28T14:11:07.001Z</time></trkpt><trkpt lat="44.051323279043146" lon="10.142521526523145"><ele>193.0</ele><time>2026-03-28T14:11:08.001Z</time></trkpt><trkpt lat="44.05143044656925" lon="10.142548262419181"><ele>193.0</ele><time>2026-03-28T14:11:09.001Z</time></trkpt><trkpt lat="44.05153673557895" lon="10.142521096991658"><ele>193.0</ele><time>2026-03-28T14:11:10.001Z</time></trkpt><trkpt lat="44.05165507338051" lon="10.142380312414934"><ele>193.0</ele><time>2026-03-28T14:11:12.001Z</time></trkpt><trkpt lat="44.051561063352636" lon="10.142202972398406"><ele>193.0</ele><time>2026-03-28T14:11:13.001Z</time></trkpt><trkpt lat="44.051467778384996" lon="10.142132198972869"><ele>193.0</ele><time>2026-03-28T14:11:14.001Z</time></trkpt><trkpt lat="44.051355150003324" lon="10.142119773517148"><ele>193.0</ele><time>2026-03-28T14:11:15.001Z</time></trkpt><trkpt lat="44.05122841880369" lon="10.142066426707764"><ele>193.0</ele><time>2026-03-28T14:11:16.001Z</time></trkpt><trkpt lat="44.051073963092094" lon="10.142013566753985"><ele>193.0</ele><time>2026-03-28T14:11:17.001Z</time></trkpt><trkpt lat="44.0509381361798" lon="10.141923097127394"><ele>193.0</ele><time>2026-03-28T14:11:18.001Z</time></trkpt><trkpt lat="44.050793368578105" lon="10.141812356919779"><ele>193.0</ele><time>2026-03-28T14:11:19.001Z</time></trkpt><trkpt lat="44.05065722200434" lon="10.141740840787476"><ele>193.0</ele><time>2026-03-28T14:11:20.001Z</time></trkpt><trkpt lat="44.05053250779694" lon="10.14166774382066"><ele>193.0</ele><time>2026-03-28T14:11:21.001Z</time></trkpt><trkpt lat="44.05041647709743" lon="10.141590964556583"><ele>194.5</ele><time>2026-03-28T14:11:22.001Z</time></trkpt><trkpt lat="44.050317372202194" lon="10.14157352100321"><ele>196.0</ele><time>2026-03-28T14:11:23.001Z</time></trkpt><trkpt lat="44.0501754242444" lon="10.141589451840197"><ele>197.5</ele><time>2026-03-28T14:11:24.001Z</time></trkpt><trkpt lat="44.05004612771705" lon="10.14156417122729"><ele>199.0</ele><time>2026-03-28T14:11:25.001Z</time></trkpt><trkpt lat="44.04992344966726" lon="10.141718193995585"><ele>191.75</ele><time>2026-03-28T14:11:26.001Z</time></trkpt><trkpt lat="44.04979583159884" lon="10.141780552449434"><ele>184.5</ele><time>2026-03-28T14:11:27.001Z</time></trkpt><trkpt lat="44.04967757716406" lon="10.141846848887184"><ele>177.25</ele><time>2026-03-28T14:11:28.001Z</time></trkpt><trkpt lat="44.049571453104356" lon="10.1419179215367"><ele>170.0</ele><time>2026-03-28T14:11:29.001Z</time></trkpt><trkpt lat="44.049461134394456" lon="10.142014428147652"><ele>170.0</ele><time>2026-03-28T14:11:30.001Z</time></trkpt><trkpt lat="44.04935182043053" lon="10.142132822494524"><ele>170.0</ele><time>2026-03-28T14:11:31.001Z</time></trkpt><trkpt lat="44.04924807382291" lon="10.142271618594458"><ele>170.0</ele><time>2026-03-28T14:11:32.001Z</time></trkpt><trkpt lat="44.04917463628808" lon="10.142436742879008"><ele>170.0</ele><time>2026-03-28T14:11:33.001Z</time></trkpt><trkpt lat="44.04909616162221" lon="10.142568996128665"><ele>171.0</ele><time>2026-03-28T14:11:34.001Z</time></trkpt><trkpt lat="44.04898021581988" lon="10.142617752481897"><ele>172.0</ele><time>2026-03-28T14:11:35.001Z</time></trkpt><trkpt lat="44.048838269205966" lon="10.14266430596185"><ele>173.0</ele><time>2026-03-28T14:11:36.001Z</time></trkpt><trkpt lat="44.048685921437055" lon="10.142704598353923"><ele>174.0</ele><time>2026-03-28T14:11:37.001Z</time></trkpt><trkpt lat="44.04856418013984" lon="10.142742164240467"><ele>174.0</ele><time>2026-03-28T14:11:38.001Z</time></trkpt><trkpt lat="44.048448998500156" lon="10.142783357283937"><ele>174.0</ele><time>2026-03-28T14:11:39.001Z</time></trkpt><trkpt lat="44.048379589238216" lon="10.142847199349955"><ele>174.0</ele><time>2026-03-28T14:11:40.001Z</time></trkpt><trkpt lat="44.04830155319591" lon="10.142964264365384"><ele>174.0</ele><time>2026-03-28T14:11:41.001Z</time></trkpt><trkpt lat="44.048197535084206" lon="10.14310368818426"><ele>174.25</ele><time>2026-03-28T14:11:42.001Z</time></trkpt><trkpt lat="44.04809658955456" lon="10.143235090393148"><ele>174.5</ele><time>2026-03-28T14:11:43.001Z</time></trkpt><trkpt lat="44.04796430801751" lon="10.143325680435074"><ele>174.75</ele><time>2026-03-28T14:11:44.001Z</time></trkpt><trkpt lat="44.04783614869218" lon="10.143444680586127"><ele>175.0</ele><time>2026-03-28T14:11:45.001Z</time></trkpt><trkpt lat="44.0477120201916" lon="10.143548565176403"><ele>175.0</ele><time>2026-03-28T14:11:46.001Z</time></trkpt><trkpt lat="44.04759347003578" lon="10.143649013464048"><ele>175.0</ele><time>2026-03-28T14:11:47.001Z</time></trkpt><trkpt lat="44.047501239846014" lon="10.143757030732512"><ele>175.0</ele><time>2026-03-28T14:11:48.001Z</time></trkpt><trkpt lat="44.047394920753604" lon="10.143815328850078"><ele>175.0</ele><time>2026-03-28T14:11:49.001Z</time></trkpt><trkpt lat="44.04728139174748" lon="10.143841396763294"><ele>167.6</ele><time>2026-03-28T14:11:50.001Z</time></trkpt><trkpt lat="44.047179691092296" lon="10.14384521378637"><ele>160.2</ele><time>2026-03-28T14:11:51.001Z</time></trkpt><trkpt lat="44.047137667859566" lon="10.14370877113901"><ele>152.8</ele><time>2026-03-28T14:11:52.001Z</time></trkpt><trkpt lat="44.04712236943873" lon="10.143618487208144"><ele>145.4</ele><time>2026-03-28T14:11:53.001Z</time></trkpt><trkpt lat="44.04710136025265" lon="10.14346032159496"><ele>138.0</ele><time>2026-03-28T14:11:54.001Z</time></trkpt><trkpt lat="44.04718343640094" lon="10.143316982368482"><ele>136.20000000000002</ele><time>2026-03-28T14:11:55.001Z</time></trkpt><trkpt lat="44.047229332243475" lon="10.143199419557773"><ele>134.4</ele><time>2026-03-28T14:11:56.001Z</time></trkpt><trkpt lat="44.047295096817706" lon="10.143094369230925"><ele>132.60000000000002</ele><time>2026-03-28T14:11:57.001Z</time></trkpt><trkpt lat="44.047364505737946" lon="10.14299659478399"><ele>130.8</ele><time>2026-03-28T14:11:58.001Z</time></trkpt><trkpt lat="44.04743836475376" lon="10.142904944541423"><ele>129.0</ele><time>2026-03-28T14:11:59.001Z</time></trkpt><trkpt lat="44.04750504006316" lon="10.142817856926623"><ele>133.66666666666666</ele><time>2026-03-28T14:12:00.001Z</time></trkpt><trkpt lat="44.047578330667406" lon="10.142752838535149"><ele>138.33333333333334</ele><time>2026-03-28T14:12:01.001Z</time></trkpt><trkpt lat="44.047648800209195" lon="10.142699394622706"><ele>143.0</ele><time>2026-03-28T14:12:02.001Z</time></trkpt><trkpt lat="44.04772797544785" lon="10.142665286516412"><ele>147.66666666666669</ele><time>2026-03-28T14:12:03.001Z</time></trkpt><trkpt lat="44.047808020991205" lon="10.14263159932354"><ele>152.33333333333334</ele><time>2026-03-28T14:12:04.001Z</time></trkpt><trkpt lat="44.04787676113862" lon="10.142597092189854"><ele>157.0</ele><time>2026-03-28T14:12:05.001Z</time></trkpt><trkpt lat="44.04794167215054" lon="10.142558756879577"><ele>157.0</ele><time>2026-03-28T14:12:06.001Z</time></trkpt><trkpt lat="44.04803069238824" lon="10.14246225532472"><ele>157.0</ele><time>2026-03-28T14:12:07.001Z</time></trkpt><trkpt lat="44.04810746142591" lon="10.142412388394273"><ele>157.0</ele><time>2026-03-28T14:12:08.001Z</time></trkpt><trkpt lat="44.048206587916155" lon="10.142340135482774"><ele>157.0</ele><time>2026-03-28T14:12:09.001Z</time></trkpt><trkpt lat="44.04832401829484" lon="10.142263917847291"><ele>157.0</ele><time>2026-03-28T14:12:10.001Z</time></trkpt><trkpt lat="44.04847164112883" lon="10.142175638463248"><ele>154.5</ele><time>2026-03-28T14:12:11.001Z</time></trkpt><trkpt lat="44.04859036722868" lon="10.142077546104137"><ele>152.0</ele><time>2026-03-28T14:12:12.001Z</time></trkpt><trkpt lat="44.04870666061592" lon="10.141978775537975"><ele>149.5</ele><time>2026-03-28T14:12:13.001Z</time></trkpt><trkpt lat="44.04877855321221" lon="10.141869100652105"><ele>147.0</ele><time>2026-03-28T14:12:14.001Z</time></trkpt><trkpt lat="44.04885117512175" lon="10.14177999422941"><ele>147.0</ele><time>2026-03-28T14:12:15.001Z</time></trkpt><trkpt lat="44.04891237646649" lon="10.14166024461945"><ele>147.0</ele><time>2026-03-28T14:12:17.001Z</time></trkpt><trkpt lat="44.04897265959638" lon="10.141600034681154"><ele>147.0</ele><time>2026-03-28T14:12:18.001Z</time></trkpt><trkpt lat="44.04901575220345" lon="10.141529757380194"><ele>147.0</ele><time>2026-03-28T14:12:19.001Z</time></trkpt><trkpt lat="44.0490618387465" lon="10.141393144074788"><ele>147.0</ele><time>2026-03-28T14:12:20.001Z</time></trkpt><trkpt lat="44.0491085048014" lon="10.14126128786682"><ele>147.2</ele><time>2026-03-28T14:12:21.001Z</time></trkpt><trkpt lat="44.049177531939485" lon="10.141158802173475"><ele>147.39999999999998</ele><time>2026-03-28T14:12:22.001Z</time></trkpt><trkpt lat="44.04924959101721" lon="10.141082441664567"><ele>147.60000000000002</ele><time>2026-03-28T14:12:23.001Z</time></trkpt><trkpt lat="44.04934613598826" lon="10.14099080876213"><ele>147.8</ele><time>2026-03-28T14:12:24.001Z</time></trkpt><trkpt lat="44.04942991812599" lon="10.140896486808543"><ele>148.0</ele><time>2026-03-28T14:12:25.001Z</time></trkpt><trkpt lat="44.04952690036151" lon="10.140773683723049"><ele>144.20000000000002</ele><time>2026-03-28T14:12:26.001Z</time></trkpt><trkpt lat="44.049588926569086" lon="10.140654137831762"><ele>140.4</ele><time>2026-03-28T14:12:27.001Z</time></trkpt><trkpt lat="44.04957164929287" lon="10.140521874121704"><ele>136.60000000000002</ele><time>2026-03-28T14:12:28.001Z</time></trkpt><trkpt lat="44.04947586232159" lon="10.140449613618653"><ele>132.8</ele><time>2026-03-28T14:12:29.001Z</time></trkpt><trkpt lat="44.04940624057913" lon="10.140450208876215"><ele>129.0</ele><time>2026-03-28T14:12:30.001Z</time></trkpt><trkpt lat="44.04931814105355" lon="10.140562251492698"><ele>129.0</ele><time>2026-03-28T14:12:31.001Z</time></trkpt><trkpt lat="44.04924186021699" lon="10.140730102619496"><ele>129.0</ele><time>2026-03-28T14:12:32.002Z</time></trkpt><trkpt lat="44.04912269452917" lon="10.140848252511882"><ele>129.0</ele><time>2026-03-28T14:12:33.002Z</time></trkpt><trkpt lat="44.04897132795282" lon="10.140952432271842"><ele>129.0</ele><time>2026-03-28T14:12:34.002Z</time></trkpt><trkpt lat="44.04883762894019" lon="10.141038515687603"><ele>129.0</ele><time>2026-03-28T14:12:35.002Z</time></trkpt><trkpt lat="44.04872415915486" lon="10.141160498979938"><ele>129.0</ele><time>2026-03-28T14:12:36.002Z</time></trkpt><trkpt lat="44.0486110311693" lon="10.141240231569162"><ele>129.0</ele><time>2026-03-28T14:12:37.002Z</time></trkpt><trkpt lat="44.04847049070632" lon="10.141325818919105"><ele>129.0</ele><time>2026-03-28T14:12:38.002Z</time></trkpt><trkpt lat="44.048349145770906" lon="10.14141041216425"><ele>129.0</ele><time>2026-03-28T14:12:39.002Z</time></trkpt><trkpt lat="44.04821507262266" lon="10.141489446486519"><ele>129.0</ele><time>2026-03-28T14:12:40.002Z</time></trkpt><trkpt lat="44.04808416820399" lon="10.141564234571817"><ele>129.0</ele><time>2026-03-28T14:12:41.002Z</time></trkpt><trkpt lat="44.047931642147795" lon="10.141598594911798"><ele>129.5</ele><time>2026-03-28T14:12:42.002Z</time></trkpt><trkpt lat="44.04778959271005" lon="10.141626735283399"><ele>130.0</ele><time>2026-03-28T14:12:43.002Z</time></trkpt><trkpt lat="44.04763907689581" lon="10.14164174750554"><ele>130.5</ele><time>2026-03-28T14:12:44.002Z</time></trkpt><trkpt lat="44.04749816835564" lon="10.14172216139199"><ele>131.0</ele><time>2026-03-28T14:12:45.002Z</time></trkpt><trkpt lat="44.04737589822803" lon="10.141818472362887"><ele>126.0</ele><time>2026-03-28T14:12:46.002Z</time></trkpt><trkpt lat="44.04727359520979" lon="10.141947114725966"><ele>121.0</ele><time>2026-03-28T14:12:47.002Z</time></trkpt><trkpt lat="44.04723949670099" lon="10.142085877911002"><ele>116.0</ele><time>2026-03-28T14:12:48.002Z</time></trkpt><trkpt lat="44.047170293399496" lon="10.14214724323233"><ele>111.0</ele><time>2026-03-28T14:12:49.002Z</time></trkpt><trkpt lat="44.0470882249392" lon="10.142152821789209"><ele>106.0</ele><time>2026-03-28T14:12:50.002Z</time></trkpt><trkpt lat="44.04706546292083" lon="10.141977874011133"><ele>106.0</ele><time>2026-03-28T14:12:52.002Z</time></trkpt><trkpt lat="44.04714330815661" lon="10.141903077117641"><ele>106.0</ele><time>2026-03-28T14:12:53.002Z</time></trkpt><trkpt lat="44.047228465868194" lon="10.141814768036996"><ele>106.0</ele><time>2026-03-28T14:12:54.002Z</time></trkpt><trkpt lat="44.04737623108577" lon="10.14166153782886"><ele>106.0</ele><time>2026-03-28T14:12:55.002Z</time></trkpt><trkpt lat="44.047534409022916" lon="10.141505454807069"><ele>108.25</ele><time>2026-03-28T14:12:56.002Z</time></trkpt><trkpt lat="44.04764547128405" lon="10.141396449765034"><ele>110.5</ele><time>2026-03-28T14:12:57.002Z</time></trkpt><trkpt lat="44.04773979097192" lon="10.141260998365427"><ele>112.75</ele><time>2026-03-28T14:12:58.002Z</time></trkpt><trkpt lat="44.04778712387544" lon="10.141082204791283"><ele>115.0</ele><time>2026-03-28T14:12:59.002Z</time></trkpt><trkpt lat="44.04784556092866" lon="10.14086002043916"><ele>113.0</ele><time>2026-03-28T14:13:00.002Z</time></trkpt><trkpt lat="44.04791759102671" lon="10.140679827514731"><ele>111.0</ele><time>2026-03-28T14:13:01.002Z</time></trkpt><trkpt lat="44.047963980962365" lon="10.140483739469179"><ele>109.0</ele><time>2026-03-28T14:13:02.002Z</time></trkpt><trkpt lat="44.04797610827052" lon="10.140299070821342"><ele>107.0</ele><time>2026-03-28T14:13:03.002Z</time></trkpt><trkpt lat="44.04801297355282" lon="10.140112244459294"><ele>107.0</ele><time>2026-03-28T14:13:04.002Z</time></trkpt><trkpt lat="44.048035047813634" lon="10.139935430425929"><ele>106.99999999999999</ele><time>2026-03-28T14:13:05.002Z</time></trkpt><trkpt lat="44.048036322909724" lon="10.139801678789633"><ele>106.99999999999999</ele><time>2026-03-28T14:13:06.002Z</time></trkpt><trkpt lat="44.048049449377224" lon="10.139702068575358"><ele>107.0</ele><time>2026-03-28T14:13:07.002Z</time></trkpt><trkpt lat="44.04800108063389" lon="10.139613997128086"><ele>107.0</ele><time>2026-03-28T14:13:08.002Z</time></trkpt><trkpt lat="44.04791169884286" lon="10.13956275600709"><ele>107.0</ele><time>2026-03-28T14:13:09.002Z</time></trkpt><trkpt lat="44.0478393229113" lon="10.139556073259318"><ele>106.99999999999999</ele><time>2026-03-28T14:13:10.001Z</time></trkpt><trkpt lat="44.04775540108842" lon="10.139661609321863"><ele>106.99999999999999</ele><time>2026-03-28T14:13:11.001Z</time></trkpt><trkpt lat="44.047737964265636" lon="10.1397611119424"><ele>107.0</ele><time>2026-03-28T14:13:12.001Z</time></trkpt><trkpt lat="44.04769067539914" lon="10.139864381247532"><ele>107.0</ele><time>2026-03-28T14:13:13.001Z</time></trkpt><trkpt lat="44.047652641443165" lon="10.140015635605767"><ele>107.0</ele><time>2026-03-28T14:13:14.001Z</time></trkpt><trkpt lat="44.047591415368856" lon="10.140087354539277"><ele>106.99999999999999</ele><time>2026-03-28T14:13:15.001Z</time></trkpt><trkpt lat="44.04753065478816" lon="10.140197237361335"><ele>106.99999999999999</ele><time>2026-03-28T14:13:16.001Z</time></trkpt><trkpt lat="44.04743786994757" lon="10.140301241272637"><ele>107.0</ele><time>2026-03-28T14:13:17.001Z</time></trkpt><trkpt lat="44.04736605258675" lon="10.140381373955847"><ele>107.0</ele><time>2026-03-28T14:13:18.001Z</time></trkpt><trkpt lat="44.04728867778421" lon="10.140483846999782"><ele>105.39999999999999</ele><time>2026-03-28T14:13:19.001Z</time></trkpt><trkpt lat="44.04717360943716" lon="10.140521761896556"><ele>103.79999999999998</ele><time>2026-03-28T14:13:20.001Z</time></trkpt><trkpt lat="44.047066469444985" lon="10.140483303823963"><ele>102.2</ele><time>2026-03-28T14:13:21.001Z</time></trkpt><trkpt lat="44.04698781961332" lon="10.140379097225678"><ele>100.6</ele><time>2026-03-28T14:13:22.001Z</time></trkpt><trkpt lat="44.04692716698965" lon="10.140302733849827"><ele>99.0</ele><time>2026-03-28T14:13:23.001Z</time></trkpt><trkpt lat="44.04686530280757" lon="10.140233339399432"><ele>99.0</ele><time>2026-03-28T14:13:24.001Z</time></trkpt><trkpt lat="44.04685371968399" lon="10.140112297092694"><ele>99.0</ele><time>2026-03-28T14:13:25.001Z</time></trkpt><trkpt lat="44.04681091535959" lon="10.140014612252271"><ele>99.0</ele><time>2026-03-28T14:13:26.001Z</time></trkpt><trkpt lat="44.0468080321421" lon="10.139917013424258"><ele>99.0</ele><time>2026-03-28T14:13:27.001Z</time></trkpt><trkpt lat="44.046802576654805" lon="10.139810775277036"><ele>99.0</ele><time>2026-03-28T14:13:28.001Z</time></trkpt><trkpt lat="44.04679645455456" lon="10.13972058006866"><ele>99.0</ele><time>2026-03-28T14:13:29.001Z</time></trkpt><trkpt lat="44.046782828265776" lon="10.13961181733087"><ele>97.5</ele><time>2026-03-28T14:13:30.001Z</time></trkpt><trkpt lat="44.04677608215332" lon="10.139503510608238"><ele>96.0</ele><time>2026-03-28T14:13:31.001Z</time></trkpt><trkpt lat="44.046767919511446" lon="10.139399148790917"><ele>94.5</ele><time>2026-03-28T14:13:32.001Z</time></trkpt><trkpt lat="44.04676437566324" lon="10.13926161257403"><ele>93.0</ele><time>2026-03-28T14:13:34.001Z</time></trkpt><trkpt lat="44.04673148797789" lon="10.139153949370655"><ele>91.5</ele><time>2026-03-28T14:13:36.001Z</time></trkpt><trkpt lat="44.04663457166818" lon="10.139119285836555"><ele>90.0</ele><time>2026-03-28T14:13:38.001Z</time></trkpt><trkpt lat="44.04656365015459" lon="10.13915949967221"><ele>88.2</ele><time>2026-03-28T14:13:39.001Z</time></trkpt><trkpt lat="44.046515459583986" lon="10.139237274844644"><ele>86.4</ele><time>2026-03-28T14:13:40.001Z</time></trkpt><trkpt lat="44.046479916683964" lon="10.139317505072897"><ele>84.6</ele><time>2026-03-28T14:13:41.001Z</time></trkpt><trkpt lat="44.046419812775426" lon="10.13947714033597"><ele>82.8</ele><time>2026-03-28T14:13:43.001Z</time></trkpt><trkpt lat="44.046372545033904" lon="10.139603260570615"><ele>81.0</ele><time>2026-03-28T14:13:45.001Z</time></trkpt><trkpt lat="44.04630345831055" lon="10.139671573738017"><ele>81.0</ele><time>2026-03-28T14:13:47.001Z</time></trkpt><trkpt lat="44.04621879506933" lon="10.139613725300986"><ele>81.0</ele><time>2026-03-28T14:13:48.001Z</time></trkpt><trkpt lat="44.04612603807096" lon="10.139595461228897"><ele>81.0</ele><time>2026-03-28T14:13:50.001Z</time></trkpt><trkpt lat="44.046130984895925" lon="10.139343926019738"><ele>81.0</ele><time>2026-03-28T14:13:51.001Z</time></trkpt><trkpt lat="44.04617529177304" lon="10.139246702045497"><ele>81.0</ele><time>2026-03-28T14:13:52.001Z</time></trkpt><trkpt lat="44.04622197787286" lon="10.13915860145716"><ele>81.0</ele><time>2026-03-28T14:13:53.001Z</time></trkpt><trkpt lat="44.04629169116182" lon="10.139076091206167"><ele>81.0</ele><time>2026-03-28T14:13:54.001Z</time></trkpt><trkpt lat="44.04636554110779" lon="10.139033372248596"><ele>81.0</ele><time>2026-03-28T14:13:55.001Z</time></trkpt><trkpt lat="44.046430283711096" lon="10.139020637846139"><ele>81.0</ele><time>2026-03-28T14:13:56.001Z</time></trkpt><trkpt lat="44.04651731018049" lon="10.139012781705786"><ele>81.0</ele><time>2026-03-28T14:13:57.001Z</time></trkpt><trkpt lat="44.04661690925452" lon="10.1390269468559"><ele>81.66666666666667</ele><time>2026-03-28T14:13:58.001Z</time></trkpt><trkpt lat="44.0467076452002" lon="10.139017220647156"><ele>82.33333333333333</ele><time>2026-03-28T14:13:59.001Z</time></trkpt><trkpt lat="44.04678085685304" lon="10.139004537046633"><ele>83.0</ele><time>2026-03-28T14:14:00.001Z</time></trkpt><trkpt lat="44.046856073911705" lon="10.1389967614337"><ele>83.66666666666666</ele><time>2026-03-28T14:14:01.001Z</time></trkpt><trkpt lat="44.0469287965067" lon="10.138985918818308"><ele>84.33333333333333</ele><time>2026-03-28T14:14:02.001Z</time></trkpt><trkpt lat="44.047006670741375" lon="10.138980915166016"><ele>85.0</ele><time>2026-03-28T14:14:03.001Z</time></trkpt><trkpt lat="44.047089191816" lon="10.138960085285767"><ele>85.0</ele><time>2026-03-28T14:14:04.001Z</time></trkpt><trkpt lat="44.04715567632811" lon="10.138906000759563"><ele>85.0</ele><time>2026-03-28T14:14:05.001Z</time></trkpt><trkpt lat="44.047212287490865" lon="10.138807371044297"><ele>85.0</ele><time>2026-03-28T14:14:06.001Z</time></trkpt><trkpt lat="44.04723610138885" lon="10.138709741755937"><ele>85.0</ele><time>2026-03-28T14:14:07.001Z</time></trkpt><trkpt lat="44.04723133308644" lon="10.138551509892832"><ele>85.0</ele><time>2026-03-28T14:14:09.001Z</time></trkpt><trkpt lat="44.047206274933146" lon="10.138457562395017"><ele>85.0</ele><time>2026-03-28T14:14:11.001Z</time></trkpt><trkpt lat="44.04706163036365" lon="10.138449562417732"><ele>85.0</ele><time>2026-03-28T14:14:12.001Z</time></trkpt><trkpt lat="44.04698575466109" lon="10.138461340115779"><ele>85.0</ele><time>2026-03-28T14:14:13.001Z</time></trkpt><trkpt lat="44.04689390577183" lon="10.138474144164602"><ele>85.0</ele><time>2026-03-28T14:14:14.001Z</time></trkpt><trkpt lat="44.046804375213" lon="10.13848361752799"><ele>85.0</ele><time>2026-03-28T14:14:15.001Z</time></trkpt><trkpt lat="44.04672178142899" lon="10.13847650689394"><ele>85.0</ele><time>2026-03-28T14:14:16.001Z</time></trkpt><trkpt lat="44.04664264249574" lon="10.138469834450461"><ele>85.0</ele><time>2026-03-28T14:14:17.001Z</time></trkpt><trkpt lat="44.04652089659853" lon="10.138465082781455"><ele>84.4</ele><time>2026-03-28T14:14:19.001Z</time></trkpt><trkpt lat="44.04643915031742" lon="10.138399216125407"><ele>83.8</ele><time>2026-03-28T14:14:21.001Z</time></trkpt><trkpt lat="44.04633853145406" lon="10.138266487009313"><ele>83.19999999999999</ele><time>2026-03-28T14:14:23.001Z</time></trkpt><trkpt lat="44.04628049856326" lon="10.138180425222753"><ele>82.6</ele><time>2026-03-28T14:14:24.001Z</time></trkpt><trkpt lat="44.04623195727242" lon="10.138093806039828"><ele>82.0</ele><time>2026-03-28T14:14:25.001Z</time></trkpt><trkpt lat="44.04618370578725" lon="10.13802485179802"><ele>82.0</ele><time>2026-03-28T14:14:26.001Z</time></trkpt><trkpt lat="44.046143104977666" lon="10.137955630151549"><ele>82.0</ele><time>2026-03-28T14:14:27.001Z</time></trkpt><trkpt lat="44.046085318572615" lon="10.137865253708007"><ele>82.0</ele><time>2026-03-28T14:14:29.001Z</time></trkpt><trkpt lat="44.04603874629684" lon="10.137769357211857"><ele>82.0</ele><time>2026-03-28T14:14:31.001Z</time></trkpt><trkpt lat="44.045996101043706" lon="10.13770239179762"><ele>82.0</ele><time>2026-03-28T14:14:32.001Z</time></trkpt><trkpt lat="44.04593874275864" lon="10.137615641213225"><ele>82.0</ele><time>2026-03-28T14:14:33.001Z</time></trkpt><trkpt lat="44.04587280695707" lon="10.137574636844331"><ele>82.0</ele><time>2026-03-28T14:14:34.001Z</time></trkpt><trkpt lat="44.04583256407957" lon="10.137485344130706"><ele>82.0</ele><time>2026-03-28T14:14:35.001Z</time></trkpt><trkpt lat="44.04575326406845" lon="10.137420745039856"><ele>82.0</ele><time>2026-03-28T14:14:36.001Z</time></trkpt><trkpt lat="44.04572312779438" lon="10.137244204604775"><ele>82.0</ele><time>2026-03-28T14:14:38.001Z</time></trkpt><trkpt lat="44.0457101446935" lon="10.137130119135035"><ele>82.0</ele><time>2026-03-28T14:14:39.001Z</time></trkpt><trkpt lat="44.04570576598176" lon="10.137032442056832"><ele>80.33333333333333</ele><time>2026-03-28T14:14:40.001Z</time></trkpt><trkpt lat="44.04571051059733" lon="10.136941716186902"><ele>78.66666666666666</ele><time>2026-03-28T14:14:41.001Z</time></trkpt><trkpt lat="44.04570221665725" lon="10.136844124734367"><ele>77.0</ele><time>2026-03-28T14:14:42.001Z</time></trkpt><trkpt lat="44.04563664189902" lon="10.136693382885198"><ele>75.33333333333333</ele><time>2026-03-28T14:14:44.001Z</time></trkpt><trkpt lat="44.04558168568385" lon="10.136630582126667"><ele>73.66666666666667</ele><time>2026-03-28T14:14:45.001Z</time></trkpt><trkpt lat="44.04552771819097" lon="10.13657145223993"><ele>72.0</ele><time>2026-03-28T14:14:46.001Z</time></trkpt><trkpt lat="44.04547420784862" lon="10.136524898844728"><ele>71.4</ele><time>2026-03-28T14:14:47.002Z</time></trkpt><trkpt lat="44.04537466155802" lon="10.13643029400464"><ele>70.80000000000001</ele><time>2026-03-28T14:14:49.002Z</time></trkpt><trkpt lat="44.04531692037164" lon="10.136384107295045"><ele>70.2</ele><time>2026-03-28T14:14:50.002Z</time></trkpt><trkpt lat="44.045225101156966" lon="10.1363113598121"><ele>69.60000000000001</ele><time>2026-03-28T14:14:52.002Z</time></trkpt><trkpt lat="44.04510700059776" lon="10.136199879092022"><ele>69.0</ele><time>2026-03-28T14:14:54.002Z</time></trkpt><trkpt lat="44.045029981521154" lon="10.136134780343662"><ele>68.0</ele><time>2026-03-28T14:14:55.002Z</time></trkpt><trkpt lat="44.04496049704391" lon="10.136015727029275"><ele>67.0</ele><time>2026-03-28T14:14:56.002Z</time></trkpt><trkpt lat="44.044878539700036" lon="10.135938035696423"><ele>66.0</ele><time>2026-03-28T14:14:57.002Z</time></trkpt><trkpt lat="44.04478472935592" lon="10.135849108329648"><ele>65.0</ele><time>2026-03-28T14:14:58.002Z</time></trkpt><trkpt lat="44.044703978222635" lon="10.135799275227562"><ele>64.0</ele><time>2026-03-28T14:14:59.002Z</time></trkpt><trkpt lat="44.04464654324855" lon="10.135718226727752"><ele>63.71428571428571</ele><time>2026-03-28T14:15:00.002Z</time></trkpt><trkpt lat="44.0445798219286" lon="10.135655095101988"><ele>63.42857142857142</ele><time>2026-03-28T14:15:01.002Z</time></trkpt><trkpt lat="44.04452320157267" lon="10.1356015209803"><ele>63.14285714285714</ele><time>2026-03-28T14:15:02.002Z</time></trkpt><trkpt lat="44.04446776570746" lon="10.135549067607615"><ele>62.85714285714286</ele><time>2026-03-28T14:15:03.002Z</time></trkpt><trkpt lat="44.044415386197" lon="10.135497619933911"><ele>62.57142857142858</ele><time>2026-03-28T14:15:04.002Z</time></trkpt><trkpt lat="44.044353442046415" lon="10.135454309863745"><ele>62.28571428571429</ele><time>2026-03-28T14:15:06.002Z</time></trkpt><trkpt lat="44.04431459588034" lon="10.135347443298071"><ele>62.0</ele><time>2026-03-28T14:15:09.002Z</time></trkpt><trkpt lat="44.04438334489182" lon="10.135238349609574"><ele>62.0</ele><time>2026-03-28T14:15:11.002Z</time></trkpt><trkpt lat="44.044451864979045" lon="10.135135688296094"><ele>62.0</ele><time>2026-03-28T14:15:12.002Z</time></trkpt><trkpt lat="44.04454506957332" lon="10.135081273196453"><ele>62.0</ele><time>2026-03-28T14:15:13.002Z</time></trkpt><trkpt lat="44.044671696871745" lon="10.134994078787459"><ele>62.0</ele><time>2026-03-28T14:15:14.002Z</time></trkpt><trkpt lat="44.044818261094775" lon="10.134868525884462"><ele>61.66666666666667</ele><time>2026-03-28T14:15:15.002Z</time></trkpt><trkpt lat="44.044949082257496" lon="10.13475702872896"><ele>61.33333333333333</ele><time>2026-03-28T14:15:16.001Z</time></trkpt><trkpt lat="44.0450653851059" lon="10.134646894407888"><ele>61.0</ele><time>2026-03-28T14:15:17.001Z</time></trkpt><trkpt lat="44.045210690726364" lon="10.1345288445857"><ele>61.0</ele><time>2026-03-28T14:15:18.001Z</time></trkpt><trkpt lat="44.045348247523734" lon="10.13439632140409"><ele>61.0</ele><time>2026-03-28T14:15:19.001Z</time></trkpt><trkpt lat="44.0454834763145" lon="10.134262270809572"><ele>61.0</ele><time>2026-03-28T14:15:20.001Z</time></trkpt><trkpt lat="44.045638163344215" lon="10.134119654439566"><ele>60.666666666666664</ele><time>2026-03-28T14:15:21.001Z</time></trkpt><trkpt lat="44.04579630623993" lon="10.133977338729991"><ele>60.33333333333333</ele><time>2026-03-28T14:15:22.001Z</time></trkpt><trkpt lat="44.04595752499868" lon="10.133827614649704"><ele>60.0</ele><time>2026-03-28T14:15:23.001Z</time></trkpt><trkpt lat="44.04611504263272" lon="10.133686885535523"><ele>60.0</ele><time>2026-03-28T14:15:24.001Z</time></trkpt><trkpt lat="44.04627558546807" lon="10.133542028116112"><ele>60.0</ele><time>2026-03-28T14:15:25.001Z</time></trkpt><trkpt lat="44.046463395819885" lon="10.133390499489417"><ele>60.0</ele><time>2026-03-28T14:15:26.001Z</time></trkpt><trkpt lat="44.04664095109517" lon="10.133236900366153"><ele>60.0</ele><time>2026-03-28T14:15:27.001Z</time></trkpt><trkpt lat="44.04680513975422" lon="10.1330895739768"><ele>60.0</ele><time>2026-03-28T14:15:28.001Z</time></trkpt><trkpt lat="44.04698350919403" lon="10.132961450191317"><ele>60.0</ele><time>2026-03-28T14:15:29.001Z</time></trkpt><trkpt lat="44.04715378756928" lon="10.132817234526305"><ele>60.0</ele><time>2026-03-28T14:15:30.001Z</time></trkpt><trkpt lat="44.04732687806422" lon="10.13266923158704"><ele>60.0</ele><time>2026-03-28T14:15:31.001Z</time></trkpt><trkpt lat="44.047497187403025" lon="10.13253024473864"><ele>60.0</ele><time>2026-03-28T14:15:32.001Z</time></trkpt><trkpt lat="44.04766239554563" lon="10.132385349231242"><ele>60.0</ele><time>2026-03-28T14:15:33.001Z</time></trkpt><trkpt lat="44.0478048618887" lon="10.132239673737953"><ele>60.0</ele><time>2026-03-28T14:15:34.001Z</time></trkpt><trkpt lat="44.04792945171609" lon="10.132043783172685"><ele>60.0</ele><time>2026-03-28T14:15:35.001Z</time></trkpt><trkpt lat="44.048013761072816" lon="10.131805301166624"><ele>60.0</ele><time>2026-03-28T14:15:36.001Z</time></trkpt><trkpt lat="44.04810393231941" lon="10.131561858956918"><ele>60.0</ele><time>2026-03-28T14:15:37.001Z</time></trkpt><trkpt lat="44.04821663980696" lon="10.13130447262098"><ele>60.0</ele><time>2026-03-28T14:15:38.001Z</time></trkpt><trkpt lat="44.048342775114264" lon="10.131080473211892"><ele>61.66666666666667</ele><time>2026-03-28T14:15:39.001Z</time></trkpt><trkpt lat="44.048465711347085" lon="10.130863478482299"><ele>63.333333333333336</ele><time>2026-03-28T14:15:40.001Z</time></trkpt><trkpt lat="44.04859726052415" lon="10.130647021753784"><ele>65.0</ele><time>2026-03-28T14:15:41.001Z</time></trkpt><trkpt lat="44.048754352633445" lon="10.130463014686518"><ele>65.0</ele><time>2026-03-28T14:15:42.001Z</time></trkpt><trkpt lat="44.048919890543225" lon="10.130340785070615"><ele>65.0</ele><time>2026-03-28T14:15:43.001Z</time></trkpt><trkpt lat="44.04908654559256" lon="10.130202048905208"><ele>65.0</ele><time>2026-03-28T14:15:44.001Z</time></trkpt><trkpt lat="44.04921314745788" lon="10.130010264046248"><ele>68.0</ele><time>2026-03-28T14:15:45.001Z</time></trkpt><trkpt lat="44.04933539824723" lon="10.12984120278264"><ele>71.0</ele><time>2026-03-28T14:15:46.001Z</time></trkpt><trkpt lat="44.04947198175649" lon="10.129661404006965"><ele>74.0</ele><time>2026-03-28T14:15:47.001Z</time></trkpt><trkpt lat="44.04962373507123" lon="10.12949697093328"><ele>74.0</ele><time>2026-03-28T14:15:48.001Z</time></trkpt><trkpt lat="44.04980015680628" lon="10.129379458059079"><ele>74.0</ele><time>2026-03-28T14:15:49.001Z</time></trkpt><trkpt lat="44.04997511472661" lon="10.129242827056862"><ele>74.0</ele><time>2026-03-28T14:15:50.001Z</time></trkpt><trkpt lat="44.05015531305223" lon="10.129093195979953"><ele>77.66666666666667</ele><time>2026-03-28T14:15:51.001Z</time></trkpt><trkpt lat="44.05031423281171" lon="10.128914297608649"><ele>81.33333333333333</ele><time>2026-03-28T14:15:52.001Z</time></trkpt><trkpt lat="44.05047331817161" lon="10.128755866627554"><ele>85.0</ele><time>2026-03-28T14:15:53.001Z</time></trkpt><trkpt lat="44.05062564153352" lon="10.128591349613107"><ele>85.0</ele><time>2026-03-28T14:15:54.001Z</time></trkpt><trkpt lat="44.05075176024212" lon="10.128468323462627"><ele>85.0</ele><time>2026-03-28T14:15:55.001Z</time></trkpt><trkpt lat="44.05086388746874" lon="10.128307629718705"><ele>85.0</ele><time>2026-03-28T14:15:56.001Z</time></trkpt><trkpt lat="44.050964819491796" lon="10.128124441339546"><ele>89.0</ele><time>2026-03-28T14:15:57.001Z</time></trkpt><trkpt lat="44.05103354005332" lon="10.12792033223817"><ele>93.0</ele><time>2026-03-28T14:15:58.001Z</time></trkpt><trkpt lat="44.0510975895312" lon="10.127730435705573"><ele>97.0</ele><time>2026-03-28T14:15:59.001Z</time></trkpt><trkpt lat="44.051180272342975" lon="10.127574619189465"><ele>97.0</ele><time>2026-03-28T14:16:00.001Z</time></trkpt><trkpt lat="44.05132471885537" lon="10.12744423566886"><ele>97.0</ele><time>2026-03-28T14:16:01.001Z</time></trkpt><trkpt lat="44.051454281911845" lon="10.127331727205734"><ele>97.0</ele><time>2026-03-28T14:16:02.001Z</time></trkpt><trkpt lat="44.05158924224867" lon="10.127220974891383"><ele>97.0</ele><time>2026-03-28T14:16:03.001Z</time></trkpt><trkpt lat="44.05173809478261" lon="10.127099515850075"><ele>97.0</ele><time>2026-03-28T14:16:04.001Z</time></trkpt><trkpt lat="44.05186140901041" lon="10.126990737216765"><ele>97.0</ele><time>2026-03-28T14:16:05.001Z</time></trkpt><trkpt lat="44.05196030830917" lon="10.126865148967749"><ele>97.0</ele><time>2026-03-28T14:16:06.001Z</time></trkpt><trkpt lat="44.05206258312355" lon="10.126742834466723"><ele>97.0</ele><time>2026-03-28T14:16:07.001Z</time></trkpt><trkpt lat="44.05213538118091" lon="10.126555717197832"><ele>97.0</ele><time>2026-03-28T14:16:08.001Z</time></trkpt><trkpt lat="44.052178738573694" lon="10.126315360291702"><ele>93.66666666666667</ele><time>2026-03-28T14:16:09.001Z</time></trkpt><trkpt lat="44.05225530518819" lon="10.126097589979903"><ele>90.33333333333334</ele><time>2026-03-28T14:16:10.001Z</time></trkpt><trkpt lat="44.05233349655782" lon="10.125887256774789"><ele>87.0</ele><time>2026-03-28T14:16:11.001Z</time></trkpt><trkpt lat="44.05244238329498" lon="10.125687236578099"><ele>92.0</ele><time>2026-03-28T14:16:12.001Z</time></trkpt><trkpt lat="44.05256003163763" lon="10.125485754242124"><ele>97.0</ele><time>2026-03-28T14:16:13.001Z</time></trkpt><trkpt lat="44.05266695742479" lon="10.125265549209452"><ele>102.0</ele><time>2026-03-28T14:16:14.001Z</time></trkpt><trkpt lat="44.0527629038415" lon="10.125072080720228"><ele>102.0</ele><time>2026-03-28T14:16:15.001Z</time></trkpt><trkpt lat="44.052895850913046" lon="10.124951068136166"><ele>102.0</ele><time>2026-03-28T14:16:16.001Z</time></trkpt><trkpt lat="44.05303391816071" lon="10.124825256392532"><ele>102.0</ele><time>2026-03-28T14:16:17.001Z</time></trkpt><trkpt lat="44.05317317137253" lon="10.124705915401506"><ele>102.25</ele><time>2026-03-28T14:16:18.001Z</time></trkpt><trkpt lat="44.05326071845891" lon="10.12461962034501"><ele>102.5</ele><time>2026-03-28T14:16:19.001Z</time></trkpt><trkpt lat="44.05336181521596" lon="10.124624294752184"><ele>102.75</ele><time>2026-03-28T14:16:20.001Z</time></trkpt><trkpt lat="44.05346672365339" lon="10.124695404971828"><ele>103.0</ele><time>2026-03-28T14:16:21.001Z</time></trkpt><trkpt lat="44.05356162606486" lon="10.124894226810838"><ele>111.5</ele><time>2026-03-28T14:16:22.001Z</time></trkpt><trkpt lat="44.05366937932027" lon="10.1250346950237"><ele>120.0</ele><time>2026-03-28T14:16:23.001Z</time></trkpt><trkpt lat="44.05378597905088" lon="10.12520462759688"><ele>128.5</ele><time>2026-03-28T14:16:24.001Z</time></trkpt><trkpt lat="44.05387489433156" lon="10.125329817501372"><ele>137.0</ele><time>2026-03-28T14:16:25.001Z</time></trkpt><trkpt lat="44.053969635598165" lon="10.125411704193427"><ele>141.0</ele><time>2026-03-28T14:16:26.001Z</time></trkpt><trkpt lat="44.054128190655845" lon="10.125403921142746"><ele>145.0</ele><time>2026-03-28T14:16:27.001Z</time></trkpt><trkpt lat="44.05420447418522" lon="10.125236725755212"><ele>149.0</ele><time>2026-03-28T14:16:28.001Z</time></trkpt><trkpt lat="44.05424646335187" lon="10.124926119848023"><ele>139.0</ele><time>2026-03-28T14:16:29.001Z</time></trkpt><trkpt lat="44.05432747816748" lon="10.124692168757765"><ele>129.0</ele><time>2026-03-28T14:16:30.001Z</time></trkpt><trkpt lat="44.05443401845417" lon="10.12446315305124"><ele>119.0</ele><time>2026-03-28T14:16:31.001Z</time></trkpt><trkpt lat="44.0545843553256" lon="10.124246821438424"><ele>119.0</ele><time>2026-03-28T14:16:32.001Z</time></trkpt><trkpt lat="44.054732690001266" lon="10.124096800545727"><ele>119.0</ele><time>2026-03-28T14:16:33.001Z</time></trkpt><trkpt lat="44.05490583874457" lon="10.123934445168473"><ele>119.0</ele><time>2026-03-28T14:16:34.001Z</time></trkpt><trkpt lat="44.0551170573147" lon="10.123743786770948"><ele>123.5</ele><time>2026-03-28T14:16:35.001Z</time></trkpt><trkpt lat="44.05532407209014" lon="10.123603852685857"><ele>128.0</ele><time>2026-03-28T14:16:36.001Z</time></trkpt><trkpt lat="44.05554985728788" lon="10.123445171965841"><ele>128.0</ele><time>2026-03-28T14:16:37.001Z</time></trkpt><trkpt lat="44.05576864665823" lon="10.123281675008652"><ele>128.0</ele><time>2026-03-28T14:16:38.001Z</time></trkpt><trkpt lat="44.05599515921383" lon="10.123158937176374"><ele>130.5</ele><time>2026-03-28T14:16:39.001Z</time></trkpt><trkpt lat="44.0562190122273" lon="10.123069252175796"><ele>133.0</ele><time>2026-03-28T14:16:40.001Z</time></trkpt><trkpt lat="44.056460643696475" lon="10.122977329420165"><ele>138.66666666666669</ele><time>2026-03-28T14:16:41.001Z</time></trkpt><trkpt lat="44.056681679898425" lon="10.122895200551154"><ele>144.33333333333334</ele><time>2026-03-28T14:16:42.001Z</time></trkpt><trkpt lat="44.056845302373176" lon="10.122800907130586"><ele>150.0</ele><time>2026-03-28T14:16:43.001Z</time></trkpt><trkpt lat="44.056977809549416" lon="10.122699856111225"><ele>150.0</ele><time>2026-03-28T14:16:44.001Z</time></trkpt><trkpt lat="44.05705835099388" lon="10.122502933223526"><ele>150.0</ele><time>2026-03-28T14:16:45.001Z</time></trkpt><trkpt lat="44.05713759573469" lon="10.122299701046288"><ele>150.0</ele><time>2026-03-28T14:16:46.001Z</time></trkpt><trkpt lat="44.057257030826655" lon="10.1221064102123"><ele>154.0</ele><time>2026-03-28T14:16:47.001Z</time></trkpt><trkpt lat="44.05738526649758" lon="10.121917352294261"><ele>158.0</ele><time>2026-03-28T14:16:48.001Z</time></trkpt><trkpt lat="44.057532943068985" lon="10.121746274305316"><ele>162.0</ele><time>2026-03-28T14:16:49.001Z</time></trkpt><trkpt lat="44.057672450099474" lon="10.121568733698235"><ele>154.33333333333334</ele><time>2026-03-28T14:16:50.001Z</time></trkpt><trkpt lat="44.05781755621083" lon="10.121411318718025"><ele>146.66666666666669</ele><time>2026-03-28T14:16:51.001Z</time></trkpt><trkpt lat="44.05797024719179" lon="10.12125454333608"><ele>139.0</ele><time>2026-03-28T14:16:52.001Z</time></trkpt><trkpt lat="44.058113501800506" lon="10.121054349094932"><ele>139.0</ele><time>2026-03-28T14:16:53.001Z</time></trkpt><trkpt lat="44.058269003424634" lon="10.120842393333175"><ele>139.0</ele><time>2026-03-28T14:16:54.001Z</time></trkpt><trkpt lat="44.058438924492755" lon="10.120663386223677"><ele>139.0</ele><time>2026-03-28T14:16:55.001Z</time></trkpt><trkpt lat="44.0586324023678" lon="10.120497025460251"><ele>143.0</ele><time>2026-03-28T14:16:56.001Z</time></trkpt><trkpt lat="44.058851151334544" lon="10.12031543725734"><ele>147.0</ele><time>2026-03-28T14:16:57.001Z</time></trkpt><trkpt lat="44.059093760190954" lon="10.120176367900573"><ele>139.0</ele><time>2026-03-28T14:16:58.001Z</time></trkpt><trkpt lat="44.05934557725168" lon="10.120026082595244"><ele>131.0</ele><time>2026-03-28T14:16:59.001Z</time></trkpt><trkpt lat="44.05959138588035" lon="10.119839130211185"><ele>131.0</ele><time>2026-03-28T14:17:00.001Z</time></trkpt><trkpt lat="44.05985814888583" lon="10.119663782953971"><ele>131.0</ele><time>2026-03-28T14:17:01.001Z</time></trkpt><trkpt lat="44.06016054875845" lon="10.11950165181313"><ele>151.0</ele><time>2026-03-28T14:17:02.001Z</time></trkpt><trkpt lat="44.0604296817995" lon="10.119340395644702"><ele>171.0</ele><time>2026-03-28T14:17:03.001Z</time></trkpt><trkpt lat="44.060655356777346" lon="10.119170397840453"><ele>171.66666666666666</ele><time>2026-03-28T14:17:04.001Z</time></trkpt><trkpt lat="44.06080259395394" lon="10.118997358356197"><ele>172.33333333333331</ele><time>2026-03-28T14:17:05.001Z</time></trkpt><trkpt lat="44.06097913077042" lon="10.118823676464766"><ele>173.0</ele><time>2026-03-28T14:17:06.001Z</time></trkpt><trkpt lat="44.06112522535021" lon="10.118623725163193"><ele>173.0</ele><time>2026-03-28T14:17:07.001Z</time></trkpt><trkpt lat="44.061271254489654" lon="10.118460466831007"><ele>173.0</ele><time>2026-03-28T14:17:08.001Z</time></trkpt><trkpt lat="44.061386801268604" lon="10.118279398583956"><ele>173.0</ele><time>2026-03-28T14:17:09.001Z</time></trkpt><trkpt lat="44.0615374279319" lon="10.11811346923576"><ele>173.0</ele><time>2026-03-28T14:17:10.001Z</time></trkpt><trkpt lat="44.061738392571286" lon="10.117994198816202"><ele>173.0</ele><time>2026-03-28T14:17:11.001Z</time></trkpt><trkpt lat="44.061922684957025" lon="10.117871220085982"><ele>173.0</ele><time>2026-03-28T14:17:12.001Z</time></trkpt><trkpt lat="44.06211755347585" lon="10.117751043538682"><ele>173.0</ele><time>2026-03-28T14:17:13.001Z</time></trkpt><trkpt lat="44.06227749852022" lon="10.117627995809924"><ele>173.0</ele><time>2026-03-28T14:17:14.001Z</time></trkpt><trkpt lat="44.062446608354605" lon="10.117524001227824"><ele>173.0</ele><time>2026-03-28T14:17:15.001Z</time></trkpt><trkpt lat="44.062615709214704" lon="10.117434035155512"><ele>176.0</ele><time>2026-03-28T14:17:16.001Z</time></trkpt><trkpt lat="44.062784253687106" lon="10.117368723144319"><ele>179.0</ele><time>2026-03-28T14:17:17.001Z</time></trkpt><trkpt lat="44.06294791101912" lon="10.117262953972448"><ele>182.0</ele><time>2026-03-28T14:17:18.001Z</time></trkpt><trkpt lat="44.063080921533285" lon="10.117158632393428"><ele>182.0</ele><time>2026-03-28T14:17:19.001Z</time></trkpt><trkpt lat="44.06316594365349" lon="10.117003586159095"><ele>182.0</ele><time>2026-03-28T14:17:20.001Z</time></trkpt><trkpt lat="44.063212110051914" lon="10.116800175943055"><ele>182.0</ele><time>2026-03-28T14:17:21.001Z</time></trkpt><trkpt lat="44.06316254594375" lon="10.116547813838602"><ele>175.33333333333331</ele><time>2026-03-28T14:17:22.001Z</time></trkpt><trkpt lat="44.06317588875271" lon="10.11631501806504"><ele>168.66666666666666</ele><time>2026-03-28T14:17:23.001Z</time></trkpt><trkpt lat="44.063231529150414" lon="10.116107966664556"><ele>162.0</ele><time>2026-03-28T14:17:24.001Z</time></trkpt><trkpt lat="44.06335004262826" lon="10.115939672651331"><ele>169.66666666666666</ele><time>2026-03-28T14:17:25.001Z</time></trkpt><trkpt lat="44.063471015027986" lon="10.115774446478174"><ele>177.33333333333331</ele><time>2026-03-28T14:17:26.001Z</time></trkpt><trkpt lat="44.06362194116524" lon="10.115614342840203"><ele>185.0</ele><time>2026-03-28T14:17:27.001Z</time></trkpt><trkpt lat="44.06377112370157" lon="10.115483290726663"><ele>185.0</ele><time>2026-03-28T14:17:28.001Z</time></trkpt><trkpt lat="44.06395903219845" lon="10.115361284748221"><ele>185.0</ele><time>2026-03-28T14:17:29.001Z</time></trkpt><trkpt lat="44.064153358732" lon="10.11526051928443"><ele>185.0</ele><time>2026-03-28T14:17:30.001Z</time></trkpt><trkpt lat="44.06432292912571" lon="10.115141088021156"><ele>190.33333333333331</ele><time>2026-03-28T14:17:31.001Z</time></trkpt><trkpt lat="44.06444797875925" lon="10.115001454033512"><ele>195.66666666666666</ele><time>2026-03-28T14:17:32.001Z</time></trkpt><trkpt lat="44.064540776115706" lon="10.11477096247468"><ele>201.0</ele><time>2026-03-28T14:17:33.001Z</time></trkpt><trkpt lat="44.06462184766905" lon="10.114528070928305"><ele>201.0</ele><time>2026-03-28T14:17:34Z</time></trkpt><trkpt lat="44.06472299214739" lon="10.11429789678225"><ele>201.0</ele><time>2026-03-28T14:17:35Z</time></trkpt><trkpt lat="44.06483626196354" lon="10.11406077761033"><ele>201.0</ele><time>2026-03-28T14:17:36Z</time></trkpt><trkpt lat="44.06494915490001" lon="10.113814759277357"><ele>205.0</ele><time>2026-03-28T14:17:37Z</time></trkpt><trkpt lat="44.06505312773718" lon="10.113560987484663"><ele>209.0</ele><time>2026-03-28T14:17:38Z</time></trkpt><trkpt lat="44.06517340536819" lon="10.113306515185291"><ele>213.0</ele><time>2026-03-28T14:17:39Z</time></trkpt><trkpt lat="44.06528951921532" lon="10.113055718942336"><ele>213.0</ele><time>2026-03-28T14:17:40Z</time></trkpt><trkpt lat="44.06539899542571" lon="10.112844810727164"><ele>213.0</ele><time>2026-03-28T14:17:41Z</time></trkpt><trkpt lat="44.06547122262739" lon="10.112641247496635"><ele>213.0</ele><time>2026-03-28T14:17:42Z</time></trkpt><trkpt lat="44.06550257836312" lon="10.112483236044168"><ele>217.0</ele><time>2026-03-28T14:17:43Z</time></trkpt><trkpt lat="44.065505218042226" lon="10.112209006266342"><ele>221.0</ele><time>2026-03-28T14:17:44Z</time></trkpt><trkpt lat="44.06543718727544" lon="10.111969920392415"><ele>225.0</ele><time>2026-03-28T14:17:45Z</time></trkpt><trkpt lat="44.065332695236236" lon="10.111791730008616"><ele>225.0</ele><time>2026-03-28T14:17:46Z</time></trkpt><trkpt lat="44.065266084373015" lon="10.111611397579491"><ele>225.0</ele><time>2026-03-28T14:17:47Z</time></trkpt><trkpt lat="44.065300869478506" lon="10.111452594065542"><ele>225.0</ele><time>2026-03-28T14:17:48Z</time></trkpt><trkpt lat="44.065367507253264" lon="10.111299907178935"><ele>225.0</ele><time>2026-03-28T14:17:49Z</time></trkpt><trkpt lat="44.065450749284906" lon="10.111184245856117"><ele>230.25</ele><time>2026-03-28T14:17:50Z</time></trkpt><trkpt lat="44.06555861550016" lon="10.111156705038187"><ele>235.5</ele><time>2026-03-28T14:17:51Z</time></trkpt><trkpt lat="44.06569875815282" lon="10.111095681884814"><ele>240.75</ele><time>2026-03-28T14:17:52Z</time></trkpt><trkpt lat="44.06584666663874" lon="10.111039767523506"><ele>246.0</ele><time>2026-03-28T14:17:53Z</time></trkpt><trkpt lat="44.06599874166106" lon="10.110981610715779"><ele>246.25</ele><time>2026-03-28T14:17:54Z</time></trkpt><trkpt lat="44.0661399392303" lon="10.11092561859806"><ele>246.5</ele><time>2026-03-28T14:17:55Z</time></trkpt><trkpt lat="44.066273705902404" lon="10.110872573199492"><ele>246.75</ele><time>2026-03-28T14:17:56Z</time></trkpt><trkpt lat="44.066406180129135" lon="10.110793487358459"><ele>247.0</ele><time>2026-03-28T14:17:57.001Z</time></trkpt><trkpt lat="44.06653948450827" lon="10.110753185802665"><ele>245.75</ele><time>2026-03-28T14:17:58.001Z</time></trkpt><trkpt lat="44.06666889635803" lon="10.110663890669993"><ele>244.5</ele><time>2026-03-28T14:17:59.001Z</time></trkpt><trkpt lat="44.06679807826833" lon="10.110617191740076"><ele>243.25</ele><time>2026-03-28T14:18:00.001Z</time></trkpt><trkpt lat="44.06692464348619" lon="10.110541900221506"><ele>242.0</ele><time>2026-03-28T14:18:01.001Z</time></trkpt><trkpt lat="44.067057488105114" lon="10.110454512831327"><ele>242.0</ele><time>2026-03-28T14:18:02.001Z</time></trkpt><trkpt lat="44.067185109321926" lon="10.110366799740628"><ele>242.0</ele><time>2026-03-28T14:18:03.001Z</time></trkpt><trkpt lat="44.067322854611675" lon="10.110246223567"><ele>242.0</ele><time>2026-03-28T14:18:04.001Z</time></trkpt><trkpt lat="44.06744517147925" lon="10.110167300588275"><ele>242.0</ele><time>2026-03-28T14:18:05.001Z</time></trkpt><trkpt lat="44.06755683082425" lon="10.110092830529059"><ele>239.6</ele><time>2026-03-28T14:18:06.001Z</time></trkpt><trkpt lat="44.067657657529026" lon="10.110020659633014"><ele>237.2</ele><time>2026-03-28T14:18:07.001Z</time></trkpt><trkpt lat="44.06774052916199" lon="10.109954374989357"><ele>234.8</ele><time>2026-03-28T14:18:08.001Z</time></trkpt><trkpt lat="44.06784084769377" lon="10.109902831355253"><ele>232.4</ele><time>2026-03-28T14:18:10.001Z</time></trkpt><trkpt lat="44.067876178657315" lon="10.109753992320204"><ele>230.0</ele><time>2026-03-28T14:18:12.001Z</time></trkpt><trkpt lat="44.06786727836248" lon="10.109624416496942"><ele>230.00000000000003</ele><time>2026-03-28T14:18:13.001Z</time></trkpt><trkpt lat="44.067842917752486" lon="10.109505420547597"><ele>230.0</ele><time>2026-03-28T14:18:14.001Z</time></trkpt><trkpt lat="44.06780790809396" lon="10.109382706570946"><ele>230.0</ele><time>2026-03-28T14:18:15.001Z</time></trkpt><trkpt lat="44.06777823722252" lon="10.109270370844925"><ele>230.0</ele><time>2026-03-28T14:18:16.001Z</time></trkpt><trkpt lat="44.06774530212873" lon="10.109166108937083"><ele>230.00000000000003</ele><time>2026-03-28T14:18:17.001Z</time></trkpt><trkpt lat="44.06766700467244" lon="10.109094618008438"><ele>230.0</ele><time>2026-03-28T14:18:18.001Z</time></trkpt><trkpt lat="44.06758577200417" lon="10.109028299931241"><ele>232.2</ele><time>2026-03-28T14:18:19.001Z</time></trkpt><trkpt lat="44.06749337785134" lon="10.108976827477884"><ele>234.4</ele><time>2026-03-28T14:18:20.001Z</time></trkpt><trkpt lat="44.06740888292807" lon="10.108945065741787"><ele>236.60000000000002</ele><time>2026-03-28T14:18:21.001Z</time></trkpt><trkpt lat="44.06729011015324" lon="10.10892731410794"><ele>238.8</ele><time>2026-03-28T14:18:22.001Z</time></trkpt><trkpt lat="44.067195461223065" lon="10.108907665680508"><ele>241.0</ele><time>2026-03-28T14:18:23.001Z</time></trkpt><trkpt lat="44.06709208564972" lon="10.108919917825487"><ele>241.75</ele><time>2026-03-28T14:18:24.001Z</time></trkpt><trkpt lat="44.06697569564634" lon="10.108921905344472"><ele>242.5</ele><time>2026-03-28T14:18:25.001Z</time></trkpt><trkpt lat="44.066839649900736" lon="10.108917486079877"><ele>243.25</ele><time>2026-03-28T14:18:26.001Z</time></trkpt><trkpt lat="44.066707109321385" lon="10.108939554812826"><ele>244.0</ele><time>2026-03-28T14:18:27.001Z</time></trkpt><trkpt lat="44.06657570359113" lon="10.108976435610078"><ele>245.79999999999998</ele><time>2026-03-28T14:18:28.001Z</time></trkpt><trkpt lat="44.066466320126004" lon="10.109017910190213"><ele>247.59999999999997</ele><time>2026-03-28T14:18:29.001Z</time></trkpt><trkpt lat="44.066367176511015" lon="10.109076019860568"><ele>249.4</ele><time>2026-03-28T14:18:30.001Z</time></trkpt><trkpt lat="44.066282542674635" lon="10.109166591957974"><ele>251.2</ele><time>2026-03-28T14:18:31.001Z</time></trkpt><trkpt lat="44.0661889606629" lon="10.10924576734291"><ele>253.0</ele><time>2026-03-28T14:18:32.001Z</time></trkpt><trkpt lat="44.06608294687613" lon="10.109390349789857"><ele>253.0</ele><time>2026-03-28T14:18:33.001Z</time></trkpt><trkpt lat="44.06601803881719" lon="10.109461406456935"><ele>253.0</ele><time>2026-03-28T14:18:35.001Z</time></trkpt><trkpt lat="44.06607029878672" lon="10.109252935823331"><ele>253.0</ele><time>2026-03-28T14:18:39.001Z</time></trkpt><trkpt lat="44.06613996038869" lon="10.109194660614488"><ele>253.0</ele><time>2026-03-28T14:18:40.001Z</time></trkpt><trkpt lat="44.06622410458382" lon="10.109089306768919"><ele>253.0</ele><time>2026-03-28T14:18:41.001Z</time></trkpt><trkpt lat="44.06629011349822" lon="10.109024800553692"><ele>257.0</ele><time>2026-03-28T14:18:42.001Z</time></trkpt><trkpt lat="44.066335567427025" lon="10.108874751572618"><ele>261.0</ele><time>2026-03-28T14:18:44.001Z</time></trkpt><trkpt lat="44.06622311506194" lon="10.108808408988546"><ele>265.0</ele><time>2026-03-28T14:18:47.001Z</time></trkpt><trkpt lat="44.0661797023955" lon="10.108871987638926"><ele>269.0</ele><time>2026-03-28T14:18:48.001Z</time></trkpt><trkpt lat="44.06603593934436" lon="10.109042328921252"><ele>273.6666666666667</ele><time>2026-03-28T14:18:49.001Z</time></trkpt><trkpt lat="44.06594295440329" lon="10.109153620082221"><ele>278.3333333333333</ele><time>2026-03-28T14:18:50.001Z</time></trkpt><trkpt lat="44.065778584476185" lon="10.109317318470552"><ele>283.0</ele><time>2026-03-28T14:18:51.001Z</time></trkpt><trkpt lat="44.065636085590434" lon="10.109409690878444"><ele>283.0</ele><time>2026-03-28T14:18:52.001Z</time></trkpt><trkpt lat="44.065505039467006" lon="10.109486768724025"><ele>283.0</ele><time>2026-03-28T14:18:53.001Z</time></trkpt><trkpt lat="44.065435235634055" lon="10.109559575049376"><ele>283.0</ele><time>2026-03-28T14:18:54.001Z</time></trkpt><trkpt lat="44.06536851419832" lon="10.109649670241064"><ele>283.0</ele><time>2026-03-28T14:18:55.001Z</time></trkpt><trkpt lat="44.06537958543619" lon="10.109754187015671"><ele>283.0</ele><time>2026-03-28T14:18:56.001Z</time></trkpt><trkpt lat="44.065403880178586" lon="10.109931545442453"><ele>283.0</ele><time>2026-03-28T14:18:57.001Z</time></trkpt><trkpt lat="44.06538981818999" lon="10.11004718710947"><ele>283.0</ele><time>2026-03-28T14:18:58.001Z</time></trkpt><trkpt lat="44.06532566682764" lon="10.110064782118364"><ele>283.0</ele><time>2026-03-28T14:19:00.001Z</time></trkpt><trkpt lat="44.06531355620942" lon="10.10985128785805"><ele>283.0</ele><time>2026-03-28T14:19:02.001Z</time></trkpt><trkpt lat="44.065303944674575" lon="10.109752735951528"><ele>283.0</ele><time>2026-03-28T14:19:03.001Z</time></trkpt><trkpt lat="44.06529571931296" lon="10.109650688203704"><ele>283.0</ele><time>2026-03-28T14:19:04.001Z</time></trkpt><trkpt lat="44.065301570982164" lon="10.109527782609021"><ele>283.0</ele><time>2026-03-28T14:19:05.001Z</time></trkpt><trkpt lat="44.06532186547065" lon="10.109363456873194"><ele>283.0</ele><time>2026-03-28T14:19:06.001Z</time></trkpt><trkpt lat="44.06538901215553" lon="10.109200539208896"><ele>283.0</ele><time>2026-03-28T14:19:07.001Z</time></trkpt><trkpt lat="44.065465180783896" lon="10.109104144801096"><ele>283.0</ele><time>2026-03-28T14:19:08.001Z</time></trkpt><trkpt lat="44.065565471794415" lon="10.109053981097166"><ele>288.4</ele><time>2026-03-28T14:19:09.001Z</time></trkpt><trkpt lat="44.06561850157176" lon="10.108933740527746"><ele>293.8</ele><time>2026-03-28T14:19:10.001Z</time></trkpt><trkpt lat="44.06566964940944" lon="10.10883733767021"><ele>299.2</ele><time>2026-03-28T14:19:11.001Z</time></trkpt><trkpt lat="44.065691980523496" lon="10.108669210810993"><ele>304.6</ele><time>2026-03-28T14:19:12.001Z</time></trkpt><trkpt lat="44.06569857005825" lon="10.108493154389812"><ele>310.0</ele><time>2026-03-28T14:19:13.001Z</time></trkpt><trkpt lat="44.06573294854155" lon="10.10825981636446"><ele>311.6</ele><time>2026-03-28T14:19:14.001Z</time></trkpt><trkpt lat="44.06575370166167" lon="10.108096497823944"><ele>313.2</ele><time>2026-03-28T14:19:15.001Z</time></trkpt><trkpt lat="44.06578138428992" lon="10.107946881536897"><ele>314.8</ele><time>2026-03-28T14:19:16.001Z</time></trkpt><trkpt lat="44.065846486039135" lon="10.107858875770733"><ele>316.4</ele><time>2026-03-28T14:19:17.001Z</time></trkpt><trkpt lat="44.06590455179583" lon="10.107800295415121"><ele>318.0</ele><time>2026-03-28T14:19:18.001Z</time></trkpt><trkpt lat="44.06603042010916" lon="10.107842087219412"><ele>313.1666666666667</ele><time>2026-03-28T14:19:19.001Z</time></trkpt><trkpt lat="44.06615458102885" lon="10.107783156698215"><ele>308.3333333333333</ele><time>2026-03-28T14:19:20.001Z</time></trkpt><trkpt lat="44.06623555743727" lon="10.107757597419601"><ele>303.5</ele><time>2026-03-28T14:19:21.001Z</time></trkpt><trkpt lat="44.06629277815214" lon="10.10771145603459"><ele>298.66666666666663</ele><time>2026-03-28T14:19:22.001Z</time></trkpt><trkpt lat="44.066309031414384" lon="10.10761540014297"><ele>293.8333333333333</ele><time>2026-03-28T14:19:23.001Z</time></trkpt><trkpt lat="44.066316597632316" lon="10.107521511165709"><ele>289.0</ele><time>2026-03-28T14:19:24.001Z</time></trkpt><trkpt lat="44.066264276962336" lon="10.107379291836418"><ele>289.0</ele><time>2026-03-28T14:19:25.001Z</time></trkpt><trkpt lat="44.0662171350382" lon="10.107272589337576"><ele>289.0</ele><time>2026-03-28T14:19:26.001Z</time></trkpt><trkpt lat="44.06615468407162" lon="10.10716793033365"><ele>289.0</ele><time>2026-03-28T14:19:27.001Z</time></trkpt><trkpt lat="44.066140393834274" lon="10.107031257480442"><ele>289.0</ele><time>2026-03-28T14:19:28Z</time></trkpt><trkpt lat="44.06613164117488" lon="10.106911411098329"><ele>289.0</ele><time>2026-03-28T14:19:29Z</time></trkpt><trkpt lat="44.06610960939086" lon="10.106819276040298"><ele>289.0</ele><time>2026-03-28T14:19:30Z</time></trkpt><trkpt lat="44.06605059816344" lon="10.106769046720721"><ele>289.0</ele><time>2026-03-28T14:19:31Z</time></trkpt><trkpt lat="44.065972456584646" lon="10.106792341761063"><ele>289.0</ele><time>2026-03-28T14:19:32Z</time></trkpt><trkpt lat="44.06592483319901" lon="10.106951301161446"><ele>289.0</ele><time>2026-03-28T14:19:34Z</time></trkpt><trkpt lat="44.06590314506193" lon="10.107047002554461"><ele>289.0</ele><time>2026-03-28T14:19:35Z</time></trkpt><trkpt lat="44.0659156411298" lon="10.107157577378267"><ele>289.0</ele><time>2026-03-28T14:19:36Z</time></trkpt><trkpt lat="44.065909377645575" lon="10.107303116887213"><ele>287.66666666666663</ele><time>2026-03-28T14:19:37Z</time></trkpt><trkpt lat="44.06588382555318" lon="10.107433352388128"><ele>286.3333333333333</ele><time>2026-03-28T14:19:38Z</time></trkpt><trkpt lat="44.06582466224481" lon="10.107531144981941"><ele>285.0</ele><time>2026-03-28T14:19:39Z</time></trkpt><trkpt lat="44.0657586201408" lon="10.10760521376223"><ele>283.6666666666667</ele><time>2026-03-28T14:19:40Z</time></trkpt><trkpt lat="44.06568629399368" lon="10.107691875733833"><ele>282.33333333333337</ele><time>2026-03-28T14:19:41Z</time></trkpt><trkpt lat="44.06561877943275" lon="10.107752234575575"><ele>281.0</ele><time>2026-03-28T14:19:42Z</time></trkpt><trkpt lat="44.06556394850448" lon="10.107822271707645"><ele>285.83333333333337</ele><time>2026-03-28T14:19:43Z</time></trkpt><trkpt lat="44.06552429455121" lon="10.10791496505837"><ele>290.6666666666667</ele><time>2026-03-28T14:19:44Z</time></trkpt><trkpt lat="44.065513516121186" lon="10.108014272880617"><ele>295.5</ele><time>2026-03-28T14:19:45Z</time></trkpt><trkpt lat="44.06547739493192" lon="10.108108569776173"><ele>300.3333333333333</ele><time>2026-03-28T14:19:46Z</time></trkpt><trkpt lat="44.065431257161" lon="10.108211198949478"><ele>305.16666666666663</ele><time>2026-03-28T14:19:47Z</time></trkpt><trkpt lat="44.06536816019526" lon="10.10834163012871"><ele>310.0</ele><time>2026-03-28T14:19:48Z</time></trkpt><trkpt lat="44.06529312710004" lon="10.10844437717047"><ele>310.0</ele><time>2026-03-28T14:19:49Z</time></trkpt><trkpt lat="44.06522384572887" lon="10.108519901572999"><ele>310.0</ele><time>2026-03-28T14:19:50Z</time></trkpt><trkpt lat="44.065158175702905" lon="10.108594639943957"><ele>310.0</ele><time>2026-03-28T14:19:51Z</time></trkpt><trkpt lat="44.065088957192586" lon="10.108663066860398"><ele>310.0</ele><time>2026-03-28T14:19:52Z</time></trkpt><trkpt lat="44.06500469775096" lon="10.108746403721446"><ele>310.0</ele><time>2026-03-28T14:19:53Z</time></trkpt><trkpt lat="44.06494711659194" lon="10.108860293054194"><ele>307.8</ele><time>2026-03-28T14:19:54Z</time></trkpt><trkpt lat="44.0648675422479" lon="10.108963441866084"><ele>305.6</ele><time>2026-03-28T14:19:55Z</time></trkpt><trkpt lat="44.0647865572908" lon="10.109057962350063"><ele>303.4</ele><time>2026-03-28T14:19:56Z</time></trkpt><trkpt lat="44.064730841019866" lon="10.109117874176409"><ele>301.2</ele><time>2026-03-28T14:19:57Z</time></trkpt><trkpt lat="44.064682354125566" lon="10.109198666008647"><ele>299.0</ele><time>2026-03-28T14:19:58Z</time></trkpt><trkpt lat="44.06466284441712" lon="10.109062483284182"><ele>301.2</ele><time>2026-03-28T14:20:01Z</time></trkpt><trkpt lat="44.064792305085454" lon="10.108976488274545"><ele>303.4</ele><time>2026-03-28T14:20:03Z</time></trkpt><trkpt lat="44.06485854364922" lon="10.108898229651636"><ele>305.6</ele><time>2026-03-28T14:20:04Z</time></trkpt><trkpt lat="44.064905875471574" lon="10.108832040929801"><ele>307.8</ele><time>2026-03-28T14:20:05Z</time></trkpt><trkpt lat="44.064961922968834" lon="10.108743877898414"><ele>310.0</ele><time>2026-03-28T14:20:06Z</time></trkpt><trkpt lat="44.065007377397826" lon="10.108651241103175"><ele>310.0</ele><time>2026-03-28T14:20:07Z</time></trkpt><trkpt lat="44.065056171703986" lon="10.108543949058614"><ele>310.0</ele><time>2026-03-28T14:20:08Z</time></trkpt><trkpt lat="44.065111841445024" lon="10.108420879512915"><ele>310.0</ele><time>2026-03-28T14:20:09Z</time></trkpt><trkpt lat="44.06518258464416" lon="10.108311088979756"><ele>310.0</ele><time>2026-03-28T14:20:10Z</time></trkpt><trkpt lat="44.065236162606794" lon="10.108202543822145"><ele>310.0</ele><time>2026-03-28T14:20:11Z</time></trkpt><trkpt lat="44.065295785837435" lon="10.108099299430048"><ele>312.0</ele><time>2026-03-28T14:20:12Z</time></trkpt><trkpt lat="44.06532757628087" lon="10.107964430962005"><ele>314.0</ele><time>2026-03-28T14:20:13Z</time></trkpt><trkpt lat="44.065348504434986" lon="10.107784514924163"><ele>316.0</ele><time>2026-03-28T14:20:14Z</time></trkpt><trkpt lat="44.065381042570245" lon="10.107611196346117"><ele>318.0</ele><time>2026-03-28T14:20:15Z</time></trkpt><trkpt lat="44.06541119609465" lon="10.107477702677697"><ele>316.8</ele><time>2026-03-28T14:20:16Z</time></trkpt><trkpt lat="44.06548018781421" lon="10.107356730501401"><ele>315.6</ele><time>2026-03-28T14:20:17Z</time></trkpt><trkpt lat="44.065535524720715" lon="10.107223313483216"><ele>314.4</ele><time>2026-03-28T14:20:18Z</time></trkpt><trkpt lat="44.06557001350369" lon="10.107098569339751"><ele>313.2</ele><time>2026-03-28T14:20:19Z</time></trkpt><trkpt lat="44.06558419344456" lon="10.10696485925199"><ele>312.0</ele><time>2026-03-28T14:20:20Z</time></trkpt><trkpt lat="44.065586980051286" lon="10.10686369232407"><ele>312.0</ele><time>2026-03-28T14:20:21Z</time></trkpt><trkpt lat="44.06557787305719" lon="10.106776625909456"><ele>312.0</ele><time>2026-03-28T14:20:22Z</time></trkpt><trkpt lat="44.06553761751765" lon="10.106642351535196"><ele>312.0</ele><time>2026-03-28T14:20:24Z</time></trkpt><trkpt lat="44.06543784076672" lon="10.106582660129854"><ele>312.0</ele><time>2026-03-28T14:20:25Z</time></trkpt><trkpt lat="44.065360605598876" lon="10.106604416651559"><ele>312.0</ele><time>2026-03-28T14:20:26Z</time></trkpt><trkpt lat="44.065283156213546" lon="10.106685228499549"><ele>312.0</ele><time>2026-03-28T14:20:27Z</time></trkpt><trkpt lat="44.065215484495624" lon="10.10668616607784"><ele>312.0</ele><time>2026-03-28T14:20:28Z</time></trkpt><trkpt lat="44.06512253616488" lon="10.10665120941072"><ele>312.0</ele><time>2026-03-28T14:20:30Z</time></trkpt><trkpt lat="44.065083771961525" lon="10.106579020925977"><ele>312.0</ele><time>2026-03-28T14:20:31Z</time></trkpt><trkpt lat="44.06506287427175" lon="10.106479291935301"><ele>312.0</ele><time>2026-03-28T14:20:32Z</time></trkpt><trkpt lat="44.06503750650102" lon="10.106367001777395"><ele>312.0</ele><time>2026-03-28T14:20:33Z</time></trkpt><trkpt lat="44.06502827727809" lon="10.106254593671428"><ele>311.8</ele><time>2026-03-28T14:20:34Z</time></trkpt><trkpt lat="44.06504194167885" lon="10.106083542880754"><ele>311.6</ele><time>2026-03-28T14:20:35Z</time></trkpt><trkpt lat="44.06510444699287" lon="10.105949560273302"><ele>311.40000000000003</ele><time>2026-03-28T14:20:36.001Z</time></trkpt><trkpt lat="44.06513169604429" lon="10.10583587534694"><ele>311.2</ele><time>2026-03-28T14:20:37.001Z</time></trkpt><trkpt lat="44.06515355162608" lon="10.105681700446171"><ele>311.0</ele><time>2026-03-28T14:20:38.001Z</time></trkpt><trkpt lat="44.06514993593424" lon="10.105563971882809"><ele>311.0</ele><time>2026-03-28T14:20:39.001Z</time></trkpt><trkpt lat="44.06511211034651" lon="10.10544184183566"><ele>311.0</ele><time>2026-03-28T14:20:40.001Z</time></trkpt><trkpt lat="44.06503973363039" lon="10.105378273253878"><ele>311.0</ele><time>2026-03-28T14:20:41.001Z</time></trkpt><trkpt lat="44.06496284197986" lon="10.105357244283937"><ele>311.0</ele><time>2026-03-28T14:20:42.001Z</time></trkpt><trkpt lat="44.064885203933194" lon="10.105356774766074"><ele>311.0</ele><time>2026-03-28T14:20:43.001Z</time></trkpt><trkpt lat="44.064810557799376" lon="10.105407271072593"><ele>311.0</ele><time>2026-03-28T14:20:44.001Z</time></trkpt><trkpt lat="44.064719043540066" lon="10.105472100562329"><ele>311.0</ele><time>2026-03-28T14:20:45.001Z</time></trkpt><trkpt lat="44.064633454913384" lon="10.105528151444508"><ele>311.0</ele><time>2026-03-28T14:20:46.001Z</time></trkpt><trkpt lat="44.06456710668225" lon="10.105531521263488"><ele>311.0</ele><time>2026-03-28T14:20:47.001Z</time></trkpt><trkpt lat="44.064495693320474" lon="10.105516699750616"><ele>311.0</ele><time>2026-03-28T14:20:48.001Z</time></trkpt><trkpt lat="44.064416849576745" lon="10.105524351340934"><ele>311.0</ele><time>2026-03-28T14:20:49.001Z</time></trkpt><trkpt lat="44.0643462154484" lon="10.105520462933073"><ele>311.0</ele><time>2026-03-28T14:20:50.001Z</time></trkpt><trkpt lat="44.06424759357337" lon="10.105551719962538"><ele>311.0</ele><time>2026-03-28T14:20:51.001Z</time></trkpt><trkpt lat="44.06416699494776" lon="10.105591069012583"><ele>311.0</ele><time>2026-03-28T14:20:52.001Z</time></trkpt><trkpt lat="44.064083280352655" lon="10.105652650367288"><ele>311.0</ele><time>2026-03-28T14:20:53.001Z</time></trkpt><trkpt lat="44.06402158447096" lon="10.105755805385108"><ele>311.0</ele><time>2026-03-28T14:20:54.001Z</time></trkpt><trkpt lat="44.06395281864698" lon="10.105833464465533"><ele>311.0</ele><time>2026-03-28T14:20:55.001Z</time></trkpt><trkpt lat="44.063882695074916" lon="10.105899169721482"><ele>314.0</ele><time>2026-03-28T14:20:57.001Z</time></trkpt><trkpt lat="44.06381211003327" lon="10.105856309264743"><ele>317.0</ele><time>2026-03-28T14:20:59.001Z</time></trkpt><trkpt lat="44.06381251945499" lon="10.10571685083364"><ele>320.0</ele><time>2026-03-28T14:21:01.001Z</time></trkpt><trkpt lat="44.0637638206821" lon="10.105633018634025"><ele>323.0</ele><time>2026-03-28T14:21:02.001Z</time></trkpt><trkpt lat="44.06369988555811" lon="10.105505700567248"><ele>326.0</ele><time>2026-03-28T14:21:03.001Z</time></trkpt><trkpt lat="44.06364584528321" lon="10.105370107856247"><ele>326.0</ele><time>2026-03-28T14:21:04.001Z</time></trkpt><trkpt lat="44.063607284429" lon="10.105255498847791"><ele>326.0</ele><time>2026-03-28T14:21:05.001Z</time></trkpt><trkpt lat="44.0635423924877" lon="10.105138070851366"><ele>326.0</ele><time>2026-03-28T14:21:06.001Z</time></trkpt><trkpt lat="44.063472178886784" lon="10.105008898461858"><ele>326.0</ele><time>2026-03-28T14:21:07.001Z</time></trkpt><trkpt lat="44.06341801073213" lon="10.104869388609169"><ele>326.0</ele><time>2026-03-28T14:21:08.001Z</time></trkpt><trkpt lat="44.06339803930295" lon="10.104733669344657"><ele>325.1666666666667</ele><time>2026-03-28T14:21:09.001Z</time></trkpt><trkpt lat="44.06334707224545" lon="10.104623346708388"><ele>324.33333333333337</ele><time>2026-03-28T14:21:10.001Z</time></trkpt><trkpt lat="44.06330630274532" lon="10.104529602564664"><ele>323.5</ele><time>2026-03-28T14:21:11.001Z</time></trkpt><trkpt lat="44.0632495479999" lon="10.104451803294468"><ele>322.6666666666667</ele><time>2026-03-28T14:21:12.001Z</time></trkpt><trkpt lat="44.06316903789231" lon="10.10440751112703"><ele>321.8333333333333</ele><time>2026-03-28T14:21:13.001Z</time></trkpt><trkpt lat="44.06308424876337" lon="10.104395114464811"><ele>321.0</ele><time>2026-03-28T14:21:14.001Z</time></trkpt><trkpt lat="44.063010384876435" lon="10.104422234626586"><ele>321.0</ele><time>2026-03-28T14:21:15.001Z</time></trkpt><trkpt lat="44.062940654877124" lon="10.104466100660822"><ele>321.0</ele><time>2026-03-28T14:21:16.001Z</time></trkpt><trkpt lat="44.062886763290514" lon="10.104525152689186"><ele>321.0</ele><time>2026-03-28T14:21:17.001Z</time></trkpt><trkpt lat="44.06283553128273" lon="10.104600379858168"><ele>321.0</ele><time>2026-03-28T14:21:18.001Z</time></trkpt><trkpt lat="44.06278386009453" lon="10.104671274956589"><ele>321.0</ele><time>2026-03-28T14:21:19.001Z</time></trkpt><trkpt lat="44.06272989805911" lon="10.104729167660482"><ele>321.0</ele><time>2026-03-28T14:21:20.001Z</time></trkpt><trkpt lat="44.06263730047602" lon="10.104791325369181"><ele>321.0</ele><time>2026-03-28T14:21:21.001Z</time></trkpt><trkpt lat="44.06256847953264" lon="10.104843950223524"><ele>321.0</ele><time>2026-03-28T14:21:22.001Z</time></trkpt><trkpt lat="44.06247421352003" lon="10.104849610857535"><ele>321.0</ele><time>2026-03-28T14:21:23.001Z</time></trkpt><trkpt lat="44.06242846615875" lon="10.104976743914964"><ele>321.0</ele><time>2026-03-28T14:21:24.001Z</time></trkpt><trkpt lat="44.06234740055443" lon="10.105084535007082"><ele>321.0</ele><time>2026-03-28T14:21:26.001Z</time></trkpt><trkpt lat="44.0622575491498" lon="10.10505165061023"><ele>331.0</ele><time>2026-03-28T14:21:29.001Z</time></trkpt><trkpt lat="44.062271885072605" lon="10.104928376420203"><ele>341.0</ele><time>2026-03-28T14:21:30.001Z</time></trkpt><trkpt lat="44.06225535001049" lon="10.104801477592604"><ele>351.0</ele><time>2026-03-28T14:21:31.001Z</time></trkpt><trkpt lat="44.06224285709848" lon="10.104694242239958"><ele>361.0</ele><time>2026-03-28T14:21:32.001Z</time></trkpt><trkpt lat="44.062252689749" lon="10.104552577855305"><ele>371.0</ele><time>2026-03-28T14:21:33.001Z</time></trkpt><trkpt lat="44.062275555582005" lon="10.104416223439454"><ele>370.8</ele><time>2026-03-28T14:21:34Z</time></trkpt><trkpt lat="44.06229790362517" lon="10.1042859578033"><ele>370.6</ele><time>2026-03-28T14:21:35Z</time></trkpt><trkpt lat="44.062325737878055" lon="10.104158941867023"><ele>370.4</ele><time>2026-03-28T14:21:36Z</time></trkpt><trkpt lat="44.06235647381516" lon="10.104026505751074"><ele>370.2</ele><time>2026-03-28T14:21:37Z</time></trkpt><trkpt lat="44.062371916949346" lon="10.10390552909862"><ele>370.0</ele><time>2026-03-28T14:21:38Z</time></trkpt><trkpt lat="44.06236864880513" lon="10.103790696530117"><ele>370.0</ele><time>2026-03-28T14:21:39Z</time></trkpt><trkpt lat="44.062300772397236" lon="10.10369403038697"><ele>370.0</ele><time>2026-03-28T14:21:40Z</time></trkpt><trkpt lat="44.06226987614957" lon="10.103579565820928"><ele>370.0</ele><time>2026-03-28T14:21:41Z</time></trkpt><trkpt lat="44.06223246126374" lon="10.103481212805201"><ele>370.0</ele><time>2026-03-28T14:21:42Z</time></trkpt><trkpt lat="44.06219719223089" lon="10.103352337938166"><ele>370.0</ele><time>2026-03-28T14:21:43Z</time></trkpt><trkpt lat="44.062177949005324" lon="10.103248442521101"><ele>370.0</ele><time>2026-03-28T14:21:44Z</time></trkpt><trkpt lat="44.06214547463369" lon="10.103134563734422"><ele>367.0</ele><time>2026-03-28T14:21:45Z</time></trkpt><trkpt lat="44.06222392934622" lon="10.102987824736596"><ele>364.0</ele><time>2026-03-28T14:21:47Z</time></trkpt><trkpt lat="44.06228025361366" lon="10.102943646696788"><ele>361.0</ele><time>2026-03-28T14:21:48Z</time></trkpt><trkpt lat="44.062410503491144" lon="10.103002590994228"><ele>358.0</ele><time>2026-03-28T14:21:49Z</time></trkpt><trkpt lat="44.062497757204376" lon="10.103008551804718"><ele>355.0</ele><time>2026-03-28T14:21:50Z</time></trkpt><trkpt lat="44.06258204521687" lon="10.102991598428133"><ele>353.16666666666663</ele><time>2026-03-28T14:21:51Z</time></trkpt><trkpt lat="44.062653017876336" lon="10.102981254182811"><ele>351.3333333333333</ele><time>2026-03-28T14:21:52Z</time></trkpt><trkpt lat="44.062721237585755" lon="10.102963679543073"><ele>349.5</ele><time>2026-03-28T14:21:53Z</time></trkpt><trkpt lat="44.06278937351852" lon="10.10292403207675"><ele>347.6666666666667</ele><time>2026-03-28T14:21:54Z</time></trkpt><trkpt lat="44.062851483546844" lon="10.1028504811205"><ele>345.83333333333337</ele><time>2026-03-28T14:21:55Z</time></trkpt><trkpt lat="44.06291020741127" lon="10.10280203035864"><ele>344.0</ele><time>2026-03-28T14:21:56Z</time></trkpt><trkpt lat="44.062930988689544" lon="10.102684563455337"><ele>344.0</ele><time>2026-03-28T14:21:57Z</time></trkpt><trkpt lat="44.06295309722899" lon="10.10256514468598"><ele>344.0</ele><time>2026-03-28T14:21:58Z</time></trkpt><trkpt lat="44.06296534280314" lon="10.10245636474126"><ele>344.0</ele><time>2026-03-28T14:21:59Z</time></trkpt><trkpt lat="44.06289586069423" lon="10.102324037054164"><ele>344.0</ele><time>2026-03-28T14:22:00Z</time></trkpt><trkpt lat="44.0628547708586" lon="10.102208725086252"><ele>344.0</ele><time>2026-03-28T14:22:01Z</time></trkpt><trkpt lat="44.06284235778474" lon="10.102059396048775"><ele>343.79999999999995</ele><time>2026-03-28T14:22:02Z</time></trkpt><trkpt lat="44.0628307637926" lon="10.101900171193252"><ele>343.59999999999997</ele><time>2026-03-28T14:22:03Z</time></trkpt><trkpt lat="44.06283311239757" lon="10.101756811079762"><ele>343.4</ele><time>2026-03-28T14:22:04Z</time></trkpt><trkpt lat="44.06285692557929" lon="10.101591571302821"><ele>343.2</ele><time>2026-03-28T14:22:05Z</time></trkpt><trkpt lat="44.06288141873482" lon="10.101469737898656"><ele>343.0</ele><time>2026-03-28T14:22:06Z</time></trkpt><trkpt lat="44.06296098396527" lon="10.101390755598418"><ele>339.0</ele><time>2026-03-28T14:22:07Z</time></trkpt><trkpt lat="44.06298941094451" lon="10.101289324520659"><ele>335.0</ele><time>2026-03-28T14:22:08Z</time></trkpt><trkpt lat="44.06302461894742" lon="10.101198875092496"><ele>331.0</ele><time>2026-03-28T14:22:09Z</time></trkpt><trkpt lat="44.06302789722898" lon="10.101072578034643"><ele>327.0</ele><time>2026-03-28T14:22:10Z</time></trkpt><trkpt lat="44.063013919782215" lon="10.10098182060028"><ele>323.0</ele><time>2026-03-28T14:22:11Z</time></trkpt><trkpt lat="44.063001222046324" lon="10.100878922906588"><ele>319.0</ele><time>2026-03-28T14:22:12Z</time></trkpt><trkpt lat="44.06293863322915" lon="10.100718553079828"><ele>319.0</ele><time>2026-03-28T14:22:14Z</time></trkpt><trkpt lat="44.062872170935854" lon="10.100668131900397"><ele>319.0</ele><time>2026-03-28T14:22:16Z</time></trkpt><trkpt lat="44.06276512958588" lon="10.100643084712503"><ele>319.0</ele><time>2026-03-28T14:22:33Z</time></trkpt><trkpt lat="44.06268145946284" lon="10.100608616982102"><ele>319.0</ele><time>2026-03-28T14:22:35Z</time></trkpt><trkpt lat="44.062589981490405" lon="10.100634562035724"><ele>319.0</ele><time>2026-03-28T14:22:37Z</time></trkpt><trkpt lat="44.062529220171456" lon="10.100692585891275"><ele>319.0</ele><time>2026-03-28T14:22:38Z</time></trkpt><trkpt lat="44.062456601592864" lon="10.100750559433246"><ele>315.0</ele><time>2026-03-28T14:22:39Z</time></trkpt><trkpt lat="44.06238181533382" lon="10.100811955124902"><ele>311.0</ele><time>2026-03-28T14:22:40.001Z</time></trkpt><trkpt lat="44.062304367370764" lon="10.10086769761111"><ele>307.0</ele><time>2026-03-28T14:22:41.001Z</time></trkpt><trkpt lat="44.06222949989377" lon="10.10094924584756"><ele>303.0</ele><time>2026-03-28T14:22:42.001Z</time></trkpt><trkpt lat="44.06216569189306" lon="10.101025917954143"><ele>299.0</ele><time>2026-03-28T14:22:43.001Z</time></trkpt><trkpt lat="44.06209784404198" lon="10.101097233544388"><ele>295.0</ele><time>2026-03-28T14:22:44.001Z</time></trkpt><trkpt lat="44.06206497697043" lon="10.101202697203425"><ele>295.0</ele><time>2026-03-28T14:22:45.001Z</time></trkpt><trkpt lat="44.06201016414876" lon="10.101318342794158"><ele>295.0</ele><time>2026-03-28T14:22:46.001Z</time></trkpt><trkpt lat="44.06198291548145" lon="10.101430251776563"><ele>295.0</ele><time>2026-03-28T14:22:47.001Z</time></trkpt><trkpt lat="44.06192682612803" lon="10.10152500478368"><ele>295.0</ele><time>2026-03-28T14:22:48.001Z</time></trkpt><trkpt lat="44.06181772726502" lon="10.101581546024612"><ele>295.0</ele><time>2026-03-28T14:22:50.001Z</time></trkpt><trkpt lat="44.061710426418045" lon="10.101585813052926"><ele>299.16666666666663</ele><time>2026-03-28T14:22:51.001Z</time></trkpt><trkpt lat="44.061642149490005" lon="10.101614919843762"><ele>303.3333333333333</ele><time>2026-03-28T14:22:52.001Z</time></trkpt><trkpt lat="44.061572282792014" lon="10.10167072380308"><ele>307.5</ele><time>2026-03-28T14:22:53.001Z</time></trkpt><trkpt lat="44.06152067844817" lon="10.101730561701778"><ele>311.6666666666667</ele><time>2026-03-28T14:22:54.001Z</time></trkpt><trkpt lat="44.06145193743884" lon="10.101808959492665"><ele>315.83333333333337</ele><time>2026-03-28T14:22:55.001Z</time></trkpt><trkpt lat="44.061366641277424" lon="10.101870959137973"><ele>320.0</ele><time>2026-03-28T14:22:56.001Z</time></trkpt><trkpt lat="44.061300627014006" lon="10.101893182771459"><ele>320.0</ele><time>2026-03-28T14:22:57.001Z</time></trkpt><trkpt lat="44.06123177279758" lon="10.101914959522135"><ele>320.0</ele><time>2026-03-28T14:22:58.001Z</time></trkpt><trkpt lat="44.06116215855114" lon="10.101926434418312"><ele>320.0</ele><time>2026-03-28T14:22:59.001Z</time></trkpt><trkpt lat="44.06108084351269" lon="10.101931049036418"><ele>320.0</ele><time>2026-03-28T14:23:00.001Z</time></trkpt><trkpt lat="44.06096512281581" lon="10.101862146145896"><ele>320.0</ele><time>2026-03-28T14:23:02.001Z</time></trkpt><trkpt lat="44.06089334128821" lon="10.101809834499262"><ele>320.0</ele><time>2026-03-28T14:23:03.001Z</time></trkpt><trkpt lat="44.060827856232" lon="10.101760629107917"><ele>317.33333333333337</ele><time>2026-03-28T14:23:04.001Z</time></trkpt><trkpt lat="44.0607682701991" lon="10.101716269481615"><ele>314.6666666666667</ele><time>2026-03-28T14:23:05.001Z</time></trkpt><trkpt lat="44.06072173502015" lon="10.101611580824567"><ele>312.0</ele><time>2026-03-28T14:23:06.001Z</time></trkpt><trkpt lat="44.06064914701812" lon="10.101525233197526"><ele>309.3333333333333</ele><time>2026-03-28T14:23:07.001Z</time></trkpt><trkpt lat="44.060577358001474" lon="10.101439834194876"><ele>306.66666666666663</ele><time>2026-03-28T14:23:08.001Z</time></trkpt><trkpt lat="44.06050854806379" lon="10.101399803818843"><ele>304.0</ele><time>2026-03-28T14:23:09.001Z</time></trkpt><trkpt lat="44.06041432350287" lon="10.101383895641508"><ele>304.0</ele><time>2026-03-28T14:23:10.001Z</time></trkpt><trkpt lat="44.060342165396115" lon="10.101384964720866"><ele>304.0</ele><time>2026-03-28T14:23:11.001Z</time></trkpt><trkpt lat="44.06026116032039" lon="10.101419185247478"><ele>304.0</ele><time>2026-03-28T14:23:12.001Z</time></trkpt><trkpt lat="44.06019076970372" lon="10.10153091788378"><ele>304.0</ele><time>2026-03-28T14:23:14.001Z</time></trkpt><trkpt lat="44.0601542353863" lon="10.101628804223658"><ele>304.0</ele><time>2026-03-28T14:23:15.001Z</time></trkpt><trkpt lat="44.06011982791843" lon="10.101747082931164"><ele>304.0</ele><time>2026-03-28T14:23:16.001Z</time></trkpt><trkpt lat="44.06009889476322" lon="10.101843607852146"><ele>304.0</ele><time>2026-03-28T14:23:17.001Z</time></trkpt><trkpt lat="44.060087355380176" lon="10.101946383929334"><ele>304.0</ele><time>2026-03-28T14:23:18.001Z</time></trkpt><trkpt lat="44.0600654634195" lon="10.102052528441542"><ele>304.0</ele><time>2026-03-28T14:23:19.001Z</time></trkpt><trkpt lat="44.0600580369123" lon="10.102160055109836"><ele>304.0</ele><time>2026-03-28T14:23:20.001Z</time></trkpt><trkpt lat="44.06006530985306" lon="10.102271190989391"><ele>304.0</ele><time>2026-03-28T14:23:21.001Z</time></trkpt><trkpt lat="44.0600614776824" lon="10.102376510747428"><ele>304.0</ele><time>2026-03-28T14:23:22.001Z</time></trkpt><trkpt lat="44.06004373876967" lon="10.102474769941482"><ele>305.8</ele><time>2026-03-28T14:23:23.001Z</time></trkpt><trkpt lat="44.06000989479351" lon="10.102582203327543"><ele>307.59999999999997</ele><time>2026-03-28T14:23:24.001Z</time></trkpt><trkpt lat="44.05999303543543" lon="10.10271321337693"><ele>309.4</ele><time>2026-03-28T14:23:25.001Z</time></trkpt><trkpt lat="44.05997627974988" lon="10.102856825717632"><ele>311.2</ele><time>2026-03-28T14:23:26.001Z</time></trkpt><trkpt lat="44.0599375992988" lon="10.102973158972015"><ele>313.0</ele><time>2026-03-28T14:23:27.001Z</time></trkpt><trkpt lat="44.059904075199334" lon="10.103129092222375"><ele>308.66666666666663</ele><time>2026-03-28T14:23:28.001Z</time></trkpt><trkpt lat="44.05986949991769" lon="10.10324026754173"><ele>304.3333333333333</ele><time>2026-03-28T14:23:29.001Z</time></trkpt><trkpt lat="44.05984329864928" lon="10.103352671069507"><ele>300.0</ele><time>2026-03-28T14:23:30.001Z</time></trkpt><trkpt lat="44.05984125807157" lon="10.103466314794947"><ele>295.6666666666667</ele><time>2026-03-28T14:23:31.001Z</time></trkpt><trkpt lat="44.059830319053816" lon="10.103603170132285"><ele>291.33333333333337</ele><time>2026-03-28T14:23:32.001Z</time></trkpt><trkpt lat="44.05980553381326" lon="10.103709438616253"><ele>287.0</ele><time>2026-03-28T14:23:33.001Z</time></trkpt><trkpt lat="44.059787223889714" lon="10.103847879442375"><ele>287.0</ele><time>2026-03-28T14:23:34.001Z</time></trkpt><trkpt lat="44.05978919307011" lon="10.103961186240419"><ele>287.0</ele><time>2026-03-28T14:23:35.001Z</time></trkpt><trkpt lat="44.05978869438444" lon="10.10407257044315"><ele>287.0</ele><time>2026-03-28T14:23:36.001Z</time></trkpt><trkpt lat="44.05979160316248" lon="10.104164293809356"><ele>287.0</ele><time>2026-03-28T14:23:37.001Z</time></trkpt><trkpt lat="44.059819744562155" lon="10.104244541989086"><ele>287.0</ele><time>2026-03-28T14:23:38.001Z</time></trkpt><trkpt lat="44.059854438325495" lon="10.10438855789737"><ele>287.0</ele><time>2026-03-28T14:23:40Z</time></trkpt><trkpt lat="44.05979909392989" lon="10.104455820356891"><ele>292.2</ele><time>2026-03-28T14:23:42Z</time></trkpt><trkpt lat="44.059683350167866" lon="10.104411643990245"><ele>297.4</ele><time>2026-03-28T14:23:44Z</time></trkpt><trkpt lat="44.05961871351604" lon="10.104344708010647"><ele>302.6</ele><time>2026-03-28T14:23:45Z</time></trkpt><trkpt lat="44.059545452587315" lon="10.104272093336197"><ele>307.8</ele><time>2026-03-28T14:23:46Z</time></trkpt><trkpt lat="44.05943225046665" lon="10.104170394108849"><ele>313.0</ele><time>2026-03-28T14:23:48Z</time></trkpt><trkpt lat="44.05937541795756" lon="10.104117409754755"><ele>307.8</ele><time>2026-03-28T14:23:49Z</time></trkpt><trkpt lat="44.05928579312348" lon="10.104039852789258"><ele>302.6</ele><time>2026-03-28T14:23:50Z</time></trkpt><trkpt lat="44.0591977941234" lon="10.103980963849274"><ele>297.4</ele><time>2026-03-28T14:23:51Z</time></trkpt><trkpt lat="44.05911369042603" lon="10.103934918109825"><ele>292.2</ele><time>2026-03-28T14:23:52Z</time></trkpt><trkpt lat="44.05901981809246" lon="10.103850542319094"><ele>287.0</ele><time>2026-03-28T14:23:53Z</time></trkpt><trkpt lat="44.05893705543123" lon="10.103755407956143"><ele>284.0</ele><time>2026-03-28T14:23:55Z</time></trkpt><trkpt lat="44.05886997298967" lon="10.103680015190845"><ele>281.0</ele><time>2026-03-28T14:23:56Z</time></trkpt><trkpt lat="44.0588020738921" lon="10.103654419287857"><ele>278.0</ele><time>2026-03-28T14:23:57Z</time></trkpt><trkpt lat="44.05870056413043" lon="10.103730708069055"><ele>275.0</ele><time>2026-03-28T14:23:59Z</time></trkpt><trkpt lat="44.058711544053565" lon="10.103820726508049"><ele>272.0</ele><time>2026-03-28T14:24:00Z</time></trkpt><trkpt lat="44.05871702468088" lon="10.103914748641213"><ele>269.0</ele><time>2026-03-28T14:24:01Z</time></trkpt><trkpt lat="44.05876755264784" lon="10.104001995949247"><ele>273.8</ele><time>2026-03-28T14:24:02Z</time></trkpt><trkpt lat="44.058808327394196" lon="10.104146960715877"><ele>278.59999999999997</ele><time>2026-03-28T14:24:04Z</time></trkpt><trkpt lat="44.058821017373006" lon="10.104251991224828"><ele>283.4</ele><time>2026-03-28T14:24:06Z</time></trkpt><trkpt lat="44.05868737051691" lon="10.104296520023315"><ele>288.2</ele><time>2026-03-28T14:24:08Z</time></trkpt><trkpt lat="44.05860808058682" lon="10.10429276203637"><ele>293.0</ele><time>2026-03-28T14:24:09Z</time></trkpt><trkpt lat="44.058548993874545" lon="10.104261499074672"><ele>293.0</ele><time>2026-03-28T14:24:10Z</time></trkpt><trkpt lat="44.05842992246475" lon="10.104199676970595"><ele>293.0</ele><time>2026-03-28T14:24:12Z</time></trkpt><trkpt lat="44.0583624420348" lon="10.104186737036578"><ele>293.0</ele><time>2026-03-28T14:24:13Z</time></trkpt><trkpt lat="44.058248709447945" lon="10.10415709577811"><ele>293.0</ele><time>2026-03-28T14:24:15Z</time></trkpt><trkpt lat="44.05820529453449" lon="10.104225978079317"><ele>293.0</ele><time>2026-03-28T14:24:16Z</time></trkpt><trkpt lat="44.0580936895516" lon="10.10427665861243"><ele>289.6</ele><time>2026-03-28T14:24:18Z</time></trkpt><trkpt lat="44.05798448218299" lon="10.104332924448505"><ele>286.20000000000005</ele><time>2026-03-28T14:24:20Z</time></trkpt><trkpt lat="44.05795361235888" lon="10.104490145206261"><ele>282.8</ele><time>2026-03-28T14:24:22Z</time></trkpt><trkpt lat="44.05795090314124" lon="10.104581439405507"><ele>279.40000000000003</ele><time>2026-03-28T14:24:23Z</time></trkpt><trkpt lat="44.05782766506188" lon="10.104642663150676"><ele>276.0</ele><time>2026-03-28T14:24:25Z</time></trkpt><trkpt lat="44.05776715087637" lon="10.104616507057866"><ele>276.0</ele><time>2026-03-28T14:24:26Z</time></trkpt><trkpt lat="44.057683866330436" lon="10.104675321711722"><ele>276.0</ele><time>2026-03-28T14:24:27Z</time></trkpt><trkpt lat="44.05761190564825" lon="10.104686515847245"><ele>276.0</ele><time>2026-03-28T14:24:28Z</time></trkpt><trkpt lat="44.057542580824276" lon="10.104720896801716"><ele>276.0</ele><time>2026-03-28T14:24:29Z</time></trkpt><trkpt lat="44.057504200936975" lon="10.104847387341575"><ele>276.0</ele><time>2026-03-28T14:24:30Z</time></trkpt><trkpt lat="44.057414972764334" lon="10.104944063506917"><ele>282.8</ele><time>2026-03-28T14:24:32Z</time></trkpt><trkpt lat="44.05732455566914" lon="10.104967216754224"><ele>289.6</ele><time>2026-03-28T14:24:34Z</time></trkpt><trkpt lat="44.0572313493628" lon="10.104843189851549"><ele>296.4</ele><time>2026-03-28T14:24:36Z</time></trkpt><trkpt lat="44.05719631442631" lon="10.104706489346531"><ele>303.2</ele><time>2026-03-28T14:24:37Z</time></trkpt><trkpt lat="44.05717019288879" lon="10.1046176922694"><ele>310.0</ele><time>2026-03-28T14:24:38Z</time></trkpt><trkpt lat="44.05710877317227" lon="10.104481502419393"><ele>310.0</ele><time>2026-03-28T14:24:40Z</time></trkpt><trkpt lat="44.05705204458068" lon="10.104349523406784"><ele>310.0</ele><time>2026-03-28T14:24:42Z</time></trkpt><trkpt lat="44.057048938453924" lon="10.104261231147266"><ele>310.0</ele><time>2026-03-28T14:24:43Z</time></trkpt><trkpt lat="44.05709119519242" lon="10.104186057807542"><ele>310.0</ele><time>2026-03-28T14:24:44Z</time></trkpt><trkpt lat="44.05713751475679" lon="10.104091250517218"><ele>310.0</ele><time>2026-03-28T14:24:45Z</time></trkpt><trkpt lat="44.05708280437482" lon="10.103913803674388"><ele>305.0</ele><time>2026-03-28T14:24:47Z</time></trkpt><trkpt lat="44.057050429359876" lon="10.103784916907554"><ele>300.0</ele><time>2026-03-28T14:24:48Z</time></trkpt><trkpt lat="44.057055990262945" lon="10.103648269296091"><ele>295.0</ele><time>2026-03-28T14:24:49Z</time></trkpt><trkpt lat="44.05703370206295" lon="10.103530984178134"><ele>290.0</ele><time>2026-03-28T14:24:50Z</time></trkpt><trkpt lat="44.05702151155189" lon="10.10342655202313"><ele>285.0</ele><time>2026-03-28T14:24:51Z</time></trkpt><trkpt lat="44.05700047985028" lon="10.103333748710776"><ele>280.0</ele><time>2026-03-28T14:24:52Z</time></trkpt><trkpt lat="44.05696608249708" lon="10.103235943994855"><ele>275.16666666666663</ele><time>2026-03-28T14:24:53Z</time></trkpt><trkpt lat="44.056952307519126" lon="10.103117748602148"><ele>270.3333333333333</ele><time>2026-03-28T14:24:54Z</time></trkpt><trkpt lat="44.05692690008196" lon="10.103032028773711"><ele>265.5</ele><time>2026-03-28T14:24:55Z</time></trkpt><trkpt lat="44.05691212459717" lon="10.10294133570172"><ele>260.6666666666667</ele><time>2026-03-28T14:24:56Z</time></trkpt><trkpt lat="44.056842831762225" lon="10.102819892430723"><ele>255.83333333333334</ele><time>2026-03-28T14:24:58Z</time></trkpt><trkpt lat="44.056769882406755" lon="10.10280039006986"><ele>251.0</ele><time>2026-03-28T14:24:59Z</time></trkpt><trkpt lat="44.056685788701465" lon="10.102840527999788"><ele>255.60000000000002</ele><time>2026-03-28T14:25:00Z</time></trkpt><trkpt lat="44.056616526968114" lon="10.102905515768297"><ele>260.20000000000005</ele><time>2026-03-28T14:25:01Z</time></trkpt><trkpt lat="44.05653907270361" lon="10.102923891445174"><ele>264.79999999999995</ele><time>2026-03-28T14:25:02Z</time></trkpt><trkpt lat="44.05647133268666" lon="10.102947415423735"><ele>269.4</ele><time>2026-03-28T14:25:03Z</time></trkpt><trkpt lat="44.05634767396612" lon="10.102969146688002"><ele>274.0</ele><time>2026-03-28T14:25:05Z</time></trkpt><trkpt lat="44.056238260574375" lon="10.10295745806498"><ele>274.0</ele><time>2026-03-28T14:25:07Z</time></trkpt><trkpt lat="44.05621521922856" lon="10.102840515326456"><ele>274.0</ele><time>2026-03-28T14:25:09Z</time></trkpt><trkpt lat="44.056178698501775" lon="10.102700791602748"><ele>274.0</ele><time>2026-03-28T14:25:10Z</time></trkpt><trkpt lat="44.05614294302785" lon="10.10257129761896"><ele>274.0</ele><time>2026-03-28T14:25:11Z</time></trkpt><trkpt lat="44.05612544254128" lon="10.102429905925684"><ele>274.0</ele><time>2026-03-28T14:25:12Z</time></trkpt><trkpt lat="44.05610774149626" lon="10.102312371057803"><ele>269.0</ele><time>2026-03-28T14:25:13Z</time></trkpt><trkpt lat="44.05607452488972" lon="10.102184535108803"><ele>264.0</ele><time>2026-03-28T14:25:14Z</time></trkpt><trkpt lat="44.056071973999465" lon="10.102060775331791"><ele>259.0</ele><time>2026-03-28T14:25:15.001Z</time></trkpt><trkpt lat="44.0560672510811" lon="10.101964651421993"><ele>254.0</ele><time>2026-03-28T14:25:16.001Z</time></trkpt><trkpt lat="44.0560426674189" lon="10.101876254980098"><ele>248.99999999999997</ele><time>2026-03-28T14:25:17.001Z</time></trkpt><trkpt lat="44.056032435248646" lon="10.10176575766017"><ele>244.0</ele><time>2026-03-28T14:25:18.001Z</time></trkpt><trkpt lat="44.05599945821651" lon="10.101685383018317"><ele>243.99999999999997</ele><time>2026-03-28T14:25:19.001Z</time></trkpt><trkpt lat="44.055933602893546" lon="10.101642550057749"><ele>244.0</ele><time>2026-03-28T14:25:20.001Z</time></trkpt><trkpt lat="44.05583430722883" lon="10.101708119262915"><ele>244.0</ele><time>2026-03-28T14:25:22.001Z</time></trkpt><trkpt lat="44.055769021097134" lon="10.101725468943956"><ele>244.0</ele><time>2026-03-28T14:25:23.001Z</time></trkpt><trkpt lat="44.055692572264114" lon="10.101757607056706"><ele>243.99999999999997</ele><time>2026-03-28T14:25:24.001Z</time></trkpt><trkpt lat="44.055618499077035" lon="10.101795758914701"><ele>244.0</ele><time>2026-03-28T14:25:25.001Z</time></trkpt><trkpt lat="44.055549285499836" lon="10.101860207161025"><ele>241.6</ele><time>2026-03-28T14:25:26.001Z</time></trkpt><trkpt lat="44.05548236481123" lon="10.101910532887798"><ele>239.2</ele><time>2026-03-28T14:25:27.001Z</time></trkpt><trkpt lat="44.05542174428722" lon="10.101944053373984"><ele>236.79999999999998</ele><time>2026-03-28T14:25:28.001Z</time></trkpt><trkpt lat="44.05528194094666" lon="10.101908282781405"><ele>234.39999999999998</ele><time>2026-03-28T14:25:30.001Z</time></trkpt><trkpt lat="44.05520032539124" lon="10.10190339166296"><ele>232.0</ele><time>2026-03-28T14:25:31.001Z</time></trkpt><trkpt lat="44.055114915216635" lon="10.101895358458528"><ele>231.99999999999997</ele><time>2026-03-28T14:25:32.001Z</time></trkpt><trkpt lat="44.055042167850885" lon="10.101883556326143"><ele>232.0</ele><time>2026-03-28T14:25:33.001Z</time></trkpt><trkpt lat="44.054953195769635" lon="10.101866833930687"><ele>232.0</ele><time>2026-03-28T14:25:34.001Z</time></trkpt><trkpt lat="44.0548716742922" lon="10.101857868559337"><ele>232.0</ele><time>2026-03-28T14:25:35.001Z</time></trkpt><trkpt lat="44.05478125798531" lon="10.101884965875259"><ele>231.99999999999997</ele><time>2026-03-28T14:25:37.001Z</time></trkpt><trkpt lat="44.054725749406145" lon="10.101961867573932"><ele>232.0</ele><time>2026-03-28T14:25:38.001Z</time></trkpt><trkpt lat="44.0547151866538" lon="10.102078171949533"><ele>228.33333333333331</ele><time>2026-03-28T14:25:39.001Z</time></trkpt><trkpt lat="44.05472981504794" lon="10.102175776518395"><ele>224.66666666666666</ele><time>2026-03-28T14:25:40.001Z</time></trkpt><trkpt lat="44.05472753493478" lon="10.102292618197422"><ele>221.0</ele><time>2026-03-28T14:25:41.001Z</time></trkpt><trkpt lat="44.05478402475138" lon="10.102385252406654"><ele>217.33333333333331</ele><time>2026-03-28T14:25:42.001Z</time></trkpt><trkpt lat="44.05485172580798" lon="10.102490894113048"><ele>213.66666666666666</ele><time>2026-03-28T14:25:44.001Z</time></trkpt><trkpt lat="44.054889209589476" lon="10.102597995196533"><ele>210.0</ele><time>2026-03-28T14:25:46Z</time></trkpt><trkpt lat="44.054879446933334" lon="10.102688988539153"><ele>210.0</ele><time>2026-03-28T14:25:53Z</time></trkpt><trkpt lat="44.05488207374469" lon="10.102842854067248"><ele>210.0</ele><time>2026-03-28T14:25:55Z</time></trkpt><trkpt lat="44.05487423119286" lon="10.103000126425558"><ele>210.0</ele><time>2026-03-28T14:25:57Z</time></trkpt><trkpt lat="44.054884948612376" lon="10.103166729983156"><ele>210.0</ele><time>2026-03-28T14:25:59Z</time></trkpt><trkpt lat="44.0549049228746" lon="10.103296517658759"><ele>210.0</ele><time>2026-03-28T14:26:01Z</time></trkpt><trkpt lat="44.05488569334582" lon="10.10340330134551"><ele>213.83333333333334</ele><time>2026-03-28T14:26:03Z</time></trkpt><trkpt lat="44.05480625475745" lon="10.1034463465575"><ele>217.66666666666669</ele><time>2026-03-28T14:26:04Z</time></trkpt><trkpt lat="44.05472820949047" lon="10.103479287267897"><ele>221.5</ele><time>2026-03-28T14:26:06Z</time></trkpt><trkpt lat="44.05466375046647" lon="10.103480355576812"><ele>225.33333333333334</ele><time>2026-03-28T14:26:07Z</time></trkpt><trkpt lat="44.05460057416889" lon="10.103439739421141"><ele>229.16666666666669</ele><time>2026-03-28T14:26:08Z</time></trkpt><trkpt lat="44.05453117843686" lon="10.103355711045992"><ele>233.0</ele><time>2026-03-28T14:26:10Z</time></trkpt><trkpt lat="44.05442201337915" lon="10.103345811728488"><ele>233.00000000000003</ele><time>2026-03-28T14:26:12Z</time></trkpt><trkpt lat="44.054350923774244" lon="10.103399602271033"><ele>233.0</ele><time>2026-03-28T14:26:14Z</time></trkpt><trkpt lat="44.05429989222169" lon="10.103498606243013"><ele>233.0</ele><time>2026-03-28T14:26:18Z</time></trkpt><trkpt lat="44.054260222763844" lon="10.103583140079353"><ele>233.0</ele><time>2026-03-28T14:26:20Z</time></trkpt><trkpt lat="44.054198697959606" lon="10.103666683472008"><ele>233.00000000000003</ele><time>2026-03-28T14:26:22Z</time></trkpt><trkpt lat="44.054112494183805" lon="10.103663140036792"><ele>233.0</ele><time>2026-03-28T14:26:24Z</time></trkpt><trkpt lat="44.05402973401294" lon="10.103658464645267"><ele>236.8</ele><time>2026-03-28T14:26:26Z</time></trkpt><trkpt lat="44.05395835440921" lon="10.103572501425242"><ele>240.60000000000002</ele><time>2026-03-28T14:26:28Z</time></trkpt><trkpt lat="44.05387712122269" lon="10.103477692003995"><ele>244.39999999999998</ele><time>2026-03-28T14:26:30Z</time></trkpt><trkpt lat="44.053768218963334" lon="10.103490488208385"><ele>248.2</ele><time>2026-03-28T14:26:32Z</time></trkpt><trkpt lat="44.053675838182855" lon="10.103489641325895"><ele>252.0</ele><time>2026-03-28T14:26:34Z</time></trkpt><trkpt lat="44.05353430173435" lon="10.103409533305504"><ele>252.0</ele><time>2026-03-28T14:26:36Z</time></trkpt><trkpt lat="44.053543188541205" lon="10.103267863018683"><ele>252.0</ele><time>2026-03-28T14:26:38Z</time></trkpt><trkpt lat="44.05354234908801" lon="10.103166472205164"><ele>252.0</ele><time>2026-03-28T14:26:40Z</time></trkpt><trkpt lat="44.05353664957261" lon="10.103069467325032"><ele>252.0</ele><time>2026-03-28T14:26:41Z</time></trkpt><trkpt lat="44.05354315049224" lon="10.10298176918366"><ele>252.0</ele><time>2026-03-28T14:26:42Z</time></trkpt><trkpt lat="44.05354657040342" lon="10.102870724666387"><ele>252.0</ele><time>2026-03-28T14:26:44Z</time></trkpt><trkpt lat="44.05352299987543" lon="10.102733842627128"><ele>250.8</ele><time>2026-03-28T14:26:46Z</time></trkpt><trkpt lat="44.05346586253419" lon="10.102633158787565"><ele>249.6</ele><time>2026-03-28T14:26:48Z</time></trkpt><trkpt lat="44.05338218072364" lon="10.102503950487188"><ele>248.40000000000003</ele><time>2026-03-28T14:26:50Z</time></trkpt><trkpt lat="44.05326888987504" lon="10.1024690776927"><ele>247.20000000000002</ele><time>2026-03-28T14:26:52Z</time></trkpt><trkpt lat="44.05320584534533" lon="10.102421524533963"><ele>246.0</ele><time>2026-03-28T14:26:54Z</time></trkpt><trkpt lat="44.053176934258104" lon="10.102294613235271"><ele>243.16666666666666</ele><time>2026-03-28T14:26:56Z</time></trkpt><trkpt lat="44.05314373264338" lon="10.102130989867455"><ele>240.33333333333331</ele><time>2026-03-28T14:26:58Z</time></trkpt><trkpt lat="44.05311527921075" lon="10.102044401613412"><ele>237.5</ele><time>2026-03-28T14:26:59Z</time></trkpt><trkpt lat="44.053076795407904" lon="10.101969734204996"><ele>234.66666666666666</ele><time>2026-03-28T14:27:00Z</time></trkpt><trkpt lat="44.05302686151342" lon="10.101916083882738"><ele>231.83333333333331</ele><time>2026-03-28T14:27:01Z</time></trkpt><trkpt lat="44.05296505512204" lon="10.101893773418503"><ele>229.0</ele><time>2026-03-28T14:27:02Z</time></trkpt><trkpt lat="44.05287334717398" lon="10.101865429919613"><ele>228.99999999999997</ele><time>2026-03-28T14:27:03Z</time></trkpt><trkpt lat="44.05279961935372" lon="10.101858486049549"><ele>229.0</ele><time>2026-03-28T14:27:04Z</time></trkpt><trkpt lat="44.052731413728694" lon="10.101915714347228"><ele>229.0</ele><time>2026-03-28T14:27:05Z</time></trkpt><trkpt lat="44.052660888756755" lon="10.101956183725603"><ele>229.0</ele><time>2026-03-28T14:27:06Z</time></trkpt><trkpt lat="44.05259278341174" lon="10.101944283890623"><ele>228.99999999999997</ele><time>2026-03-28T14:27:08Z</time></trkpt><trkpt lat="44.052526401834676" lon="10.101893378670612"><ele>229.0</ele><time>2026-03-28T14:27:09Z</time></trkpt><trkpt lat="44.052429795000116" lon="10.101789990226925"><ele>227.49999999999997</ele><time>2026-03-28T14:27:11Z</time></trkpt><trkpt lat="44.052391733502354" lon="10.101648357890701"><ele>226.0</ele><time>2026-03-28T14:27:13Z</time></trkpt><trkpt lat="44.052392036957706" lon="10.10154711204193"><ele>224.5</ele><time>2026-03-28T14:27:15Z</time></trkpt><trkpt lat="44.05241032542725" lon="10.101459691592053"><ele>223.0</ele><time>2026-03-28T14:27:17Z</time></trkpt><trkpt lat="44.052468668214" lon="10.101365543405917"><ele>221.49999999999997</ele><time>2026-03-28T14:27:20Z</time></trkpt><trkpt lat="44.052507220864044" lon="10.101245126759729"><ele>220.0</ele><time>2026-03-28T14:27:23Z</time></trkpt><trkpt lat="44.052530265501964" lon="10.10113431355914"><ele>219.99999999999997</ele><time>2026-03-28T14:27:25Z</time></trkpt><trkpt lat="44.052581659506075" lon="10.101080200818634"><ele>220.0</ele><time>2026-03-28T14:27:26Z</time></trkpt><trkpt lat="44.052636574400736" lon="10.10098439617969"><ele>220.0</ele><time>2026-03-28T14:27:28Z</time></trkpt><trkpt lat="44.05270475834071" lon="10.10098494731023"><ele>220.0</ele><time>2026-03-28T14:27:29Z</time></trkpt><trkpt lat="44.05279250335431" lon="10.100980585111502"><ele>219.99999999999997</ele><time>2026-03-28T14:27:31.001Z</time></trkpt><trkpt lat="44.05288470452226" lon="10.100918436062887"><ele>220.0</ele><time>2026-03-28T14:27:33.001Z</time></trkpt><trkpt lat="44.052932413597254" lon="10.10077240274748"><ele>218.6</ele><time>2026-03-28T14:27:35.001Z</time></trkpt><trkpt lat="44.05293173094628" lon="10.100679600485208"><ele>217.2</ele><time>2026-03-28T14:27:36.001Z</time></trkpt><trkpt lat="44.05285552341896" lon="10.100544655554069"><ele>215.8</ele><time>2026-03-28T14:27:38.001Z</time></trkpt><trkpt lat="44.05277791701568" lon="10.100502595679073"><ele>214.4</ele><time>2026-03-28T14:27:39.001Z</time></trkpt><trkpt lat="44.05270506940057" lon="10.100469566550784"><ele>213.0</ele><time>2026-03-28T14:27:40.001Z</time></trkpt><trkpt lat="44.052591957163344" lon="10.10034471543859"><ele>213.0</ele><time>2026-03-28T14:27:42.001Z</time></trkpt><trkpt lat="44.05252729217284" lon="10.100258394751146"><ele>213.0</ele><time>2026-03-28T14:27:43.001Z</time></trkpt><trkpt lat="44.05249650326705" lon="10.100170735234377"><ele>213.0</ele><time>2026-03-28T14:27:44.001Z</time></trkpt><trkpt lat="44.05250108626994" lon="10.100080235194696"><ele>213.0</ele><time>2026-03-28T14:27:45.001Z</time></trkpt><trkpt lat="44.05252166821849" lon="10.099976027265335"><ele>213.0</ele><time>2026-03-28T14:27:46.001Z</time></trkpt><trkpt lat="44.052550143055605" lon="10.099853241738394"><ele>213.0</ele><time>2026-03-28T14:27:47.001Z</time></trkpt><trkpt lat="44.05255616659657" lon="10.099753214021694"><ele>209.2</ele><time>2026-03-28T14:27:48.001Z</time></trkpt><trkpt lat="44.05253348926706" lon="10.099653657669387"><ele>205.4</ele><time>2026-03-28T14:27:49.001Z</time></trkpt><trkpt lat="44.05259312024663" lon="10.09947208467593"><ele>201.6</ele><time>2026-03-28T14:27:51.001Z</time></trkpt><trkpt lat="44.05265927233905" lon="10.099381802457085"><ele>197.79999999999998</ele><time>2026-03-28T14:27:52Z</time></trkpt><trkpt lat="44.05271073023114" lon="10.09930792952386"><ele>194.0</ele><time>2026-03-28T14:27:53Z</time></trkpt><trkpt lat="44.05276213120566" lon="10.099242173064807"><ele>194.0</ele><time>2026-03-28T14:27:54Z</time></trkpt><trkpt lat="44.052842180231295" lon="10.099173696874983"><ele>194.0</ele><time>2026-03-28T14:27:55Z</time></trkpt><trkpt lat="44.05290114608882" lon="10.099106099057542"><ele>194.0</ele><time>2026-03-28T14:27:56Z</time></trkpt><trkpt lat="44.05294830373524" lon="10.098982645590013"><ele>194.0</ele><time>2026-03-28T14:27:58Z</time></trkpt><trkpt lat="44.05285528318461" lon="10.09886283534494"><ele>194.0</ele><time>2026-03-28T14:28:00Z</time></trkpt><trkpt lat="44.052766599598954" lon="10.098891269802575"><ele>195.6</ele><time>2026-03-28T14:28:01Z</time></trkpt><trkpt lat="44.052662856213814" lon="10.098905734984314"><ele>197.2</ele><time>2026-03-28T14:28:02Z</time></trkpt><trkpt lat="44.05256402882977" lon="10.098881049983678"><ele>198.79999999999998</ele><time>2026-03-28T14:28:03Z</time></trkpt><trkpt lat="44.052443884602525" lon="10.098859400643024"><ele>200.39999999999998</ele><time>2026-03-28T14:28:04Z</time></trkpt><trkpt lat="44.0523418457038" lon="10.098862378414319"><ele>202.0</ele><time>2026-03-28T14:28:05Z</time></trkpt><trkpt lat="44.05226320173667" lon="10.098879070988769"><ele>202.0</ele><time>2026-03-28T14:28:06Z</time></trkpt><trkpt lat="44.05218750903071" lon="10.098885958284328"><ele>202.0</ele><time>2026-03-28T14:28:07Z</time></trkpt><trkpt lat="44.05214691751622" lon="10.098725652549337"><ele>202.0</ele><time>2026-03-28T14:28:10Z</time></trkpt><trkpt lat="44.05217771677834" lon="10.098556881473815"><ele>202.0</ele><time>2026-03-28T14:28:11Z</time></trkpt><trkpt lat="44.05218842741612" lon="10.09840077034926"><ele>202.0</ele><time>2026-03-28T14:28:12Z</time></trkpt><trkpt lat="44.05216872087337" lon="10.098283006864829"><ele>197.0</ele><time>2026-03-28T14:28:13Z</time></trkpt><trkpt lat="44.052138886295054" lon="10.098176855447162"><ele>192.0</ele><time>2026-03-28T14:28:14Z</time></trkpt><trkpt lat="44.052167006066426" lon="10.098004191496429"><ele>187.0</ele><time>2026-03-28T14:28:16Z</time></trkpt><trkpt lat="44.052178574498804" lon="10.097853856169976"><ele>182.0</ele><time>2026-03-28T14:28:18Z</time></trkpt><trkpt lat="44.05208315572954" lon="10.097774041353599"><ele>177.0</ele><time>2026-03-28T14:28:20Z</time></trkpt><trkpt lat="44.052009622821565" lon="10.097783581832942"><ele>177.0</ele><time>2026-03-28T14:28:21Z</time></trkpt><trkpt lat="44.05193055316537" lon="10.09778714516641"><ele>177.0</ele><time>2026-03-28T14:28:22Z</time></trkpt><trkpt lat="44.05182872199926" lon="10.097764351079794"><ele>177.0</ele><time>2026-03-28T14:28:23Z</time></trkpt><trkpt lat="44.05172388486378" lon="10.097730188693781"><ele>177.0</ele><time>2026-03-28T14:28:24Z</time></trkpt><trkpt lat="44.05162073930528" lon="10.097741824624114"><ele>177.0</ele><time>2026-03-28T14:28:25Z</time></trkpt><trkpt lat="44.05151375768976" lon="10.097724536973727"><ele>176.0</ele><time>2026-03-28T14:28:26Z</time></trkpt><trkpt lat="44.05141879805194" lon="10.097684337779125"><ele>175.0</ele><time>2026-03-28T14:28:27Z</time></trkpt><trkpt lat="44.051328336549545" lon="10.097636996077497"><ele>174.0</ele><time>2026-03-28T14:28:28Z</time></trkpt><trkpt lat="44.05125040218447" lon="10.097598246739901"><ele>173.0</ele><time>2026-03-28T14:28:29Z</time></trkpt><trkpt lat="44.05117940537712" lon="10.097604251243318"><ele>172.0</ele><time>2026-03-28T14:28:30Z</time></trkpt><trkpt lat="44.05110223856932" lon="10.097547604857386"><ele>171.0</ele><time>2026-03-28T14:28:32Z</time></trkpt><trkpt lat="44.05107154312142" lon="10.097454458634088"><ele>169.33333333333334</ele><time>2026-03-28T14:28:33Z</time></trkpt><trkpt lat="44.05102045800368" lon="10.097384570760035"><ele>167.66666666666666</ele><time>2026-03-28T14:28:34Z</time></trkpt><trkpt lat="44.05095111057379" lon="10.097361588113301"><ele>166.0</ele><time>2026-03-28T14:28:35Z</time></trkpt><trkpt lat="44.05084812037783" lon="10.097345622618986"><ele>164.33333333333331</ele><time>2026-03-28T14:28:37Z</time></trkpt><trkpt lat="44.050777096605934" lon="10.09736036556905"><ele>162.66666666666666</ele><time>2026-03-28T14:28:38Z</time></trkpt><trkpt lat="44.05065438348835" lon="10.097336724868185"><ele>161.0</ele><time>2026-03-28T14:28:40Z</time></trkpt><trkpt lat="44.05053758108841" lon="10.09730406413712"><ele>159.66666666666666</ele><time>2026-03-28T14:28:42Z</time></trkpt><trkpt lat="44.05047255084192" lon="10.097284109859034"><ele>158.33333333333331</ele><time>2026-03-28T14:28:43Z</time></trkpt><trkpt lat="44.05035882647337" lon="10.097314763428706"><ele>157.0</ele><time>2026-03-28T14:28:45Z</time></trkpt><trkpt lat="44.05029437815733" lon="10.097365826674485"><ele>155.66666666666666</ele><time>2026-03-28T14:28:46Z</time></trkpt><trkpt lat="44.05022863718498" lon="10.097423991450064"><ele>154.33333333333334</ele><time>2026-03-28T14:28:47Z</time></trkpt><trkpt lat="44.05016134563796" lon="10.097488458908579"><ele>153.0</ele><time>2026-03-28T14:28:49Z</time></trkpt><trkpt lat="44.050087411590724" lon="10.09753355887328"><ele>153.0</ele><time>2026-03-28T14:28:53Z</time></trkpt><trkpt lat="44.0500213261901" lon="10.09755082647775"><ele>153.0</ele><time>2026-03-28T14:28:55Z</time></trkpt><trkpt lat="44.050017309120534" lon="10.097395721730475"><ele>153.0</ele><time>2026-03-28T14:28:58Z</time></trkpt><trkpt lat="44.05005965507102" lon="10.097299505283706"><ele>153.0</ele><time>2026-03-28T14:28:59Z</time></trkpt><trkpt lat="44.05014500000328" lon="10.09721982601309"><ele>153.0</ele><time>2026-03-28T14:29:01Z</time></trkpt><trkpt lat="44.05021754651794" lon="10.097091792276462"><ele>153.0</ele><time>2026-03-28T14:29:03Z</time></trkpt><trkpt lat="44.050245573772955" lon="10.097008292231738"><ele>153.0</ele><time>2026-03-28T14:29:04Z</time></trkpt><trkpt lat="44.0502767720109" lon="10.09693147513339"><ele>153.0</ele><time>2026-03-28T14:29:05Z</time></trkpt><trkpt lat="44.050353156290605" lon="10.096786868854547"><ele>153.0</ele><time>2026-03-28T14:29:07Z</time></trkpt><trkpt lat="44.05039887008059" lon="10.096702299255535"><ele>153.0</ele><time>2026-03-28T14:29:08Z</time></trkpt><trkpt lat="44.0504433871155" lon="10.096596867999724"><ele>153.0</ele><time>2026-03-28T14:29:09Z</time></trkpt><trkpt lat="44.05047884386307" lon="10.09649338835698"><ele>152.83333333333334</ele><time>2026-03-28T14:29:10Z</time></trkpt><trkpt lat="44.050516452633005" lon="10.096399406739911"><ele>152.66666666666666</ele><time>2026-03-28T14:29:11Z</time></trkpt><trkpt lat="44.05055772250454" lon="10.096298248851179"><ele>152.5</ele><time>2026-03-28T14:29:12Z</time></trkpt><trkpt lat="44.05059573825517" lon="10.096195442095663"><ele>152.33333333333331</ele><time>2026-03-28T14:29:13Z</time></trkpt><trkpt lat="44.050599532636674" lon="10.096095351842928"><ele>152.16666666666666</ele><time>2026-03-28T14:29:14Z</time></trkpt><trkpt lat="44.05059436747309" lon="10.095974062687116"><ele>152.0</ele><time>2026-03-28T14:29:15Z</time></trkpt><trkpt lat="44.05058215240033" lon="10.095860229878232"><ele>152.66666666666666</ele><time>2026-03-28T14:29:16Z</time></trkpt><trkpt lat="44.05054880838531" lon="10.095752881216484"><ele>153.33333333333331</ele><time>2026-03-28T14:29:17Z</time></trkpt><trkpt lat="44.05050743789621" lon="10.0956506523813"><ele>154.0</ele><time>2026-03-28T14:29:18Z</time></trkpt><trkpt lat="44.050472746501896" lon="10.095537288869213"><ele>154.66666666666666</ele><time>2026-03-28T14:29:19Z</time></trkpt><trkpt lat="44.05043813986895" lon="10.09544091775234"><ele>155.33333333333334</ele><time>2026-03-28T14:29:20Z</time></trkpt><trkpt lat="44.05037842989006" lon="10.095374865970099"><ele>156.0</ele><time>2026-03-28T14:29:21Z</time></trkpt><trkpt lat="44.05028327210702" lon="10.095303135882588"><ele>156.0</ele><time>2026-03-28T14:29:22Z</time></trkpt><trkpt lat="44.05017762117157" lon="10.095231249393589"><ele>156.0</ele><time>2026-03-28T14:29:23Z</time></trkpt><trkpt lat="44.050061249807335" lon="10.095147427021512"><ele>156.0</ele><time>2026-03-28T14:29:24Z</time></trkpt><trkpt lat="44.04995911723015" lon="10.095080878884463"><ele>156.0</ele><time>2026-03-28T14:29:25Z</time></trkpt><trkpt lat="44.04986303808038" lon="10.095021757587206"><ele>153.5</ele><time>2026-03-28T14:29:26Z</time></trkpt><trkpt lat="44.04978739007843" lon="10.094975534486696"><ele>151.0</ele><time>2026-03-28T14:29:27.001Z</time></trkpt><trkpt lat="44.049739842648954" lon="10.09490538871927"><ele>148.5</ele><time>2026-03-28T14:29:28.001Z</time></trkpt><trkpt lat="44.049700246294954" lon="10.0948349532115"><ele>146.0</ele><time>2026-03-28T14:29:29.001Z</time></trkpt><trkpt lat="44.04964191815548" lon="10.094687639148248"><ele>143.5</ele><time>2026-03-28T14:29:31.001Z</time></trkpt><trkpt lat="44.04960609939777" lon="10.0945564958329"><ele>141.0</ele><time>2026-03-28T14:29:33.001Z</time></trkpt><trkpt lat="44.0496384852577" lon="10.094398659553965"><ele>140.71428571428572</ele><time>2026-03-28T14:29:35.001Z</time></trkpt><trkpt lat="44.04965432597313" lon="10.09430637770731"><ele>140.42857142857142</ele><time>2026-03-28T14:29:36.001Z</time></trkpt><trkpt lat="44.049661711134036" lon="10.094198981665706"><ele>140.14285714285714</ele><time>2026-03-28T14:29:37.001Z</time></trkpt><trkpt lat="44.04970568185568" lon="10.094107386425422"><ele>139.85714285714286</ele><time>2026-03-28T14:29:38.001Z</time></trkpt><trkpt lat="44.04975595866078" lon="10.094052739067907"><ele>139.57142857142858</ele><time>2026-03-28T14:29:39.001Z</time></trkpt><trkpt lat="44.04983169096237" lon="10.094056903200528"><ele>139.28571428571428</ele><time>2026-03-28T14:29:40.001Z</time></trkpt><trkpt lat="44.04990061119874" lon="10.094040584789129"><ele>139.0</ele><time>2026-03-28T14:29:41.001Z</time></trkpt><trkpt lat="44.05000194598349" lon="10.093980113667744"><ele>140.8</ele><time>2026-03-28T14:29:43.001Z</time></trkpt><trkpt lat="44.05009271210444" lon="10.093868031556205"><ele>142.60000000000002</ele><time>2026-03-28T14:29:45.001Z</time></trkpt><trkpt lat="44.05012636575572" lon="10.093786760228287"><ele>144.4</ele><time>2026-03-28T14:29:46.001Z</time></trkpt><trkpt lat="44.05018338018081" lon="10.093692855195298"><ele>146.20000000000002</ele><time>2026-03-28T14:29:47.001Z</time></trkpt><trkpt lat="44.050264368698414" lon="10.09359124200941"><ele>148.0</ele><time>2026-03-28T14:29:48.001Z</time></trkpt><trkpt lat="44.05035268656287" lon="10.093503356221493"><ele>148.0</ele><time>2026-03-28T14:29:49.001Z</time></trkpt><trkpt lat="44.0504290379299" lon="10.093430118251444"><ele>148.0</ele><time>2026-03-28T14:29:50.001Z</time></trkpt><trkpt lat="44.05051301641852" lon="10.09335566580686"><ele>148.0</ele><time>2026-03-28T14:29:51.001Z</time></trkpt><trkpt lat="44.05059091045471" lon="10.093257043510526"><ele>148.0</ele><time>2026-03-28T14:29:52.001Z</time></trkpt><trkpt lat="44.050657222820476" lon="10.093174236537129"><ele>148.0</ele><time>2026-03-28T14:29:53.001Z</time></trkpt><trkpt lat="44.05071474417863" lon="10.093084647558143"><ele>148.33333333333334</ele><time>2026-03-28T14:29:54.001Z</time></trkpt><trkpt lat="44.05075727739604" lon="10.092976651252028"><ele>148.66666666666669</ele><time>2026-03-28T14:29:55.001Z</time></trkpt><trkpt lat="44.05078477109959" lon="10.092864681228134"><ele>149.0</ele><time>2026-03-28T14:29:56.001Z</time></trkpt><trkpt lat="44.05079767740372" lon="10.092747224213582"><ele>149.33333333333334</ele><time>2026-03-28T14:29:57.001Z</time></trkpt><trkpt lat="44.050809548585235" lon="10.092635970545617"><ele>149.66666666666666</ele><time>2026-03-28T14:29:58Z</time></trkpt><trkpt lat="44.05080918870952" lon="10.092522099210216"><ele>150.0</ele><time>2026-03-28T14:29:59Z</time></trkpt><trkpt lat="44.05080364118259" lon="10.092406603535157"><ele>150.4</ele><time>2026-03-28T14:30:00Z</time></trkpt><trkpt lat="44.05080040980205" lon="10.092271730150154"><ele>150.8</ele><time>2026-03-28T14:30:01Z</time></trkpt><trkpt lat="44.050803050317974" lon="10.092134627591546"><ele>151.2</ele><time>2026-03-28T14:30:02Z</time></trkpt><trkpt lat="44.05079396265313" lon="10.092019043890074"><ele>151.6</ele><time>2026-03-28T14:30:03Z</time></trkpt><trkpt lat="44.050782224545905" lon="10.091902573721297"><ele>152.0</ele><time>2026-03-28T14:30:04Z</time></trkpt><trkpt lat="44.05076182726972" lon="10.091781670143515"><ele>150.2</ele><time>2026-03-28T14:30:05Z</time></trkpt><trkpt lat="44.05072151874476" lon="10.09167464360827"><ele>148.39999999999998</ele><time>2026-03-28T14:30:06Z</time></trkpt><trkpt lat="44.05067498011485" lon="10.091576291770703"><ele>146.60000000000002</ele><time>2026-03-28T14:30:07Z</time></trkpt><trkpt lat="44.0506347751207" lon="10.091442028180099"><ele>144.8</ele><time>2026-03-28T14:30:08Z</time></trkpt><trkpt lat="44.05056107337563" lon="10.091345622210202"><ele>143.0</ele><time>2026-03-28T14:30:09Z</time></trkpt><trkpt lat="44.05048387422384" lon="10.091225950991916"><ele>142.6</ele><time>2026-03-28T14:30:10Z</time></trkpt><trkpt lat="44.05042227110748" lon="10.091091729938485"><ele>142.20000000000002</ele><time>2026-03-28T14:30:11Z</time></trkpt><trkpt lat="44.05035750556447" lon="10.090969795105584"><ele>141.8</ele><time>2026-03-28T14:30:12Z</time></trkpt><trkpt lat="44.050286358483405" lon="10.09086053401722"><ele>141.4</ele><time>2026-03-28T14:30:13Z</time></trkpt><trkpt lat="44.050244899234684" lon="10.090747608860836"><ele>141.0</ele><time>2026-03-28T14:30:14Z</time></trkpt><trkpt lat="44.0502100544562" lon="10.090618124995517"><ele>141.8</ele><time>2026-03-28T14:30:15Z</time></trkpt><trkpt lat="44.05017741752483" lon="10.090473811516967"><ele>142.6</ele><time>2026-03-28T14:30:16Z</time></trkpt><trkpt lat="44.05014239887423" lon="10.090341286081209"><ele>143.4</ele><time>2026-03-28T14:30:17Z</time></trkpt><trkpt lat="44.050112987671405" lon="10.09020574062681"><ele>144.2</ele><time>2026-03-28T14:30:18Z</time></trkpt><trkpt lat="44.050050123405136" lon="10.090103783085041"><ele>145.0</ele><time>2026-03-28T14:30:19Z</time></trkpt><trkpt lat="44.05001055120871" lon="10.089988854471205"><ele>145.16666666666669</ele><time>2026-03-28T14:30:20Z</time></trkpt><trkpt lat="44.049956937532386" lon="10.08989282638843"><ele>145.33333333333334</ele><time>2026-03-28T14:30:21Z</time></trkpt><trkpt lat="44.0498887619414" lon="10.08981332615719"><ele>145.5</ele><time>2026-03-28T14:30:22Z</time></trkpt><trkpt lat="44.04982450440298" lon="10.089738838256558"><ele>145.66666666666666</ele><time>2026-03-28T14:30:23Z</time></trkpt><trkpt lat="44.04976141378759" lon="10.089656719243148"><ele>145.83333333333331</ele><time>2026-03-28T14:30:24Z</time></trkpt><trkpt lat="44.04968282818164" lon="10.08960426975177"><ele>146.0</ele><time>2026-03-28T14:30:25Z</time></trkpt><trkpt lat="44.04960059380441" lon="10.089561921975678"><ele>146.0</ele><time>2026-03-28T14:30:26Z</time></trkpt><trkpt lat="44.04951660480838" lon="10.089526711590665"><ele>146.0</ele><time>2026-03-28T14:30:27Z</time></trkpt><trkpt lat="44.049426190972504" lon="10.089504409688386"><ele>146.0</ele><time>2026-03-28T14:30:28Z</time></trkpt><trkpt lat="44.04935226274009" lon="10.08948767477145"><ele>146.0</ele><time>2026-03-28T14:30:29Z</time></trkpt><trkpt lat="44.04927785294287" lon="10.08946931516813"><ele>146.0</ele><time>2026-03-28T14:30:30Z</time></trkpt><trkpt lat="44.04921108730914" lon="10.089447703324115"><ele>146.0</ele><time>2026-03-28T14:30:31Z</time></trkpt><trkpt lat="44.049122164533344" lon="10.089388695987239"><ele>146.0</ele><time>2026-03-28T14:30:33Z</time></trkpt><trkpt lat="44.049077730667804" lon="10.089258633632177"><ele>146.0</ele><time>2026-03-28T14:30:35Z</time></trkpt><trkpt lat="44.049135758876716" lon="10.089095539535492"><ele>146.0</ele><time>2026-03-28T14:30:37Z</time></trkpt><trkpt lat="44.04917645944898" lon="10.089025990301717"><ele>146.0</ele><time>2026-03-28T14:30:38Z</time></trkpt><trkpt lat="44.049247907430455" lon="10.088911254504644"><ele>146.0</ele><time>2026-03-28T14:30:40Z</time></trkpt><trkpt lat="44.04924544218161" lon="10.088817219978878"><ele>145.4</ele><time>2026-03-28T14:30:42Z</time></trkpt><trkpt lat="44.04921458457861" lon="10.088650654877254"><ele>144.8</ele><time>2026-03-28T14:30:44Z</time></trkpt><trkpt lat="44.04916964600708" lon="10.088554159500175"><ele>144.20000000000002</ele><time>2026-03-28T14:30:45Z</time></trkpt><trkpt lat="44.049125497235636" lon="10.088444057402691"><ele>143.6</ele><time>2026-03-28T14:30:46Z</time></trkpt><trkpt lat="44.049100736011916" lon="10.088318476773157"><ele>143.0</ele><time>2026-03-28T14:30:47Z</time></trkpt><trkpt lat="44.0490990371686" lon="10.088209071377243"><ele>144.66666666666666</ele><time>2026-03-28T14:30:48Z</time></trkpt><trkpt lat="44.04912328224145" lon="10.088080214168727"><ele>146.33333333333331</ele><time>2026-03-28T14:30:50Z</time></trkpt><trkpt lat="44.04917822117839" lon="10.088023519910058"><ele>148.0</ele><time>2026-03-28T14:30:51Z</time></trkpt><trkpt lat="44.049250578723644" lon="10.087979404913279"><ele>149.66666666666666</ele><time>2026-03-28T14:30:52Z</time></trkpt><trkpt lat="44.04931454795885" lon="10.087922801083968"><ele>151.33333333333334</ele><time>2026-03-28T14:30:53Z</time></trkpt><trkpt lat="44.04937360093408" lon="10.087873242572085"><ele>153.0</ele><time>2026-03-28T14:30:54Z</time></trkpt><trkpt lat="44.04947549781978" lon="10.087844284243145"><ele>153.5</ele><time>2026-03-28T14:30:56Z</time></trkpt><trkpt lat="44.04953498918949" lon="10.087894791355328"><ele>154.0</ele><time>2026-03-28T14:30:57Z</time></trkpt><trkpt lat="44.04957113466957" lon="10.087991790013245"><ele>154.5</ele><time>2026-03-28T14:30:58Z</time></trkpt><trkpt lat="44.04961767636944" lon="10.088115640232699"><ele>155.0</ele><time>2026-03-28T14:30:59Z</time></trkpt><trkpt lat="44.04966822124132" lon="10.088238602954387"><ele>155.5</ele><time>2026-03-28T14:31:00Z</time></trkpt><trkpt lat="44.04971878883163" lon="10.08835692716451"><ele>156.0</ele><time>2026-03-28T14:31:01Z</time></trkpt><trkpt lat="44.049777082816234" lon="10.088450300415776"><ele>153.83333333333334</ele><time>2026-03-28T14:31:02Z</time></trkpt><trkpt lat="44.049834004704316" lon="10.088514917422263"><ele>151.66666666666666</ele><time>2026-03-28T14:31:03Z</time></trkpt><trkpt lat="44.04989712735213" lon="10.088583558768816"><ele>149.5</ele><time>2026-03-28T14:31:04Z</time></trkpt><trkpt lat="44.04994755255262" lon="10.088658794550819"><ele>147.33333333333331</ele><time>2026-03-28T14:31:05Z</time></trkpt><trkpt lat="44.04999955807994" lon="10.08874194256757"><ele>145.16666666666666</ele><time>2026-03-28T14:31:06Z</time></trkpt><trkpt lat="44.0500395850353" lon="10.088826912875088"><ele>143.0</ele><time>2026-03-28T14:31:07Z</time></trkpt><trkpt lat="44.050080302090066" lon="10.0889074882494"><ele>142.16666666666666</ele><time>2026-03-28T14:31:08Z</time></trkpt><trkpt lat="44.050144819396486" lon="10.088966684694926"><ele>141.33333333333331</ele><time>2026-03-28T14:31:09Z</time></trkpt><trkpt lat="44.05022173145655" lon="10.089006962049224"><ele>140.5</ele><time>2026-03-28T14:31:10Z</time></trkpt><trkpt lat="44.05030686784879" lon="10.089029194873127"><ele>139.66666666666666</ele><time>2026-03-28T14:31:11Z</time></trkpt><trkpt lat="44.05037831087104" lon="10.089058552225065"><ele>138.83333333333334</ele><time>2026-03-28T14:31:12Z</time></trkpt><trkpt lat="44.05044490330174" lon="10.089095890909157"><ele>138.0</ele><time>2026-03-28T14:31:13Z</time></trkpt><trkpt lat="44.05050401892097" lon="10.089136165205902"><ele>138.0</ele><time>2026-03-28T14:31:14Z</time></trkpt><trkpt lat="44.050585332182784" lon="10.089247110769685"><ele>138.0</ele><time>2026-03-28T14:31:16Z</time></trkpt><trkpt lat="44.050597680398056" lon="10.08933924250085"><ele>138.0</ele><time>2026-03-28T14:31:17Z</time></trkpt><trkpt lat="44.05054683566867" lon="10.089440599222355"><ele>138.0</ele><time>2026-03-28T14:31:18Z</time></trkpt><trkpt lat="44.05048568731731" lon="10.08958878917104"><ele>138.0</ele><time>2026-03-28T14:31:19Z</time></trkpt><trkpt lat="44.05043410467926" lon="10.089678976772156"><ele>138.0</ele><time>2026-03-28T14:31:20Z</time></trkpt><trkpt lat="44.0504260370601" lon="10.089777800719052"><ele>138.0</ele><time>2026-03-28T14:31:21Z</time></trkpt><trkpt lat="44.05047481509031" lon="10.089881884961667"><ele>138.0</ele><time>2026-03-28T14:31:22Z</time></trkpt><trkpt lat="44.05053597074249" lon="10.089970330574785"><ele>138.0</ele><time>2026-03-28T14:31:23Z</time></trkpt><trkpt lat="44.050600470135784" lon="10.090076260615382"><ele>138.0</ele><time>2026-03-28T14:31:24Z</time></trkpt><trkpt lat="44.05066083657029" lon="10.090192310463042"><ele>139.4</ele><time>2026-03-28T14:31:25Z</time></trkpt><trkpt lat="44.05072261967286" lon="10.09028401394298"><ele>140.8</ele><time>2026-03-28T14:31:26Z</time></trkpt><trkpt lat="44.05079154687167" lon="10.090356558129717"><ele>142.2</ele><time>2026-03-28T14:31:27Z</time></trkpt><trkpt lat="44.05085731651137" lon="10.09043314942838"><ele>143.6</ele><time>2026-03-28T14:31:28Z</time></trkpt><trkpt lat="44.05095793081264" lon="10.090466849802263"><ele>145.0</ele><time>2026-03-28T14:31:29Z</time></trkpt><trkpt lat="44.05106633875254" lon="10.090479744191363"><ele>139.75</ele><time>2026-03-28T14:31:30Z</time></trkpt><trkpt lat="44.05117472122697" lon="10.09048818596715"><ele>134.5</ele><time>2026-03-28T14:31:31Z</time></trkpt><trkpt lat="44.051296282481566" lon="10.090473211963497"><ele>129.25</ele><time>2026-03-28T14:31:32Z</time></trkpt><trkpt lat="44.05142192014033" lon="10.090435224290477"><ele>124.0</ele><time>2026-03-28T14:31:33Z</time></trkpt><trkpt lat="44.05153265549863" lon="10.090387526874338"><ele>121.0</ele><time>2026-03-28T14:31:34Z</time></trkpt><trkpt lat="44.051646650151056" lon="10.090356073036771"><ele>118.0</ele><time>2026-03-28T14:31:35Z</time></trkpt><trkpt lat="44.05176471273171" lon="10.090347130351033"><ele>115.0</ele><time>2026-03-28T14:31:36Z</time></trkpt><trkpt lat="44.051870001304465" lon="10.09030843036263"><ele>112.0</ele><time>2026-03-28T14:31:37Z</time></trkpt><trkpt lat="44.051960693864956" lon="10.090201002291884"><ele>112.00000000000001</ele><time>2026-03-28T14:31:38Z</time></trkpt><trkpt lat="44.05203722738138" lon="10.090104850923671"><ele>112.0</ele><time>2026-03-28T14:31:39Z</time></trkpt><trkpt lat="44.05211074916678" lon="10.090052561025068"><ele>112.0</ele><time>2026-03-28T14:31:40Z</time></trkpt><trkpt lat="44.0521872405954" lon="10.090022465679636"><ele>112.0</ele><time>2026-03-28T14:31:41Z</time></trkpt><trkpt lat="44.052275596265105" lon="10.09000262640245"><ele>112.00000000000001</ele><time>2026-03-28T14:31:42.001Z</time></trkpt><trkpt lat="44.05236266599386" lon="10.090030512443612"><ele>112.0</ele><time>2026-03-28T14:31:43.001Z</time></trkpt><trkpt lat="44.052454023451" lon="10.090049976958836"><ele>110.8</ele><time>2026-03-28T14:31:44.001Z</time></trkpt><trkpt lat="44.05254373060947" lon="10.090107364470432"><ele>109.6</ele><time>2026-03-28T14:31:45.001Z</time></trkpt><trkpt lat="44.05264820795738" lon="10.09013474076558"><ele>108.39999999999999</ele><time>2026-03-28T14:31:46.001Z</time></trkpt><trkpt lat="44.05274485872793" lon="10.090154681701293"><ele>107.19999999999999</ele><time>2026-03-28T14:31:47.001Z</time></trkpt><trkpt lat="44.05286874246371" lon="10.090154675431755"><ele>106.0</ele><time>2026-03-28T14:31:48.001Z</time></trkpt><trkpt lat="44.05298585361009" lon="10.090186088296084"><ele>106.0</ele><time>2026-03-28T14:31:49.001Z</time></trkpt><trkpt lat="44.05307799765429" lon="10.09020060812743"><ele>106.0</ele><time>2026-03-28T14:31:50.001Z</time></trkpt><trkpt lat="44.05319163391251" lon="10.090228027925898"><ele>106.0</ele><time>2026-03-28T14:31:51.001Z</time></trkpt><trkpt lat="44.05328789096836" lon="10.090230693764381"><ele>106.0</ele><time>2026-03-28T14:31:52.001Z</time></trkpt><trkpt lat="44.05338084213873" lon="10.090225125396712"><ele>106.0</ele><time>2026-03-28T14:31:53.001Z</time></trkpt><trkpt lat="44.053452673732885" lon="10.090191355204151"><ele>106.19999999999999</ele><time>2026-03-28T14:31:54.001Z</time></trkpt><trkpt lat="44.053541114847036" lon="10.090129646529904"><ele>106.39999999999999</ele><time>2026-03-28T14:31:55.001Z</time></trkpt><trkpt lat="44.053613585600154" lon="10.09007045734571"><ele>106.6</ele><time>2026-03-28T14:31:56.001Z</time></trkpt><trkpt lat="44.05370362054499" lon="10.089978788777783"><ele>106.8</ele><time>2026-03-28T14:31:57.001Z</time></trkpt><trkpt lat="44.053787646184475" lon="10.089885069744195"><ele>107.0</ele><time>2026-03-28T14:31:58.001Z</time></trkpt><trkpt lat="44.05383893077187" lon="10.089821835616402"><ele>104.6</ele><time>2026-03-28T14:31:59.001Z</time></trkpt><trkpt lat="44.053926004092176" lon="10.089710335755722"><ele>102.19999999999999</ele><time>2026-03-28T14:32:00.001Z</time></trkpt><trkpt lat="44.05400329553743" lon="10.089598985635217"><ele>99.8</ele><time>2026-03-28T14:32:01.001Z</time></trkpt><trkpt lat="44.05406124262158" lon="10.089491682452545"><ele>97.4</ele><time>2026-03-28T14:32:02.001Z</time></trkpt><trkpt lat="44.054127883528984" lon="10.089392309579912"><ele>95.0</ele><time>2026-03-28T14:32:03.001Z</time></trkpt><trkpt lat="44.05419191995967" lon="10.089323194928633"><ele>95.0</ele><time>2026-03-28T14:32:04Z</time></trkpt><trkpt lat="44.05427783958834" lon="10.08925935488223"><ele>95.0</ele><time>2026-03-28T14:32:05Z</time></trkpt><trkpt lat="44.05437483601301" lon="10.089227278279205"><ele>95.0</ele><time>2026-03-28T14:32:06Z</time></trkpt><trkpt lat="44.054469134374536" lon="10.08921457352391"><ele>95.0</ele><time>2026-03-28T14:32:07Z</time></trkpt><trkpt lat="44.054554136216886" lon="10.089208804267798"><ele>95.0</ele><time>2026-03-28T14:32:08Z</time></trkpt><trkpt lat="44.05462100368999" lon="10.089198321606267"><ele>95.0</ele><time>2026-03-28T14:32:09Z</time></trkpt><trkpt lat="44.05468102701609" lon="10.089235845791436"><ele>95.0</ele><time>2026-03-28T14:32:10Z</time></trkpt><trkpt lat="44.054739828965054" lon="10.089313804154024"><ele>95.0</ele><time>2026-03-28T14:32:11Z</time></trkpt><trkpt lat="44.05478035459859" lon="10.089420524311"><ele>95.0</ele><time>2026-03-28T14:32:12Z</time></trkpt><trkpt lat="44.05479968228347" lon="10.089536994197585"><ele>95.0</ele><time>2026-03-28T14:32:13Z</time></trkpt><trkpt lat="44.05482160865352" lon="10.089655503466215"><ele>95.0</ele><time>2026-03-28T14:32:14Z</time></trkpt><trkpt lat="44.054826972587314" lon="10.089768435188706"><ele>95.0</ele><time>2026-03-28T14:32:15Z</time></trkpt><trkpt lat="44.05483659106247" lon="10.089865149382636"><ele>97.0</ele><time>2026-03-28T14:32:16Z</time></trkpt><trkpt lat="44.05481737535617" lon="10.08995885912527"><ele>99.0</ele><time>2026-03-28T14:32:17Z</time></trkpt><trkpt lat="44.05477999342334" lon="10.090040568678702"><ele>101.0</ele><time>2026-03-28T14:32:18Z</time></trkpt><trkpt lat="44.05471249366312" lon="10.090101271440318"><ele>103.0</ele><time>2026-03-28T14:32:19Z</time></trkpt><trkpt lat="44.054645279566834" lon="10.090173679437573"><ele>104.99999999999999</ele><time>2026-03-28T14:32:20Z</time></trkpt><trkpt lat="44.054598046170646" lon="10.090272084343734"><ele>107.0</ele><time>2026-03-28T14:32:21Z</time></trkpt><trkpt lat="44.054619260647314" lon="10.090414467156991"><ele>106.99999999999999</ele><time>2026-03-28T14:32:22Z</time></trkpt><trkpt lat="44.05463959117029" lon="10.090557902728728"><ele>107.0</ele><time>2026-03-28T14:32:23Z</time></trkpt><trkpt lat="44.05462329927322" lon="10.0906751929943"><ele>107.0</ele><time>2026-03-28T14:32:24Z</time></trkpt><trkpt lat="44.054600188884585" lon="10.090781461835675"><ele>107.0</ele><time>2026-03-28T14:32:25Z</time></trkpt><trkpt lat="44.05458540578315" lon="10.09087670010076"><ele>106.99999999999999</ele><time>2026-03-28T14:32:26Z</time></trkpt><trkpt lat="44.05454347159886" lon="10.09095266915319"><ele>107.0</ele><time>2026-03-28T14:32:27Z</time></trkpt><trkpt lat="44.0544591764421" lon="10.091048531111369"><ele>104.6</ele><time>2026-03-28T14:32:29Z</time></trkpt><trkpt lat="44.05435179731839" lon="10.090980021398797"><ele>102.19999999999999</ele><time>2026-03-28T14:32:31Z</time></trkpt><trkpt lat="44.05425840293543" lon="10.090915642658505"><ele>99.8</ele><time>2026-03-28T14:32:32Z</time></trkpt><trkpt lat="44.05417132967932" lon="10.090861976335038"><ele>97.4</ele><time>2026-03-28T14:32:33Z</time></trkpt><trkpt lat="44.054070026028796" lon="10.090823284567477"><ele>95.0</ele><time>2026-03-28T14:32:34Z</time></trkpt><trkpt lat="44.053955800053885" lon="10.090868822109977"><ele>95.0</ele><time>2026-03-28T14:32:35Z</time></trkpt><trkpt lat="44.053819283568934" lon="10.090885003451966"><ele>95.0</ele><time>2026-03-28T14:32:36Z</time></trkpt><trkpt lat="44.053697972519934" lon="10.090914788163817"><ele>95.0</ele><time>2026-03-28T14:32:37Z</time></trkpt><trkpt lat="44.0535846988857" lon="10.090942254088015"><ele>95.0</ele><time>2026-03-28T14:32:38Z</time></trkpt><trkpt lat="44.05347783609648" lon="10.090960401250733"><ele>95.0</ele><time>2026-03-28T14:32:39Z</time></trkpt><trkpt lat="44.05336867154805" lon="10.090972786263427"><ele>95.0</ele><time>2026-03-28T14:32:40Z</time></trkpt><trkpt lat="44.053270902720456" lon="10.091008763855948"><ele>95.0</ele><time>2026-03-28T14:32:41Z</time></trkpt><trkpt lat="44.053186497406976" lon="10.091057404705225"><ele>95.0</ele><time>2026-03-28T14:32:43Z</time></trkpt><trkpt lat="44.05320582567191" lon="10.09116272710538"><ele>95.0</ele><time>2026-03-28T14:32:44Z</time></trkpt><trkpt lat="44.053220481189044" lon="10.091258287783612"><ele>95.0</ele><time>2026-03-28T14:32:45Z</time></trkpt><trkpt lat="44.05329581876882" lon="10.091313018720783"><ele>95.0</ele><time>2026-03-28T14:32:46Z</time></trkpt><trkpt lat="44.05333363765781" lon="10.091383511642489"><ele>95.0</ele><time>2026-03-28T14:32:47Z</time></trkpt><trkpt lat="44.05338426653216" lon="10.0914459287294"><ele>95.0</ele><time>2026-03-28T14:32:48Z</time></trkpt><trkpt lat="44.05343203155376" lon="10.091507761927724"><ele>95.0</ele><time>2026-03-28T14:32:49Z</time></trkpt><trkpt lat="44.053477990036924" lon="10.09156970595498"><ele>95.0</ele><time>2026-03-28T14:32:50Z</time></trkpt><trkpt lat="44.053549083256335" lon="10.09171187859162"><ele>93.66666666666667</ele><time>2026-03-28T14:32:52Z</time></trkpt><trkpt lat="44.0535918472334" lon="10.09179535787033"><ele>92.33333333333334</ele><time>2026-03-28T14:32:53Z</time></trkpt><trkpt lat="44.05359751859012" lon="10.091911700047222"><ele>91.0</ele><time>2026-03-28T14:32:54Z</time></trkpt><trkpt lat="44.05356114124952" lon="10.092040502626405"><ele>89.66666666666667</ele><time>2026-03-28T14:32:55Z</time></trkpt><trkpt lat="44.053521698767604" lon="10.092160862230338"><ele>88.33333333333333</ele><time>2026-03-28T14:32:56Z</time></trkpt><trkpt lat="44.0534655735702" lon="10.092263209901738"><ele>87.0</ele><time>2026-03-28T14:32:57Z</time></trkpt><trkpt lat="44.053418913632726" lon="10.092371511083272"><ele>85.83333333333333</ele><time>2026-03-28T14:32:58Z</time></trkpt><trkpt lat="44.053347692428446" lon="10.092463529722313"><ele>84.66666666666667</ele><time>2026-03-28T14:32:59Z</time></trkpt><trkpt lat="44.053279411116335" lon="10.092536995425812"><ele>83.5</ele><time>2026-03-28T14:33:00Z</time></trkpt><trkpt lat="44.0532386012351" lon="10.092617622849891"><ele>82.33333333333334</ele><time>2026-03-28T14:33:01Z</time></trkpt><trkpt lat="44.0532437965053" lon="10.092752033877751"><ele>81.16666666666667</ele><time>2026-03-28T14:33:03Z</time></trkpt><trkpt lat="44.053267602769544" lon="10.092840752765927"><ele>80.0</ele><time>2026-03-28T14:33:04Z</time></trkpt><trkpt lat="44.05346305410764" lon="10.092892354802503"><ele>80.0</ele><time>2026-03-28T14:33:06Z</time></trkpt><trkpt lat="44.05354973161958" lon="10.092893724111788"><ele>80.0</ele><time>2026-03-28T14:33:07Z</time></trkpt><trkpt lat="44.053643030978776" lon="10.0928539641258"><ele>80.0</ele><time>2026-03-28T14:33:08Z</time></trkpt><trkpt lat="44.053726704918375" lon="10.092812959718016"><ele>80.0</ele><time>2026-03-28T14:33:09Z</time></trkpt><trkpt lat="44.05380466741901" lon="10.0927939976425"><ele>80.0</ele><time>2026-03-28T14:33:10Z</time></trkpt><trkpt lat="44.05389075012416" lon="10.092767391300475"><ele>80.0</ele><time>2026-03-28T14:33:11Z</time></trkpt><trkpt lat="44.05396961832147" lon="10.092691531423663"><ele>80.0</ele><time>2026-03-28T14:33:12Z</time></trkpt><trkpt lat="44.05405602162865" lon="10.092570835729186"><ele>80.0</ele><time>2026-03-28T14:33:13Z</time></trkpt><trkpt lat="44.05416804656173" lon="10.092432475639875"><ele>80.0</ele><time>2026-03-28T14:33:14Z</time></trkpt><trkpt lat="44.05425814454427" lon="10.092323016059101"><ele>80.0</ele><time>2026-03-28T14:33:15Z</time></trkpt><trkpt lat="44.05435419440484" lon="10.092219765542902"><ele>79.4</ele><time>2026-03-28T14:33:16Z</time></trkpt><trkpt lat="44.054440698772176" lon="10.092140304403932"><ele>78.8</ele><time>2026-03-28T14:33:17Z</time></trkpt><trkpt lat="44.05453622945159" lon="10.092050550666725"><ele>78.2</ele><time>2026-03-28T14:33:18Z</time></trkpt><trkpt lat="44.05460948025051" lon="10.091977780277956"><ele>77.6</ele><time>2026-03-28T14:33:19Z</time></trkpt><trkpt lat="44.05470432475116" lon="10.091902712943266"><ele>77.0</ele><time>2026-03-28T14:33:20Z</time></trkpt><trkpt lat="44.054812176450014" lon="10.091842938450439"><ele>77.0</ele><time>2026-03-28T14:33:21Z</time></trkpt><trkpt lat="44.054909975743605" lon="10.091803317046434"><ele>77.0</ele><time>2026-03-28T14:33:22Z</time></trkpt><trkpt lat="44.05500347703245" lon="10.091750618117667"><ele>77.0</ele><time>2026-03-28T14:33:23Z</time></trkpt><trkpt lat="44.05507485235822" lon="10.091694732164104"><ele>77.0</ele><time>2026-03-28T14:33:24Z</time></trkpt><trkpt lat="44.05512850911752" lon="10.091624963778877"><ele>77.0</ele><time>2026-03-28T14:33:25Z</time></trkpt><trkpt lat="44.05516661245233" lon="10.091508040905468"><ele>77.25</ele><time>2026-03-28T14:33:26Z</time></trkpt><trkpt lat="44.05522732013574" lon="10.091395959511422"><ele>77.5</ele><time>2026-03-28T14:33:27Z</time></trkpt><trkpt lat="44.05527412045072" lon="10.091267235202388"><ele>77.75</ele><time>2026-03-28T14:33:28Z</time></trkpt><trkpt lat="44.05535335352326" lon="10.091107073384812"><ele>78.0</ele><time>2026-03-28T14:33:29Z</time></trkpt><trkpt lat="44.05541739554871" lon="10.090955100654355"><ele>78.0</ele><time>2026-03-28T14:33:30Z</time></trkpt><trkpt lat="44.05550341155793" lon="10.09083042566741"><ele>78.0</ele><time>2026-03-28T14:33:31Z</time></trkpt><trkpt lat="44.05556872365649" lon="10.090721363029703"><ele>78.0</ele><time>2026-03-28T14:33:32Z</time></trkpt><trkpt lat="44.055604754686044" lon="10.090607657375351"><ele>78.0</ele><time>2026-03-28T14:33:33Z</time></trkpt><trkpt lat="44.055636897318074" lon="10.090511998398206"><ele>78.0</ele><time>2026-03-28T14:33:34Z</time></trkpt><trkpt lat="44.05566674700626" lon="10.090418404030705"><ele>78.0</ele><time>2026-03-28T14:33:35Z</time></trkpt><trkpt lat="44.05570548073481" lon="10.090336377476817"><ele>78.0</ele><time>2026-03-28T14:33:37Z</time></trkpt><trkpt lat="44.05575805916391" lon="10.090614698164456"><ele>78.0</ele><time>2026-03-28T14:33:42Z</time></trkpt><trkpt lat="44.05575706228544" lon="10.09071203855275"><ele>78.0</ele><time>2026-03-28T14:33:43Z</time></trkpt><trkpt lat="44.05574798839139" lon="10.090799296522807"><ele>78.0</ele><time>2026-03-28T14:33:44.001Z</time></trkpt><trkpt lat="44.055733222015064" lon="10.090904389492707"><ele>78.0</ele><time>2026-03-28T14:33:45.001Z</time></trkpt><trkpt lat="44.05571323234451" lon="10.09100106635721"><ele>78.0</ele><time>2026-03-28T14:33:46.001Z</time></trkpt><trkpt lat="44.055716203397324" lon="10.091094083933628"><ele>78.0</ele><time>2026-03-28T14:33:47.001Z</time></trkpt><trkpt lat="44.05582895430989" lon="10.091141278733195"><ele>78.0</ele><time>2026-03-28T14:33:49.001Z</time></trkpt><trkpt lat="44.055912526343185" lon="10.091141514678037"><ele>78.0</ele><time>2026-03-28T14:33:50.001Z</time></trkpt><trkpt lat="44.05594035737268" lon="10.091253142314862"><ele>78.0</ele><time>2026-03-28T14:33:52.001Z</time></trkpt><trkpt lat="44.05588219630232" lon="10.09116619850387"><ele>78.0</ele><time>2026-03-28T14:40:02.001Z</time></trkpt><trkpt lat="44.05594561419194" lon="10.091208835795406"><ele>78.0</ele><time>2026-03-28T14:40:07.001Z</time></trkpt><trkpt lat="44.05578897904392" lon="10.091161181653975"><ele>78.0</ele><time>2026-03-28T14:41:36Z</time></trkpt><trkpt lat="44.05573282436845" lon="10.091083775174505"><ele>78.0</ele><time>2026-03-28T14:41:37Z</time></trkpt><trkpt lat="44.0557177209315" lon="10.090990667542018"><ele>78.0</ele><time>2026-03-28T14:41:38Z</time></trkpt><trkpt lat="44.055737125047244" lon="10.090866898048782"><ele>78.83333333333333</ele><time>2026-03-28T14:41:39Z</time></trkpt><trkpt lat="44.05576205223402" lon="10.090736821184878"><ele>79.66666666666667</ele><time>2026-03-28T14:41:40Z</time></trkpt><trkpt lat="44.0557762978814" lon="10.09061190817824"><ele>80.5</ele><time>2026-03-28T14:41:41Z</time></trkpt><trkpt lat="44.055773978887586" lon="10.090494691152502"><ele>81.33333333333334</ele><time>2026-03-28T14:41:42Z</time></trkpt><trkpt lat="44.05574827510814" lon="10.090402300514814"><ele>82.16666666666667</ele><time>2026-03-28T14:41:43Z</time></trkpt><trkpt lat="44.055739184178044" lon="10.09029137336245"><ele>83.0</ele><time>2026-03-28T14:41:45Z</time></trkpt><trkpt lat="44.055811837026454" lon="10.090165412852695"><ele>79.4</ele><time>2026-03-28T14:41:47Z</time></trkpt><trkpt lat="44.055858198412785" lon="10.090089380349772"><ele>75.80000000000001</ele><time>2026-03-28T14:41:48Z</time></trkpt><trkpt lat="44.05591805817286" lon="10.089992142278113"><ele>72.2</ele><time>2026-03-28T14:41:49Z</time></trkpt><trkpt lat="44.0559920041895" lon="10.089894105786456"><ele>68.6</ele><time>2026-03-28T14:41:50Z</time></trkpt><trkpt lat="44.05609034016715" lon="10.089789369236785"><ele>65.0</ele><time>2026-03-28T14:41:51Z</time></trkpt><trkpt lat="44.056174227023014" lon="10.08971794766473"><ele>65.0</ele><time>2026-03-28T14:41:52Z</time></trkpt><trkpt lat="44.056275519981305" lon="10.089617885391098"><ele>65.0</ele><time>2026-03-28T14:41:53Z</time></trkpt><trkpt lat="44.05636584681978" lon="10.089548492620928"><ele>65.0</ele><time>2026-03-28T14:41:54Z</time></trkpt><trkpt lat="44.0564368515977" lon="10.089517649760243"><ele>65.0</ele><time>2026-03-28T14:41:55Z</time></trkpt><trkpt lat="44.05656386033885" lon="10.08949348097049"><ele>65.0</ele><time>2026-03-28T14:41:57Z</time></trkpt><trkpt lat="44.05667252991515" lon="10.089452934969378"><ele>65.25</ele><time>2026-03-28T14:41:58Z</time></trkpt><trkpt lat="44.05679052836794" lon="10.08939608414736"><ele>65.5</ele><time>2026-03-28T14:41:59Z</time></trkpt><trkpt lat="44.056944809574354" lon="10.089364720673414"><ele>65.75</ele><time>2026-03-28T14:42:00Z</time></trkpt><trkpt lat="44.05708063181306" lon="10.089327395615642"><ele>66.0</ele><time>2026-03-28T14:42:01Z</time></trkpt><trkpt lat="44.057183153657334" lon="10.089305047551843"><ele>66.0</ele><time>2026-03-28T14:42:02Z</time></trkpt><trkpt lat="44.057282443329996" lon="10.089244564383675"><ele>66.0</ele><time>2026-03-28T14:42:03Z</time></trkpt><trkpt lat="44.057372570979446" lon="10.089136193238287"><ele>66.0</ele><time>2026-03-28T14:42:04Z</time></trkpt><trkpt lat="44.05741761583152" lon="10.088978276529545"><ele>66.0</ele><time>2026-03-28T14:42:05Z</time></trkpt><trkpt lat="44.057344664540686" lon="10.088779763436404"><ele>65.0</ele><time>2026-03-28T14:42:06.001Z</time></trkpt><trkpt lat="44.05738103536581" lon="10.08857723233466"><ele>64.0</ele><time>2026-03-28T14:42:07.001Z</time></trkpt><trkpt lat="44.05744535327683" lon="10.08829773982909"><ele>63.0</ele><time>2026-03-28T14:42:08.001Z</time></trkpt><trkpt lat="44.05749875897411" lon="10.088065135039189"><ele>62.25</ele><time>2026-03-28T14:42:09.001Z</time></trkpt><trkpt lat="44.05753451819324" lon="10.087859968193989"><ele>61.5</ele><time>2026-03-28T14:42:10.001Z</time></trkpt><trkpt lat="44.05756867191781" lon="10.08765709910513"><ele>60.75</ele><time>2026-03-28T14:42:11.001Z</time></trkpt><trkpt lat="44.05758179819264" lon="10.08745367516854"><ele>60.0</ele><time>2026-03-28T14:42:12.001Z</time></trkpt><trkpt lat="44.05759762250422" lon="10.087268136641493"><ele>59.4</ele><time>2026-03-28T14:42:13.001Z</time></trkpt><trkpt lat="44.05760254814749" lon="10.087097518192998"><ele>58.8</ele><time>2026-03-28T14:42:14.001Z</time></trkpt><trkpt lat="44.05760765497139" lon="10.086941099250243"><ele>58.2</ele><time>2026-03-28T14:42:15.001Z</time></trkpt><trkpt lat="44.05764241662061" lon="10.086831123209278"><ele>57.6</ele><time>2026-03-28T14:42:16.001Z</time></trkpt><trkpt lat="44.057647872295426" lon="10.086712596658115"><ele>57.0</ele><time>2026-03-28T14:42:17.001Z</time></trkpt><trkpt lat="44.05784358525283" lon="10.08664037634574"><ele>56.25</ele><time>2026-03-28T14:42:18.001Z</time></trkpt><trkpt lat="44.05794580719959" lon="10.086535353159222"><ele>55.5</ele><time>2026-03-28T14:42:19.001Z</time></trkpt><trkpt lat="44.05805207748635" lon="10.086438371572354"><ele>54.75</ele><time>2026-03-28T14:42:20.001Z</time></trkpt><trkpt lat="44.0581806288287" lon="10.08636146575583"><ele>54.0</ele><time>2026-03-28T14:42:21.001Z</time></trkpt><trkpt lat="44.05830995774734" lon="10.086259462412741"><ele>53.0</ele><time>2026-03-28T14:42:22.001Z</time></trkpt><trkpt lat="44.0584405379063" lon="10.08619836587253"><ele>52.0</ele><time>2026-03-28T14:42:23.001Z</time></trkpt><trkpt lat="44.058606230423464" lon="10.086175603905845"><ele>51.0</ele><time>2026-03-28T14:42:24.001Z</time></trkpt><trkpt lat="44.058751593134346" lon="10.086116352582557"><ele>51.0</ele><time>2026-03-28T14:42:25.001Z</time></trkpt><trkpt lat="44.05890336848287" lon="10.086052901803379"><ele>51.0</ele><time>2026-03-28T14:42:26.001Z</time></trkpt><trkpt lat="44.05905682019104" lon="10.085964003592503"><ele>51.0</ele><time>2026-03-28T14:42:27.001Z</time></trkpt><trkpt lat="44.05920815433004" lon="10.085893684212603"><ele>50.5</ele><time>2026-03-28T14:42:28.001Z</time></trkpt><trkpt lat="44.05935047966772" lon="10.085810545361984"><ele>50.0</ele><time>2026-03-28T14:42:29.001Z</time></trkpt><trkpt lat="44.05949182809545" lon="10.085747179232273"><ele>49.5</ele><time>2026-03-28T14:42:30.001Z</time></trkpt><trkpt lat="44.059606437645485" lon="10.085672818086655"><ele>49.0</ele><time>2026-03-28T14:42:31.001Z</time></trkpt><trkpt lat="44.059703399868475" lon="10.085548819243954"><ele>49.0</ele><time>2026-03-28T14:42:32.001Z</time></trkpt><trkpt lat="44.05979943685089" lon="10.085424706741858"><ele>49.0</ele><time>2026-03-28T14:42:33.001Z</time></trkpt><trkpt lat="44.05984459386518" lon="10.085244548494916"><ele>49.0</ele><time>2026-03-28T14:42:33.996Z</time></trkpt><trkpt lat="44.059917261167485" lon="10.085117057750997"><ele>49.0</ele><time>2026-03-28T14:42:34.996Z</time></trkpt><trkpt lat="44.05997815782878" lon="10.085003590920175"><ele>48.6</ele><time>2026-03-28T14:42:35.996Z</time></trkpt><trkpt lat="44.06003238729226" lon="10.084917378284736"><ele>48.2</ele><time>2026-03-28T14:42:36.996Z</time></trkpt><trkpt lat="44.060107395524845" lon="10.084813317415252"><ele>47.800000000000004</ele><time>2026-03-28T14:42:38.996Z</time></trkpt><trkpt lat="44.06002984299698" lon="10.084654026983033"><ele>47.400000000000006</ele><time>2026-03-28T14:42:41.997Z</time></trkpt><trkpt lat="44.05997304998868" lon="10.08453789510492"><ele>47.0</ele><time>2026-03-28T14:42:42.997Z</time></trkpt><trkpt lat="44.0599144393546" lon="10.084405832551475"><ele>47.0</ele><time>2026-03-28T14:42:43.997Z</time></trkpt><trkpt lat="44.05986369709806" lon="10.084265959824362"><ele>47.0</ele><time>2026-03-28T14:42:44.997Z</time></trkpt><trkpt lat="44.05982527373773" lon="10.084142371701688"><ele>47.0</ele><time>2026-03-28T14:42:45.997Z</time></trkpt><trkpt lat="44.05983601149362" lon="10.083995238104485"><ele>47.0</ele><time>2026-03-28T14:42:46.997Z</time></trkpt><trkpt lat="44.05988144662122" lon="10.083840168385334"><ele>47.0</ele><time>2026-03-28T14:42:47.997Z</time></trkpt><trkpt lat="44.0599194239818" lon="10.083686062490017"><ele>47.25</ele><time>2026-03-28T14:42:48.997Z</time></trkpt><trkpt lat="44.05995806439399" lon="10.083525190082193"><ele>47.5</ele><time>2026-03-28T14:42:49.998Z</time></trkpt><trkpt lat="44.05998845201486" lon="10.08335768869799"><ele>47.75</ele><time>2026-03-28T14:42:50.998Z</time></trkpt><trkpt lat="44.060019422420076" lon="10.083196808540759"><ele>48.0</ele><time>2026-03-28T14:42:51.998Z</time></trkpt><trkpt lat="44.06005234492207" lon="10.083034277693988"><ele>48.0</ele><time>2026-03-28T14:42:52.998Z</time></trkpt><trkpt lat="44.06008065169496" lon="10.082872867703506"><ele>48.0</ele><time>2026-03-28T14:42:53.998Z</time></trkpt><trkpt lat="44.060110892544344" lon="10.08272630128151"><ele>48.0</ele><time>2026-03-28T14:42:54.998Z</time></trkpt><trkpt lat="44.06010539406528" lon="10.082569850945658"><ele>48.0</ele><time>2026-03-28T14:42:55.998Z</time></trkpt><trkpt lat="44.060086266573656" lon="10.082475421190377"><ele>48.0</ele><time>2026-03-28T14:42:56.998Z</time></trkpt><trkpt lat="44.0600318502878" lon="10.082428514509104"><ele>47.4</ele><time>2026-03-28T14:42:58.998Z</time></trkpt><trkpt lat="44.05997627536632" lon="10.082277813753114"><ele>46.8</ele><time>2026-03-28T14:43:00.999Z</time></trkpt><trkpt lat="44.059943731745825" lon="10.082173676250989"><ele>46.2</ele><time>2026-03-28T14:43:01.999Z</time></trkpt><trkpt lat="44.059903050904936" lon="10.082047790294101"><ele>45.6</ele><time>2026-03-28T14:43:02.999Z</time></trkpt><trkpt lat="44.05985108221546" lon="10.081894161575404"><ele>45.0</ele><time>2026-03-28T14:43:03.999Z</time></trkpt><trkpt lat="44.05980977738927" lon="10.081766798590671"><ele>44.0</ele><time>2026-03-28T14:43:04.999Z</time></trkpt><trkpt lat="44.05976874100181" lon="10.081633405680092"><ele>43.0</ele><time>2026-03-28T14:43:05.999Z</time></trkpt><trkpt lat="44.05971287320358" lon="10.081490495697583"><ele>42.0</ele><time>2026-03-28T14:43:06.999Z</time></trkpt><trkpt lat="44.059650593236" lon="10.08132687167883"><ele>41.0</ele><time>2026-03-28T14:43:07.999Z</time></trkpt><trkpt lat="44.05960283304392" lon="10.081178799329546"><ele>40.8</ele><time>2026-03-28T14:43:08.999Z</time></trkpt><trkpt lat="44.059552209649524" lon="10.081039683535868"><ele>40.599999999999994</ele><time>2026-03-28T14:43:09.999Z</time></trkpt><trkpt lat="44.059499245249384" lon="10.080902046624395"><ele>40.4</ele><time>2026-03-28T14:43:10.999Z</time></trkpt><trkpt lat="44.059467407146535" lon="10.080779298577282"><ele>40.2</ele><time>2026-03-28T14:43:11.999Z</time></trkpt><trkpt lat="44.05946823920906" lon="10.080649198242423"><ele>40.0</ele><time>2026-03-28T14:43:12.999Z</time></trkpt><trkpt lat="44.059497095758786" lon="10.080533383035204"><ele>40.0</ele><time>2026-03-28T14:43:13.999Z</time></trkpt><trkpt lat="44.05949707704973" lon="10.080440235444089"><ele>40.0</ele><time>2026-03-28T14:43:14.999Z</time></trkpt><trkpt lat="44.05944785222194" lon="10.080373984139843"><ele>40.0</ele><time>2026-03-28T14:43:15.999Z</time></trkpt><trkpt lat="44.059395586060155" lon="10.080317121566218"><ele>40.0</ele><time>2026-03-28T14:43:16.999Z</time></trkpt><trkpt lat="44.0593767056107" lon="10.080167981397206"><ele>40.0</ele><time>2026-03-28T14:43:19Z</time></trkpt><trkpt lat="44.05940599944069" lon="10.079996013105555"><ele>40.0</ele><time>2026-03-28T14:43:21Z</time></trkpt><trkpt lat="44.05943230573863" lon="10.079877811424563"><ele>40.0</ele><time>2026-03-28T14:43:22Z</time></trkpt><trkpt lat="44.059469148697794" lon="10.07972663442708"><ele>40.0</ele><time>2026-03-28T14:43:23Z</time></trkpt><trkpt lat="44.059500088768694" lon="10.07954482229837"><ele>40.0</ele><time>2026-03-28T14:43:24Z</time></trkpt><trkpt lat="44.0595731478692" lon="10.079391129281673"><ele>40.0</ele><time>2026-03-28T14:43:25Z</time></trkpt><trkpt lat="44.05965513913811" lon="10.079234002732708"><ele>39.5</ele><time>2026-03-28T14:43:26Z</time></trkpt><trkpt lat="44.059767940774954" lon="10.079077926103658"><ele>39.0</ele><time>2026-03-28T14:43:27Z</time></trkpt><trkpt lat="44.0598728413026" lon="10.07895721892496"><ele>38.5</ele><time>2026-03-28T14:43:28Z</time></trkpt><trkpt lat="44.05997028846084" lon="10.078817211892723"><ele>38.0</ele><time>2026-03-28T14:43:29Z</time></trkpt><trkpt lat="44.06005979641148" lon="10.078677851141606"><ele>38.0</ele><time>2026-03-28T14:43:30Z</time></trkpt><trkpt lat="44.06012063426905" lon="10.07851118743496"><ele>38.0</ele><time>2026-03-28T14:43:31Z</time></trkpt><trkpt lat="44.060145475881704" lon="10.07826365581551"><ele>38.0</ele><time>2026-03-28T14:43:32Z</time></trkpt><trkpt lat="44.06017805908608" lon="10.077987459135532"><ele>38.666666666666664</ele><time>2026-03-28T14:43:33Z</time></trkpt><trkpt lat="44.0601635577794" lon="10.077711815986756"><ele>39.333333333333336</ele><time>2026-03-28T14:43:34Z</time></trkpt><trkpt lat="44.06015458476176" lon="10.077420039279156"><ele>40.0</ele><time>2026-03-28T14:43:35Z</time></trkpt><trkpt lat="44.060152943045765" lon="10.077176877096907"><ele>40.0</ele><time>2026-03-28T14:43:36Z</time></trkpt><trkpt lat="44.06011639498086" lon="10.076955666862036"><ele>40.0</ele><time>2026-03-28T14:43:37Z</time></trkpt><trkpt lat="44.06003963346384" lon="10.076741673111467"><ele>40.0</ele><time>2026-03-28T14:43:38Z</time></trkpt><trkpt lat="44.05993517351953" lon="10.076546825341024"><ele>38.333333333333336</ele><time>2026-03-28T14:43:39Z</time></trkpt><trkpt lat="44.059800146998604" lon="10.0763953940672"><ele>36.666666666666664</ele><time>2026-03-28T14:43:40Z</time></trkpt><trkpt lat="44.05965133807516" lon="10.076243142938997"><ele>35.0</ele><time>2026-03-28T14:43:41Z</time></trkpt><trkpt lat="44.05949349322695" lon="10.076098581574941"><ele>35.0</ele><time>2026-03-28T14:43:42Z</time></trkpt><trkpt lat="44.05931114016825" lon="10.0760093477893"><ele>35.0</ele><time>2026-03-28T14:43:43Z</time></trkpt><trkpt lat="44.059147735619376" lon="10.07596926038505"><ele>35.0</ele><time>2026-03-28T14:43:44Z</time></trkpt><trkpt lat="44.05890840473819" lon="10.07594371131095"><ele>34.5</ele><time>2026-03-28T14:43:45Z</time></trkpt><trkpt lat="44.05868298444437" lon="10.075996241370579"><ele>34.0</ele><time>2026-03-28T14:43:46.001Z</time></trkpt><trkpt lat="44.058453817363166" lon="10.076012468597476"><ele>34.333333333333336</ele><time>2026-03-28T14:43:47.001Z</time></trkpt><trkpt lat="44.05822564002436" lon="10.076078431183133"><ele>34.666666666666664</ele><time>2026-03-28T14:43:48.001Z</time></trkpt><trkpt lat="44.05802699271132" lon="10.076088404918266"><ele>35.0</ele><time>2026-03-28T14:43:49.001Z</time></trkpt><trkpt lat="44.0578429753005" lon="10.076107125622059"><ele>35.0</ele><time>2026-03-28T14:43:50.001Z</time></trkpt><trkpt lat="44.057657019151115" lon="10.07613522937919"><ele>35.0</ele><time>2026-03-28T14:43:51.001Z</time></trkpt><trkpt lat="44.05747735491676" lon="10.076146526158862"><ele>35.0</ele><time>2026-03-28T14:43:52.001Z</time></trkpt><trkpt lat="44.05730125152604" lon="10.076091231991448"><ele>34.666666666666664</ele><time>2026-03-28T14:43:53.001Z</time></trkpt><trkpt lat="44.05713537266789" lon="10.076023683864518"><ele>34.333333333333336</ele><time>2026-03-28T14:43:54.001Z</time></trkpt><trkpt lat="44.05699266284135" lon="10.075951139397219"><ele>34.0</ele><time>2026-03-28T14:43:55.001Z</time></trkpt><trkpt lat="44.05682031619212" lon="10.075875806127192"><ele>32.333333333333336</ele><time>2026-03-28T14:43:56.001Z</time></trkpt><trkpt lat="44.05667562027663" lon="10.075758488956076"><ele>30.666666666666664</ele><time>2026-03-28T14:43:57.001Z</time></trkpt><trkpt lat="44.05653796057054" lon="10.075639792038874"><ele>29.0</ele><time>2026-03-28T14:43:58.001Z</time></trkpt><trkpt lat="44.05641475115603" lon="10.075545503846985"><ele>28.799999999999997</ele><time>2026-03-28T14:43:59.001Z</time></trkpt><trkpt lat="44.05632985991245" lon="10.075484292705843"><ele>28.599999999999998</ele><time>2026-03-28T14:44:00.001Z</time></trkpt><trkpt lat="44.05627358176587" lon="10.075414802078042"><ele>28.4</ele><time>2026-03-28T14:44:02.001Z</time></trkpt><trkpt lat="44.05616957184075" lon="10.075362033395136"><ele>28.2</ele><time>2026-03-28T14:44:05.001Z</time></trkpt><trkpt lat="44.05611656339823" lon="10.075289410427988"><ele>28.0</ele><time>2026-03-28T14:44:06.001Z</time></trkpt><trkpt lat="44.05601219836088" lon="10.07519564499329"><ele>28.0</ele><time>2026-03-28T14:44:08.001Z</time></trkpt><trkpt lat="44.05595797077354" lon="10.075119499089423"><ele>27.999999999999996</ele><time>2026-03-28T14:44:09.001Z</time></trkpt><trkpt lat="44.055860188098364" lon="10.075089954341024"><ele>27.999999999999996</ele><time>2026-03-28T14:44:10.001Z</time></trkpt><trkpt lat="44.05577117390391" lon="10.075008132911496"><ele>28.0</ele><time>2026-03-28T14:44:11.001Z</time></trkpt><trkpt lat="44.05566062803359" lon="10.07491449163315"><ele>28.0</ele><time>2026-03-28T14:44:12.001Z</time></trkpt><trkpt lat="44.05551944201724" lon="10.074796525088171"><ele>27.75</ele><time>2026-03-28T14:44:13.001Z</time></trkpt><trkpt lat="44.055434493347946" lon="10.074644742638633"><ele>27.5</ele><time>2026-03-28T14:44:14.001Z</time></trkpt><trkpt lat="44.05532036465115" lon="10.074541884928156"><ele>27.25</ele><time>2026-03-28T14:44:15.001Z</time></trkpt><trkpt lat="44.055173280207455" lon="10.074409332570971"><ele>27.0</ele><time>2026-03-28T14:44:16.001Z</time></trkpt><trkpt lat="44.05500982589408" lon="10.074261380775997"><ele>26.0</ele><time>2026-03-28T14:44:17.001Z</time></trkpt><trkpt lat="44.054866464262886" lon="10.074130781014462"><ele>25.0</ele><time>2026-03-28T14:44:18.002Z</time></trkpt><trkpt lat="44.0547281693133" lon="10.074001821066098"><ele>24.0</ele><time>2026-03-28T14:44:19.002Z</time></trkpt><trkpt lat="44.05458706287502" lon="10.073890143876715"><ele>24.0</ele><time>2026-03-28T14:44:20.002Z</time></trkpt><trkpt lat="44.054461796077774" lon="10.073746558198007"><ele>24.0</ele><time>2026-03-28T14:44:21.002Z</time></trkpt><trkpt lat="44.054336401319574" lon="10.073619079363317"><ele>24.0</ele><time>2026-03-28T14:44:22.002Z</time></trkpt><trkpt lat="44.054210750666066" lon="10.073495020100092"><ele>23.333333333333332</ele><time>2026-03-28T14:44:23.002Z</time></trkpt><trkpt lat="44.05409435284656" lon="10.073349959287192"><ele>22.666666666666664</ele><time>2026-03-28T14:44:24.002Z</time></trkpt><trkpt lat="44.053961272946935" lon="10.073230912843496"><ele>22.0</ele><time>2026-03-28T14:44:25.002Z</time></trkpt><trkpt lat="44.053852020760715" lon="10.073088806174741"><ele>22.0</ele><time>2026-03-28T14:44:26.002Z</time></trkpt><trkpt lat="44.0537186319201" lon="10.072962572248535"><ele>22.0</ele><time>2026-03-28T14:44:27.002Z</time></trkpt><trkpt lat="44.05358417201554" lon="10.072836936533122"><ele>22.0</ele><time>2026-03-28T14:44:28.002Z</time></trkpt><trkpt lat="44.053440307389934" lon="10.072709838896666"><ele>22.0</ele><time>2026-03-28T14:44:29.002Z</time></trkpt><trkpt lat="44.053290459814235" lon="10.07254345738217"><ele>22.0</ele><time>2026-03-28T14:44:30.002Z</time></trkpt><trkpt lat="44.05314178318328" lon="10.072365557308217"><ele>22.0</ele><time>2026-03-28T14:44:31.002Z</time></trkpt><trkpt lat="44.05298854976268" lon="10.072185112055106"><ele>21.666666666666664</ele><time>2026-03-28T14:44:32.002Z</time></trkpt><trkpt lat="44.05284864531979" lon="10.072016593166575"><ele>21.333333333333332</ele><time>2026-03-28T14:44:33.002Z</time></trkpt><trkpt lat="44.052715276806204" lon="10.071863959233449"><ele>21.0</ele><time>2026-03-28T14:44:34.002Z</time></trkpt><trkpt lat="44.05259188381276" lon="10.071721002562018"><ele>21.0</ele><time>2026-03-28T14:44:35.002Z</time></trkpt><trkpt lat="44.052467701426124" lon="10.071585271033737"><ele>21.0</ele><time>2026-03-28T14:44:36.002Z</time></trkpt><trkpt lat="44.05234906665017" lon="10.071468640240552"><ele>21.0</ele><time>2026-03-28T14:44:37.002Z</time></trkpt><trkpt lat="44.05224335792235" lon="10.07136755985801"><ele>21.0</ele><time>2026-03-28T14:44:38.002Z</time></trkpt><trkpt lat="44.05217238784899" lon="10.071248399027741"><ele>21.0</ele><time>2026-03-28T14:44:39.002Z</time></trkpt><trkpt lat="44.05209452378062" lon="10.07119301308997"><ele>21.0</ele><time>2026-03-28T14:44:40Z</time></trkpt><trkpt lat="44.05205039239784" lon="10.07112482837166"><ele>21.0</ele><time>2026-03-28T14:44:41Z</time></trkpt><trkpt lat="44.05198668340636" lon="10.071056783409682"><ele>21.0</ele><time>2026-03-28T14:44:43Z</time></trkpt><trkpt lat="44.0519482295422" lon="10.070861238164705"><ele>21.0</ele><time>2026-03-28T14:45:56.002Z</time></trkpt><trkpt lat="44.05200703806231" lon="10.070766447741402"><ele>21.200000000000003</ele><time>2026-03-28T14:45:57.002Z</time></trkpt><trkpt lat="44.05206858339688" lon="10.070674746552374"><ele>21.400000000000002</ele><time>2026-03-28T14:45:58.002Z</time></trkpt><trkpt lat="44.05213151187897" lon="10.070572688332645"><ele>21.6</ele><time>2026-03-28T14:45:59.002Z</time></trkpt><trkpt lat="44.05220560946933" lon="10.070442497868873"><ele>21.8</ele><time>2026-03-28T14:46:00.002Z</time></trkpt><trkpt lat="44.052284025138604" lon="10.070305278682106"><ele>22.0</ele><time>2026-03-28T14:46:01.002Z</time></trkpt><trkpt lat="44.052359436473914" lon="10.070152222113455"><ele>22.0</ele><time>2026-03-28T14:46:02.002Z</time></trkpt><trkpt lat="44.05245960633429" lon="10.069980182824573"><ele>22.0</ele><time>2026-03-28T14:46:03.002Z</time></trkpt><trkpt lat="44.05256460876026" lon="10.069793504584664"><ele>22.0</ele><time>2026-03-28T14:46:04.002Z</time></trkpt><trkpt lat="44.052663734008206" lon="10.069612328661128"><ele>22.0</ele><time>2026-03-28T14:46:05.002Z</time></trkpt><trkpt lat="44.05277374861383" lon="10.069421874312305"><ele>22.0</ele><time>2026-03-28T14:46:06.002Z</time></trkpt><trkpt lat="44.052892475649536" lon="10.06920415667231"><ele>22.0</ele><time>2026-03-28T14:46:07.002Z</time></trkpt><trkpt lat="44.0530158950259" lon="10.068979146399716"><ele>21.666666666666664</ele><time>2026-03-28T14:46:08.002Z</time></trkpt><trkpt lat="44.05314215661311" lon="10.068757401613045"><ele>21.333333333333332</ele><time>2026-03-28T14:46:09.002Z</time></trkpt><trkpt lat="44.05327379392706" lon="10.068566389119006"><ele>21.0</ele><time>2026-03-28T14:46:10.002Z</time></trkpt><trkpt lat="44.053399441729916" lon="10.068350344966378"><ele>20.666666666666668</ele><time>2026-03-28T14:46:11.002Z</time></trkpt><trkpt lat="44.05351929456795" lon="10.068110355026288"><ele>20.333333333333336</ele><time>2026-03-28T14:46:12.002Z</time></trkpt><trkpt lat="44.053645683544865" lon="10.067888195663794"><ele>20.0</ele><time>2026-03-28T14:46:13.002Z</time></trkpt><trkpt lat="44.05378215249847" lon="10.067689085226947"><ele>20.0</ele><time>2026-03-28T14:46:14.002Z</time></trkpt><trkpt lat="44.05389617855889" lon="10.067461074788556"><ele>20.0</ele><time>2026-03-28T14:46:15.002Z</time></trkpt><trkpt lat="44.05402845784618" lon="10.0672487420482"><ele>20.0</ele><time>2026-03-28T14:46:16.002Z</time></trkpt><trkpt lat="44.0541521363664" lon="10.067022113250031"><ele>20.0</ele><time>2026-03-28T14:46:17.002Z</time></trkpt><trkpt lat="44.054276209346106" lon="10.066805031381076"><ele>20.0</ele><time>2026-03-28T14:46:18.002Z</time></trkpt><trkpt lat="44.05439747837049" lon="10.066620085218334"><ele>20.0</ele><time>2026-03-28T14:46:19.002Z</time></trkpt><trkpt lat="44.054509885999344" lon="10.066434698314286"><ele>20.0</ele><time>2026-03-28T14:46:20.002Z</time></trkpt><trkpt lat="44.054620822554774" lon="10.06626342239359"><ele>20.0</ele><time>2026-03-28T14:46:21.002Z</time></trkpt><trkpt lat="44.05472160828982" lon="10.066065117812906"><ele>20.0</ele><time>2026-03-28T14:46:22.002Z</time></trkpt><trkpt lat="44.054844930164364" lon="10.065828312378216"><ele>20.0</ele><time>2026-03-28T14:46:23.002Z</time></trkpt><trkpt lat="44.0549456445555" lon="10.065624254896155"><ele>20.0</ele><time>2026-03-28T14:46:24.003Z</time></trkpt><trkpt lat="44.055039722339394" lon="10.065416796180767"><ele>20.0</ele><time>2026-03-28T14:46:25.003Z</time></trkpt><trkpt lat="44.05512192759752" lon="10.065173356463834"><ele>20.0</ele><time>2026-03-28T14:46:26.003Z</time></trkpt><trkpt lat="44.05516865144264" lon="10.064900974058745"><ele>20.0</ele><time>2026-03-28T14:46:27.003Z</time></trkpt><trkpt lat="44.055209701755594" lon="10.064628536900988"><ele>20.0</ele><time>2026-03-28T14:46:28.003Z</time></trkpt><trkpt lat="44.055194138325426" lon="10.064349944229777"><ele>19.333333333333336</ele><time>2026-03-28T14:46:29.003Z</time></trkpt><trkpt lat="44.05518521232646" lon="10.064109850465709"><ele>18.666666666666668</ele><time>2026-03-28T14:46:30.003Z</time></trkpt><trkpt lat="44.05515241924048" lon="10.06386730608226"><ele>18.0</ele><time>2026-03-28T14:46:31.003Z</time></trkpt><trkpt lat="44.055130250036065" lon="10.063684929048357"><ele>18.0</ele><time>2026-03-28T14:46:32.003Z</time></trkpt><trkpt lat="44.05511701079898" lon="10.063552550093092"><ele>18.0</ele><time>2026-03-28T14:46:33.003Z</time></trkpt><trkpt lat="44.05511847058864" lon="10.063443341617857"><ele>18.0</ele><time>2026-03-28T14:46:34.003Z</time></trkpt><trkpt lat="44.05513802235673" lon="10.063320559286801"><ele>18.0</ele><time>2026-03-28T14:46:36.003Z</time></trkpt><trkpt lat="44.055149873633205" lon="10.063204093019413"><ele>18.0</ele><time>2026-03-28T14:46:41.003Z</time></trkpt><trkpt lat="44.055244424892166" lon="10.063099132634084"><ele>18.25</ele><time>2026-03-28T14:46:42.003Z</time></trkpt><trkpt lat="44.05528182618371" lon="10.062973431871853"><ele>18.5</ele><time>2026-03-28T14:46:43.003Z</time></trkpt><trkpt lat="44.05527629047498" lon="10.062810989294805"><ele>18.75</ele><time>2026-03-28T14:46:44.003Z</time></trkpt><trkpt lat="44.05525494784184" lon="10.062645000512166"><ele>19.0</ele><time>2026-03-28T14:46:45.003Z</time></trkpt><trkpt lat="44.055248610146585" lon="10.06248627597263"><ele>18.75</ele><time>2026-03-28T14:46:46.002Z</time></trkpt><trkpt lat="44.05527272154619" lon="10.062300736576484"><ele>18.5</ele><time>2026-03-28T14:46:47.002Z</time></trkpt><trkpt lat="44.055331211841654" lon="10.062113507815448"><ele>18.25</ele><time>2026-03-28T14:46:48.002Z</time></trkpt><trkpt lat="44.055415153417776" lon="10.061941558386033"><ele>18.0</ele><time>2026-03-28T14:46:49.002Z</time></trkpt><trkpt lat="44.05550876253727" lon="10.061786658476038"><ele>18.0</ele><time>2026-03-28T14:46:50.002Z</time></trkpt><trkpt lat="44.055593893540355" lon="10.061669461316603"><ele>18.0</ele><time>2026-03-28T14:46:51.002Z</time></trkpt><trkpt lat="44.055662753037964" lon="10.061564097584714"><ele>18.0</ele><time>2026-03-28T14:46:52.002Z</time></trkpt><trkpt lat="44.055720989669126" lon="10.061468211212903"><ele>18.0</ele><time>2026-03-28T14:46:53.002Z</time></trkpt><trkpt lat="44.055770475052974" lon="10.061376308578632"><ele>18.0</ele><time>2026-03-28T14:46:54.002Z</time></trkpt><trkpt lat="44.055826190308856" lon="10.061277801237694"><ele>17.8</ele><time>2026-03-28T14:46:55.001Z</time></trkpt><trkpt lat="44.055881970417964" lon="10.061186192530274"><ele>17.6</ele><time>2026-03-28T14:46:56.001Z</time></trkpt><trkpt lat="44.05593604476181" lon="10.061097323973415"><ele>17.4</ele><time>2026-03-28T14:46:57.001Z</time></trkpt><trkpt lat="44.055992122764515" lon="10.060975950530775"><ele>17.2</ele><time>2026-03-28T14:46:58.001Z</time></trkpt><trkpt lat="44.05609567951072" lon="10.060843639907954"><ele>17.0</ele><time>2026-03-28T14:46:59.001Z</time></trkpt><trkpt lat="44.056200400074694" lon="10.060672503306188"><ele>17.0</ele><time>2026-03-28T14:47:00.001Z</time></trkpt><trkpt lat="44.056314691509726" lon="10.060449871689858"><ele>17.0</ele><time>2026-03-28T14:47:01.001Z</time></trkpt><trkpt lat="44.05644610561572" lon="10.060253099656677"><ele>17.0</ele><time>2026-03-28T14:47:02.001Z</time></trkpt><trkpt lat="44.05655001398206" lon="10.06006717110541"><ele>17.0</ele><time>2026-03-28T14:47:03.001Z</time></trkpt><trkpt lat="44.05666754750214" lon="10.059867255979546"><ele>17.0</ele><time>2026-03-28T14:47:04.001Z</time></trkpt><trkpt lat="44.05679593867847" lon="10.059644513613033"><ele>17.0</ele><time>2026-03-28T14:47:05.001Z</time></trkpt><trkpt lat="44.05692007603061" lon="10.059420056653945"><ele>17.0</ele><time>2026-03-28T14:47:06.001Z</time></trkpt><trkpt lat="44.05703769592152" lon="10.059211582097811"><ele>17.0</ele><time>2026-03-28T14:47:07.001Z</time></trkpt><trkpt lat="44.057158085651416" lon="10.059005839973741"><ele>17.0</ele><time>2026-03-28T14:47:08.001Z</time></trkpt><trkpt lat="44.057300716195684" lon="10.058789098614742"><ele>17.0</ele><time>2026-03-28T14:47:09.001Z</time></trkpt><trkpt lat="44.05743148252146" lon="10.058562724461225"><ele>17.0</ele><time>2026-03-28T14:47:10.001Z</time></trkpt><trkpt lat="44.057537006839276" lon="10.058356704138143"><ele>17.0</ele><time>2026-03-28T14:47:11.001Z</time></trkpt><trkpt lat="44.05764434505785" lon="10.05817058418357"><ele>17.0</ele><time>2026-03-28T14:47:12.001Z</time></trkpt><trkpt lat="44.057751727020815" lon="10.057993361095836"><ele>17.0</ele><time>2026-03-28T14:47:13.001Z</time></trkpt><trkpt lat="44.05787475309676" lon="10.057792608184574"><ele>17.0</ele><time>2026-03-28T14:47:14.001Z</time></trkpt><trkpt lat="44.0580127796589" lon="10.057566606145901"><ele>17.0</ele><time>2026-03-28T14:47:15.001Z</time></trkpt><trkpt lat="44.05812327168251" lon="10.057314482054592"><ele>17.0</ele><time>2026-03-28T14:47:16.001Z</time></trkpt><trkpt lat="44.058238319024575" lon="10.057072107678804"><ele>17.0</ele><time>2026-03-28T14:47:17.001Z</time></trkpt><trkpt lat="44.05834503650047" lon="10.056821418700423"><ele>16.333333333333336</ele><time>2026-03-28T14:47:18.001Z</time></trkpt><trkpt lat="44.05841060164084" lon="10.056546356039041"><ele>15.666666666666668</ele><time>2026-03-28T14:47:19.001Z</time></trkpt><trkpt lat="44.05846027055048" lon="10.056273219018026"><ele>15.0</ele><time>2026-03-28T14:47:20.001Z</time></trkpt><trkpt lat="44.058477859836586" lon="10.055972795222113"><ele>15.0</ele><time>2026-03-28T14:47:21.001Z</time></trkpt><trkpt lat="44.058502378348415" lon="10.055664601092984"><ele>15.0</ele><time>2026-03-28T14:47:22.001Z</time></trkpt><trkpt lat="44.058544324942616" lon="10.0553544239493"><ele>15.0</ele><time>2026-03-28T14:47:23.001Z</time></trkpt><trkpt lat="44.05856977940873" lon="10.055039755004469"><ele>15.0</ele><time>2026-03-28T14:47:24.001Z</time></trkpt><trkpt lat="44.05857906505669" lon="10.05472711038051"><ele>14.666666666666668</ele><time>2026-03-28T14:47:25.001Z</time></trkpt><trkpt lat="44.05861784953504" lon="10.054450605801964"><ele>14.333333333333334</ele><time>2026-03-28T14:47:26.001Z</time></trkpt><trkpt lat="44.05864227060352" lon="10.054152339033543"><ele>14.0</ele><time>2026-03-28T14:47:27.001Z</time></trkpt><trkpt lat="44.05866738464256" lon="10.053845608659165"><ele>13.5</ele><time>2026-03-28T14:47:28.001Z</time></trkpt><trkpt lat="44.05869312111426" lon="10.053531276300417"><ele>13.0</ele><time>2026-03-28T14:47:29.001Z</time></trkpt><trkpt lat="44.05870685786197" lon="10.053222434916568"><ele>12.0</ele><time>2026-03-28T14:47:30.001Z</time></trkpt><trkpt lat="44.058742970420326" lon="10.0529033198777"><ele>11.0</ele><time>2026-03-28T14:47:31.001Z</time></trkpt><trkpt lat="44.058752831381774" lon="10.052577378475968"><ele>9.5</ele><time>2026-03-28T14:47:32.001Z</time></trkpt><trkpt lat="44.058795078049165" lon="10.052253724815658"><ele>8.0</ele><time>2026-03-28T14:47:33.001Z</time></trkpt><trkpt lat="44.05882039286053" lon="10.051945643903242"><ele>8.0</ele><time>2026-03-28T14:47:34.001Z</time></trkpt><trkpt lat="44.05882997143863" lon="10.051640086999935"><ele>8.0</ele><time>2026-03-28T14:47:35.001Z</time></trkpt><trkpt lat="44.058870568666755" lon="10.05133368266733"><ele>8.0</ele><time>2026-03-28T14:47:36.001Z</time></trkpt><trkpt lat="44.05889032097248" lon="10.05104351089461"><ele>8.0</ele><time>2026-03-28T14:47:37.001Z</time></trkpt><trkpt lat="44.05891714572509" lon="10.050745565557198"><ele>8.0</ele><time>2026-03-28T14:47:38.001Z</time></trkpt><trkpt lat="44.058950715459595" lon="10.050465292417858"><ele>8.0</ele><time>2026-03-28T14:47:39.001Z</time></trkpt><trkpt lat="44.05895586105971" lon="10.050161186049285"><ele>7.5</ele><time>2026-03-28T14:47:40.001Z</time></trkpt><trkpt lat="44.058980417587726" lon="10.049851839520505"><ele>7.0</ele><time>2026-03-28T14:47:41.001Z</time></trkpt><trkpt lat="44.059011562505006" lon="10.049535837269712"><ele>7.0</ele><time>2026-03-28T14:47:42.001Z</time></trkpt><trkpt lat="44.05903782751008" lon="10.049228308926995"><ele>7.0</ele><time>2026-03-28T14:47:43.001Z</time></trkpt><trkpt lat="44.059049147319264" lon="10.048956192915142"><ele>7.0</ele><time>2026-03-28T14:47:44.001Z</time></trkpt><trkpt lat="44.059061994561965" lon="10.048693011285557"><ele>6.666666666666667</ele><time>2026-03-28T14:47:45.001Z</time></trkpt><trkpt lat="44.05907895889944" lon="10.048430367066057"><ele>6.333333333333334</ele><time>2026-03-28T14:47:46.001Z</time></trkpt><trkpt lat="44.059088245962705" lon="10.048201944759082"><ele>6.0</ele><time>2026-03-28T14:47:47.001Z</time></trkpt><trkpt lat="44.05909705288316" lon="10.048008144032957"><ele>5.666666666666667</ele><time>2026-03-28T14:47:48.001Z</time></trkpt><trkpt lat="44.05914670569117" lon="10.047810801247305"><ele>5.333333333333334</ele><time>2026-03-28T14:47:49.001Z</time></trkpt><trkpt lat="44.059164421468324" lon="10.047593141319037"><ele>5.0</ele><time>2026-03-28T14:47:50.001Z</time></trkpt><trkpt lat="44.05918312392731" lon="10.047363358752854"><ele>5.0</ele><time>2026-03-28T14:47:51.001Z</time></trkpt><trkpt lat="44.059199931139176" lon="10.047154067070972"><ele>5.0</ele><time>2026-03-28T14:47:52.001Z</time></trkpt><trkpt lat="44.05921394207429" lon="10.046980957559773"><ele>5.0</ele><time>2026-03-28T14:47:53.001Z</time></trkpt><trkpt lat="44.05920979996981" lon="10.046849965318454"><ele>5.0</ele><time>2026-03-28T14:47:54.001Z</time></trkpt><trkpt lat="44.05923768299262" lon="10.046757543961913"><ele>5.0</ele><time>2026-03-28T14:47:55.001Z</time></trkpt><trkpt lat="44.059257385138224" lon="10.046639932588125"><ele>5.0</ele><time>2026-03-28T14:47:57.001Z</time></trkpt><trkpt lat="44.05908524723356" lon="10.046517376327087"><ele>5.0</ele><time>2026-03-28T14:47:59.001Z</time></trkpt><trkpt lat="44.05901466769079" lon="10.046479661596264"><ele>5.0</ele><time>2026-03-28T14:48:00.002Z</time></trkpt><trkpt lat="44.05893255521283" lon="10.046417545356435"><ele>5.0</ele><time>2026-03-28T14:48:01.002Z</time></trkpt><trkpt lat="44.058850485554345" lon="10.046347381075208"><ele>5.0</ele><time>2026-03-28T14:48:02.002Z</time></trkpt><trkpt lat="44.05876698927145" lon="10.046275562087233"><ele>5.0</ele><time>2026-03-28T14:48:03.002Z</time></trkpt><trkpt lat="44.05868116356538" lon="10.046199286436156"><ele>5.0</ele><time>2026-03-28T14:48:04.002Z</time></trkpt><trkpt lat="44.058592110419966" lon="10.046122473027717"><ele>5.0</ele><time>2026-03-28T14:48:05.002Z</time></trkpt><trkpt lat="44.05848570845621" lon="10.046039124923528"><ele>5.0</ele><time>2026-03-28T14:48:06.002Z</time></trkpt><trkpt lat="44.05835191782059" lon="10.045965203629091"><ele>5.0</ele><time>2026-03-28T14:48:07.002Z</time></trkpt><trkpt lat="44.05820223175587" lon="10.045889072894"><ele>5.0</ele><time>2026-03-28T14:48:08.002Z</time></trkpt><trkpt lat="44.05804323898764" lon="10.045820919806943"><ele>5.0</ele><time>2026-03-28T14:48:09.002Z</time></trkpt><trkpt lat="44.057893649497515" lon="10.045740614517914"><ele>4.666666666666667</ele><time>2026-03-28T14:48:10.002Z</time></trkpt><trkpt lat="44.05772766206381" lon="10.045692763256616"><ele>4.333333333333333</ele><time>2026-03-28T14:48:11.002Z</time></trkpt><trkpt lat="44.057554821903345" lon="10.045617408743515"><ele>4.0</ele><time>2026-03-28T14:48:12.002Z</time></trkpt><trkpt lat="44.05739894418981" lon="10.045557725568809"><ele>3.6666666666666665</ele><time>2026-03-28T14:48:13.002Z</time></trkpt><trkpt lat="44.057250465746556" lon="10.045471460294204"><ele>3.333333333333333</ele><time>2026-03-28T14:48:14.002Z</time></trkpt><trkpt lat="44.05708985237577" lon="10.045403637483908"><ele>3.0</ele><time>2026-03-28T14:48:15.002Z</time></trkpt><trkpt lat="44.056921760479234" lon="10.045332657244996"><ele>3.0</ele><time>2026-03-28T14:48:16.002Z</time></trkpt><trkpt lat="44.056764182762564" lon="10.045263476819738"><ele>3.0</ele><time>2026-03-28T14:48:17.002Z</time></trkpt><trkpt lat="44.056603208016476" lon="10.045174671525126"><ele>3.0</ele><time>2026-03-28T14:48:18.002Z</time></trkpt><trkpt lat="44.05643756300507" lon="10.045050075192364"><ele>3.0</ele><time>2026-03-28T14:48:19.002Z</time></trkpt><trkpt lat="44.05626921617028" lon="10.04489120688275"><ele>3.0</ele><time>2026-03-28T14:48:20.002Z</time></trkpt><trkpt lat="44.05611089472227" lon="10.04470866408861"><ele>3.0</ele><time>2026-03-28T14:48:21.002Z</time></trkpt><trkpt lat="44.055963067787694" lon="10.044498832996993"><ele>3.0</ele><time>2026-03-28T14:48:22.002Z</time></trkpt><trkpt lat="44.05582408454629" lon="10.044302052282234"><ele>3.0</ele><time>2026-03-28T14:48:23.002Z</time></trkpt><trkpt lat="44.05569606279492" lon="10.0441137020078"><ele>3.0</ele><time>2026-03-28T14:48:24.002Z</time></trkpt><trkpt lat="44.05556084846328" lon="10.0439361847257"><ele>3.0</ele><time>2026-03-28T14:48:25.002Z</time></trkpt><trkpt lat="44.055422839178874" lon="10.043747572956324"><ele>3.0</ele><time>2026-03-28T14:48:26.002Z</time></trkpt><trkpt lat="44.055277843150144" lon="10.043553908876307"><ele>3.0</ele><time>2026-03-28T14:48:27.002Z</time></trkpt><trkpt lat="44.055117488204075" lon="10.043348037822282"><ele>3.0</ele><time>2026-03-28T14:48:28.002Z</time></trkpt><trkpt lat="44.05496595383004" lon="10.043139367761512"><ele>3.0</ele><time>2026-03-28T14:48:29.002Z</time></trkpt><trkpt lat="44.05482911621764" lon="10.042917344980129"><ele>3.0</ele><time>2026-03-28T14:48:30.002Z</time></trkpt><trkpt lat="44.05467849496679" lon="10.042747676830604"><ele>3.0</ele><time>2026-03-28T14:48:31.002Z</time></trkpt><trkpt lat="44.054551131864706" lon="10.042571565481154"><ele>3.0</ele><time>2026-03-28T14:48:32.002Z</time></trkpt><trkpt lat="44.05443211040724" lon="10.042400892655927"><ele>3.0</ele><time>2026-03-28T14:48:33.002Z</time></trkpt><trkpt lat="44.054315144159496" lon="10.042246609271569"><ele>3.0</ele><time>2026-03-28T14:48:34.002Z</time></trkpt><trkpt lat="44.05422473599791" lon="10.042123071661633"><ele>3.0</ele><time>2026-03-28T14:48:35.002Z</time></trkpt><trkpt lat="44.05416093461309" lon="10.04199655833042"><ele>3.0</ele><time>2026-03-28T14:48:36.002Z</time></trkpt><trkpt lat="44.05410360570321" lon="10.041917102960074"><ele>3.0</ele><time>2026-03-28T14:48:37.002Z</time></trkpt><trkpt lat="44.05403129304254" lon="10.041816518722175"><ele>3.0</ele><time>2026-03-28T14:48:39.002Z</time></trkpt><trkpt lat="44.05395112802788" lon="10.041671595520643"><ele>3.25</ele><time>2026-03-28T14:48:51.002Z</time></trkpt><trkpt lat="44.05388582110822" lon="10.041577329899328"><ele>3.5</ele><time>2026-03-28T14:48:52.001Z</time></trkpt><trkpt lat="44.053812181470114" lon="10.041484728455258"><ele>3.75</ele><time>2026-03-28T14:48:53.001Z</time></trkpt><trkpt lat="44.05372264813762" lon="10.041362164573538"><ele>4.0</ele><time>2026-03-28T14:48:54.001Z</time></trkpt><trkpt lat="44.05361756870587" lon="10.041217530176386"><ele>4.0</ele><time>2026-03-28T14:48:55.001Z</time></trkpt><trkpt lat="44.05352038658718" lon="10.041086366962281"><ele>4.0</ele><time>2026-03-28T14:48:56.001Z</time></trkpt><trkpt lat="44.05341615023757" lon="10.040942026609688"><ele>4.0</ele><time>2026-03-28T14:48:57.001Z</time></trkpt><trkpt lat="44.0532979038176" lon="10.040785752979986"><ele>4.0</ele><time>2026-03-28T14:48:58.001Z</time></trkpt><trkpt lat="44.053157328061495" lon="10.040611855307242"><ele>3.333333333333333</ele><time>2026-03-28T14:48:59.001Z</time></trkpt><trkpt lat="44.05301903876372" lon="10.040448123538692"><ele>2.6666666666666665</ele><time>2026-03-28T14:49:00.001Z</time></trkpt><trkpt lat="44.05290003386405" lon="10.040281933828139"><ele>2.0</ele><time>2026-03-28T14:49:01.001Z</time></trkpt><trkpt lat="44.05277734335852" lon="10.040109821171383"><ele>2.0</ele><time>2026-03-28T14:49:02.001Z</time></trkpt><trkpt lat="44.05266610844811" lon="10.039943638277409"><ele>2.0</ele><time>2026-03-28T14:49:03.001Z</time></trkpt><trkpt lat="44.052556707825104" lon="10.039782344753112"><ele>2.0</ele><time>2026-03-28T14:49:04.001Z</time></trkpt><trkpt lat="44.052471763599755" lon="10.039629034530241"><ele>1.9999999999999998</ele><time>2026-03-28T14:49:05.001Z</time></trkpt><trkpt lat="44.05241624075037" lon="10.039488940575493"><ele>2.0</ele><time>2026-03-28T14:49:06.001Z</time></trkpt><trkpt lat="44.052394205847335" lon="10.039376646956331"><ele>2.0</ele><time>2026-03-28T14:49:07.001Z</time></trkpt><trkpt lat="44.052379890645845" lon="10.03928355672912"><ele>2.0</ele><time>2026-03-28T14:49:08.001Z</time></trkpt><trkpt lat="44.05238343767435" lon="10.039177034173962"><ele>1.9999999999999998</ele><time>2026-03-28T14:49:09.001Z</time></trkpt><trkpt lat="44.05240447513763" lon="10.039054473110657"><ele>2.0</ele><time>2026-03-28T14:49:10.001Z</time></trkpt><trkpt lat="44.052413623758525" lon="10.038928831606443"><ele>2.0</ele><time>2026-03-28T14:49:11.001Z</time></trkpt><trkpt lat="44.052350764264276" lon="10.038812112982965"><ele>2.0</ele><time>2026-03-28T14:49:12.001Z</time></trkpt><trkpt lat="44.052254222123615" lon="10.038755244944058"><ele>2.0</ele><time>2026-03-28T14:49:13.001Z</time></trkpt><trkpt lat="44.05211842563727" lon="10.038768266035067"><ele>2.0</ele><time>2026-03-28T14:49:14.001Z</time></trkpt><trkpt lat="44.05197527352336" lon="10.038795917816413"><ele>2.0</ele><time>2026-03-28T14:49:15.001Z</time></trkpt><trkpt lat="44.05181267065131" lon="10.038708410631113"><ele>2.0</ele><time>2026-03-28T14:49:16.001Z</time></trkpt><trkpt lat="44.05166922313112" lon="10.038517588736878"><ele>2.0</ele><time>2026-03-28T14:49:17.001Z</time></trkpt><trkpt lat="44.05154242419929" lon="10.038367783541906"><ele>2.333333333333333</ele><time>2026-03-28T14:49:18.001Z</time></trkpt><trkpt lat="44.051425919809006" lon="10.038185591235125"><ele>2.6666666666666665</ele><time>2026-03-28T14:49:19.001Z</time></trkpt><trkpt lat="44.0512835054718" lon="10.037983681602583"><ele>3.0</ele><time>2026-03-28T14:49:20.001Z</time></trkpt><trkpt lat="44.051128410114124" lon="10.03777338037828"><ele>3.0</ele><time>2026-03-28T14:49:21.001Z</time></trkpt><trkpt lat="44.050964219551005" lon="10.037543456216033"><ele>3.0</ele><time>2026-03-28T14:49:22.001Z</time></trkpt><trkpt lat="44.05079686531146" lon="10.037321450456758"><ele>2.6666666666666665</ele><time>2026-03-28T14:49:23.001Z</time></trkpt><trkpt lat="44.05064458941245" lon="10.037122311636514"><ele>2.333333333333333</ele><time>2026-03-28T14:49:24.001Z</time></trkpt><trkpt lat="44.05051911367027" lon="10.036940700477071"><ele>2.0</ele><time>2026-03-28T14:49:25.001Z</time></trkpt><trkpt lat="44.05039168488621" lon="10.036766868714388"><ele>1.6666666666666665</ele><time>2026-03-28T14:49:26.001Z</time></trkpt><trkpt lat="44.05025798129753" lon="10.036589874071003"><ele>1.3333333333333333</ele><time>2026-03-28T14:49:27.001Z</time></trkpt><trkpt lat="44.05013257331726" lon="10.03640870065371"><ele>1.0</ele><time>2026-03-28T14:49:28.001Z</time></trkpt><trkpt lat="44.05001492856772" lon="10.03623846935635"><ele>1.6666666666666665</ele><time>2026-03-28T14:49:29.001Z</time></trkpt><trkpt lat="44.04988170044216" lon="10.036060002008117"><ele>2.3333333333333335</ele><time>2026-03-28T14:49:30.001Z</time></trkpt><trkpt lat="44.04975295400227" lon="10.035885744841135"><ele>3.0</ele><time>2026-03-28T14:49:31.001Z</time></trkpt><trkpt lat="44.04962585313789" lon="10.035715420258501"><ele>3.0</ele><time>2026-03-28T14:49:32.001Z</time></trkpt><trkpt lat="44.04950949615044" lon="10.035549465920186"><ele>3.0</ele><time>2026-03-28T14:49:33.001Z</time></trkpt><trkpt lat="44.04937258941401" lon="10.035377664515845"><ele>3.0</ele><time>2026-03-28T14:49:34.001Z</time></trkpt><trkpt lat="44.04923680576711" lon="10.035188958703458"><ele>3.333333333333333</ele><time>2026-03-28T14:49:35.001Z</time></trkpt><trkpt lat="44.04907076673348" lon="10.03498658128952"><ele>3.6666666666666665</ele><time>2026-03-28T14:49:36.001Z</time></trkpt><trkpt lat="44.04891672950887" lon="10.034779000970767"><ele>4.0</ele><time>2026-03-28T14:49:37.001Z</time></trkpt><trkpt lat="44.04877978484824" lon="10.03458016746235"><ele>3.333333333333333</ele><time>2026-03-28T14:49:38.001Z</time></trkpt><trkpt lat="44.04865975763076" lon="10.034377739829704"><ele>2.6666666666666665</ele><time>2026-03-28T14:49:39.001Z</time></trkpt><trkpt lat="44.04853876504545" lon="10.03423305862803"><ele>2.0</ele><time>2026-03-28T14:49:40.001Z</time></trkpt><trkpt lat="44.04842226681019" lon="10.03408810658974"><ele>2.333333333333333</ele><time>2026-03-28T14:49:41.001Z</time></trkpt><trkpt lat="44.048287731765384" lon="10.033972564757375"><ele>2.6666666666666665</ele><time>2026-03-28T14:49:42.001Z</time></trkpt><trkpt lat="44.04816034746851" lon="10.033855358551932"><ele>3.0</ele><time>2026-03-28T14:49:43.001Z</time></trkpt><trkpt lat="44.047998536581815" lon="10.033762331026244"><ele>3.0</ele><time>2026-03-28T14:49:44.001Z</time></trkpt><trkpt lat="44.04783910118225" lon="10.033701429819281"><ele>3.0</ele><time>2026-03-28T14:49:45.001Z</time></trkpt><trkpt lat="44.04768808322297" lon="10.033633383935607"><ele>3.0</ele><time>2026-03-28T14:49:46.001Z</time></trkpt><trkpt lat="44.04753623160535" lon="10.03357438068634"><ele>4.0</ele><time>2026-03-28T14:49:47.001Z</time></trkpt><trkpt lat="44.047373108314495" lon="10.033484746316207"><ele>5.0</ele><time>2026-03-28T14:49:48.001Z</time></trkpt><trkpt lat="44.047201769715905" lon="10.033410003790767"><ele>6.0</ele><time>2026-03-28T14:49:49.001Z</time></trkpt><trkpt lat="44.04702826130851" lon="10.033350449081814"><ele>5.666666666666667</ele><time>2026-03-28T14:49:50.001Z</time></trkpt><trkpt lat="44.04686210112616" lon="10.033268748077182"><ele>5.333333333333334</ele><time>2026-03-28T14:49:51.001Z</time></trkpt><trkpt lat="44.0467015084968" lon="10.03320033629592"><ele>5.0</ele><time>2026-03-28T14:49:52.001Z</time></trkpt><trkpt lat="44.046557631490096" lon="10.033133096388024"><ele>5.0</ele><time>2026-03-28T14:49:53.001Z</time></trkpt><trkpt lat="44.04641774044518" lon="10.033059018367625"><ele>5.0</ele><time>2026-03-28T14:49:54.001Z</time></trkpt><trkpt lat="44.04628817255877" lon="10.032999773990946"><ele>5.0</ele><time>2026-03-28T14:49:55.001Z</time></trkpt><trkpt lat="44.04617144444879" lon="10.032942078212537"><ele>5.0</ele><time>2026-03-28T14:49:56.001Z</time></trkpt><trkpt lat="44.04606534955676" lon="10.032897379547569"><ele>5.0</ele><time>2026-03-28T14:49:57.001Z</time></trkpt><trkpt lat="44.04597462438464" lon="10.032851046025112"><ele>5.0</ele><time>2026-03-28T14:49:58.001Z</time></trkpt><trkpt lat="44.045904385430816" lon="10.032808777255044"><ele>5.0</ele><time>2026-03-28T14:49:59.001Z</time></trkpt><trkpt lat="44.04583410512698" lon="10.032792776092089"><ele>5.0</ele><time>2026-03-28T14:50:00.001Z</time></trkpt><trkpt lat="44.045767915351426" lon="10.032750380342343"><ele>5.0</ele><time>2026-03-28T14:50:02.001Z</time></trkpt><trkpt lat="44.04566377955773" lon="10.032557671260681"><ele>5.0</ele><time>2026-03-28T14:50:38.002Z</time></trkpt><trkpt lat="44.045703523407795" lon="10.03244918972948"><ele>5.0</ele><time>2026-03-28T14:50:39.002Z</time></trkpt><trkpt lat="44.04573289233463" lon="10.032344006345948"><ele>5.0</ele><time>2026-03-28T14:50:40.002Z</time></trkpt><trkpt lat="44.04575740489688" lon="10.032239967474899"><ele>5.0</ele><time>2026-03-28T14:50:41.002Z</time></trkpt><trkpt lat="44.04579364522313" lon="10.032096792512881"><ele>5.0</ele><time>2026-03-28T14:50:42.002Z</time></trkpt><trkpt lat="44.0458388034827" lon="10.031931158647408"><ele>5.0</ele><time>2026-03-28T14:50:43.002Z</time></trkpt><trkpt lat="44.04587795676981" lon="10.031789688284217"><ele>5.0</ele><time>2026-03-28T14:50:44.002Z</time></trkpt><trkpt lat="44.04592796358841" lon="10.031641301378084"><ele>5.0</ele><time>2026-03-28T14:50:45.002Z</time></trkpt><trkpt lat="44.045978394143496" lon="10.03147062040537"><ele>5.0</ele><time>2026-03-28T14:50:46.002Z</time></trkpt><trkpt lat="44.046008142225375" lon="10.031276235567285"><ele>5.0</ele><time>2026-03-28T14:50:47.002Z</time></trkpt><trkpt lat="44.04606462722186" lon="10.031112627227797"><ele>5.0</ele><time>2026-03-28T14:50:48.002Z</time></trkpt><trkpt lat="44.04609914173784" lon="10.030947260498777"><ele>5.0</ele><time>2026-03-28T14:50:49.002Z</time></trkpt><trkpt lat="44.046143444571904" lon="10.030795448537315"><ele>5.0</ele><time>2026-03-28T14:50:50.002Z</time></trkpt><trkpt lat="44.04618956619505" lon="10.030642146223707"><ele>4.75</ele><time>2026-03-28T14:50:51.002Z</time></trkpt><trkpt lat="44.046235258701294" lon="10.03047209781409"><ele>4.5</ele><time>2026-03-28T14:50:52.002Z</time></trkpt><trkpt lat="44.04628565216607" lon="10.030297096580245"><ele>4.25</ele><time>2026-03-28T14:50:53.002Z</time></trkpt><trkpt lat="44.04633855213106" lon="10.030114373191537"><ele>4.0</ele><time>2026-03-28T14:50:54.002Z</time></trkpt><trkpt lat="44.04639762021185" lon="10.029920679302888"><ele>3.25</ele><time>2026-03-28T14:50:55.002Z</time></trkpt><trkpt lat="44.04644946923882" lon="10.029727356692073"><ele>2.5</ele><time>2026-03-28T14:50:56.002Z</time></trkpt><trkpt lat="44.04650137025473" lon="10.02953303726139"><ele>1.75</ele><time>2026-03-28T14:50:57.002Z</time></trkpt><trkpt lat="44.04655389648201" lon="10.029346474210104"><ele>1.0</ele><time>2026-03-28T14:50:58.001Z</time></trkpt><trkpt lat="44.0465979730413" lon="10.029174276866808"><ele>1.3333333333333333</ele><time>2026-03-28T14:50:59.001Z</time></trkpt><trkpt lat="44.04665276786654" lon="10.028980777691233"><ele>1.6666666666666665</ele><time>2026-03-28T14:51:00.001Z</time></trkpt><trkpt lat="44.04671149484367" lon="10.028767363911054"><ele>2.0</ele><time>2026-03-28T14:51:01.001Z</time></trkpt><trkpt lat="44.04677120265375" lon="10.02853847974965"><ele>2.0</ele><time>2026-03-28T14:51:02.001Z</time></trkpt><trkpt lat="44.046827827889956" lon="10.028331182187882"><ele>2.0</ele><time>2026-03-28T14:51:03.001Z</time></trkpt><trkpt lat="44.04687374721687" lon="10.028156521767988"><ele>2.0</ele><time>2026-03-28T14:51:04.001Z</time></trkpt><trkpt lat="44.04691409163206" lon="10.028030666077118"><ele>2.0</ele><time>2026-03-28T14:51:05.001Z</time></trkpt><trkpt lat="44.0469511285487" lon="10.027944938208403"><ele>2.2</ele><time>2026-03-28T14:51:06.001Z</time></trkpt><trkpt lat="44.04694774417137" lon="10.027846745570374"><ele>2.4000000000000004</ele><time>2026-03-28T14:51:07.001Z</time></trkpt><trkpt lat="44.046817505714046" lon="10.027720861275096"><ele>2.5999999999999996</ele><time>2026-03-28T14:51:09.001Z</time></trkpt><trkpt lat="44.04672653899353" lon="10.027698783476064"><ele>2.8</ele><time>2026-03-28T14:51:10.001Z</time></trkpt><trkpt lat="44.04664214747188" lon="10.027650263924224"><ele>3.0</ele><time>2026-03-28T14:51:11.001Z</time></trkpt><trkpt lat="44.046537681149786" lon="10.02758760775943"><ele>2.6666666666666665</ele><time>2026-03-28T14:51:12.001Z</time></trkpt><trkpt lat="44.04642231381021" lon="10.027497421843943"><ele>2.333333333333333</ele><time>2026-03-28T14:51:13.001Z</time></trkpt><trkpt lat="44.04627711986563" lon="10.02741044582409"><ele>2.0</ele><time>2026-03-28T14:51:14.001Z</time></trkpt><trkpt lat="44.046113555185734" lon="10.027306646239238"><ele>2.0</ele><time>2026-03-28T14:51:15.001Z</time></trkpt><trkpt lat="44.045964178927655" lon="10.02723432443597"><ele>2.0</ele><time>2026-03-28T14:51:16.001Z</time></trkpt><trkpt lat="44.045831678481996" lon="10.027162076025933"><ele>2.0</ele><time>2026-03-28T14:51:17.001Z</time></trkpt><trkpt lat="44.045693098588046" lon="10.027069828949966"><ele>2.0</ele><time>2026-03-28T14:51:18.001Z</time></trkpt><trkpt lat="44.045571729099066" lon="10.02698013622976"><ele>2.0</ele><time>2026-03-28T14:51:19.001Z</time></trkpt><trkpt lat="44.045458082413" lon="10.026905206774499"><ele>2.0</ele><time>2026-03-28T14:51:20.001Z</time></trkpt><trkpt lat="44.04535945269845" lon="10.026833526369947"><ele>2.0</ele><time>2026-03-28T14:51:21.001Z</time></trkpt><trkpt lat="44.04527079235338" lon="10.026745998987906"><ele>2.0</ele><time>2026-03-28T14:51:22.001Z</time></trkpt><trkpt lat="44.04515194022252" lon="10.026652347558926"><ele>2.0</ele><time>2026-03-28T14:51:23.001Z</time></trkpt><trkpt lat="44.04503919591211" lon="10.026562774537355"><ele>2.0</ele><time>2026-03-28T14:51:24.001Z</time></trkpt><trkpt lat="44.04494922686064" lon="10.026486051707527"><ele>2.0</ele><time>2026-03-28T14:51:25.001Z</time></trkpt><trkpt lat="44.04486794939524" lon="10.026409585789372"><ele>2.2</ele><time>2026-03-28T14:51:26.001Z</time></trkpt><trkpt lat="44.04479955041845" lon="10.026343584812375"><ele>2.4000000000000004</ele><time>2026-03-28T14:51:27.001Z</time></trkpt><trkpt lat="44.044737303201956" lon="10.026295300918342"><ele>2.5999999999999996</ele><time>2026-03-28T14:51:28.001Z</time></trkpt><trkpt lat="44.0446795992387" lon="10.026253117497376"><ele>2.8</ele><time>2026-03-28T14:51:29.001Z</time></trkpt><trkpt lat="44.04457819550624" lon="10.026198047065877"><ele>3.0</ele><time>2026-03-28T14:51:31.001Z</time></trkpt><trkpt lat="44.044470955434825" lon="10.02611226058436"><ele>3.0</ele><time>2026-03-28T14:51:33.001Z</time></trkpt><trkpt lat="44.0444130404911" lon="10.026074991612306"><ele>3.0</ele><time>2026-03-28T14:51:34.001Z</time></trkpt><trkpt lat="44.04435308833131" lon="10.026010664645396"><ele>3.0</ele><time>2026-03-28T14:51:36.001Z</time></trkpt><trkpt lat="44.044425825464444" lon="10.026077697117985"><ele>3.0</ele><time>2026-03-28T14:51:47.001Z</time></trkpt><trkpt lat="44.04448369639711" lon="10.026217273812781"><ele>3.0</ele><time>2026-03-28T14:51:49.001Z</time></trkpt><trkpt lat="44.044520631535896" lon="10.02628897468437"><ele>3.0</ele><time>2026-03-28T14:51:51.001Z</time></trkpt><trkpt lat="44.04461061238822" lon="10.026329661760354"><ele>3.0</ele><time>2026-03-28T14:51:53.001Z</time></trkpt><trkpt lat="44.0447063248445" lon="10.026390996894918"><ele>3.0</ele><time>2026-03-28T14:51:55.001Z</time></trkpt><trkpt lat="44.04476981772514" lon="10.026397060565325"><ele>3.0</ele><time>2026-03-28T14:51:58.001Z</time></trkpt><trkpt lat="44.044872251305385" lon="10.0264216116038"><ele>3.0</ele><time>2026-03-28T14:52:01.001Z</time></trkpt><trkpt lat="44.044959907054036" lon="10.026441413786364"><ele>3.0</ele><time>2026-03-28T14:52:03.001Z</time></trkpt><trkpt lat="44.0449545982867" lon="10.026528841550348"><ele>3.0</ele><time>2026-03-28T14:52:17.001Z</time></trkpt><trkpt lat="44.04488006814746" lon="10.026533549903752"><ele>3.0</ele><time>2026-03-28T14:52:22.001Z</time></trkpt><trkpt lat="44.04481578197233" lon="10.026468376873954"><ele>3.0</ele><time>2026-03-28T14:52:27.001Z</time></trkpt><trkpt lat="44.04475321734709" lon="10.026442495981701"><ele>3.0</ele><time>2026-03-28T14:52:31.001Z</time></trkpt><trkpt lat="44.04469494313551" lon="10.026503551411555"><ele>3.0</ele><time>2026-03-28T14:52:36.001Z</time></trkpt></trkseg></trk></gpx>